source: josm/trunk/test/data/regress/12255/bobrava2.gpx @ 10880

Last change on this file since 10880 was 9660, checked in by Don-vip, 6 years ago

GeoImageLayer: add unit test, fix sonar issues, add javadoc

File size: 568.8 KB
Line 
1<?xml version="1.0" encoding="UTF-8"?>
2<gpx creator="StravaGPX" version="1.1" xmlns="http://www.topografix.com/GPX/1/1" xmlns:xsi="http://www.w3.org/2001/XMLSchema-instance" xsi:schemaLocation="http://www.topografix.com/GPX/1/1 http://www.topografix.com/GPX/1/1/gpx.xsd http://www.garmin.com/xmlschemas/GpxExtensions/v3 http://www.garmin.com/xmlschemas/GpxExtensionsv3.xsd http://www.garmin.com/xmlschemas/TrackPointExtension/v1 http://www.garmin.com/xmlschemas/TrackPointExtensionv1.xsd http://www.garmin.com/xmlschemas/GpxExtensions/v3 http://www.garmin.com/xmlschemas/GpxExtensionsv3.xsd http://www.garmin.com/xmlschemas/TrackPointExtension/v1 http://www.garmin.com/xmlschemas/TrackPointExtensionv1.xsd">
3 <metadata>
4  <time>2016-01-06T08:58:23Z</time>
5 </metadata>
6 <trk>
7  <name>Zasněženou Bobravou #mapillary</name>
8  <trkseg>
9   <trkpt lat="49.1929920" lon="16.6282970">
10    <ele>195.8</ele>
11    <time>2016-01-06T09:05:27Z</time>
12   </trkpt>
13   <trkpt lat="49.1929400" lon="16.6282900">
14    <ele>196.0</ele>
15    <time>2016-01-06T09:05:28Z</time>
16   </trkpt>
17   <trkpt lat="49.1928210" lon="16.6282720">
18    <ele>196.3</ele>
19    <time>2016-01-06T09:05:30Z</time>
20   </trkpt>
21   <trkpt lat="49.1927630" lon="16.6282690">
22    <ele>196.4</ele>
23    <time>2016-01-06T09:05:31Z</time>
24   </trkpt>
25   <trkpt lat="49.1927040" lon="16.6282620">
26    <ele>196.5</ele>
27    <time>2016-01-06T09:05:32Z</time>
28   </trkpt>
29   <trkpt lat="49.1926500" lon="16.6282580">
30    <ele>196.7</ele>
31    <time>2016-01-06T09:05:33Z</time>
32   </trkpt>
33   <trkpt lat="49.1925590" lon="16.6282500">
34    <ele>196.8</ele>
35    <time>2016-01-06T09:05:35Z</time>
36   </trkpt>
37   <trkpt lat="49.1925100" lon="16.6282430">
38    <ele>196.9</ele>
39    <time>2016-01-06T09:05:36Z</time>
40   </trkpt>
41   <trkpt lat="49.1924020" lon="16.6282290">
42    <ele>197.0</ele>
43    <time>2016-01-06T09:05:38Z</time>
44   </trkpt>
45   <trkpt lat="49.1923500" lon="16.6282200">
46    <ele>197.1</ele>
47    <time>2016-01-06T09:05:39Z</time>
48   </trkpt>
49   <trkpt lat="49.1922950" lon="16.6282120">
50    <ele>197.2</ele>
51    <time>2016-01-06T09:05:40Z</time>
52   </trkpt>
53   <trkpt lat="49.1922440" lon="16.6282040">
54    <ele>197.1</ele>
55    <time>2016-01-06T09:05:41Z</time>
56   </trkpt>
57   <trkpt lat="49.1921420" lon="16.6281790">
58    <ele>197.3</ele>
59    <time>2016-01-06T09:05:43Z</time>
60   </trkpt>
61   <trkpt lat="49.1920500" lon="16.6281660">
62    <ele>197.3</ele>
63    <time>2016-01-06T09:05:45Z</time>
64   </trkpt>
65   <trkpt lat="49.1919800" lon="16.6281600">
66    <ele>197.6</ele>
67    <time>2016-01-06T09:05:47Z</time>
68   </trkpt>
69   <trkpt lat="49.1919410" lon="16.6281520">
70    <ele>197.6</ele>
71    <time>2016-01-06T09:05:48Z</time>
72   </trkpt>
73   <trkpt lat="49.1918700" lon="16.6281340">
74    <ele>197.7</ele>
75    <time>2016-01-06T09:05:50Z</time>
76   </trkpt>
77   <trkpt lat="49.1918350" lon="16.6281250">
78    <ele>197.7</ele>
79    <time>2016-01-06T09:05:51Z</time>
80   </trkpt>
81   <trkpt lat="49.1917840" lon="16.6281140">
82    <ele>197.7</ele>
83    <time>2016-01-06T09:05:52Z</time>
84   </trkpt>
85   <trkpt lat="49.1917300" lon="16.6281000">
86    <ele>197.5</ele>
87    <time>2016-01-06T09:05:53Z</time>
88   </trkpt>
89   <trkpt lat="49.1916190" lon="16.6280800">
90    <ele>197.3</ele>
91    <time>2016-01-06T09:05:55Z</time>
92   </trkpt>
93   <trkpt lat="49.1915390" lon="16.6280660">
94    <ele>196.9</ele>
95    <time>2016-01-06T09:05:57Z</time>
96   </trkpt>
97   <trkpt lat="49.1915020" lon="16.6280580">
98    <ele>196.9</ele>
99    <time>2016-01-06T09:05:58Z</time>
100   </trkpt>
101   <trkpt lat="49.1914280" lon="16.6280190">
102    <ele>196.7</ele>
103    <time>2016-01-06T09:06:00Z</time>
104   </trkpt>
105   <trkpt lat="49.1913990" lon="16.6280040">
106    <ele>196.7</ele>
107    <time>2016-01-06T09:06:01Z</time>
108   </trkpt>
109   <trkpt lat="49.1913430" lon="16.6280010">
110    <ele>196.0</ele>
111    <time>2016-01-06T09:06:05Z</time>
112   </trkpt>
113   <trkpt lat="49.1913060" lon="16.6279990">
114    <ele>195.9</ele>
115    <time>2016-01-06T09:06:07Z</time>
116   </trkpt>
117   <trkpt lat="49.1912580" lon="16.6279910">
118    <ele>195.8</ele>
119    <time>2016-01-06T09:06:09Z</time>
120   </trkpt>
121   <trkpt lat="49.1911560" lon="16.6280080">
122    <ele>196.3</ele>
123    <time>2016-01-06T09:06:13Z</time>
124   </trkpt>
125   <trkpt lat="49.1911060" lon="16.6280140">
126    <ele>196.4</ele>
127    <time>2016-01-06T09:06:14Z</time>
128   </trkpt>
129   <trkpt lat="49.1910090" lon="16.6280340">
130    <ele>196.9</ele>
131    <time>2016-01-06T09:06:16Z</time>
132   </trkpt>
133   <trkpt lat="49.1909600" lon="16.6280440">
134    <ele>197.1</ele>
135    <time>2016-01-06T09:06:17Z</time>
136   </trkpt>
137   <trkpt lat="49.1908550" lon="16.6280670">
138    <ele>196.9</ele>
139    <time>2016-01-06T09:06:19Z</time>
140   </trkpt>
141   <trkpt lat="49.1907200" lon="16.6281030">
142    <ele>196.9</ele>
143    <time>2016-01-06T09:06:21Z</time>
144   </trkpt>
145   <trkpt lat="49.1906520" lon="16.6281270">
146    <ele>196.8</ele>
147    <time>2016-01-06T09:06:22Z</time>
148   </trkpt>
149   <trkpt lat="49.1905800" lon="16.6281560">
150    <ele>196.7</ele>
151    <time>2016-01-06T09:06:23Z</time>
152   </trkpt>
153   <trkpt lat="49.1904320" lon="16.6282140">
154    <ele>196.8</ele>
155    <time>2016-01-06T09:06:25Z</time>
156   </trkpt>
157   <trkpt lat="49.1903620" lon="16.6282380">
158    <ele>196.8</ele>
159    <time>2016-01-06T09:06:26Z</time>
160   </trkpt>
161   <trkpt lat="49.1902390" lon="16.6282780">
162    <ele>196.8</ele>
163    <time>2016-01-06T09:06:28Z</time>
164   </trkpt>
165   <trkpt lat="49.1901180" lon="16.6283190">
166    <ele>196.7</ele>
167    <time>2016-01-06T09:06:30Z</time>
168   </trkpt>
169   <trkpt lat="49.1900260" lon="16.6283460">
170    <ele>196.6</ele>
171    <time>2016-01-06T09:06:32Z</time>
172   </trkpt>
173   <trkpt lat="49.1899320" lon="16.6283580">
174    <ele>196.4</ele>
175    <time>2016-01-06T09:06:34Z</time>
176   </trkpt>
177   <trkpt lat="49.1898260" lon="16.6283760">
178    <ele>196.2</ele>
179    <time>2016-01-06T09:06:36Z</time>
180   </trkpt>
181   <trkpt lat="49.1897690" lon="16.6283870">
182    <ele>196.1</ele>
183    <time>2016-01-06T09:06:37Z</time>
184   </trkpt>
185   <trkpt lat="49.1897080" lon="16.6283980">
186    <ele>196.0</ele>
187    <time>2016-01-06T09:06:38Z</time>
188   </trkpt>
189   <trkpt lat="49.1896460" lon="16.6284100">
190    <ele>195.9</ele>
191    <time>2016-01-06T09:06:39Z</time>
192   </trkpt>
193   <trkpt lat="49.1895330" lon="16.6284320">
194    <ele>195.4</ele>
195    <time>2016-01-06T09:06:41Z</time>
196   </trkpt>
197   <trkpt lat="49.1894080" lon="16.6284520">
198    <ele>195.2</ele>
199    <time>2016-01-06T09:06:43Z</time>
200   </trkpt>
201   <trkpt lat="49.1892710" lon="16.6284700">
202    <ele>195.1</ele>
203    <time>2016-01-06T09:06:45Z</time>
204   </trkpt>
205   <trkpt lat="49.1891450" lon="16.6284580">
206    <ele>194.5</ele>
207    <time>2016-01-06T09:06:47Z</time>
208   </trkpt>
209   <trkpt lat="49.1890980" lon="16.6284440">
210    <ele>194.3</ele>
211    <time>2016-01-06T09:06:48Z</time>
212   </trkpt>
213   <trkpt lat="49.1890210" lon="16.6284160">
214    <ele>194.1</ele>
215    <time>2016-01-06T09:06:50Z</time>
216   </trkpt>
217   <trkpt lat="49.1889740" lon="16.6283950">
218    <ele>194.1</ele>
219    <time>2016-01-06T09:06:52Z</time>
220   </trkpt>
221   <trkpt lat="49.1889340" lon="16.6283910">
222    <ele>194.0</ele>
223    <time>2016-01-06T09:06:54Z</time>
224   </trkpt>
225   <trkpt lat="49.1888850" lon="16.6283960">
226    <ele>193.8</ele>
227    <time>2016-01-06T09:06:56Z</time>
228   </trkpt>
229   <trkpt lat="49.1888370" lon="16.6284020">
230    <ele>193.6</ele>
231    <time>2016-01-06T09:06:58Z</time>
232   </trkpt>
233   <trkpt lat="49.1888140" lon="16.6284300">
234    <ele>193.4</ele>
235    <time>2016-01-06T09:07:00Z</time>
236   </trkpt>
237   <trkpt lat="49.1887900" lon="16.6284720">
238    <ele>193.3</ele>
239    <time>2016-01-06T09:07:02Z</time>
240   </trkpt>
241   <trkpt lat="49.1887580" lon="16.6285130">
242    <ele>192.7</ele>
243    <time>2016-01-06T09:07:04Z</time>
244   </trkpt>
245   <trkpt lat="49.1887110" lon="16.6285460">
246    <ele>191.9</ele>
247    <time>2016-01-06T09:07:06Z</time>
248   </trkpt>
249   <trkpt lat="49.1886620" lon="16.6285780">
250    <ele>191.4</ele>
251    <time>2016-01-06T09:07:08Z</time>
252   </trkpt>
253   <trkpt lat="49.1886070" lon="16.6286250">
254    <ele>191.0</ele>
255    <time>2016-01-06T09:07:10Z</time>
256   </trkpt>
257   <trkpt lat="49.1885620" lon="16.6286730">
258    <ele>190.9</ele>
259    <time>2016-01-06T09:07:12Z</time>
260   </trkpt>
261   <trkpt lat="49.1885180" lon="16.6287260">
262    <ele>190.7</ele>
263    <time>2016-01-06T09:07:14Z</time>
264   </trkpt>
265   <trkpt lat="49.1884690" lon="16.6287580">
266    <ele>190.7</ele>
267    <time>2016-01-06T09:07:16Z</time>
268   </trkpt>
269   <trkpt lat="49.1884380" lon="16.6287680">
270    <ele>190.7</ele>
271    <time>2016-01-06T09:07:17Z</time>
272   </trkpt>
273   <trkpt lat="49.1883770" lon="16.6287880">
274    <ele>190.5</ele>
275    <time>2016-01-06T09:07:19Z</time>
276   </trkpt>
277   <trkpt lat="49.1883270" lon="16.6287980">
278    <ele>190.5</ele>
279    <time>2016-01-06T09:07:21Z</time>
280   </trkpt>
281   <trkpt lat="49.1882840" lon="16.6287960">
282    <ele>190.5</ele>
283    <time>2016-01-06T09:07:23Z</time>
284   </trkpt>
285   <trkpt lat="49.1882440" lon="16.6288140">
286    <ele>190.8</ele>
287    <time>2016-01-06T09:07:58Z</time>
288   </trkpt>
289   <trkpt lat="49.1882070" lon="16.6288330">
290    <ele>191.0</ele>
291    <time>2016-01-06T09:08:00Z</time>
292   </trkpt>
293   <trkpt lat="49.1881750" lon="16.6288400">
294    <ele>191.1</ele>
295    <time>2016-01-06T09:08:01Z</time>
296   </trkpt>
297   <trkpt lat="49.1881280" lon="16.6288510">
298    <ele>191.1</ele>
299    <time>2016-01-06T09:08:02Z</time>
300   </trkpt>
301   <trkpt lat="49.1880790" lon="16.6288640">
302    <ele>191.0</ele>
303    <time>2016-01-06T09:08:03Z</time>
304   </trkpt>
305   <trkpt lat="49.1879760" lon="16.6288870">
306    <ele>190.8</ele>
307    <time>2016-01-06T09:08:05Z</time>
308   </trkpt>
309   <trkpt lat="49.1878670" lon="16.6289120">
310    <ele>190.6</ele>
311    <time>2016-01-06T09:08:07Z</time>
312   </trkpt>
313   <trkpt lat="49.1878120" lon="16.6289250">
314    <ele>190.5</ele>
315    <time>2016-01-06T09:08:08Z</time>
316   </trkpt>
317   <trkpt lat="49.1876980" lon="16.6289510">
318    <ele>190.4</ele>
319    <time>2016-01-06T09:08:10Z</time>
320   </trkpt>
321   <trkpt lat="49.1875740" lon="16.6289900">
322    <ele>190.2</ele>
323    <time>2016-01-06T09:08:12Z</time>
324   </trkpt>
325   <trkpt lat="49.1875150" lon="16.6290020">
326    <ele>190.1</ele>
327    <time>2016-01-06T09:08:13Z</time>
328   </trkpt>
329   <trkpt lat="49.1874110" lon="16.6290200">
330    <ele>190.1</ele>
331    <time>2016-01-06T09:08:15Z</time>
332   </trkpt>
333   <trkpt lat="49.1873690" lon="16.6290280">
334    <ele>190.2</ele>
335    <time>2016-01-06T09:08:16Z</time>
336   </trkpt>
337   <trkpt lat="49.1872750" lon="16.6290440">
338    <ele>190.2</ele>
339    <time>2016-01-06T09:08:18Z</time>
340   </trkpt>
341   <trkpt lat="49.1871780" lon="16.6290600">
342    <ele>190.4</ele>
343    <time>2016-01-06T09:08:20Z</time>
344   </trkpt>
345   <trkpt lat="49.1870870" lon="16.6290760">
346    <ele>190.6</ele>
347    <time>2016-01-06T09:08:22Z</time>
348   </trkpt>
349   <trkpt lat="49.1870480" lon="16.6290800">
350    <ele>190.7</ele>
351    <time>2016-01-06T09:08:23Z</time>
352   </trkpt>
353   <trkpt lat="49.1870090" lon="16.6290820">
354    <ele>190.7</ele>
355    <time>2016-01-06T09:08:24Z</time>
356   </trkpt>
357   <trkpt lat="49.1869680" lon="16.6290840">
358    <ele>190.6</ele>
359    <time>2016-01-06T09:08:25Z</time>
360   </trkpt>
361   <trkpt lat="49.1868740" lon="16.6290940">
362    <ele>190.5</ele>
363    <time>2016-01-06T09:08:27Z</time>
364   </trkpt>
365   <trkpt lat="49.1868270" lon="16.6291020">
366    <ele>190.4</ele>
367    <time>2016-01-06T09:08:28Z</time>
368   </trkpt>
369   <trkpt lat="49.1867750" lon="16.6291140">
370    <ele>190.3</ele>
371    <time>2016-01-06T09:08:29Z</time>
372   </trkpt>
373   <trkpt lat="49.1866720" lon="16.6291410">
374    <ele>190.3</ele>
375    <time>2016-01-06T09:08:31Z</time>
376   </trkpt>
377   <trkpt lat="49.1865570" lon="16.6291660">
378    <ele>190.3</ele>
379    <time>2016-01-06T09:08:33Z</time>
380   </trkpt>
381   <trkpt lat="49.1864990" lon="16.6291780">
382    <ele>190.0</ele>
383    <time>2016-01-06T09:08:34Z</time>
384   </trkpt>
385   <trkpt lat="49.1863930" lon="16.6292040">
386    <ele>189.7</ele>
387    <time>2016-01-06T09:08:36Z</time>
388   </trkpt>
389   <trkpt lat="49.1863420" lon="16.6292140">
390    <ele>189.6</ele>
391    <time>2016-01-06T09:08:37Z</time>
392   </trkpt>
393   <trkpt lat="49.1862910" lon="16.6292270">
394    <ele>189.8</ele>
395    <time>2016-01-06T09:08:38Z</time>
396   </trkpt>
397   <trkpt lat="49.1862390" lon="16.6292460">
398    <ele>190.1</ele>
399    <time>2016-01-06T09:08:39Z</time>
400   </trkpt>
401   <trkpt lat="49.1861340" lon="16.6292780">
402    <ele>190.0</ele>
403    <time>2016-01-06T09:08:41Z</time>
404   </trkpt>
405   <trkpt lat="49.1860280" lon="16.6293000">
406    <ele>190.0</ele>
407    <time>2016-01-06T09:08:43Z</time>
408   </trkpt>
409   <trkpt lat="49.1859700" lon="16.6293120">
410    <ele>189.9</ele>
411    <time>2016-01-06T09:08:44Z</time>
412   </trkpt>
413   <trkpt lat="49.1859180" lon="16.6293220">
414    <ele>189.8</ele>
415    <time>2016-01-06T09:08:45Z</time>
416   </trkpt>
417   <trkpt lat="49.1858620" lon="16.6293350">
418    <ele>189.7</ele>
419    <time>2016-01-06T09:08:46Z</time>
420   </trkpt>
421   <trkpt lat="49.1857360" lon="16.6293560">
422    <ele>189.4</ele>
423    <time>2016-01-06T09:08:48Z</time>
424   </trkpt>
425   <trkpt lat="49.1856220" lon="16.6293710">
426    <ele>189.4</ele>
427    <time>2016-01-06T09:08:50Z</time>
428   </trkpt>
429   <trkpt lat="49.1855050" lon="16.6293990">
430    <ele>189.6</ele>
431    <time>2016-01-06T09:08:52Z</time>
432   </trkpt>
433   <trkpt lat="49.1854010" lon="16.6294220">
434    <ele>190.1</ele>
435    <time>2016-01-06T09:08:54Z</time>
436   </trkpt>
437   <trkpt lat="49.1853500" lon="16.6294360">
438    <ele>190.2</ele>
439    <time>2016-01-06T09:08:55Z</time>
440   </trkpt>
441   <trkpt lat="49.1852340" lon="16.6294590">
442    <ele>190.2</ele>
443    <time>2016-01-06T09:08:57Z</time>
444   </trkpt>
445   <trkpt lat="49.1851720" lon="16.6294690">
446    <ele>190.3</ele>
447    <time>2016-01-06T09:08:58Z</time>
448   </trkpt>
449   <trkpt lat="49.1851150" lon="16.6294780">
450    <ele>190.3</ele>
451    <time>2016-01-06T09:08:59Z</time>
452   </trkpt>
453   <trkpt lat="49.1850020" lon="16.6294970">
454    <ele>190.3</ele>
455    <time>2016-01-06T09:09:01Z</time>
456   </trkpt>
457   <trkpt lat="49.1849030" lon="16.6295190">
458    <ele>190.2</ele>
459    <time>2016-01-06T09:09:03Z</time>
460   </trkpt>
461   <trkpt lat="49.1848540" lon="16.6295300">
462    <ele>190.1</ele>
463    <time>2016-01-06T09:09:04Z</time>
464   </trkpt>
465   <trkpt lat="49.1847550" lon="16.6295560">
466    <ele>189.7</ele>
467    <time>2016-01-06T09:09:06Z</time>
468   </trkpt>
469   <trkpt lat="49.1847020" lon="16.6295680">
470    <ele>189.7</ele>
471    <time>2016-01-06T09:09:07Z</time>
472   </trkpt>
473   <trkpt lat="49.1846480" lon="16.6295800">
474    <ele>189.6</ele>
475    <time>2016-01-06T09:09:08Z</time>
476   </trkpt>
477   <trkpt lat="49.1845880" lon="16.6295930">
478    <ele>189.5</ele>
479    <time>2016-01-06T09:09:09Z</time>
480   </trkpt>
481   <trkpt lat="49.1844840" lon="16.6296130">
482    <ele>189.4</ele>
483    <time>2016-01-06T09:09:11Z</time>
484   </trkpt>
485   <trkpt lat="49.1843700" lon="16.6296350">
486    <ele>189.7</ele>
487    <time>2016-01-06T09:09:13Z</time>
488   </trkpt>
489   <trkpt lat="49.1843210" lon="16.6296470">
490    <ele>189.7</ele>
491    <time>2016-01-06T09:09:14Z</time>
492   </trkpt>
493   <trkpt lat="49.1842320" lon="16.6296710">
494    <ele>189.6</ele>
495    <time>2016-01-06T09:09:16Z</time>
496   </trkpt>
497   <trkpt lat="49.1841300" lon="16.6296890">
498    <ele>189.4</ele>
499    <time>2016-01-06T09:09:18Z</time>
500   </trkpt>
501   <trkpt lat="49.1840710" lon="16.6297010">
502    <ele>189.2</ele>
503    <time>2016-01-06T09:09:19Z</time>
504   </trkpt>
505   <trkpt lat="49.1839510" lon="16.6297270">
506    <ele>189.1</ele>
507    <time>2016-01-06T09:09:21Z</time>
508   </trkpt>
509   <trkpt lat="49.1838940" lon="16.6297410">
510    <ele>189.2</ele>
511    <time>2016-01-06T09:09:22Z</time>
512   </trkpt>
513   <trkpt lat="49.1838390" lon="16.6297530">
514    <ele>189.2</ele>
515    <time>2016-01-06T09:09:23Z</time>
516   </trkpt>
517   <trkpt lat="49.1837850" lon="16.6297640">
518    <ele>189.1</ele>
519    <time>2016-01-06T09:09:24Z</time>
520   </trkpt>
521   <trkpt lat="49.1836800" lon="16.6297860">
522    <ele>189.3</ele>
523    <time>2016-01-06T09:09:26Z</time>
524   </trkpt>
525   <trkpt lat="49.1836270" lon="16.6297980">
526    <ele>189.5</ele>
527    <time>2016-01-06T09:09:27Z</time>
528   </trkpt>
529   <trkpt lat="49.1835190" lon="16.6298240">
530    <ele>189.7</ele>
531    <time>2016-01-06T09:09:29Z</time>
532   </trkpt>
533   <trkpt lat="49.1834550" lon="16.6298410">
534    <ele>189.7</ele>
535    <time>2016-01-06T09:09:30Z</time>
536   </trkpt>
537   <trkpt lat="49.1833420" lon="16.6298690">
538    <ele>189.7</ele>
539    <time>2016-01-06T09:09:32Z</time>
540   </trkpt>
541   <trkpt lat="49.1832420" lon="16.6298930">
542    <ele>189.7</ele>
543    <time>2016-01-06T09:09:34Z</time>
544   </trkpt>
545   <trkpt lat="49.1831530" lon="16.6299090">
546    <ele>189.6</ele>
547    <time>2016-01-06T09:09:36Z</time>
548   </trkpt>
549   <trkpt lat="49.1831050" lon="16.6299190">
550    <ele>189.5</ele>
551    <time>2016-01-06T09:09:37Z</time>
552   </trkpt>
553   <trkpt lat="49.1830560" lon="16.6299300">
554    <ele>189.3</ele>
555    <time>2016-01-06T09:09:38Z</time>
556   </trkpt>
557   <trkpt lat="49.1829470" lon="16.6299530">
558    <ele>189.3</ele>
559    <time>2016-01-06T09:09:40Z</time>
560   </trkpt>
561   <trkpt lat="49.1828460" lon="16.6299760">
562    <ele>189.1</ele>
563    <time>2016-01-06T09:09:42Z</time>
564   </trkpt>
565   <trkpt lat="49.1827460" lon="16.6299960">
566    <ele>189.2</ele>
567    <time>2016-01-06T09:09:44Z</time>
568   </trkpt>
569   <trkpt lat="49.1826410" lon="16.6300210">
570    <ele>189.2</ele>
571    <time>2016-01-06T09:09:46Z</time>
572   </trkpt>
573   <trkpt lat="49.1825850" lon="16.6300350">
574    <ele>189.0</ele>
575    <time>2016-01-06T09:09:47Z</time>
576   </trkpt>
577   <trkpt lat="49.1825320" lon="16.6300450">
578    <ele>188.9</ele>
579    <time>2016-01-06T09:09:48Z</time>
580   </trkpt>
581   <trkpt lat="49.1824220" lon="16.6300670">
582    <ele>188.7</ele>
583    <time>2016-01-06T09:09:50Z</time>
584   </trkpt>
585   <trkpt lat="49.1823660" lon="16.6300800">
586    <ele>188.4</ele>
587    <time>2016-01-06T09:09:51Z</time>
588   </trkpt>
589   <trkpt lat="49.1822550" lon="16.6301040">
590    <ele>188.5</ele>
591    <time>2016-01-06T09:09:53Z</time>
592   </trkpt>
593   <trkpt lat="49.1821490" lon="16.6301230">
594    <ele>188.4</ele>
595    <time>2016-01-06T09:09:55Z</time>
596   </trkpt>
597   <trkpt lat="49.1820400" lon="16.6301440">
598    <ele>188.2</ele>
599    <time>2016-01-06T09:09:57Z</time>
600   </trkpt>
601   <trkpt lat="49.1819840" lon="16.6301560">
602    <ele>188.2</ele>
603    <time>2016-01-06T09:09:58Z</time>
604   </trkpt>
605   <trkpt lat="49.1819300" lon="16.6301680">
606    <ele>188.0</ele>
607    <time>2016-01-06T09:09:59Z</time>
608   </trkpt>
609   <trkpt lat="49.1818250" lon="16.6301940">
610    <ele>187.8</ele>
611    <time>2016-01-06T09:10:01Z</time>
612   </trkpt>
613   <trkpt lat="49.1817740" lon="16.6302060">
614    <ele>188.0</ele>
615    <time>2016-01-06T09:10:02Z</time>
616   </trkpt>
617   <trkpt lat="49.1817320" lon="16.6302250">
618    <ele>188.2</ele>
619    <time>2016-01-06T09:10:03Z</time>
620   </trkpt>
621   <trkpt lat="49.1816380" lon="16.6302680">
622    <ele>187.8</ele>
623    <time>2016-01-06T09:10:05Z</time>
624   </trkpt>
625   <trkpt lat="49.1815450" lon="16.6303020">
626    <ele>187.5</ele>
627    <time>2016-01-06T09:10:07Z</time>
628   </trkpt>
629   <trkpt lat="49.1814920" lon="16.6303160">
630    <ele>187.4</ele>
631    <time>2016-01-06T09:10:08Z</time>
632   </trkpt>
633   <trkpt lat="49.1814030" lon="16.6303340">
634    <ele>187.2</ele>
635    <time>2016-01-06T09:10:10Z</time>
636   </trkpt>
637   <trkpt lat="49.1813020" lon="16.6303520">
638    <ele>187.3</ele>
639    <time>2016-01-06T09:10:12Z</time>
640   </trkpt>
641   <trkpt lat="49.1811940" lon="16.6303730">
642    <ele>187.6</ele>
643    <time>2016-01-06T09:10:14Z</time>
644   </trkpt>
645   <trkpt lat="49.1811380" lon="16.6303830">
646    <ele>187.4</ele>
647    <time>2016-01-06T09:10:15Z</time>
648   </trkpt>
649   <trkpt lat="49.1810390" lon="16.6304040">
650    <ele>187.4</ele>
651    <time>2016-01-06T09:10:17Z</time>
652   </trkpt>
653   <trkpt lat="49.1809430" lon="16.6304250">
654    <ele>187.4</ele>
655    <time>2016-01-06T09:10:19Z</time>
656   </trkpt>
657   <trkpt lat="49.1808520" lon="16.6304410">
658    <ele>187.4</ele>
659    <time>2016-01-06T09:10:21Z</time>
660   </trkpt>
661   <trkpt lat="49.1807560" lon="16.6304640">
662    <ele>187.7</ele>
663    <time>2016-01-06T09:10:23Z</time>
664   </trkpt>
665   <trkpt lat="49.1807080" lon="16.6304780">
666    <ele>187.6</ele>
667    <time>2016-01-06T09:10:24Z</time>
668   </trkpt>
669   <trkpt lat="49.1806630" lon="16.6304890">
670    <ele>187.4</ele>
671    <time>2016-01-06T09:10:25Z</time>
672   </trkpt>
673   <trkpt lat="49.1805770" lon="16.6305090">
674    <ele>187.1</ele>
675    <time>2016-01-06T09:10:27Z</time>
676   </trkpt>
677   <trkpt lat="49.1804940" lon="16.6305200">
678    <ele>187.1</ele>
679    <time>2016-01-06T09:10:29Z</time>
680   </trkpt>
681   <trkpt lat="49.1804490" lon="16.6305310">
682    <ele>187.4</ele>
683    <time>2016-01-06T09:10:30Z</time>
684   </trkpt>
685   <trkpt lat="49.1803940" lon="16.6305450">
686    <ele>187.4</ele>
687    <time>2016-01-06T09:10:31Z</time>
688   </trkpt>
689   <trkpt lat="49.1802960" lon="16.6305550">
690    <ele>187.4</ele>
691    <time>2016-01-06T09:10:33Z</time>
692   </trkpt>
693   <trkpt lat="49.1801970" lon="16.6305550">
694    <ele>187.6</ele>
695    <time>2016-01-06T09:10:35Z</time>
696   </trkpt>
697   <trkpt lat="49.1800750" lon="16.6305570">
698    <ele>187.6</ele>
699    <time>2016-01-06T09:10:37Z</time>
700   </trkpt>
701   <trkpt lat="49.1800080" lon="16.6305680">
702    <ele>187.7</ele>
703    <time>2016-01-06T09:10:38Z</time>
704   </trkpt>
705   <trkpt lat="49.1798800" lon="16.6305940">
706    <ele>187.8</ele>
707    <time>2016-01-06T09:10:40Z</time>
708   </trkpt>
709   <trkpt lat="49.1798170" lon="16.6306060">
710    <ele>187.8</ele>
711    <time>2016-01-06T09:10:41Z</time>
712   </trkpt>
713   <trkpt lat="49.1797490" lon="16.6306220">
714    <ele>187.8</ele>
715    <time>2016-01-06T09:10:42Z</time>
716   </trkpt>
717   <trkpt lat="49.1796830" lon="16.6306360">
718    <ele>187.6</ele>
719    <time>2016-01-06T09:10:43Z</time>
720   </trkpt>
721   <trkpt lat="49.1795540" lon="16.6306670">
722    <ele>187.5</ele>
723    <time>2016-01-06T09:10:45Z</time>
724   </trkpt>
725   <trkpt lat="49.1794940" lon="16.6306800">
726    <ele>187.5</ele>
727    <time>2016-01-06T09:10:46Z</time>
728   </trkpt>
729   <trkpt lat="49.1793710" lon="16.6307080">
730    <ele>187.7</ele>
731    <time>2016-01-06T09:10:48Z</time>
732   </trkpt>
733   <trkpt lat="49.1793110" lon="16.6307250">
734    <ele>187.8</ele>
735    <time>2016-01-06T09:10:49Z</time>
736   </trkpt>
737   <trkpt lat="49.1791870" lon="16.6307590">
738    <ele>188.2</ele>
739    <time>2016-01-06T09:10:51Z</time>
740   </trkpt>
741   <trkpt lat="49.1790730" lon="16.6307880">
742    <ele>188.2</ele>
743    <time>2016-01-06T09:10:53Z</time>
744   </trkpt>
745   <trkpt lat="49.1790180" lon="16.6308010">
746    <ele>188.2</ele>
747    <time>2016-01-06T09:10:54Z</time>
748   </trkpt>
749   <trkpt lat="49.1788990" lon="16.6308330">
750    <ele>188.0</ele>
751    <time>2016-01-06T09:10:56Z</time>
752   </trkpt>
753   <trkpt lat="49.1787730" lon="16.6308700">
754    <ele>188.0</ele>
755    <time>2016-01-06T09:10:58Z</time>
756   </trkpt>
757   <trkpt lat="49.1786550" lon="16.6308970">
758    <ele>188.1</ele>
759    <time>2016-01-06T09:11:00Z</time>
760   </trkpt>
761   <trkpt lat="49.1785490" lon="16.6309200">
762    <ele>188.2</ele>
763    <time>2016-01-06T09:11:02Z</time>
764   </trkpt>
765   <trkpt lat="49.1785000" lon="16.6309290">
766    <ele>188.4</ele>
767    <time>2016-01-06T09:11:03Z</time>
768   </trkpt>
769   <trkpt lat="49.1783830" lon="16.6309470">
770    <ele>188.4</ele>
771    <time>2016-01-06T09:11:05Z</time>
772   </trkpt>
773   <trkpt lat="49.1783270" lon="16.6309590">
774    <ele>188.5</ele>
775    <time>2016-01-06T09:11:06Z</time>
776   </trkpt>
777   <trkpt lat="49.1782030" lon="16.6309820">
778    <ele>188.3</ele>
779    <time>2016-01-06T09:11:08Z</time>
780   </trkpt>
781   <trkpt lat="49.1781390" lon="16.6309940">
782    <ele>188.2</ele>
783    <time>2016-01-06T09:11:09Z</time>
784   </trkpt>
785   <trkpt lat="49.1780790" lon="16.6310090">
786    <ele>188.2</ele>
787    <time>2016-01-06T09:11:10Z</time>
788   </trkpt>
789   <trkpt lat="49.1779700" lon="16.6310390">
790    <ele>187.9</ele>
791    <time>2016-01-06T09:11:12Z</time>
792   </trkpt>
793   <trkpt lat="49.1779160" lon="16.6310550">
794    <ele>187.9</ele>
795    <time>2016-01-06T09:11:13Z</time>
796   </trkpt>
797   <trkpt lat="49.1778630" lon="16.6310690">
798    <ele>187.8</ele>
799    <time>2016-01-06T09:11:14Z</time>
800   </trkpt>
801   <trkpt lat="49.1777570" lon="16.6310960">
802    <ele>187.9</ele>
803    <time>2016-01-06T09:11:16Z</time>
804   </trkpt>
805   <trkpt lat="49.1776500" lon="16.6311170">
806    <ele>188.0</ele>
807    <time>2016-01-06T09:11:18Z</time>
808   </trkpt>
809   <trkpt lat="49.1775550" lon="16.6311370">
810    <ele>188.1</ele>
811    <time>2016-01-06T09:11:20Z</time>
812   </trkpt>
813   <trkpt lat="49.1775050" lon="16.6311480">
814    <ele>188.2</ele>
815    <time>2016-01-06T09:11:21Z</time>
816   </trkpt>
817   <trkpt lat="49.1774240" lon="16.6311610">
818    <ele>188.2</ele>
819    <time>2016-01-06T09:11:23Z</time>
820   </trkpt>
821   <trkpt lat="49.1773940" lon="16.6311610">
822    <ele>188.1</ele>
823    <time>2016-01-06T09:11:24Z</time>
824   </trkpt>
825   <trkpt lat="49.1773580" lon="16.6311580">
826    <ele>187.8</ele>
827    <time>2016-01-06T09:11:26Z</time>
828   </trkpt>
829   <trkpt lat="49.1773190" lon="16.6311750">
830    <ele>187.3</ele>
831    <time>2016-01-06T09:11:29Z</time>
832   </trkpt>
833   <trkpt lat="49.1772730" lon="16.6311800">
834    <ele>187.0</ele>
835    <time>2016-01-06T09:11:32Z</time>
836   </trkpt>
837   <trkpt lat="49.1772270" lon="16.6311590">
838    <ele>187.3</ele>
839    <time>2016-01-06T09:11:34Z</time>
840   </trkpt>
841   <trkpt lat="49.1771940" lon="16.6311420">
842    <ele>187.3</ele>
843    <time>2016-01-06T09:11:35Z</time>
844   </trkpt>
845   <trkpt lat="49.1771650" lon="16.6311300">
846    <ele>187.2</ele>
847    <time>2016-01-06T09:11:36Z</time>
848   </trkpt>
849   <trkpt lat="49.1770780" lon="16.6310980">
850    <ele>187.2</ele>
851    <time>2016-01-06T09:11:38Z</time>
852   </trkpt>
853   <trkpt lat="49.1770420" lon="16.6310910">
854    <ele>187.1</ele>
855    <time>2016-01-06T09:11:39Z</time>
856   </trkpt>
857   <trkpt lat="49.1769620" lon="16.6310810">
858    <ele>187.2</ele>
859    <time>2016-01-06T09:11:41Z</time>
860   </trkpt>
861   <trkpt lat="49.1769240" lon="16.6310780">
862    <ele>187.0</ele>
863    <time>2016-01-06T09:11:42Z</time>
864   </trkpt>
865   <trkpt lat="49.1768870" lon="16.6310770">
866    <ele>186.7</ele>
867    <time>2016-01-06T09:11:43Z</time>
868   </trkpt>
869   <trkpt lat="49.1768410" lon="16.6310810">
870    <ele>186.6</ele>
871    <time>2016-01-06T09:11:45Z</time>
872   </trkpt>
873   <trkpt lat="49.1768090" lon="16.6310870">
874    <ele>186.4</ele>
875    <time>2016-01-06T09:11:46Z</time>
876   </trkpt>
877   <trkpt lat="49.1767670" lon="16.6311160">
878    <ele>186.2</ele>
879    <time>2016-01-06T09:11:48Z</time>
880   </trkpt>
881   <trkpt lat="49.1767410" lon="16.6311720">
882    <ele>186.3</ele>
883    <time>2016-01-06T09:11:50Z</time>
884   </trkpt>
885   <trkpt lat="49.1767260" lon="16.6312190">
886    <ele>186.3</ele>
887    <time>2016-01-06T09:11:52Z</time>
888   </trkpt>
889   <trkpt lat="49.1766800" lon="16.6311820">
890    <ele>186.8</ele>
891    <time>2016-01-06T09:12:10Z</time>
892   </trkpt>
893   <trkpt lat="49.1766660" lon="16.6311150">
894    <ele>186.5</ele>
895    <time>2016-01-06T09:12:12Z</time>
896   </trkpt>
897   <trkpt lat="49.1766580" lon="16.6310370">
898    <ele>186.5</ele>
899    <time>2016-01-06T09:12:14Z</time>
900   </trkpt>
901   <trkpt lat="49.1766180" lon="16.6309470">
902    <ele>186.7</ele>
903    <time>2016-01-06T09:12:16Z</time>
904   </trkpt>
905   <trkpt lat="49.1765910" lon="16.6308980">
906    <ele>186.7</ele>
907    <time>2016-01-06T09:12:17Z</time>
908   </trkpt>
909   <trkpt lat="49.1765510" lon="16.6308290">
910    <ele>186.7</ele>
911    <time>2016-01-06T09:12:19Z</time>
912   </trkpt>
913   <trkpt lat="49.1765490" lon="16.6307550">
914    <ele>186.5</ele>
915    <time>2016-01-06T09:12:21Z</time>
916   </trkpt>
917   <trkpt lat="49.1765600" lon="16.6306630">
918    <ele>186.6</ele>
919    <time>2016-01-06T09:12:23Z</time>
920   </trkpt>
921   <trkpt lat="49.1765660" lon="16.6306200">
922    <ele>186.7</ele>
923    <time>2016-01-06T09:12:24Z</time>
924   </trkpt>
925   <trkpt lat="49.1765700" lon="16.6305750">
926    <ele>186.8</ele>
927    <time>2016-01-06T09:12:25Z</time>
928   </trkpt>
929   <trkpt lat="49.1765760" lon="16.6305200">
930    <ele>186.8</ele>
931    <time>2016-01-06T09:12:26Z</time>
932   </trkpt>
933   <trkpt lat="49.1765810" lon="16.6304490">
934    <ele>186.9</ele>
935    <time>2016-01-06T09:12:28Z</time>
936   </trkpt>
937   <trkpt lat="49.1765740" lon="16.6303870">
938    <ele>186.7</ele>
939    <time>2016-01-06T09:12:30Z</time>
940   </trkpt>
941   <trkpt lat="49.1765610" lon="16.6303310">
942    <ele>186.3</ele>
943    <time>2016-01-06T09:12:31Z</time>
944   </trkpt>
945   <trkpt lat="49.1764950" lon="16.6302170">
946    <ele>185.9</ele>
947    <time>2016-01-06T09:12:33Z</time>
948   </trkpt>
949   <trkpt lat="49.1764540" lon="16.6301480">
950    <ele>185.8</ele>
951    <time>2016-01-06T09:12:34Z</time>
952   </trkpt>
953   <trkpt lat="49.1764180" lon="16.6300880">
954    <ele>185.9</ele>
955    <time>2016-01-06T09:12:35Z</time>
956   </trkpt>
957   <trkpt lat="49.1763790" lon="16.6300260">
958    <ele>185.8</ele>
959    <time>2016-01-06T09:12:36Z</time>
960   </trkpt>
961   <trkpt lat="49.1762830" lon="16.6299090">
962    <ele>185.6</ele>
963    <time>2016-01-06T09:12:38Z</time>
964   </trkpt>
965   <trkpt lat="49.1761800" lon="16.6297920">
966    <ele>185.4</ele>
967    <time>2016-01-06T09:12:40Z</time>
968   </trkpt>
969   <trkpt lat="49.1761340" lon="16.6297200">
970    <ele>185.3</ele>
971    <time>2016-01-06T09:12:41Z</time>
972   </trkpt>
973   <trkpt lat="49.1760510" lon="16.6295930">
974    <ele>185.3</ele>
975    <time>2016-01-06T09:12:43Z</time>
976   </trkpt>
977   <trkpt lat="49.1759850" lon="16.6294850">
978    <ele>185.3</ele>
979    <time>2016-01-06T09:12:45Z</time>
980   </trkpt>
981   <trkpt lat="49.1759600" lon="16.6294360">
982    <ele>185.3</ele>
983    <time>2016-01-06T09:12:46Z</time>
984   </trkpt>
985   <trkpt lat="49.1759350" lon="16.6293880">
986    <ele>185.4</ele>
987    <time>2016-01-06T09:12:47Z</time>
988   </trkpt>
989   <trkpt lat="49.1758820" lon="16.6292680">
990    <ele>185.4</ele>
991    <time>2016-01-06T09:12:49Z</time>
992   </trkpt>
993   <trkpt lat="49.1758560" lon="16.6292120">
994    <ele>185.5</ele>
995    <time>2016-01-06T09:12:50Z</time>
996   </trkpt>
997   <trkpt lat="49.1757930" lon="16.6290940">
998    <ele>185.6</ele>
999    <time>2016-01-06T09:12:52Z</time>
1000   </trkpt>
1001   <trkpt lat="49.1757620" lon="16.6290360">
1002    <ele>185.5</ele>
1003    <time>2016-01-06T09:12:53Z</time>
1004   </trkpt>
1005   <trkpt lat="49.1757250" lon="16.6289800">
1006    <ele>185.5</ele>
1007    <time>2016-01-06T09:12:54Z</time>
1008   </trkpt>
1009   <trkpt lat="49.1756900" lon="16.6289300">
1010    <ele>185.6</ele>
1011    <time>2016-01-06T09:12:55Z</time>
1012   </trkpt>
1013   <trkpt lat="49.1756330" lon="16.6288510">
1014    <ele>186.0</ele>
1015    <time>2016-01-06T09:12:57Z</time>
1016   </trkpt>
1017   <trkpt lat="49.1756060" lon="16.6288090">
1018    <ele>186.0</ele>
1019    <time>2016-01-06T09:12:58Z</time>
1020   </trkpt>
1021   <trkpt lat="49.1755410" lon="16.6286890">
1022    <ele>185.6</ele>
1023    <time>2016-01-06T09:13:00Z</time>
1024   </trkpt>
1025   <trkpt lat="49.1754700" lon="16.6285630">
1026    <ele>185.6</ele>
1027    <time>2016-01-06T09:13:02Z</time>
1028   </trkpt>
1029   <trkpt lat="49.1754050" lon="16.6284430">
1030    <ele>185.9</ele>
1031    <time>2016-01-06T09:13:04Z</time>
1032   </trkpt>
1033   <trkpt lat="49.1753540" lon="16.6283370">
1034    <ele>186.1</ele>
1035    <time>2016-01-06T09:13:06Z</time>
1036   </trkpt>
1037   <trkpt lat="49.1753270" lon="16.6281940">
1038    <ele>186.3</ele>
1039    <time>2016-01-06T09:13:08Z</time>
1040   </trkpt>
1041   <trkpt lat="49.1753160" lon="16.6281230">
1042    <ele>186.4</ele>
1043    <time>2016-01-06T09:13:10Z</time>
1044   </trkpt>
1045   <trkpt lat="49.1753060" lon="16.6279910">
1046    <ele>186.5</ele>
1047    <time>2016-01-06T09:13:11Z</time>
1048   </trkpt>
1049   <trkpt lat="49.1752860" lon="16.6277260">
1050    <ele>186.7</ele>
1051    <time>2016-01-06T09:13:13Z</time>
1052   </trkpt>
1053   <trkpt lat="49.1752840" lon="16.6276670">
1054    <ele>186.7</ele>
1055    <time>2016-01-06T09:13:14Z</time>
1056   </trkpt>
1057   <trkpt lat="49.1753190" lon="16.6275580">
1058    <ele>186.7</ele>
1059    <time>2016-01-06T09:13:16Z</time>
1060   </trkpt>
1061   <trkpt lat="49.1753890" lon="16.6274790">
1062    <ele>186.6</ele>
1063    <time>2016-01-06T09:13:18Z</time>
1064   </trkpt>
1065   <trkpt lat="49.1754780" lon="16.6274560">
1066    <ele>186.2</ele>
1067    <time>2016-01-06T09:13:20Z</time>
1068   </trkpt>
1069   <trkpt lat="49.1755350" lon="16.6274510">
1070    <ele>185.9</ele>
1071    <time>2016-01-06T09:13:21Z</time>
1072   </trkpt>
1073   <trkpt lat="49.1755900" lon="16.6274530">
1074    <ele>185.5</ele>
1075    <time>2016-01-06T09:13:22Z</time>
1076   </trkpt>
1077   <trkpt lat="49.1756840" lon="16.6274410">
1078    <ele>184.8</ele>
1079    <time>2016-01-06T09:13:24Z</time>
1080   </trkpt>
1081   <trkpt lat="49.1757370" lon="16.6273950">
1082    <ele>184.6</ele>
1083    <time>2016-01-06T09:13:26Z</time>
1084   </trkpt>
1085   <trkpt lat="49.1757570" lon="16.6273170">
1086    <ele>184.5</ele>
1087    <time>2016-01-06T09:13:27Z</time>
1088   </trkpt>
1089   <trkpt lat="49.1757580" lon="16.6272400">
1090    <ele>184.7</ele>
1091    <time>2016-01-06T09:13:28Z</time>
1092   </trkpt>
1093   <trkpt lat="49.1757330" lon="16.6270650">
1094    <ele>185.3</ele>
1095    <time>2016-01-06T09:13:30Z</time>
1096   </trkpt>
1097   <trkpt lat="49.1757220" lon="16.6269790">
1098    <ele>185.4</ele>
1099    <time>2016-01-06T09:13:31Z</time>
1100   </trkpt>
1101   <trkpt lat="49.1757070" lon="16.6268790">
1102    <ele>185.2</ele>
1103    <time>2016-01-06T09:13:32Z</time>
1104   </trkpt>
1105   <trkpt lat="49.1756820" lon="16.6266790">
1106    <ele>185.0</ele>
1107    <time>2016-01-06T09:13:34Z</time>
1108   </trkpt>
1109   <trkpt lat="49.1756520" lon="16.6264990">
1110    <ele>184.9</ele>
1111    <time>2016-01-06T09:13:36Z</time>
1112   </trkpt>
1113   <trkpt lat="49.1756350" lon="16.6264060">
1114    <ele>185.0</ele>
1115    <time>2016-01-06T09:13:37Z</time>
1116   </trkpt>
1117   <trkpt lat="49.1756070" lon="16.6262250">
1118    <ele>185.5</ele>
1119    <time>2016-01-06T09:13:39Z</time>
1120   </trkpt>
1121   <trkpt lat="49.1755800" lon="16.6260410">
1122    <ele>185.7</ele>
1123    <time>2016-01-06T09:13:41Z</time>
1124   </trkpt>
1125   <trkpt lat="49.1755690" lon="16.6259610">
1126    <ele>185.6</ele>
1127    <time>2016-01-06T09:13:42Z</time>
1128   </trkpt>
1129   <trkpt lat="49.1755480" lon="16.6257710">
1130    <ele>185.6</ele>
1131    <time>2016-01-06T09:13:44Z</time>
1132   </trkpt>
1133   <trkpt lat="49.1755230" lon="16.6255940">
1134    <ele>185.8</ele>
1135    <time>2016-01-06T09:13:46Z</time>
1136   </trkpt>
1137   <trkpt lat="49.1754930" lon="16.6254010">
1138    <ele>185.7</ele>
1139    <time>2016-01-06T09:13:48Z</time>
1140   </trkpt>
1141   <trkpt lat="49.1754790" lon="16.6253090">
1142    <ele>185.5</ele>
1143    <time>2016-01-06T09:13:49Z</time>
1144   </trkpt>
1145   <trkpt lat="49.1754470" lon="16.6251370">
1146    <ele>185.4</ele>
1147    <time>2016-01-06T09:13:51Z</time>
1148   </trkpt>
1149   <trkpt lat="49.1754300" lon="16.6250470">
1150    <ele>185.8</ele>
1151    <time>2016-01-06T09:13:52Z</time>
1152   </trkpt>
1153   <trkpt lat="49.1753990" lon="16.6248450">
1154    <ele>185.9</ele>
1155    <time>2016-01-06T09:13:54Z</time>
1156   </trkpt>
1157   <trkpt lat="49.1753710" lon="16.6246570">
1158    <ele>185.6</ele>
1159    <time>2016-01-06T09:13:56Z</time>
1160   </trkpt>
1161   <trkpt lat="49.1753580" lon="16.6245690">
1162    <ele>185.4</ele>
1163    <time>2016-01-06T09:13:57Z</time>
1164   </trkpt>
1165   <trkpt lat="49.1753330" lon="16.6243890">
1166    <ele>185.5</ele>
1167    <time>2016-01-06T09:13:59Z</time>
1168   </trkpt>
1169   <trkpt lat="49.1753040" lon="16.6241960">
1170    <ele>185.6</ele>
1171    <time>2016-01-06T09:14:01Z</time>
1172   </trkpt>
1173   <trkpt lat="49.1752900" lon="16.6241030">
1174    <ele>185.6</ele>
1175    <time>2016-01-06T09:14:02Z</time>
1176   </trkpt>
1177   <trkpt lat="49.1752610" lon="16.6239230">
1178    <ele>185.5</ele>
1179    <time>2016-01-06T09:14:04Z</time>
1180   </trkpt>
1181   <trkpt lat="49.1752430" lon="16.6238360">
1182    <ele>185.5</ele>
1183    <time>2016-01-06T09:14:05Z</time>
1184   </trkpt>
1185   <trkpt lat="49.1752070" lon="16.6236570">
1186    <ele>185.4</ele>
1187    <time>2016-01-06T09:14:07Z</time>
1188   </trkpt>
1189   <trkpt lat="49.1751900" lon="16.6235760">
1190    <ele>185.4</ele>
1191    <time>2016-01-06T09:14:08Z</time>
1192   </trkpt>
1193   <trkpt lat="49.1751710" lon="16.6234890">
1194    <ele>185.3</ele>
1195    <time>2016-01-06T09:14:09Z</time>
1196   </trkpt>
1197   <trkpt lat="49.1751520" lon="16.6234040">
1198    <ele>185.3</ele>
1199    <time>2016-01-06T09:14:10Z</time>
1200   </trkpt>
1201   <trkpt lat="49.1751340" lon="16.6233280">
1202    <ele>185.2</ele>
1203    <time>2016-01-06T09:14:11Z</time>
1204   </trkpt>
1205   <trkpt lat="49.1751240" lon="16.6232490">
1206    <ele>185.1</ele>
1207    <time>2016-01-06T09:14:12Z</time>
1208   </trkpt>
1209   <trkpt lat="49.1751140" lon="16.6231750">
1210    <ele>185.1</ele>
1211    <time>2016-01-06T09:14:13Z</time>
1212   </trkpt>
1213   <trkpt lat="49.1751040" lon="16.6231010">
1214    <ele>185.0</ele>
1215    <time>2016-01-06T09:14:14Z</time>
1216   </trkpt>
1217   <trkpt lat="49.1750890" lon="16.6230080">
1218    <ele>184.9</ele>
1219    <time>2016-01-06T09:14:15Z</time>
1220   </trkpt>
1221   <trkpt lat="49.1750790" lon="16.6229270">
1222    <ele>184.9</ele>
1223    <time>2016-01-06T09:14:16Z</time>
1224   </trkpt>
1225   <trkpt lat="49.1750670" lon="16.6228540">
1226    <ele>184.8</ele>
1227    <time>2016-01-06T09:14:17Z</time>
1228   </trkpt>
1229   <trkpt lat="49.1750410" lon="16.6227220">
1230    <ele>184.7</ele>
1231    <time>2016-01-06T09:14:19Z</time>
1232   </trkpt>
1233   <trkpt lat="49.1750000" lon="16.6226230">
1234    <ele>184.6</ele>
1235    <time>2016-01-06T09:14:21Z</time>
1236   </trkpt>
1237   <trkpt lat="49.1749820" lon="16.6225840">
1238    <ele>184.4</ele>
1239    <time>2016-01-06T09:14:22Z</time>
1240   </trkpt>
1241   <trkpt lat="49.1749580" lon="16.6225530">
1242    <ele>184.5</ele>
1243    <time>2016-01-06T09:14:24Z</time>
1244   </trkpt>
1245   <trkpt lat="49.1749250" lon="16.6225230">
1246    <ele>184.6</ele>
1247    <time>2016-01-06T09:14:28Z</time>
1248   </trkpt>
1249   <trkpt lat="49.1749040" lon="16.6224850">
1250    <ele>184.5</ele>
1251    <time>2016-01-06T09:14:30Z</time>
1252   </trkpt>
1253   <trkpt lat="49.1748550" lon="16.6224550">
1254    <ele>183.7</ele>
1255    <time>2016-01-06T09:15:13Z</time>
1256   </trkpt>
1257   <trkpt lat="49.1748460" lon="16.6224110">
1258    <ele>183.7</ele>
1259    <time>2016-01-06T09:15:15Z</time>
1260   </trkpt>
1261   <trkpt lat="49.1748220" lon="16.6223500">
1262    <ele>183.9</ele>
1263    <time>2016-01-06T09:15:17Z</time>
1264   </trkpt>
1265   <trkpt lat="49.1748120" lon="16.6223100">
1266    <ele>184.1</ele>
1267    <time>2016-01-06T09:15:18Z</time>
1268   </trkpt>
1269   <trkpt lat="49.1748000" lon="16.6222700">
1270    <ele>184.1</ele>
1271    <time>2016-01-06T09:15:19Z</time>
1272   </trkpt>
1273   <trkpt lat="49.1747680" lon="16.6221710">
1274    <ele>184.4</ele>
1275    <time>2016-01-06T09:15:21Z</time>
1276   </trkpt>
1277   <trkpt lat="49.1747360" lon="16.6221210">
1278    <ele>184.7</ele>
1279    <time>2016-01-06T09:15:23Z</time>
1280   </trkpt>
1281   <trkpt lat="49.1746890" lon="16.6220950">
1282    <ele>184.9</ele>
1283    <time>2016-01-06T09:15:25Z</time>
1284   </trkpt>
1285   <trkpt lat="49.1746610" lon="16.6221030">
1286    <ele>185.0</ele>
1287    <time>2016-01-06T09:15:26Z</time>
1288   </trkpt>
1289   <trkpt lat="49.1745910" lon="16.6221360">
1290    <ele>185.2</ele>
1291    <time>2016-01-06T09:15:28Z</time>
1292   </trkpt>
1293   <trkpt lat="49.1745530" lon="16.6221610">
1294    <ele>185.3</ele>
1295    <time>2016-01-06T09:15:29Z</time>
1296   </trkpt>
1297   <trkpt lat="49.1745050" lon="16.6221950">
1298    <ele>185.7</ele>
1299    <time>2016-01-06T09:15:30Z</time>
1300   </trkpt>
1301   <trkpt lat="49.1744290" lon="16.6222610">
1302    <ele>185.8</ele>
1303    <time>2016-01-06T09:15:32Z</time>
1304   </trkpt>
1305   <trkpt lat="49.1744000" lon="16.6222900">
1306    <ele>185.7</ele>
1307    <time>2016-01-06T09:15:33Z</time>
1308   </trkpt>
1309   <trkpt lat="49.1743250" lon="16.6223750">
1310    <ele>185.9</ele>
1311    <time>2016-01-06T09:15:35Z</time>
1312   </trkpt>
1313   <trkpt lat="49.1742770" lon="16.6224130">
1314    <ele>186.0</ele>
1315    <time>2016-01-06T09:15:36Z</time>
1316   </trkpt>
1317   <trkpt lat="49.1742210" lon="16.6224570">
1318    <ele>186.2</ele>
1319    <time>2016-01-06T09:15:37Z</time>
1320   </trkpt>
1321   <trkpt lat="49.1741220" lon="16.6225310">
1322    <ele>186.5</ele>
1323    <time>2016-01-06T09:15:39Z</time>
1324   </trkpt>
1325   <trkpt lat="49.1740640" lon="16.6225740">
1326    <ele>186.5</ele>
1327    <time>2016-01-06T09:15:40Z</time>
1328   </trkpt>
1329   <trkpt lat="49.1740060" lon="16.6226200">
1330    <ele>186.5</ele>
1331    <time>2016-01-06T09:15:41Z</time>
1332   </trkpt>
1333   <trkpt lat="49.1738960" lon="16.6227060">
1334    <ele>186.2</ele>
1335    <time>2016-01-06T09:15:43Z</time>
1336   </trkpt>
1337   <trkpt lat="49.1737990" lon="16.6227800">
1338    <ele>185.9</ele>
1339    <time>2016-01-06T09:15:45Z</time>
1340   </trkpt>
1341   <trkpt lat="49.1737450" lon="16.6228180">
1342    <ele>185.7</ele>
1343    <time>2016-01-06T09:15:46Z</time>
1344   </trkpt>
1345   <trkpt lat="49.1736810" lon="16.6228610">
1346    <ele>185.5</ele>
1347    <time>2016-01-06T09:15:47Z</time>
1348   </trkpt>
1349   <trkpt lat="49.1736190" lon="16.6229090">
1350    <ele>185.3</ele>
1351    <time>2016-01-06T09:15:48Z</time>
1352   </trkpt>
1353   <trkpt lat="49.1735130" lon="16.6229960">
1354    <ele>185.2</ele>
1355    <time>2016-01-06T09:15:50Z</time>
1356   </trkpt>
1357   <trkpt lat="49.1734650" lon="16.6230380">
1358    <ele>185.4</ele>
1359    <time>2016-01-06T09:15:51Z</time>
1360   </trkpt>
1361   <trkpt lat="49.1734110" lon="16.6230830">
1362    <ele>185.4</ele>
1363    <time>2016-01-06T09:15:52Z</time>
1364   </trkpt>
1365   <trkpt lat="49.1733540" lon="16.6231260">
1366    <ele>185.6</ele>
1367    <time>2016-01-06T09:15:53Z</time>
1368   </trkpt>
1369   <trkpt lat="49.1732410" lon="16.6232140">
1370    <ele>185.5</ele>
1371    <time>2016-01-06T09:15:55Z</time>
1372   </trkpt>
1373   <trkpt lat="49.1731390" lon="16.6232990">
1374    <ele>185.5</ele>
1375    <time>2016-01-06T09:15:57Z</time>
1376   </trkpt>
1377   <trkpt lat="49.1730830" lon="16.6233400">
1378    <ele>185.5</ele>
1379    <time>2016-01-06T09:15:58Z</time>
1380   </trkpt>
1381   <trkpt lat="49.1729800" lon="16.6234200">
1382    <ele>185.3</ele>
1383    <time>2016-01-06T09:16:00Z</time>
1384   </trkpt>
1385   <trkpt lat="49.1729310" lon="16.6234640">
1386    <ele>185.4</ele>
1387    <time>2016-01-06T09:16:01Z</time>
1388   </trkpt>
1389   <trkpt lat="49.1728290" lon="16.6235550">
1390    <ele>185.4</ele>
1391    <time>2016-01-06T09:16:03Z</time>
1392   </trkpt>
1393   <trkpt lat="49.1727210" lon="16.6236500">
1394    <ele>185.2</ele>
1395    <time>2016-01-06T09:16:05Z</time>
1396   </trkpt>
1397   <trkpt lat="49.1726690" lon="16.6236970">
1398    <ele>185.1</ele>
1399    <time>2016-01-06T09:16:06Z</time>
1400   </trkpt>
1401   <trkpt lat="49.1726010" lon="16.6237680">
1402    <ele>184.4</ele>
1403    <time>2016-01-06T09:16:08Z</time>
1404   </trkpt>
1405   <trkpt lat="49.1725510" lon="16.6238130">
1406    <ele>184.4</ele>
1407    <time>2016-01-06T09:16:10Z</time>
1408   </trkpt>
1409   <trkpt lat="49.1725000" lon="16.6238150">
1410    <ele>184.6</ele>
1411    <time>2016-01-06T09:16:12Z</time>
1412   </trkpt>
1413   <trkpt lat="49.1724450" lon="16.6238350">
1414    <ele>184.7</ele>
1415    <time>2016-01-06T09:16:14Z</time>
1416   </trkpt>
1417   <trkpt lat="49.1724160" lon="16.6238540">
1418    <ele>184.5</ele>
1419    <time>2016-01-06T09:16:15Z</time>
1420   </trkpt>
1421   <trkpt lat="49.1723670" lon="16.6238790">
1422    <ele>184.4</ele>
1423    <time>2016-01-06T09:16:17Z</time>
1424   </trkpt>
1425   <trkpt lat="49.1723310" lon="16.6238890">
1426    <ele>184.4</ele>
1427    <time>2016-01-06T09:16:18Z</time>
1428   </trkpt>
1429   <trkpt lat="49.1722840" lon="16.6238680">
1430    <ele>184.2</ele>
1431    <time>2016-01-06T09:16:20Z</time>
1432   </trkpt>
1433   <trkpt lat="49.1722720" lon="16.6238210">
1434    <ele>183.8</ele>
1435    <time>2016-01-06T09:16:22Z</time>
1436   </trkpt>
1437   <trkpt lat="49.1722740" lon="16.6237670">
1438    <ele>183.7</ele>
1439    <time>2016-01-06T09:16:23Z</time>
1440   </trkpt>
1441   <trkpt lat="49.1722780" lon="16.6236660">
1442    <ele>183.3</ele>
1443    <time>2016-01-06T09:16:25Z</time>
1444   </trkpt>
1445   <trkpt lat="49.1722860" lon="16.6235480">
1446    <ele>183.4</ele>
1447    <time>2016-01-06T09:16:27Z</time>
1448   </trkpt>
1449   <trkpt lat="49.1722740" lon="16.6234760">
1450    <ele>183.8</ele>
1451    <time>2016-01-06T09:16:29Z</time>
1452   </trkpt>
1453   <trkpt lat="49.1722350" lon="16.6234160">
1454    <ele>184.2</ele>
1455    <time>2016-01-06T09:16:31Z</time>
1456   </trkpt>
1457   <trkpt lat="49.1722040" lon="16.6233840">
1458    <ele>184.1</ele>
1459    <time>2016-01-06T09:16:32Z</time>
1460   </trkpt>
1461   <trkpt lat="49.1721620" lon="16.6233370">
1462    <ele>184.0</ele>
1463    <time>2016-01-06T09:16:33Z</time>
1464   </trkpt>
1465   <trkpt lat="49.1720770" lon="16.6232600">
1466    <ele>183.9</ele>
1467    <time>2016-01-06T09:16:35Z</time>
1468   </trkpt>
1469   <trkpt lat="49.1720440" lon="16.6232400">
1470    <ele>184.0</ele>
1471    <time>2016-01-06T09:16:36Z</time>
1472   </trkpt>
1473   <trkpt lat="49.1720120" lon="16.6232270">
1474    <ele>184.1</ele>
1475    <time>2016-01-06T09:16:37Z</time>
1476   </trkpt>
1477   <trkpt lat="49.1719750" lon="16.6232180">
1478    <ele>184.2</ele>
1479    <time>2016-01-06T09:16:38Z</time>
1480   </trkpt>
1481   <trkpt lat="49.1718870" lon="16.6232250">
1482    <ele>184.2</ele>
1483    <time>2016-01-06T09:16:40Z</time>
1484   </trkpt>
1485   <trkpt lat="49.1718270" lon="16.6232330">
1486    <ele>183.8</ele>
1487    <time>2016-01-06T09:16:41Z</time>
1488   </trkpt>
1489   <trkpt lat="49.1717100" lon="16.6232370">
1490    <ele>183.7</ele>
1491    <time>2016-01-06T09:16:43Z</time>
1492   </trkpt>
1493   <trkpt lat="49.1716110" lon="16.6232420">
1494    <ele>183.9</ele>
1495    <time>2016-01-06T09:16:45Z</time>
1496   </trkpt>
1497   <trkpt lat="49.1715660" lon="16.6232440">
1498    <ele>184.0</ele>
1499    <time>2016-01-06T09:16:46Z</time>
1500   </trkpt>
1501   <trkpt lat="49.1715310" lon="16.6232470">
1502    <ele>184.2</ele>
1503    <time>2016-01-06T09:16:47Z</time>
1504   </trkpt>
1505   <trkpt lat="49.1714370" lon="16.6232480">
1506    <ele>184.4</ele>
1507    <time>2016-01-06T09:16:49Z</time>
1508   </trkpt>
1509   <trkpt lat="49.1713430" lon="16.6232510">
1510    <ele>184.3</ele>
1511    <time>2016-01-06T09:16:51Z</time>
1512   </trkpt>
1513   <trkpt lat="49.1712850" lon="16.6232520">
1514    <ele>184.1</ele>
1515    <time>2016-01-06T09:16:52Z</time>
1516   </trkpt>
1517   <trkpt lat="49.1712300" lon="16.6232550">
1518    <ele>184.1</ele>
1519    <time>2016-01-06T09:16:53Z</time>
1520   </trkpt>
1521   <trkpt lat="49.1711170" lon="16.6232630">
1522    <ele>184.0</ele>
1523    <time>2016-01-06T09:16:55Z</time>
1524   </trkpt>
1525   <trkpt lat="49.1710210" lon="16.6232630">
1526    <ele>183.8</ele>
1527    <time>2016-01-06T09:16:57Z</time>
1528   </trkpt>
1529   <trkpt lat="49.1709690" lon="16.6232630">
1530    <ele>183.7</ele>
1531    <time>2016-01-06T09:16:58Z</time>
1532   </trkpt>
1533   <trkpt lat="49.1708610" lon="16.6232660">
1534    <ele>183.6</ele>
1535    <time>2016-01-06T09:17:00Z</time>
1536   </trkpt>
1537   <trkpt lat="49.1707650" lon="16.6232690">
1538    <ele>183.5</ele>
1539    <time>2016-01-06T09:17:02Z</time>
1540   </trkpt>
1541   <trkpt lat="49.1707240" lon="16.6232690">
1542    <ele>183.5</ele>
1543    <time>2016-01-06T09:17:03Z</time>
1544   </trkpt>
1545   <trkpt lat="49.1706320" lon="16.6232670">
1546    <ele>183.4</ele>
1547    <time>2016-01-06T09:17:05Z</time>
1548   </trkpt>
1549   <trkpt lat="49.1705370" lon="16.6232610">
1550    <ele>183.5</ele>
1551    <time>2016-01-06T09:17:07Z</time>
1552   </trkpt>
1553   <trkpt lat="49.1704840" lon="16.6232600">
1554    <ele>183.6</ele>
1555    <time>2016-01-06T09:17:08Z</time>
1556   </trkpt>
1557   <trkpt lat="49.1703840" lon="16.6232610">
1558    <ele>183.6</ele>
1559    <time>2016-01-06T09:17:10Z</time>
1560   </trkpt>
1561   <trkpt lat="49.1703330" lon="16.6232620">
1562    <ele>183.6</ele>
1563    <time>2016-01-06T09:17:11Z</time>
1564   </trkpt>
1565   <trkpt lat="49.1702410" lon="16.6232620">
1566    <ele>183.8</ele>
1567    <time>2016-01-06T09:17:13Z</time>
1568   </trkpt>
1569   <trkpt lat="49.1701500" lon="16.6232640">
1570    <ele>183.7</ele>
1571    <time>2016-01-06T09:17:15Z</time>
1572   </trkpt>
1573   <trkpt lat="49.1701070" lon="16.6232640">
1574    <ele>183.6</ele>
1575    <time>2016-01-06T09:17:16Z</time>
1576   </trkpt>
1577   <trkpt lat="49.1700610" lon="16.6232640">
1578    <ele>183.4</ele>
1579    <time>2016-01-06T09:17:17Z</time>
1580   </trkpt>
1581   <trkpt lat="49.1700180" lon="16.6232670">
1582    <ele>183.4</ele>
1583    <time>2016-01-06T09:17:18Z</time>
1584   </trkpt>
1585   <trkpt lat="49.1699650" lon="16.6232650">
1586    <ele>183.5</ele>
1587    <time>2016-01-06T09:17:19Z</time>
1588   </trkpt>
1589   <trkpt lat="49.1698780" lon="16.6232570">
1590    <ele>183.9</ele>
1591    <time>2016-01-06T09:17:21Z</time>
1592   </trkpt>
1593   <trkpt lat="49.1698290" lon="16.6232520">
1594    <ele>184.0</ele>
1595    <time>2016-01-06T09:17:22Z</time>
1596   </trkpt>
1597   <trkpt lat="49.1697820" lon="16.6232490">
1598    <ele>183.9</ele>
1599    <time>2016-01-06T09:17:23Z</time>
1600   </trkpt>
1601   <trkpt lat="49.1696910" lon="16.6232470">
1602    <ele>183.3</ele>
1603    <time>2016-01-06T09:17:25Z</time>
1604   </trkpt>
1605   <trkpt lat="49.1696470" lon="16.6232490">
1606    <ele>183.2</ele>
1607    <time>2016-01-06T09:17:26Z</time>
1608   </trkpt>
1609   <trkpt lat="49.1696030" lon="16.6232540">
1610    <ele>183.1</ele>
1611    <time>2016-01-06T09:17:27Z</time>
1612   </trkpt>
1613   <trkpt lat="49.1695490" lon="16.6232590">
1614    <ele>183.1</ele>
1615    <time>2016-01-06T09:17:28Z</time>
1616   </trkpt>
1617   <trkpt lat="49.1694480" lon="16.6232690">
1618    <ele>183.4</ele>
1619    <time>2016-01-06T09:17:30Z</time>
1620   </trkpt>
1621   <trkpt lat="49.1693970" lon="16.6232720">
1622    <ele>183.5</ele>
1623    <time>2016-01-06T09:17:31Z</time>
1624   </trkpt>
1625   <trkpt lat="49.1693000" lon="16.6232740">
1626    <ele>183.6</ele>
1627    <time>2016-01-06T09:17:33Z</time>
1628   </trkpt>
1629   <trkpt lat="49.1691980" lon="16.6232810">
1630    <ele>183.6</ele>
1631    <time>2016-01-06T09:17:35Z</time>
1632   </trkpt>
1633   <trkpt lat="49.1691490" lon="16.6232830">
1634    <ele>183.7</ele>
1635    <time>2016-01-06T09:17:36Z</time>
1636   </trkpt>
1637   <trkpt lat="49.1691010" lon="16.6232860">
1638    <ele>183.7</ele>
1639    <time>2016-01-06T09:17:37Z</time>
1640   </trkpt>
1641   <trkpt lat="49.1690550" lon="16.6232900">
1642    <ele>183.9</ele>
1643    <time>2016-01-06T09:17:38Z</time>
1644   </trkpt>
1645   <trkpt lat="49.1689490" lon="16.6232950">
1646    <ele>184.0</ele>
1647    <time>2016-01-06T09:17:40Z</time>
1648   </trkpt>
1649   <trkpt lat="49.1688400" lon="16.6232950">
1650    <ele>183.7</ele>
1651    <time>2016-01-06T09:17:42Z</time>
1652   </trkpt>
1653   <trkpt lat="49.1687870" lon="16.6232990">
1654    <ele>183.4</ele>
1655    <time>2016-01-06T09:17:43Z</time>
1656   </trkpt>
1657   <trkpt lat="49.1686870" lon="16.6233100">
1658    <ele>183.4</ele>
1659    <time>2016-01-06T09:17:45Z</time>
1660   </trkpt>
1661   <trkpt lat="49.1685800" lon="16.6233200">
1662    <ele>183.8</ele>
1663    <time>2016-01-06T09:17:47Z</time>
1664   </trkpt>
1665   <trkpt lat="49.1685270" lon="16.6233270">
1666    <ele>183.9</ele>
1667    <time>2016-01-06T09:17:48Z</time>
1668   </trkpt>
1669   <trkpt lat="49.1684310" lon="16.6233390">
1670    <ele>183.6</ele>
1671    <time>2016-01-06T09:17:50Z</time>
1672   </trkpt>
1673   <trkpt lat="49.1683310" lon="16.6233510">
1674    <ele>183.5</ele>
1675    <time>2016-01-06T09:17:52Z</time>
1676   </trkpt>
1677   <trkpt lat="49.1682830" lon="16.6233550">
1678    <ele>183.6</ele>
1679    <time>2016-01-06T09:17:53Z</time>
1680   </trkpt>
1681   <trkpt lat="49.1681840" lon="16.6233700">
1682    <ele>183.9</ele>
1683    <time>2016-01-06T09:17:55Z</time>
1684   </trkpt>
1685   <trkpt lat="49.1681330" lon="16.6233750">
1686    <ele>184.0</ele>
1687    <time>2016-01-06T09:17:56Z</time>
1688   </trkpt>
1689   <trkpt lat="49.1680330" lon="16.6233840">
1690    <ele>183.6</ele>
1691    <time>2016-01-06T09:17:58Z</time>
1692   </trkpt>
1693   <trkpt lat="49.1679300" lon="16.6233930">
1694    <ele>183.5</ele>
1695    <time>2016-01-06T09:18:00Z</time>
1696   </trkpt>
1697   <trkpt lat="49.1678230" lon="16.6234010">
1698    <ele>183.5</ele>
1699    <time>2016-01-06T09:18:02Z</time>
1700   </trkpt>
1701   <trkpt lat="49.1677230" lon="16.6234040">
1702    <ele>183.5</ele>
1703    <time>2016-01-06T09:18:04Z</time>
1704   </trkpt>
1705   <trkpt lat="49.1676190" lon="16.6234080">
1706    <ele>183.5</ele>
1707    <time>2016-01-06T09:18:06Z</time>
1708   </trkpt>
1709   <trkpt lat="49.1675170" lon="16.6234180">
1710    <ele>183.5</ele>
1711    <time>2016-01-06T09:18:08Z</time>
1712   </trkpt>
1713   <trkpt lat="49.1674240" lon="16.6234300">
1714    <ele>183.8</ele>
1715    <time>2016-01-06T09:18:10Z</time>
1716   </trkpt>
1717   <trkpt lat="49.1673270" lon="16.6234410">
1718    <ele>183.7</ele>
1719    <time>2016-01-06T09:18:12Z</time>
1720   </trkpt>
1721   <trkpt lat="49.1672720" lon="16.6234510">
1722    <ele>183.8</ele>
1723    <time>2016-01-06T09:18:13Z</time>
1724   </trkpt>
1725   <trkpt lat="49.1671550" lon="16.6234710">
1726    <ele>183.5</ele>
1727    <time>2016-01-06T09:18:15Z</time>
1728   </trkpt>
1729   <trkpt lat="49.1671030" lon="16.6234780">
1730    <ele>183.4</ele>
1731    <time>2016-01-06T09:18:16Z</time>
1732   </trkpt>
1733   <trkpt lat="49.1670550" lon="16.6234810">
1734    <ele>183.2</ele>
1735    <time>2016-01-06T09:18:17Z</time>
1736   </trkpt>
1737   <trkpt lat="49.1670090" lon="16.6234820">
1738    <ele>183.2</ele>
1739    <time>2016-01-06T09:18:18Z</time>
1740   </trkpt>
1741   <trkpt lat="49.1669250" lon="16.6234760">
1742    <ele>183.2</ele>
1743    <time>2016-01-06T09:18:20Z</time>
1744   </trkpt>
1745   <trkpt lat="49.1668910" lon="16.6234530">
1746    <ele>183.3</ele>
1747    <time>2016-01-06T09:18:21Z</time>
1748   </trkpt>
1749   <trkpt lat="49.1668670" lon="16.6234170">
1750    <ele>183.4</ele>
1751    <time>2016-01-06T09:18:22Z</time>
1752   </trkpt>
1753   <trkpt lat="49.1668450" lon="16.6233830">
1754    <ele>183.4</ele>
1755    <time>2016-01-06T09:18:23Z</time>
1756   </trkpt>
1757   <trkpt lat="49.1667830" lon="16.6233450">
1758    <ele>183.2</ele>
1759    <time>2016-01-06T09:18:25Z</time>
1760   </trkpt>
1761   <trkpt lat="49.1667320" lon="16.6233290">
1762    <ele>182.9</ele>
1763    <time>2016-01-06T09:18:27Z</time>
1764   </trkpt>
1765   <trkpt lat="49.1667020" lon="16.6232960">
1766    <ele>182.9</ele>
1767    <time>2016-01-06T09:18:29Z</time>
1768   </trkpt>
1769   <trkpt lat="49.1666730" lon="16.6232830">
1770    <ele>183.5</ele>
1771    <time>2016-01-06T09:18:31Z</time>
1772   </trkpt>
1773   <trkpt lat="49.1666250" lon="16.6232900">
1774    <ele>183.8</ele>
1775    <time>2016-01-06T09:18:33Z</time>
1776   </trkpt>
1777   <trkpt lat="49.1666000" lon="16.6233090">
1778    <ele>183.7</ele>
1779    <time>2016-01-06T09:18:35Z</time>
1780   </trkpt>
1781   <trkpt lat="49.1665250" lon="16.6233660">
1782    <ele>183.7</ele>
1783    <time>2016-01-06T09:18:44Z</time>
1784   </trkpt>
1785   <trkpt lat="49.1664900" lon="16.6233770">
1786    <ele>183.7</ele>
1787    <time>2016-01-06T09:18:45Z</time>
1788   </trkpt>
1789   <trkpt lat="49.1664630" lon="16.6233840">
1790    <ele>183.8</ele>
1791    <time>2016-01-06T09:18:46Z</time>
1792   </trkpt>
1793   <trkpt lat="49.1664350" lon="16.6233890">
1794    <ele>183.8</ele>
1795    <time>2016-01-06T09:18:47Z</time>
1796   </trkpt>
1797   <trkpt lat="49.1664070" lon="16.6233950">
1798    <ele>183.8</ele>
1799    <time>2016-01-06T09:18:48Z</time>
1800   </trkpt>
1801   <trkpt lat="49.1663500" lon="16.6234020">
1802    <ele>183.8</ele>
1803    <time>2016-01-06T09:18:50Z</time>
1804   </trkpt>
1805   <trkpt lat="49.1663230" lon="16.6234050">
1806    <ele>183.9</ele>
1807    <time>2016-01-06T09:18:51Z</time>
1808   </trkpt>
1809   <trkpt lat="49.1662690" lon="16.6234070">
1810    <ele>183.9</ele>
1811    <time>2016-01-06T09:18:53Z</time>
1812   </trkpt>
1813   <trkpt lat="49.1662340" lon="16.6234070">
1814    <ele>183.9</ele>
1815    <time>2016-01-06T09:18:54Z</time>
1816   </trkpt>
1817   <trkpt lat="49.1661940" lon="16.6234060">
1818    <ele>183.9</ele>
1819    <time>2016-01-06T09:18:55Z</time>
1820   </trkpt>
1821   <trkpt lat="49.1661050" lon="16.6233940">
1822    <ele>183.8</ele>
1823    <time>2016-01-06T09:18:57Z</time>
1824   </trkpt>
1825   <trkpt lat="49.1660530" lon="16.6233850">
1826    <ele>183.8</ele>
1827    <time>2016-01-06T09:18:58Z</time>
1828   </trkpt>
1829   <trkpt lat="49.1659500" lon="16.6233690">
1830    <ele>183.8</ele>
1831    <time>2016-01-06T09:19:00Z</time>
1832   </trkpt>
1833   <trkpt lat="49.1658990" lon="16.6233690">
1834    <ele>183.7</ele>
1835    <time>2016-01-06T09:19:01Z</time>
1836   </trkpt>
1837   <trkpt lat="49.1658490" lon="16.6233720">
1838    <ele>183.5</ele>
1839    <time>2016-01-06T09:19:02Z</time>
1840   </trkpt>
1841   <trkpt lat="49.1657580" lon="16.6233800">
1842    <ele>183.5</ele>
1843    <time>2016-01-06T09:19:04Z</time>
1844   </trkpt>
1845   <trkpt lat="49.1656570" lon="16.6233860">
1846    <ele>183.2</ele>
1847    <time>2016-01-06T09:19:06Z</time>
1848   </trkpt>
1849   <trkpt lat="49.1655540" lon="16.6233960">
1850    <ele>183.0</ele>
1851    <time>2016-01-06T09:19:08Z</time>
1852   </trkpt>
1853   <trkpt lat="49.1654610" lon="16.6234200">
1854    <ele>182.4</ele>
1855    <time>2016-01-06T09:19:10Z</time>
1856   </trkpt>
1857   <trkpt lat="49.1654170" lon="16.6234280">
1858    <ele>182.3</ele>
1859    <time>2016-01-06T09:19:11Z</time>
1860   </trkpt>
1861   <trkpt lat="49.1653700" lon="16.6234340">
1862    <ele>182.4</ele>
1863    <time>2016-01-06T09:19:12Z</time>
1864   </trkpt>
1865   <trkpt lat="49.1653240" lon="16.6234430">
1866    <ele>182.6</ele>
1867    <time>2016-01-06T09:19:13Z</time>
1868   </trkpt>
1869   <trkpt lat="49.1652300" lon="16.6234680">
1870    <ele>183.0</ele>
1871    <time>2016-01-06T09:19:15Z</time>
1872   </trkpt>
1873   <trkpt lat="49.1651770" lon="16.6234850">
1874    <ele>183.0</ele>
1875    <time>2016-01-06T09:19:16Z</time>
1876   </trkpt>
1877   <trkpt lat="49.1650650" lon="16.6235250">
1878    <ele>183.3</ele>
1879    <time>2016-01-06T09:19:18Z</time>
1880   </trkpt>
1881   <trkpt lat="49.1650200" lon="16.6235450">
1882    <ele>183.3</ele>
1883    <time>2016-01-06T09:19:19Z</time>
1884   </trkpt>
1885   <trkpt lat="49.1649350" lon="16.6235830">
1886    <ele>183.5</ele>
1887    <time>2016-01-06T09:19:21Z</time>
1888   </trkpt>
1889   <trkpt lat="49.1648920" lon="16.6236050">
1890    <ele>183.5</ele>
1891    <time>2016-01-06T09:19:22Z</time>
1892   </trkpt>
1893   <trkpt lat="49.1648090" lon="16.6236560">
1894    <ele>183.6</ele>
1895    <time>2016-01-06T09:19:24Z</time>
1896   </trkpt>
1897   <trkpt lat="49.1647720" lon="16.6236790">
1898    <ele>183.4</ele>
1899    <time>2016-01-06T09:19:25Z</time>
1900   </trkpt>
1901   <trkpt lat="49.1647340" lon="16.6237050">
1902    <ele>183.2</ele>
1903    <time>2016-01-06T09:19:26Z</time>
1904   </trkpt>
1905   <trkpt lat="49.1646840" lon="16.6237340">
1906    <ele>183.3</ele>
1907    <time>2016-01-06T09:19:27Z</time>
1908   </trkpt>
1909   <trkpt lat="49.1645870" lon="16.6237930">
1910    <ele>183.8</ele>
1911    <time>2016-01-06T09:19:29Z</time>
1912   </trkpt>
1913   <trkpt lat="49.1644830" lon="16.6238570">
1914    <ele>184.0</ele>
1915    <time>2016-01-06T09:19:31Z</time>
1916   </trkpt>
1917   <trkpt lat="49.1644360" lon="16.6238830">
1918    <ele>184.3</ele>
1919    <time>2016-01-06T09:19:32Z</time>
1920   </trkpt>
1921   <trkpt lat="49.1643450" lon="16.6239360">
1922    <ele>184.7</ele>
1923    <time>2016-01-06T09:19:34Z</time>
1924   </trkpt>
1925   <trkpt lat="49.1642630" lon="16.6239860">
1926    <ele>184.6</ele>
1927    <time>2016-01-06T09:19:36Z</time>
1928   </trkpt>
1929   <trkpt lat="49.1642270" lon="16.6240060">
1930    <ele>184.6</ele>
1931    <time>2016-01-06T09:19:37Z</time>
1932   </trkpt>
1933   <trkpt lat="49.1641840" lon="16.6240310">
1934    <ele>184.4</ele>
1935    <time>2016-01-06T09:19:38Z</time>
1936   </trkpt>
1937   <trkpt lat="49.1640880" lon="16.6240920">
1938    <ele>184.1</ele>
1939    <time>2016-01-06T09:19:40Z</time>
1940   </trkpt>
1941   <trkpt lat="49.1639840" lon="16.6241600">
1942    <ele>184.0</ele>
1943    <time>2016-01-06T09:19:42Z</time>
1944   </trkpt>
1945   <trkpt lat="49.1639000" lon="16.6242220">
1946    <ele>183.9</ele>
1947    <time>2016-01-06T09:19:44Z</time>
1948   </trkpt>
1949   <trkpt lat="49.1638140" lon="16.6242900">
1950    <ele>183.7</ele>
1951    <time>2016-01-06T09:19:46Z</time>
1952   </trkpt>
1953   <trkpt lat="49.1637150" lon="16.6243660">
1954    <ele>183.6</ele>
1955    <time>2016-01-06T09:19:48Z</time>
1956   </trkpt>
1957   <trkpt lat="49.1636600" lon="16.6244060">
1958    <ele>183.6</ele>
1959    <time>2016-01-06T09:19:49Z</time>
1960   </trkpt>
1961   <trkpt lat="49.1635610" lon="16.6244750">
1962    <ele>183.5</ele>
1963    <time>2016-01-06T09:19:52Z</time>
1964   </trkpt>
1965   <trkpt lat="49.1634720" lon="16.6245400">
1966    <ele>183.5</ele>
1967    <time>2016-01-06T09:19:53Z</time>
1968   </trkpt>
1969   <trkpt lat="49.1634290" lon="16.6245740">
1970    <ele>183.6</ele>
1971    <time>2016-01-06T09:19:54Z</time>
1972   </trkpt>
1973   <trkpt lat="49.1633850" lon="16.6246050">
1974    <ele>183.8</ele>
1975    <time>2016-01-06T09:19:55Z</time>
1976   </trkpt>
1977   <trkpt lat="49.1632950" lon="16.6246670">
1978    <ele>183.9</ele>
1979    <time>2016-01-06T09:19:57Z</time>
1980   </trkpt>
1981   <trkpt lat="49.1632050" lon="16.6247340">
1982    <ele>184.0</ele>
1983    <time>2016-01-06T09:19:59Z</time>
1984   </trkpt>
1985   <trkpt lat="49.1631640" lon="16.6247670">
1986    <ele>183.9</ele>
1987    <time>2016-01-06T09:20:00Z</time>
1988   </trkpt>
1989   <trkpt lat="49.1630800" lon="16.6248310">
1990    <ele>184.0</ele>
1991    <time>2016-01-06T09:20:02Z</time>
1992   </trkpt>
1993   <trkpt lat="49.1629900" lon="16.6248960">
1994    <ele>183.9</ele>
1995    <time>2016-01-06T09:20:04Z</time>
1996   </trkpt>
1997   <trkpt lat="49.1628980" lon="16.6249550">
1998    <ele>183.9</ele>
1999    <time>2016-01-06T09:20:06Z</time>
2000   </trkpt>
2001   <trkpt lat="49.1628500" lon="16.6249860">
2002    <ele>184.0</ele>
2003    <time>2016-01-06T09:20:07Z</time>
2004   </trkpt>
2005   <trkpt lat="49.1628000" lon="16.6250110">
2006    <ele>184.0</ele>
2007    <time>2016-01-06T09:20:08Z</time>
2008   </trkpt>
2009   <trkpt lat="49.1627300" lon="16.6250380">
2010    <ele>183.7</ele>
2011    <time>2016-01-06T09:20:10Z</time>
2012   </trkpt>
2013   <trkpt lat="49.1626450" lon="16.6250820">
2014    <ele>183.6</ele>
2015    <time>2016-01-06T09:20:12Z</time>
2016   </trkpt>
2017   <trkpt lat="49.1625580" lon="16.6251230">
2018    <ele>183.7</ele>
2019    <time>2016-01-06T09:20:14Z</time>
2020   </trkpt>
2021   <trkpt lat="49.1624710" lon="16.6251660">
2022    <ele>183.5</ele>
2023    <time>2016-01-06T09:20:16Z</time>
2024   </trkpt>
2025   <trkpt lat="49.1624300" lon="16.6251870">
2026    <ele>183.5</ele>
2027    <time>2016-01-06T09:20:17Z</time>
2028   </trkpt>
2029   <trkpt lat="49.1623480" lon="16.6252240">
2030    <ele>183.7</ele>
2031    <time>2016-01-06T09:20:19Z</time>
2032   </trkpt>
2033   <trkpt lat="49.1622550" lon="16.6252620">
2034    <ele>183.8</ele>
2035    <time>2016-01-06T09:20:21Z</time>
2036   </trkpt>
2037   <trkpt lat="49.1622130" lon="16.6252810">
2038    <ele>184.0</ele>
2039    <time>2016-01-06T09:20:22Z</time>
2040   </trkpt>
2041   <trkpt lat="49.1621640" lon="16.6253030">
2042    <ele>184.1</ele>
2043    <time>2016-01-06T09:20:23Z</time>
2044   </trkpt>
2045   <trkpt lat="49.1620770" lon="16.6253470">
2046    <ele>184.0</ele>
2047    <time>2016-01-06T09:20:25Z</time>
2048   </trkpt>
2049   <trkpt lat="49.1620360" lon="16.6253650">
2050    <ele>183.9</ele>
2051    <time>2016-01-06T09:20:26Z</time>
2052   </trkpt>
2053   <trkpt lat="49.1619960" lon="16.6253800">
2054    <ele>184.2</ele>
2055    <time>2016-01-06T09:20:27Z</time>
2056   </trkpt>
2057   <trkpt lat="49.1619590" lon="16.6253970">
2058    <ele>184.4</ele>
2059    <time>2016-01-06T09:20:28Z</time>
2060   </trkpt>
2061   <trkpt lat="49.1618840" lon="16.6254260">
2062    <ele>184.4</ele>
2063    <time>2016-01-06T09:20:30Z</time>
2064   </trkpt>
2065   <trkpt lat="49.1618470" lon="16.6254390">
2066    <ele>184.3</ele>
2067    <time>2016-01-06T09:20:31Z</time>
2068   </trkpt>
2069   <trkpt lat="49.1618050" lon="16.6254550">
2070    <ele>184.0</ele>
2071    <time>2016-01-06T09:20:32Z</time>
2072   </trkpt>
2073   <trkpt lat="49.1617130" lon="16.6254900">
2074    <ele>184.4</ele>
2075    <time>2016-01-06T09:20:34Z</time>
2076   </trkpt>
2077   <trkpt lat="49.1616680" lon="16.6255070">
2078    <ele>184.5</ele>
2079    <time>2016-01-06T09:20:35Z</time>
2080   </trkpt>
2081   <trkpt lat="49.1615580" lon="16.6255360">
2082    <ele>184.3</ele>
2083    <time>2016-01-06T09:20:37Z</time>
2084   </trkpt>
2085   <trkpt lat="49.1614450" lon="16.6255710">
2086    <ele>184.0</ele>
2087    <time>2016-01-06T09:20:39Z</time>
2088   </trkpt>
2089   <trkpt lat="49.1613950" lon="16.6255910">
2090    <ele>183.9</ele>
2091    <time>2016-01-06T09:20:40Z</time>
2092   </trkpt>
2093   <trkpt lat="49.1613500" lon="16.6256130">
2094    <ele>183.8</ele>
2095    <time>2016-01-06T09:20:41Z</time>
2096   </trkpt>
2097   <trkpt lat="49.1612620" lon="16.6256620">
2098    <ele>183.7</ele>
2099    <time>2016-01-06T09:20:43Z</time>
2100   </trkpt>
2101   <trkpt lat="49.1611840" lon="16.6257160">
2102    <ele>183.6</ele>
2103    <time>2016-01-06T09:20:45Z</time>
2104   </trkpt>
2105   <trkpt lat="49.1611400" lon="16.6257420">
2106    <ele>183.6</ele>
2107    <time>2016-01-06T09:20:46Z</time>
2108   </trkpt>
2109   <trkpt lat="49.1610640" lon="16.6257620">
2110    <ele>183.7</ele>
2111    <time>2016-01-06T09:20:48Z</time>
2112   </trkpt>
2113   <trkpt lat="49.1610200" lon="16.6257630">
2114    <ele>183.8</ele>
2115    <time>2016-01-06T09:20:49Z</time>
2116   </trkpt>
2117   <trkpt lat="49.1609820" lon="16.6257570">
2118    <ele>184.1</ele>
2119    <time>2016-01-06T09:20:50Z</time>
2120   </trkpt>
2121   <trkpt lat="49.1609100" lon="16.6257520">
2122    <ele>184.2</ele>
2123    <time>2016-01-06T09:20:52Z</time>
2124   </trkpt>
2125   <trkpt lat="49.1608430" lon="16.6257510">
2126    <ele>184.0</ele>
2127    <time>2016-01-06T09:20:54Z</time>
2128   </trkpt>
2129   <trkpt lat="49.1608100" lon="16.6257430">
2130    <ele>183.8</ele>
2131    <time>2016-01-06T09:20:56Z</time>
2132   </trkpt>
2133   <trkpt lat="49.1607670" lon="16.6257320">
2134    <ele>183.8</ele>
2135    <time>2016-01-06T09:20:58Z</time>
2136   </trkpt>
2137   <trkpt lat="49.1607360" lon="16.6257110">
2138    <ele>184.3</ele>
2139    <time>2016-01-06T09:21:00Z</time>
2140   </trkpt>
2141   <trkpt lat="49.1607090" lon="16.6256990">
2142    <ele>184.0</ele>
2143    <time>2016-01-06T09:21:02Z</time>
2144   </trkpt>
2145   <trkpt lat="49.1606810" lon="16.6257040">
2146    <ele>183.8</ele>
2147    <time>2016-01-06T09:21:04Z</time>
2148   </trkpt>
2149   <trkpt lat="49.1606280" lon="16.6257320">
2150    <ele>183.6</ele>
2151    <time>2016-01-06T09:21:07Z</time>
2152   </trkpt>
2153   <trkpt lat="49.1605520" lon="16.6257480">
2154    <ele>183.7</ele>
2155    <time>2016-01-06T09:21:09Z</time>
2156   </trkpt>
2157   <trkpt lat="49.1604520" lon="16.6257710">
2158    <ele>184.1</ele>
2159    <time>2016-01-06T09:21:11Z</time>
2160   </trkpt>
2161   <trkpt lat="49.1604050" lon="16.6257780">
2162    <ele>184.1</ele>
2163    <time>2016-01-06T09:21:12Z</time>
2164   </trkpt>
2165   <trkpt lat="49.1602990" lon="16.6257860">
2166    <ele>184.3</ele>
2167    <time>2016-01-06T09:21:14Z</time>
2168   </trkpt>
2169   <trkpt lat="49.1601870" lon="16.6257940">
2170    <ele>184.4</ele>
2171    <time>2016-01-06T09:21:17Z</time>
2172   </trkpt>
2173   <trkpt lat="49.1600820" lon="16.6257860">
2174    <ele>184.3</ele>
2175    <time>2016-01-06T09:21:18Z</time>
2176   </trkpt>
2177   <trkpt lat="49.1600260" lon="16.6257830">
2178    <ele>184.1</ele>
2179    <time>2016-01-06T09:21:19Z</time>
2180   </trkpt>
2181   <trkpt lat="49.1599260" lon="16.6257940">
2182    <ele>184.1</ele>
2183    <time>2016-01-06T09:21:21Z</time>
2184   </trkpt>
2185   <trkpt lat="49.1598400" lon="16.6258060">
2186    <ele>184.2</ele>
2187    <time>2016-01-06T09:21:23Z</time>
2188   </trkpt>
2189   <trkpt lat="49.1597720" lon="16.6258120">
2190    <ele>183.8</ele>
2191    <time>2016-01-06T09:21:25Z</time>
2192   </trkpt>
2193   <trkpt lat="49.1596860" lon="16.6258170">
2194    <ele>183.6</ele>
2195    <time>2016-01-06T09:21:27Z</time>
2196   </trkpt>
2197   <trkpt lat="49.1596110" lon="16.6258120">
2198    <ele>183.7</ele>
2199    <time>2016-01-06T09:21:29Z</time>
2200   </trkpt>
2201   <trkpt lat="49.1595440" lon="16.6258200">
2202    <ele>183.6</ele>
2203    <time>2016-01-06T09:21:31Z</time>
2204   </trkpt>
2205   <trkpt lat="49.1595170" lon="16.6258260">
2206    <ele>183.5</ele>
2207    <time>2016-01-06T09:21:32Z</time>
2208   </trkpt>
2209   <trkpt lat="49.1594630" lon="16.6258020">
2210    <ele>183.6</ele>
2211    <time>2016-01-06T09:21:34Z</time>
2212   </trkpt>
2213   <trkpt lat="49.1594350" lon="16.6257860">
2214    <ele>183.8</ele>
2215    <time>2016-01-06T09:21:35Z</time>
2216   </trkpt>
2217   <trkpt lat="49.1594020" lon="16.6257740">
2218    <ele>184.0</ele>
2219    <time>2016-01-06T09:21:36Z</time>
2220   </trkpt>
2221   <trkpt lat="49.1593370" lon="16.6257430">
2222    <ele>184.6</ele>
2223    <time>2016-01-06T09:21:38Z</time>
2224   </trkpt>
2225   <trkpt lat="49.1592410" lon="16.6257030">
2226    <ele>184.5</ele>
2227    <time>2016-01-06T09:21:40Z</time>
2228   </trkpt>
2229   <trkpt lat="49.1591730" lon="16.6257140">
2230    <ele>184.6</ele>
2231    <time>2016-01-06T09:21:41Z</time>
2232   </trkpt>
2233   <trkpt lat="49.1590990" lon="16.6257420">
2234    <ele>184.4</ele>
2235    <time>2016-01-06T09:21:42Z</time>
2236   </trkpt>
2237   <trkpt lat="49.1589730" lon="16.6257660">
2238    <ele>184.8</ele>
2239    <time>2016-01-06T09:21:44Z</time>
2240   </trkpt>
2241   <trkpt lat="49.1589080" lon="16.6257700">
2242    <ele>184.8</ele>
2243    <time>2016-01-06T09:21:45Z</time>
2244   </trkpt>
2245   <trkpt lat="49.1587840" lon="16.6257700">
2246    <ele>184.3</ele>
2247    <time>2016-01-06T09:21:47Z</time>
2248   </trkpt>
2249   <trkpt lat="49.1587220" lon="16.6257720">
2250    <ele>184.1</ele>
2251    <time>2016-01-06T09:21:48Z</time>
2252   </trkpt>
2253   <trkpt lat="49.1586540" lon="16.6257750">
2254    <ele>184.1</ele>
2255    <time>2016-01-06T09:21:49Z</time>
2256   </trkpt>
2257   <trkpt lat="49.1585470" lon="16.6257620">
2258    <ele>184.0</ele>
2259    <time>2016-01-06T09:21:51Z</time>
2260   </trkpt>
2261   <trkpt lat="49.1584340" lon="16.6257450">
2262    <ele>183.8</ele>
2263    <time>2016-01-06T09:21:53Z</time>
2264   </trkpt>
2265   <trkpt lat="49.1583010" lon="16.6257190">
2266    <ele>183.7</ele>
2267    <time>2016-01-06T09:21:55Z</time>
2268   </trkpt>
2269   <trkpt lat="49.1582410" lon="16.6257040">
2270    <ele>183.8</ele>
2271    <time>2016-01-06T09:21:56Z</time>
2272   </trkpt>
2273   <trkpt lat="49.1581890" lon="16.6256910">
2274    <ele>183.8</ele>
2275    <time>2016-01-06T09:21:57Z</time>
2276   </trkpt>
2277   <trkpt lat="49.1581320" lon="16.6256780">
2278    <ele>183.8</ele>
2279    <time>2016-01-06T09:21:58Z</time>
2280   </trkpt>
2281   <trkpt lat="49.1580120" lon="16.6256620">
2282    <ele>184.0</ele>
2283    <time>2016-01-06T09:22:00Z</time>
2284   </trkpt>
2285   <trkpt lat="49.1578960" lon="16.6256490">
2286    <ele>183.7</ele>
2287    <time>2016-01-06T09:22:02Z</time>
2288   </trkpt>
2289   <trkpt lat="49.1578380" lon="16.6256430">
2290    <ele>183.6</ele>
2291    <time>2016-01-06T09:22:03Z</time>
2292   </trkpt>
2293   <trkpt lat="49.1577800" lon="16.6256380">
2294    <ele>183.5</ele>
2295    <time>2016-01-06T09:22:04Z</time>
2296   </trkpt>
2297   <trkpt lat="49.1576750" lon="16.6256390">
2298    <ele>183.8</ele>
2299    <time>2016-01-06T09:22:06Z</time>
2300   </trkpt>
2301   <trkpt lat="49.1576180" lon="16.6256370">
2302    <ele>183.8</ele>
2303    <time>2016-01-06T09:22:07Z</time>
2304   </trkpt>
2305   <trkpt lat="49.1575670" lon="16.6256400">
2306    <ele>183.6</ele>
2307    <time>2016-01-06T09:22:08Z</time>
2308   </trkpt>
2309   <trkpt lat="49.1575030" lon="16.6256440">
2310    <ele>183.6</ele>
2311    <time>2016-01-06T09:22:09Z</time>
2312   </trkpt>
2313   <trkpt lat="49.1573730" lon="16.6256620">
2314    <ele>183.6</ele>
2315    <time>2016-01-06T09:22:11Z</time>
2316   </trkpt>
2317   <trkpt lat="49.1573080" lon="16.6256730">
2318    <ele>183.6</ele>
2319    <time>2016-01-06T09:22:12Z</time>
2320   </trkpt>
2321   <trkpt lat="49.1572420" lon="16.6256860">
2322    <ele>183.5</ele>
2323    <time>2016-01-06T09:22:13Z</time>
2324   </trkpt>
2325   <trkpt lat="49.1571180" lon="16.6257240">
2326    <ele>183.7</ele>
2327    <time>2016-01-06T09:22:15Z</time>
2328   </trkpt>
2329   <trkpt lat="49.1570100" lon="16.6257520">
2330    <ele>184.2</ele>
2331    <time>2016-01-06T09:22:17Z</time>
2332   </trkpt>
2333   <trkpt lat="49.1569060" lon="16.6257920">
2334    <ele>184.3</ele>
2335    <time>2016-01-06T09:22:19Z</time>
2336   </trkpt>
2337   <trkpt lat="49.1567880" lon="16.6258390">
2338    <ele>184.4</ele>
2339    <time>2016-01-06T09:22:21Z</time>
2340   </trkpt>
2341   <trkpt lat="49.1566760" lon="16.6258920">
2342    <ele>184.2</ele>
2343    <time>2016-01-06T09:22:23Z</time>
2344   </trkpt>
2345   <trkpt lat="49.1566250" lon="16.6259170">
2346    <ele>184.2</ele>
2347    <time>2016-01-06T09:22:24Z</time>
2348   </trkpt>
2349   <trkpt lat="49.1565260" lon="16.6259650">
2350    <ele>184.3</ele>
2351    <time>2016-01-06T09:22:26Z</time>
2352   </trkpt>
2353   <trkpt lat="49.1564130" lon="16.6260070">
2354    <ele>184.3</ele>
2355    <time>2016-01-06T09:22:28Z</time>
2356   </trkpt>
2357   <trkpt lat="49.1563540" lon="16.6260330">
2358    <ele>184.0</ele>
2359    <time>2016-01-06T09:22:29Z</time>
2360   </trkpt>
2361   <trkpt lat="49.1562540" lon="16.6260850">
2362    <ele>183.6</ele>
2363    <time>2016-01-06T09:22:31Z</time>
2364   </trkpt>
2365   <trkpt lat="49.1561710" lon="16.6261320">
2366    <ele>183.3</ele>
2367    <time>2016-01-06T09:22:33Z</time>
2368   </trkpt>
2369   <trkpt lat="49.1561410" lon="16.6261460">
2370    <ele>183.3</ele>
2371    <time>2016-01-06T09:22:34Z</time>
2372   </trkpt>
2373   <trkpt lat="49.1560880" lon="16.6261590">
2374    <ele>183.4</ele>
2375    <time>2016-01-06T09:22:36Z</time>
2376   </trkpt>
2377   <trkpt lat="49.1560640" lon="16.6261270">
2378    <ele>183.5</ele>
2379    <time>2016-01-06T09:22:38Z</time>
2380   </trkpt>
2381   <trkpt lat="49.1560430" lon="16.6260350">
2382    <ele>183.7</ele>
2383    <time>2016-01-06T09:22:40Z</time>
2384   </trkpt>
2385   <trkpt lat="49.1560200" lon="16.6258880">
2386    <ele>183.6</ele>
2387    <time>2016-01-06T09:22:42Z</time>
2388   </trkpt>
2389   <trkpt lat="49.1559930" lon="16.6257360">
2390    <ele>183.3</ele>
2391    <time>2016-01-06T09:22:44Z</time>
2392   </trkpt>
2393   <trkpt lat="49.1559590" lon="16.6255580">
2394    <ele>183.0</ele>
2395    <time>2016-01-06T09:22:46Z</time>
2396   </trkpt>
2397   <trkpt lat="49.1559400" lon="16.6254810">
2398    <ele>182.9</ele>
2399    <time>2016-01-06T09:22:47Z</time>
2400   </trkpt>
2401   <trkpt lat="49.1559100" lon="16.6253840">
2402    <ele>182.7</ele>
2403    <time>2016-01-06T09:22:49Z</time>
2404   </trkpt>
2405   <trkpt lat="49.1558710" lon="16.6253180">
2406    <ele>182.7</ele>
2407    <time>2016-01-06T09:22:51Z</time>
2408   </trkpt>
2409   <trkpt lat="49.1558400" lon="16.6253090">
2410    <ele>182.7</ele>
2411    <time>2016-01-06T09:22:52Z</time>
2412   </trkpt>
2413   <trkpt lat="49.1557680" lon="16.6253300">
2414    <ele>182.9</ele>
2415    <time>2016-01-06T09:22:54Z</time>
2416   </trkpt>
2417   <trkpt lat="49.1557230" lon="16.6253550">
2418    <ele>183.0</ele>
2419    <time>2016-01-06T09:22:55Z</time>
2420   </trkpt>
2421   <trkpt lat="49.1556470" lon="16.6254000">
2422    <ele>182.8</ele>
2423    <time>2016-01-06T09:22:57Z</time>
2424   </trkpt>
2425   <trkpt lat="49.1555560" lon="16.6254590">
2426    <ele>183.1</ele>
2427    <time>2016-01-06T09:22:59Z</time>
2428   </trkpt>
2429   <trkpt lat="49.1554570" lon="16.6255140">
2430    <ele>183.1</ele>
2431    <time>2016-01-06T09:23:01Z</time>
2432   </trkpt>
2433   <trkpt lat="49.1554110" lon="16.6255330">
2434    <ele>182.9</ele>
2435    <time>2016-01-06T09:23:02Z</time>
2436   </trkpt>
2437   <trkpt lat="49.1553640" lon="16.6255450">
2438    <ele>182.8</ele>
2439    <time>2016-01-06T09:23:03Z</time>
2440   </trkpt>
2441   <trkpt lat="49.1552700" lon="16.6255720">
2442    <ele>183.3</ele>
2443    <time>2016-01-06T09:23:05Z</time>
2444   </trkpt>
2445   <trkpt lat="49.1551800" lon="16.6255980">
2446    <ele>183.3</ele>
2447    <time>2016-01-06T09:23:07Z</time>
2448   </trkpt>
2449   <trkpt lat="49.1550930" lon="16.6256440">
2450    <ele>183.3</ele>
2451    <time>2016-01-06T09:23:09Z</time>
2452   </trkpt>
2453   <trkpt lat="49.1550090" lon="16.6257020">
2454    <ele>183.1</ele>
2455    <time>2016-01-06T09:23:11Z</time>
2456   </trkpt>
2457   <trkpt lat="49.1549710" lon="16.6257360">
2458    <ele>182.8</ele>
2459    <time>2016-01-06T09:23:12Z</time>
2460   </trkpt>
2461   <trkpt lat="49.1548890" lon="16.6258030">
2462    <ele>182.7</ele>
2463    <time>2016-01-06T09:23:14Z</time>
2464   </trkpt>
2465   <trkpt lat="49.1548430" lon="16.6258340">
2466    <ele>182.7</ele>
2467    <time>2016-01-06T09:23:15Z</time>
2468   </trkpt>
2469   <trkpt lat="49.1547980" lon="16.6258610">
2470    <ele>182.6</ele>
2471    <time>2016-01-06T09:23:16Z</time>
2472   </trkpt>
2473   <trkpt lat="49.1547510" lon="16.6258800">
2474    <ele>182.5</ele>
2475    <time>2016-01-06T09:23:17Z</time>
2476   </trkpt>
2477   <trkpt lat="49.1546560" lon="16.6258840">
2478    <ele>182.9</ele>
2479    <time>2016-01-06T09:23:19Z</time>
2480   </trkpt>
2481   <trkpt lat="49.1545760" lon="16.6258890">
2482    <ele>183.3</ele>
2483    <time>2016-01-06T09:23:21Z</time>
2484   </trkpt>
2485   <trkpt lat="49.1544960" lon="16.6259130">
2486    <ele>183.5</ele>
2487    <time>2016-01-06T09:23:23Z</time>
2488   </trkpt>
2489   <trkpt lat="49.1544270" lon="16.6259370">
2490    <ele>183.3</ele>
2491    <time>2016-01-06T09:23:25Z</time>
2492   </trkpt>
2493   <trkpt lat="49.1543910" lon="16.6259580">
2494    <ele>183.2</ele>
2495    <time>2016-01-06T09:23:26Z</time>
2496   </trkpt>
2497   <trkpt lat="49.1543540" lon="16.6259840">
2498    <ele>183.2</ele>
2499    <time>2016-01-06T09:23:27Z</time>
2500   </trkpt>
2501   <trkpt lat="49.1542480" lon="16.6260470">
2502    <ele>183.1</ele>
2503    <time>2016-01-06T09:23:29Z</time>
2504   </trkpt>
2505   <trkpt lat="49.1541870" lon="16.6260810">
2506    <ele>183.0</ele>
2507    <time>2016-01-06T09:23:30Z</time>
2508   </trkpt>
2509   <trkpt lat="49.1541270" lon="16.6261130">
2510    <ele>182.9</ele>
2511    <time>2016-01-06T09:23:31Z</time>
2512   </trkpt>
2513   <trkpt lat="49.1540100" lon="16.6261840">
2514    <ele>182.5</ele>
2515    <time>2016-01-06T09:23:33Z</time>
2516   </trkpt>
2517   <trkpt lat="49.1539620" lon="16.6262160">
2518    <ele>182.4</ele>
2519    <time>2016-01-06T09:23:34Z</time>
2520   </trkpt>
2521   <trkpt lat="49.1538630" lon="16.6262820">
2522    <ele>182.1</ele>
2523    <time>2016-01-06T09:23:36Z</time>
2524   </trkpt>
2525   <trkpt lat="49.1537620" lon="16.6263440">
2526    <ele>182.3</ele>
2527    <time>2016-01-06T09:23:38Z</time>
2528   </trkpt>
2529   <trkpt lat="49.1536610" lon="16.6264000">
2530    <ele>182.6</ele>
2531    <time>2016-01-06T09:23:40Z</time>
2532   </trkpt>
2533   <trkpt lat="49.1535520" lon="16.6264510">
2534    <ele>182.8</ele>
2535    <time>2016-01-06T09:23:42Z</time>
2536   </trkpt>
2537   <trkpt lat="49.1535080" lon="16.6264730">
2538    <ele>182.8</ele>
2539    <time>2016-01-06T09:23:43Z</time>
2540   </trkpt>
2541   <trkpt lat="49.1534700" lon="16.6264920">
2542    <ele>182.9</ele>
2543    <time>2016-01-06T09:23:44Z</time>
2544   </trkpt>
2545   <trkpt lat="49.1533910" lon="16.6265400">
2546    <ele>183.1</ele>
2547    <time>2016-01-06T09:23:46Z</time>
2548   </trkpt>
2549   <trkpt lat="49.1532990" lon="16.6266010">
2550    <ele>183.5</ele>
2551    <time>2016-01-06T09:23:48Z</time>
2552   </trkpt>
2553   <trkpt lat="49.1532540" lon="16.6266290">
2554    <ele>183.6</ele>
2555    <time>2016-01-06T09:23:49Z</time>
2556   </trkpt>
2557   <trkpt lat="49.1531540" lon="16.6266840">
2558    <ele>183.6</ele>
2559    <time>2016-01-06T09:23:51Z</time>
2560   </trkpt>
2561   <trkpt lat="49.1531070" lon="16.6267090">
2562    <ele>183.5</ele>
2563    <time>2016-01-06T09:23:52Z</time>
2564   </trkpt>
2565   <trkpt lat="49.1530170" lon="16.6267480">
2566    <ele>183.4</ele>
2567    <time>2016-01-06T09:23:54Z</time>
2568   </trkpt>
2569   <trkpt lat="49.1529730" lon="16.6267700">
2570    <ele>183.3</ele>
2571    <time>2016-01-06T09:23:55Z</time>
2572   </trkpt>
2573   <trkpt lat="49.1528890" lon="16.6268120">
2574    <ele>183.1</ele>
2575    <time>2016-01-06T09:23:57Z</time>
2576   </trkpt>
2577   <trkpt lat="49.1527980" lon="16.6268510">
2578    <ele>182.9</ele>
2579    <time>2016-01-06T09:23:59Z</time>
2580   </trkpt>
2581   <trkpt lat="49.1527140" lon="16.6268850">
2582    <ele>182.9</ele>
2583    <time>2016-01-06T09:24:01Z</time>
2584   </trkpt>
2585   <trkpt lat="49.1526620" lon="16.6269080">
2586    <ele>182.9</ele>
2587    <time>2016-01-06T09:24:02Z</time>
2588   </trkpt>
2589   <trkpt lat="49.1525790" lon="16.6269480">
2590    <ele>182.8</ele>
2591    <time>2016-01-06T09:24:04Z</time>
2592   </trkpt>
2593   <trkpt lat="49.1524920" lon="16.6269940">
2594    <ele>182.9</ele>
2595    <time>2016-01-06T09:24:06Z</time>
2596   </trkpt>
2597   <trkpt lat="49.1523960" lon="16.6270440">
2598    <ele>182.8</ele>
2599    <time>2016-01-06T09:24:08Z</time>
2600   </trkpt>
2601   <trkpt lat="49.1523130" lon="16.6270890">
2602    <ele>182.7</ele>
2603    <time>2016-01-06T09:24:10Z</time>
2604   </trkpt>
2605   <trkpt lat="49.1522300" lon="16.6271240">
2606    <ele>182.7</ele>
2607    <time>2016-01-06T09:24:12Z</time>
2608   </trkpt>
2609   <trkpt lat="49.1521460" lon="16.6271690">
2610    <ele>182.6</ele>
2611    <time>2016-01-06T09:24:14Z</time>
2612   </trkpt>
2613   <trkpt lat="49.1521000" lon="16.6271970">
2614    <ele>182.5</ele>
2615    <time>2016-01-06T09:24:15Z</time>
2616   </trkpt>
2617   <trkpt lat="49.1520540" lon="16.6272230">
2618    <ele>182.3</ele>
2619    <time>2016-01-06T09:24:16Z</time>
2620   </trkpt>
2621   <trkpt lat="49.1520070" lon="16.6272510">
2622    <ele>182.3</ele>
2623    <time>2016-01-06T09:24:17Z</time>
2624   </trkpt>
2625   <trkpt lat="49.1519170" lon="16.6273030">
2626    <ele>182.8</ele>
2627    <time>2016-01-06T09:24:19Z</time>
2628   </trkpt>
2629   <trkpt lat="49.1518730" lon="16.6273300">
2630    <ele>183.0</ele>
2631    <time>2016-01-06T09:24:20Z</time>
2632   </trkpt>
2633   <trkpt lat="49.1518330" lon="16.6273560">
2634    <ele>183.0</ele>
2635    <time>2016-01-06T09:24:21Z</time>
2636   </trkpt>
2637   <trkpt lat="49.1517550" lon="16.6274000">
2638    <ele>182.9</ele>
2639    <time>2016-01-06T09:24:23Z</time>
2640   </trkpt>
2641   <trkpt lat="49.1517080" lon="16.6274240">
2642    <ele>182.7</ele>
2643    <time>2016-01-06T09:24:24Z</time>
2644   </trkpt>
2645   <trkpt lat="49.1516190" lon="16.6274790">
2646    <ele>182.7</ele>
2647    <time>2016-01-06T09:24:26Z</time>
2648   </trkpt>
2649   <trkpt lat="49.1515320" lon="16.6275280">
2650    <ele>182.3</ele>
2651    <time>2016-01-06T09:24:28Z</time>
2652   </trkpt>
2653   <trkpt lat="49.1514430" lon="16.6275810">
2654    <ele>182.4</ele>
2655    <time>2016-01-06T09:24:30Z</time>
2656   </trkpt>
2657   <trkpt lat="49.1513910" lon="16.6276100">
2658    <ele>182.5</ele>
2659    <time>2016-01-06T09:24:31Z</time>
2660   </trkpt>
2661   <trkpt lat="49.1512950" lon="16.6276630">
2662    <ele>182.4</ele>
2663    <time>2016-01-06T09:24:33Z</time>
2664   </trkpt>
2665   <trkpt lat="49.1512080" lon="16.6277090">
2666    <ele>182.4</ele>
2667    <time>2016-01-06T09:24:35Z</time>
2668   </trkpt>
2669   <trkpt lat="49.1511650" lon="16.6277310">
2670    <ele>182.1</ele>
2671    <time>2016-01-06T09:24:36Z</time>
2672   </trkpt>
2673   <trkpt lat="49.1510710" lon="16.6277730">
2674    <ele>181.4</ele>
2675    <time>2016-01-06T09:24:38Z</time>
2676   </trkpt>
2677   <trkpt lat="49.1510250" lon="16.6277930">
2678    <ele>181.4</ele>
2679    <time>2016-01-06T09:24:39Z</time>
2680   </trkpt>
2681   <trkpt lat="49.1509830" lon="16.6278160">
2682    <ele>181.4</ele>
2683    <time>2016-01-06T09:24:40Z</time>
2684   </trkpt>
2685   <trkpt lat="49.1509110" lon="16.6278600">
2686    <ele>181.1</ele>
2687    <time>2016-01-06T09:24:42Z</time>
2688   </trkpt>
2689   <trkpt lat="49.1508370" lon="16.6279060">
2690    <ele>180.8</ele>
2691    <time>2016-01-06T09:24:44Z</time>
2692   </trkpt>
2693   <trkpt lat="49.1507450" lon="16.6279530">
2694    <ele>181.3</ele>
2695    <time>2016-01-06T09:24:46Z</time>
2696   </trkpt>
2697   <trkpt lat="49.1506610" lon="16.6279860">
2698    <ele>181.6</ele>
2699    <time>2016-01-06T09:24:48Z</time>
2700   </trkpt>
2701   <trkpt lat="49.1506160" lon="16.6280060">
2702    <ele>181.8</ele>
2703    <time>2016-01-06T09:24:49Z</time>
2704   </trkpt>
2705   <trkpt lat="49.1505170" lon="16.6280500">
2706    <ele>181.9</ele>
2707    <time>2016-01-06T09:24:51Z</time>
2708   </trkpt>
2709   <trkpt lat="49.1504730" lon="16.6280710">
2710    <ele>182.0</ele>
2711    <time>2016-01-06T09:24:52Z</time>
2712   </trkpt>
2713   <trkpt lat="49.1504290" lon="16.6280880">
2714    <ele>182.1</ele>
2715    <time>2016-01-06T09:24:53Z</time>
2716   </trkpt>
2717   <trkpt lat="49.1503840" lon="16.6281080">
2718    <ele>182.1</ele>
2719    <time>2016-01-06T09:24:54Z</time>
2720   </trkpt>
2721   <trkpt lat="49.1502870" lon="16.6281560">
2722    <ele>182.2</ele>
2723    <time>2016-01-06T09:24:56Z</time>
2724   </trkpt>
2725   <trkpt lat="49.1501800" lon="16.6282140">
2726    <ele>182.3</ele>
2727    <time>2016-01-06T09:24:58Z</time>
2728   </trkpt>
2729   <trkpt lat="49.1500830" lon="16.6282680">
2730    <ele>182.2</ele>
2731    <time>2016-01-06T09:25:00Z</time>
2732   </trkpt>
2733   <trkpt lat="49.1500330" lon="16.6282930">
2734    <ele>182.0</ele>
2735    <time>2016-01-06T09:25:01Z</time>
2736   </trkpt>
2737   <trkpt lat="49.1499810" lon="16.6283210">
2738    <ele>182.0</ele>
2739    <time>2016-01-06T09:25:02Z</time>
2740   </trkpt>
2741   <trkpt lat="49.1499290" lon="16.6283500">
2742    <ele>182.0</ele>
2743    <time>2016-01-06T09:25:03Z</time>
2744   </trkpt>
2745   <trkpt lat="49.1498800" lon="16.6283780">
2746    <ele>181.9</ele>
2747    <time>2016-01-06T09:25:04Z</time>
2748   </trkpt>
2749   <trkpt lat="49.1497810" lon="16.6284360">
2750    <ele>181.7</ele>
2751    <time>2016-01-06T09:25:06Z</time>
2752   </trkpt>
2753   <trkpt lat="49.1496960" lon="16.6284890">
2754    <ele>181.4</ele>
2755    <time>2016-01-06T09:25:08Z</time>
2756   </trkpt>
2757   <trkpt lat="49.1496530" lon="16.6285140">
2758    <ele>181.3</ele>
2759    <time>2016-01-06T09:25:09Z</time>
2760   </trkpt>
2761   <trkpt lat="49.1495610" lon="16.6285640">
2762    <ele>181.8</ele>
2763    <time>2016-01-06T09:25:11Z</time>
2764   </trkpt>
2765   <trkpt lat="49.1495110" lon="16.6285860">
2766    <ele>182.0</ele>
2767    <time>2016-01-06T09:25:12Z</time>
2768   </trkpt>
2769   <trkpt lat="49.1494050" lon="16.6286290">
2770    <ele>181.8</ele>
2771    <time>2016-01-06T09:25:14Z</time>
2772   </trkpt>
2773   <trkpt lat="49.1493230" lon="16.6286590">
2774    <ele>181.8</ele>
2775    <time>2016-01-06T09:25:16Z</time>
2776   </trkpt>
2777   <trkpt lat="49.1492750" lon="16.6286740">
2778    <ele>181.8</ele>
2779    <time>2016-01-06T09:25:17Z</time>
2780   </trkpt>
2781   <trkpt lat="49.1492310" lon="16.6286870">
2782    <ele>181.9</ele>
2783    <time>2016-01-06T09:25:18Z</time>
2784   </trkpt>
2785   <trkpt lat="49.1491300" lon="16.6287050">
2786    <ele>181.9</ele>
2787    <time>2016-01-06T09:25:20Z</time>
2788   </trkpt>
2789   <trkpt lat="49.1490780" lon="16.6287170">
2790    <ele>181.9</ele>
2791    <time>2016-01-06T09:25:21Z</time>
2792   </trkpt>
2793   <trkpt lat="49.1490280" lon="16.6287270">
2794    <ele>181.9</ele>
2795    <time>2016-01-06T09:25:22Z</time>
2796   </trkpt>
2797   <trkpt lat="49.1489270" lon="16.6287370">
2798    <ele>181.8</ele>
2799    <time>2016-01-06T09:25:24Z</time>
2800   </trkpt>
2801   <trkpt lat="49.1488800" lon="16.6287380">
2802    <ele>181.9</ele>
2803    <time>2016-01-06T09:25:25Z</time>
2804   </trkpt>
2805   <trkpt lat="49.1487900" lon="16.6287370">
2806    <ele>181.9</ele>
2807    <time>2016-01-06T09:25:27Z</time>
2808   </trkpt>
2809   <trkpt lat="49.1487020" lon="16.6287330">
2810    <ele>181.9</ele>
2811    <time>2016-01-06T09:25:29Z</time>
2812   </trkpt>
2813   <trkpt lat="49.1486090" lon="16.6287280">
2814    <ele>181.9</ele>
2815    <time>2016-01-06T09:25:31Z</time>
2816   </trkpt>
2817   <trkpt lat="49.1485570" lon="16.6287260">
2818    <ele>182.0</ele>
2819    <time>2016-01-06T09:25:32Z</time>
2820   </trkpt>
2821   <trkpt lat="49.1484620" lon="16.6287100">
2822    <ele>182.0</ele>
2823    <time>2016-01-06T09:25:34Z</time>
2824   </trkpt>
2825   <trkpt lat="49.1483560" lon="16.6286790">
2826    <ele>181.8</ele>
2827    <time>2016-01-06T09:25:36Z</time>
2828   </trkpt>
2829   <trkpt lat="49.1482480" lon="16.6286350">
2830    <ele>182.1</ele>
2831    <time>2016-01-06T09:25:38Z</time>
2832   </trkpt>
2833   <trkpt lat="49.1482060" lon="16.6286090">
2834    <ele>182.2</ele>
2835    <time>2016-01-06T09:25:39Z</time>
2836   </trkpt>
2837   <trkpt lat="49.1481280" lon="16.6285410">
2838    <ele>181.8</ele>
2839    <time>2016-01-06T09:25:41Z</time>
2840   </trkpt>
2841   <trkpt lat="49.1480930" lon="16.6284980">
2842    <ele>181.7</ele>
2843    <time>2016-01-06T09:25:42Z</time>
2844   </trkpt>
2845   <trkpt lat="49.1480250" lon="16.6283980">
2846    <ele>181.5</ele>
2847    <time>2016-01-06T09:25:44Z</time>
2848   </trkpt>
2849   <trkpt lat="49.1479550" lon="16.6282990">
2850    <ele>181.1</ele>
2851    <time>2016-01-06T09:25:46Z</time>
2852   </trkpt>
2853   <trkpt lat="49.1478820" lon="16.6282090">
2854    <ele>181.4</ele>
2855    <time>2016-01-06T09:25:48Z</time>
2856   </trkpt>
2857   <trkpt lat="49.1478020" lon="16.6281470">
2858    <ele>181.4</ele>
2859    <time>2016-01-06T09:25:50Z</time>
2860   </trkpt>
2861   <trkpt lat="49.1477600" lon="16.6281240">
2862    <ele>181.3</ele>
2863    <time>2016-01-06T09:25:51Z</time>
2864   </trkpt>
2865   <trkpt lat="49.1477090" lon="16.6280960">
2866    <ele>181.2</ele>
2867    <time>2016-01-06T09:25:52Z</time>
2868   </trkpt>
2869   <trkpt lat="49.1476610" lon="16.6280640">
2870    <ele>181.0</ele>
2871    <time>2016-01-06T09:25:53Z</time>
2872   </trkpt>
2873   <trkpt lat="49.1475680" lon="16.6280150">
2874    <ele>181.2</ele>
2875    <time>2016-01-06T09:25:55Z</time>
2876   </trkpt>
2877   <trkpt lat="49.1474720" lon="16.6279660">
2878    <ele>181.2</ele>
2879    <time>2016-01-06T09:25:57Z</time>
2880   </trkpt>
2881   <trkpt lat="49.1474290" lon="16.6279410">
2882    <ele>181.4</ele>
2883    <time>2016-01-06T09:25:58Z</time>
2884   </trkpt>
2885   <trkpt lat="49.1473240" lon="16.6278930">
2886    <ele>181.6</ele>
2887    <time>2016-01-06T09:26:00Z</time>
2888   </trkpt>
2889   <trkpt lat="49.1472690" lon="16.6278740">
2890    <ele>181.7</ele>
2891    <time>2016-01-06T09:26:01Z</time>
2892   </trkpt>
2893   <trkpt lat="49.1471780" lon="16.6278510">
2894    <ele>181.6</ele>
2895    <time>2016-01-06T09:26:03Z</time>
2896   </trkpt>
2897   <trkpt lat="49.1471350" lon="16.6278450">
2898    <ele>181.4</ele>
2899    <time>2016-01-06T09:26:04Z</time>
2900   </trkpt>
2901   <trkpt lat="49.1470940" lon="16.6278410">
2902    <ele>181.2</ele>
2903    <time>2016-01-06T09:26:05Z</time>
2904   </trkpt>
2905   <trkpt lat="49.1470010" lon="16.6278320">
2906    <ele>181.0</ele>
2907    <time>2016-01-06T09:26:07Z</time>
2908   </trkpt>
2909   <trkpt lat="49.1469550" lon="16.6278240">
2910    <ele>181.1</ele>
2911    <time>2016-01-06T09:26:09Z</time>
2912   </trkpt>
2913   <trkpt lat="49.1468470" lon="16.6278030">
2914    <ele>181.4</ele>
2915    <time>2016-01-06T09:26:10Z</time>
2916   </trkpt>
2917   <trkpt lat="49.1467490" lon="16.6277760">
2918    <ele>181.4</ele>
2919    <time>2016-01-06T09:26:12Z</time>
2920   </trkpt>
2921   <trkpt lat="49.1466590" lon="16.6277580">
2922    <ele>181.0</ele>
2923    <time>2016-01-06T09:26:14Z</time>
2924   </trkpt>
2925   <trkpt lat="49.1466150" lon="16.6277560">
2926    <ele>180.8</ele>
2927    <time>2016-01-06T09:26:15Z</time>
2928   </trkpt>
2929   <trkpt lat="49.1465690" lon="16.6277560">
2930    <ele>180.8</ele>
2931    <time>2016-01-06T09:26:16Z</time>
2932   </trkpt>
2933   <trkpt lat="49.1464820" lon="16.6277440">
2934    <ele>180.8</ele>
2935    <time>2016-01-06T09:26:18Z</time>
2936   </trkpt>
2937   <trkpt lat="49.1463950" lon="16.6277610">
2938    <ele>180.8</ele>
2939    <time>2016-01-06T09:26:20Z</time>
2940   </trkpt>
2941   <trkpt lat="49.1463450" lon="16.6277760">
2942    <ele>180.9</ele>
2943    <time>2016-01-06T09:26:21Z</time>
2944   </trkpt>
2945   <trkpt lat="49.1462490" lon="16.6277950">
2946    <ele>180.6</ele>
2947    <time>2016-01-06T09:26:23Z</time>
2948   </trkpt>
2949   <trkpt lat="49.1461640" lon="16.6278100">
2950    <ele>180.7</ele>
2951    <time>2016-01-06T09:26:25Z</time>
2952   </trkpt>
2953   <trkpt lat="49.1460780" lon="16.6278230">
2954    <ele>180.6</ele>
2955    <time>2016-01-06T09:26:27Z</time>
2956   </trkpt>
2957   <trkpt lat="49.1460330" lon="16.6278270">
2958    <ele>180.6</ele>
2959    <time>2016-01-06T09:26:28Z</time>
2960   </trkpt>
2961   <trkpt lat="49.1459480" lon="16.6278240">
2962    <ele>180.9</ele>
2963    <time>2016-01-06T09:26:30Z</time>
2964   </trkpt>
2965   <trkpt lat="49.1459000" lon="16.6278190">
2966    <ele>181.0</ele>
2967    <time>2016-01-06T09:26:31Z</time>
2968   </trkpt>
2969   <trkpt lat="49.1458010" lon="16.6278050">
2970    <ele>180.9</ele>
2971    <time>2016-01-06T09:26:33Z</time>
2972   </trkpt>
2973   <trkpt lat="49.1457540" lon="16.6278010">
2974    <ele>181.0</ele>
2975    <time>2016-01-06T09:26:34Z</time>
2976   </trkpt>
2977   <trkpt lat="49.1456570" lon="16.6277980">
2978    <ele>181.0</ele>
2979    <time>2016-01-06T09:26:36Z</time>
2980   </trkpt>
2981   <trkpt lat="49.1455600" lon="16.6278000">
2982    <ele>180.7</ele>
2983    <time>2016-01-06T09:26:38Z</time>
2984   </trkpt>
2985   <trkpt lat="49.1454650" lon="16.6278050">
2986    <ele>180.7</ele>
2987    <time>2016-01-06T09:26:40Z</time>
2988   </trkpt>
2989   <trkpt lat="49.1454270" lon="16.6278090">
2990    <ele>180.6</ele>
2991    <time>2016-01-06T09:26:41Z</time>
2992   </trkpt>
2993   <trkpt lat="49.1453900" lon="16.6278130">
2994    <ele>180.8</ele>
2995    <time>2016-01-06T09:26:42Z</time>
2996   </trkpt>
2997   <trkpt lat="49.1452970" lon="16.6278210">
2998    <ele>181.2</ele>
2999    <time>2016-01-06T09:26:44Z</time>
3000   </trkpt>
3001   <trkpt lat="49.1452130" lon="16.6278260">
3002    <ele>181.0</ele>
3003    <time>2016-01-06T09:26:46Z</time>
3004   </trkpt>
3005   <trkpt lat="49.1451660" lon="16.6278290">
3006    <ele>180.9</ele>
3007    <time>2016-01-06T09:26:47Z</time>
3008   </trkpt>
3009   <trkpt lat="49.1451190" lon="16.6278320">
3010    <ele>180.9</ele>
3011    <time>2016-01-06T09:26:48Z</time>
3012   </trkpt>
3013   <trkpt lat="49.1450690" lon="16.6278360">
3014    <ele>180.8</ele>
3015    <time>2016-01-06T09:26:49Z</time>
3016   </trkpt>
3017   <trkpt lat="49.1449670" lon="16.6278410">
3018    <ele>180.8</ele>
3019    <time>2016-01-06T09:26:51Z</time>
3020   </trkpt>
3021   <trkpt lat="49.1449220" lon="16.6278380">
3022    <ele>180.9</ele>
3023    <time>2016-01-06T09:26:52Z</time>
3024   </trkpt>
3025   <trkpt lat="49.1448780" lon="16.6278320">
3026    <ele>180.9</ele>
3027    <time>2016-01-06T09:26:53Z</time>
3028   </trkpt>
3029   <trkpt lat="49.1448070" lon="16.6278180">
3030    <ele>181.1</ele>
3031    <time>2016-01-06T09:26:55Z</time>
3032   </trkpt>
3033   <trkpt lat="49.1447690" lon="16.6278050">
3034    <ele>181.1</ele>
3035    <time>2016-01-06T09:26:56Z</time>
3036   </trkpt>
3037   <trkpt lat="49.1447230" lon="16.6277870">
3038    <ele>181.2</ele>
3039    <time>2016-01-06T09:26:58Z</time>
3040   </trkpt>
3041   <trkpt lat="49.1446840" lon="16.6277700">
3042    <ele>181.2</ele>
3043    <time>2016-01-06T09:27:00Z</time>
3044   </trkpt>
3045   <trkpt lat="49.1446560" lon="16.6277610">
3046    <ele>181.2</ele>
3047    <time>2016-01-06T09:27:01Z</time>
3048   </trkpt>
3049   <trkpt lat="49.1445720" lon="16.6277440">
3050    <ele>180.6</ele>
3051    <time>2016-01-06T09:27:03Z</time>
3052   </trkpt>
3053   <trkpt lat="49.1445210" lon="16.6277290">
3054    <ele>180.3</ele>
3055    <time>2016-01-06T09:27:04Z</time>
3056   </trkpt>
3057   <trkpt lat="49.1444120" lon="16.6276590">
3058    <ele>180.0</ele>
3059    <time>2016-01-06T09:27:06Z</time>
3060   </trkpt>
3061   <trkpt lat="49.1442970" lon="16.6275820">
3062    <ele>179.7</ele>
3063    <time>2016-01-06T09:27:08Z</time>
3064   </trkpt>
3065   <trkpt lat="49.1442330" lon="16.6275500">
3066    <ele>179.8</ele>
3067    <time>2016-01-06T09:27:09Z</time>
3068   </trkpt>
3069   <trkpt lat="49.1441260" lon="16.6275280">
3070    <ele>180.1</ele>
3071    <time>2016-01-06T09:27:11Z</time>
3072   </trkpt>
3073   <trkpt lat="49.1440730" lon="16.6275220">
3074    <ele>180.2</ele>
3075    <time>2016-01-06T09:27:12Z</time>
3076   </trkpt>
3077   <trkpt lat="49.1440200" lon="16.6275140">
3078    <ele>180.2</ele>
3079    <time>2016-01-06T09:27:13Z</time>
3080   </trkpt>
3081   <trkpt lat="49.1439330" lon="16.6275000">
3082    <ele>179.8</ele>
3083    <time>2016-01-06T09:27:15Z</time>
3084   </trkpt>
3085   <trkpt lat="49.1438860" lon="16.6274980">
3086    <ele>179.7</ele>
3087    <time>2016-01-06T09:27:16Z</time>
3088   </trkpt>
3089   <trkpt lat="49.1437770" lon="16.6275010">
3090    <ele>179.7</ele>
3091    <time>2016-01-06T09:27:18Z</time>
3092   </trkpt>
3093   <trkpt lat="49.1437320" lon="16.6275050">
3094    <ele>179.5</ele>
3095    <time>2016-01-06T09:27:19Z</time>
3096   </trkpt>
3097   <trkpt lat="49.1436770" lon="16.6275080">
3098    <ele>179.4</ele>
3099    <time>2016-01-06T09:27:20Z</time>
3100   </trkpt>
3101   <trkpt lat="49.1435890" lon="16.6275170">
3102    <ele>179.3</ele>
3103    <time>2016-01-06T09:27:22Z</time>
3104   </trkpt>
3105   <trkpt lat="49.1434930" lon="16.6275260">
3106    <ele>179.3</ele>
3107    <time>2016-01-06T09:27:24Z</time>
3108   </trkpt>
3109   <trkpt lat="49.1434450" lon="16.6275280">
3110    <ele>179.5</ele>
3111    <time>2016-01-06T09:27:25Z</time>
3112   </trkpt>
3113   <trkpt lat="49.1433490" lon="16.6275310">
3114    <ele>179.6</ele>
3115    <time>2016-01-06T09:27:27Z</time>
3116   </trkpt>
3117   <trkpt lat="49.1432720" lon="16.6275400">
3118    <ele>179.3</ele>
3119    <time>2016-01-06T09:27:29Z</time>
3120   </trkpt>
3121   <trkpt lat="49.1431750" lon="16.6275400">
3122    <ele>179.1</ele>
3123    <time>2016-01-06T09:27:31Z</time>
3124   </trkpt>
3125   <trkpt lat="49.1431220" lon="16.6275450">
3126    <ele>179.2</ele>
3127    <time>2016-01-06T09:27:32Z</time>
3128   </trkpt>
3129   <trkpt lat="49.1430350" lon="16.6275550">
3130    <ele>179.2</ele>
3131    <time>2016-01-06T09:27:34Z</time>
3132   </trkpt>
3133   <trkpt lat="49.1429350" lon="16.6275630">
3134    <ele>179.2</ele>
3135    <time>2016-01-06T09:27:36Z</time>
3136   </trkpt>
3137   <trkpt lat="49.1428470" lon="16.6275690">
3138    <ele>179.5</ele>
3139    <time>2016-01-06T09:27:38Z</time>
3140   </trkpt>
3141   <trkpt lat="49.1428030" lon="16.6275750">
3142    <ele>179.5</ele>
3143    <time>2016-01-06T09:27:39Z</time>
3144   </trkpt>
3145   <trkpt lat="49.1427590" lon="16.6275760">
3146    <ele>179.6</ele>
3147    <time>2016-01-06T09:27:40Z</time>
3148   </trkpt>
3149   <trkpt lat="49.1426690" lon="16.6275880">
3150    <ele>179.6</ele>
3151    <time>2016-01-06T09:27:42Z</time>
3152   </trkpt>
3153   <trkpt lat="49.1425860" lon="16.6275940">
3154    <ele>179.6</ele>
3155    <time>2016-01-06T09:27:44Z</time>
3156   </trkpt>
3157   <trkpt lat="49.1425040" lon="16.6276030">
3158    <ele>179.5</ele>
3159    <time>2016-01-06T09:27:46Z</time>
3160   </trkpt>
3161   <trkpt lat="49.1424170" lon="16.6276160">
3162    <ele>179.4</ele>
3163    <time>2016-01-06T09:27:48Z</time>
3164   </trkpt>
3165   <trkpt lat="49.1423680" lon="16.6276210">
3166    <ele>179.3</ele>
3167    <time>2016-01-06T09:27:49Z</time>
3168   </trkpt>
3169   <trkpt lat="49.1423250" lon="16.6276230">
3170    <ele>179.2</ele>
3171    <time>2016-01-06T09:27:50Z</time>
3172   </trkpt>
3173   <trkpt lat="49.1422240" lon="16.6276250">
3174    <ele>179.0</ele>
3175    <time>2016-01-06T09:27:52Z</time>
3176   </trkpt>
3177   <trkpt lat="49.1421280" lon="16.6276250">
3178    <ele>178.9</ele>
3179    <time>2016-01-06T09:27:54Z</time>
3180   </trkpt>
3181   <trkpt lat="49.1420870" lon="16.6276270">
3182    <ele>178.8</ele>
3183    <time>2016-01-06T09:27:55Z</time>
3184   </trkpt>
3185   <trkpt lat="49.1420180" lon="16.6276270">
3186    <ele>178.6</ele>
3187    <time>2016-01-06T09:27:57Z</time>
3188   </trkpt>
3189   <trkpt lat="49.1419770" lon="16.6276250">
3190    <ele>178.6</ele>
3191    <time>2016-01-06T09:27:58Z</time>
3192   </trkpt>
3193   <trkpt lat="49.1419310" lon="16.6276240">
3194    <ele>178.5</ele>
3195    <time>2016-01-06T09:27:59Z</time>
3196   </trkpt>
3197   <trkpt lat="49.1418850" lon="16.6276210">
3198    <ele>178.5</ele>
3199    <time>2016-01-06T09:28:00Z</time>
3200   </trkpt>
3201   <trkpt lat="49.1418090" lon="16.6276190">
3202    <ele>178.4</ele>
3203    <time>2016-01-06T09:28:02Z</time>
3204   </trkpt>
3205   <trkpt lat="49.1417240" lon="16.6276180">
3206    <ele>178.3</ele>
3207    <time>2016-01-06T09:28:04Z</time>
3208   </trkpt>
3209   <trkpt lat="49.1416410" lon="16.6276150">
3210    <ele>178.4</ele>
3211    <time>2016-01-06T09:28:06Z</time>
3212   </trkpt>
3213   <trkpt lat="49.1415620" lon="16.6276130">
3214    <ele>179.0</ele>
3215    <time>2016-01-06T09:28:08Z</time>
3216   </trkpt>
3217   <trkpt lat="49.1415050" lon="16.6276030">
3218    <ele>179.4</ele>
3219    <time>2016-01-06T09:28:10Z</time>
3220   </trkpt>
3221   <trkpt lat="49.1414490" lon="16.6275890">
3222    <ele>179.9</ele>
3223    <time>2016-01-06T09:28:12Z</time>
3224   </trkpt>
3225   <trkpt lat="49.1414040" lon="16.6275790">
3226    <ele>180.2</ele>
3227    <time>2016-01-06T09:28:14Z</time>
3228   </trkpt>
3229   <trkpt lat="49.1413620" lon="16.6275850">
3230    <ele>180.6</ele>
3231    <time>2016-01-06T09:28:16Z</time>
3232   </trkpt>
3233   <trkpt lat="49.1413230" lon="16.6276230">
3234    <ele>181.0</ele>
3235    <time>2016-01-06T09:28:18Z</time>
3236   </trkpt>
3237   <trkpt lat="49.1412920" lon="16.6276840">
3238    <ele>181.0</ele>
3239    <time>2016-01-06T09:28:20Z</time>
3240   </trkpt>
3241   <trkpt lat="49.1413160" lon="16.6277180">
3242    <ele>180.2</ele>
3243    <time>2016-01-06T09:28:30Z</time>
3244   </trkpt>
3245   <trkpt lat="49.1413530" lon="16.6276890">
3246    <ele>184.4</ele>
3247    <time>2016-01-06T09:30:16Z</time>
3248   </trkpt>
3249   <trkpt lat="49.1413210" lon="16.6276910">
3250    <ele>182.9</ele>
3251    <time>2016-01-06T09:31:39Z</time>
3252   </trkpt>
3253   <trkpt lat="49.1413510" lon="16.6276690">
3254    <ele>182.5</ele>
3255    <time>2016-01-06T09:33:14Z</time>
3256   </trkpt>
3257   <trkpt lat="49.1413550" lon="16.6276140">
3258    <ele>182.9</ele>
3259    <time>2016-01-06T09:33:16Z</time>
3260   </trkpt>
3261   <trkpt lat="49.1413570" lon="16.6275610">
3262    <ele>183.3</ele>
3263    <time>2016-01-06T09:33:18Z</time>
3264   </trkpt>
3265   <trkpt lat="49.1413570" lon="16.6275190">
3266    <ele>183.4</ele>
3267    <time>2016-01-06T09:33:20Z</time>
3268   </trkpt>
3269   <trkpt lat="49.1413520" lon="16.6274710">
3270    <ele>183.5</ele>
3271    <time>2016-01-06T09:33:22Z</time>
3272   </trkpt>
3273   <trkpt lat="49.1413500" lon="16.6274220">
3274    <ele>183.3</ele>
3275    <time>2016-01-06T09:33:24Z</time>
3276   </trkpt>
3277   <trkpt lat="49.1413540" lon="16.6273530">
3278    <ele>183.3</ele>
3279    <time>2016-01-06T09:33:26Z</time>
3280   </trkpt>
3281   <trkpt lat="49.1413610" lon="16.6272520">
3282    <ele>183.0</ele>
3283    <time>2016-01-06T09:33:28Z</time>
3284   </trkpt>
3285   <trkpt lat="49.1413760" lon="16.6271390">
3286    <ele>183.1</ele>
3287    <time>2016-01-06T09:33:30Z</time>
3288   </trkpt>
3289   <trkpt lat="49.1414090" lon="16.6270180">
3290    <ele>183.3</ele>
3291    <time>2016-01-06T09:33:32Z</time>
3292   </trkpt>
3293   <trkpt lat="49.1414640" lon="16.6268880">
3294    <ele>183.2</ele>
3295    <time>2016-01-06T09:33:34Z</time>
3296   </trkpt>
3297   <trkpt lat="49.1414910" lon="16.6268390">
3298    <ele>183.1</ele>
3299    <time>2016-01-06T09:33:35Z</time>
3300   </trkpt>
3301   <trkpt lat="49.1415450" lon="16.6267550">
3302    <ele>182.7</ele>
3303    <time>2016-01-06T09:33:37Z</time>
3304   </trkpt>
3305   <trkpt lat="49.1415710" lon="16.6267090">
3306    <ele>182.6</ele>
3307    <time>2016-01-06T09:33:39Z</time>
3308   </trkpt>
3309   <trkpt lat="49.1415930" lon="16.6266410">
3310    <ele>182.7</ele>
3311    <time>2016-01-06T09:33:41Z</time>
3312   </trkpt>
3313   <trkpt lat="49.1415870" lon="16.6265910">
3314    <ele>182.6</ele>
3315    <time>2016-01-06T09:33:43Z</time>
3316   </trkpt>
3317   <trkpt lat="49.1415470" lon="16.6265240">
3318    <ele>182.6</ele>
3319    <time>2016-01-06T09:33:45Z</time>
3320   </trkpt>
3321   <trkpt lat="49.1414820" lon="16.6264960">
3322    <ele>182.6</ele>
3323    <time>2016-01-06T09:33:47Z</time>
3324   </trkpt>
3325   <trkpt lat="49.1414440" lon="16.6265020">
3326    <ele>182.7</ele>
3327    <time>2016-01-06T09:33:48Z</time>
3328   </trkpt>
3329   <trkpt lat="49.1413460" lon="16.6264900">
3330    <ele>182.7</ele>
3331    <time>2016-01-06T09:33:50Z</time>
3332   </trkpt>
3333   <trkpt lat="49.1412980" lon="16.6264850">
3334    <ele>182.7</ele>
3335    <time>2016-01-06T09:33:51Z</time>
3336   </trkpt>
3337   <trkpt lat="49.1412030" lon="16.6264650">
3338    <ele>182.7</ele>
3339    <time>2016-01-06T09:33:53Z</time>
3340   </trkpt>
3341   <trkpt lat="49.1411200" lon="16.6264450">
3342    <ele>182.8</ele>
3343    <time>2016-01-06T09:33:55Z</time>
3344   </trkpt>
3345   <trkpt lat="49.1410780" lon="16.6264340">
3346    <ele>182.9</ele>
3347    <time>2016-01-06T09:33:56Z</time>
3348   </trkpt>
3349   <trkpt lat="49.1410360" lon="16.6264180">
3350    <ele>183.0</ele>
3351    <time>2016-01-06T09:33:57Z</time>
3352   </trkpt>
3353   <trkpt lat="49.1409970" lon="16.6263970">
3354    <ele>183.1</ele>
3355    <time>2016-01-06T09:33:58Z</time>
3356   </trkpt>
3357   <trkpt lat="49.1409150" lon="16.6263330">
3358    <ele>183.4</ele>
3359    <time>2016-01-06T09:34:00Z</time>
3360   </trkpt>
3361   <trkpt lat="49.1408440" lon="16.6262470">
3362    <ele>183.7</ele>
3363    <time>2016-01-06T09:34:02Z</time>
3364   </trkpt>
3365   <trkpt lat="49.1408130" lon="16.6261960">
3366    <ele>183.8</ele>
3367    <time>2016-01-06T09:34:03Z</time>
3368   </trkpt>
3369   <trkpt lat="49.1407780" lon="16.6261380">
3370    <ele>183.9</ele>
3371    <time>2016-01-06T09:34:04Z</time>
3372   </trkpt>
3373   <trkpt lat="49.1407180" lon="16.6260250">
3374    <ele>184.0</ele>
3375    <time>2016-01-06T09:34:06Z</time>
3376   </trkpt>
3377   <trkpt lat="49.1406630" lon="16.6258930">
3378    <ele>184.0</ele>
3379    <time>2016-01-06T09:34:08Z</time>
3380   </trkpt>
3381   <trkpt lat="49.1406120" lon="16.6257520">
3382    <ele>183.8</ele>
3383    <time>2016-01-06T09:34:10Z</time>
3384   </trkpt>
3385   <trkpt lat="49.1405870" lon="16.6256870">
3386    <ele>183.7</ele>
3387    <time>2016-01-06T09:34:11Z</time>
3388   </trkpt>
3389   <trkpt lat="49.1405630" lon="16.6256300">
3390    <ele>183.6</ele>
3391    <time>2016-01-06T09:34:12Z</time>
3392   </trkpt>
3393   <trkpt lat="49.1405400" lon="16.6255810">
3394    <ele>183.5</ele>
3395    <time>2016-01-06T09:34:13Z</time>
3396   </trkpt>
3397   <trkpt lat="49.1405170" lon="16.6255220">
3398    <ele>183.3</ele>
3399    <time>2016-01-06T09:34:14Z</time>
3400   </trkpt>
3401   <trkpt lat="49.1404680" lon="16.6254150">
3402    <ele>183.0</ele>
3403    <time>2016-01-06T09:34:16Z</time>
3404   </trkpt>
3405   <trkpt lat="49.1404340" lon="16.6253770">
3406    <ele>182.9</ele>
3407    <time>2016-01-06T09:34:17Z</time>
3408   </trkpt>
3409   <trkpt lat="49.1403960" lon="16.6253550">
3410    <ele>182.7</ele>
3411    <time>2016-01-06T09:34:18Z</time>
3412   </trkpt>
3413   <trkpt lat="49.1403020" lon="16.6253260">
3414    <ele>182.3</ele>
3415    <time>2016-01-06T09:34:20Z</time>
3416   </trkpt>
3417   <trkpt lat="49.1402460" lon="16.6253190">
3418    <ele>182.1</ele>
3419    <time>2016-01-06T09:34:21Z</time>
3420   </trkpt>
3421   <trkpt lat="49.1401460" lon="16.6253100">
3422    <ele>181.8</ele>
3423    <time>2016-01-06T09:34:23Z</time>
3424   </trkpt>
3425   <trkpt lat="49.1400410" lon="16.6253040">
3426    <ele>181.9</ele>
3427    <time>2016-01-06T09:34:25Z</time>
3428   </trkpt>
3429   <trkpt lat="49.1399900" lon="16.6253010">
3430    <ele>181.9</ele>
3431    <time>2016-01-06T09:34:26Z</time>
3432   </trkpt>
3433   <trkpt lat="49.1398950" lon="16.6252960">
3434    <ele>181.7</ele>
3435    <time>2016-01-06T09:34:28Z</time>
3436   </trkpt>
3437   <trkpt lat="49.1398000" lon="16.6252870">
3438    <ele>181.5</ele>
3439    <time>2016-01-06T09:34:30Z</time>
3440   </trkpt>
3441   <trkpt lat="49.1397540" lon="16.6252850">
3442    <ele>181.5</ele>
3443    <time>2016-01-06T09:34:31Z</time>
3444   </trkpt>
3445   <trkpt lat="49.1397130" lon="16.6252800">
3446    <ele>181.6</ele>
3447    <time>2016-01-06T09:34:32Z</time>
3448   </trkpt>
3449   <trkpt lat="49.1396090" lon="16.6252660">
3450    <ele>181.7</ele>
3451    <time>2016-01-06T09:34:34Z</time>
3452   </trkpt>
3453   <trkpt lat="49.1395040" lon="16.6252550">
3454    <ele>181.6</ele>
3455    <time>2016-01-06T09:34:36Z</time>
3456   </trkpt>
3457   <trkpt lat="49.1393920" lon="16.6252420">
3458    <ele>181.6</ele>
3459    <time>2016-01-06T09:34:38Z</time>
3460   </trkpt>
3461   <trkpt lat="49.1392850" lon="16.6252300">
3462    <ele>181.5</ele>
3463    <time>2016-01-06T09:34:40Z</time>
3464   </trkpt>
3465   <trkpt lat="49.1391800" lon="16.6252260">
3466    <ele>181.9</ele>
3467    <time>2016-01-06T09:34:42Z</time>
3468   </trkpt>
3469   <trkpt lat="49.1391290" lon="16.6252210">
3470    <ele>181.9</ele>
3471    <time>2016-01-06T09:34:43Z</time>
3472   </trkpt>
3473   <trkpt lat="49.1390270" lon="16.6252010">
3474    <ele>181.5</ele>
3475    <time>2016-01-06T09:34:45Z</time>
3476   </trkpt>
3477   <trkpt lat="49.1389750" lon="16.6251900">
3478    <ele>181.2</ele>
3479    <time>2016-01-06T09:34:46Z</time>
3480   </trkpt>
3481   <trkpt lat="49.1388740" lon="16.6251680">
3482    <ele>181.2</ele>
3483    <time>2016-01-06T09:34:48Z</time>
3484   </trkpt>
3485   <trkpt lat="49.1387780" lon="16.6251430">
3486    <ele>181.3</ele>
3487    <time>2016-01-06T09:34:50Z</time>
3488   </trkpt>
3489   <trkpt lat="49.1386770" lon="16.6251210">
3490    <ele>181.4</ele>
3491    <time>2016-01-06T09:34:52Z</time>
3492   </trkpt>
3493   <trkpt lat="49.1386260" lon="16.6251100">
3494    <ele>181.4</ele>
3495    <time>2016-01-06T09:34:53Z</time>
3496   </trkpt>
3497   <trkpt lat="49.1385180" lon="16.6250840">
3498    <ele>181.5</ele>
3499    <time>2016-01-06T09:34:55Z</time>
3500   </trkpt>
3501   <trkpt lat="49.1384660" lon="16.6250720">
3502    <ele>181.5</ele>
3503    <time>2016-01-06T09:34:56Z</time>
3504   </trkpt>
3505   <trkpt lat="49.1384210" lon="16.6250600">
3506    <ele>181.4</ele>
3507    <time>2016-01-06T09:34:57Z</time>
3508   </trkpt>
3509   <trkpt lat="49.1383140" lon="16.6250320">
3510    <ele>181.3</ele>
3511    <time>2016-01-06T09:34:59Z</time>
3512   </trkpt>
3513   <trkpt lat="49.1382060" lon="16.6250130">
3514    <ele>181.6</ele>
3515    <time>2016-01-06T09:35:01Z</time>
3516   </trkpt>
3517   <trkpt lat="49.1381170" lon="16.6249970">
3518    <ele>181.3</ele>
3519    <time>2016-01-06T09:35:03Z</time>
3520   </trkpt>
3521   <trkpt lat="49.1380340" lon="16.6249710">
3522    <ele>181.2</ele>
3523    <time>2016-01-06T09:35:05Z</time>
3524   </trkpt>
3525   <trkpt lat="49.1379870" lon="16.6249580">
3526    <ele>181.2</ele>
3527    <time>2016-01-06T09:35:06Z</time>
3528   </trkpt>
3529   <trkpt lat="49.1378860" lon="16.6249340">
3530    <ele>181.3</ele>
3531    <time>2016-01-06T09:35:08Z</time>
3532   </trkpt>
3533   <trkpt lat="49.1377840" lon="16.6249080">
3534    <ele>181.6</ele>
3535    <time>2016-01-06T09:35:10Z</time>
3536   </trkpt>
3537   <trkpt lat="49.1377360" lon="16.6248950">
3538    <ele>181.7</ele>
3539    <time>2016-01-06T09:35:11Z</time>
3540   </trkpt>
3541   <trkpt lat="49.1376870" lon="16.6248830">
3542    <ele>181.6</ele>
3543    <time>2016-01-06T09:35:12Z</time>
3544   </trkpt>
3545   <trkpt lat="49.1376320" lon="16.6248720">
3546    <ele>181.5</ele>
3547    <time>2016-01-06T09:35:13Z</time>
3548   </trkpt>
3549   <trkpt lat="49.1375360" lon="16.6248490">
3550    <ele>181.2</ele>
3551    <time>2016-01-06T09:35:15Z</time>
3552   </trkpt>
3553   <trkpt lat="49.1374840" lon="16.6248370">
3554    <ele>181.0</ele>
3555    <time>2016-01-06T09:35:16Z</time>
3556   </trkpt>
3557   <trkpt lat="49.1374350" lon="16.6248250">
3558    <ele>180.8</ele>
3559    <time>2016-01-06T09:35:17Z</time>
3560   </trkpt>
3561   <trkpt lat="49.1373880" lon="16.6248140">
3562    <ele>180.7</ele>
3563    <time>2016-01-06T09:35:18Z</time>
3564   </trkpt>
3565   <trkpt lat="49.1372830" lon="16.6247890">
3566    <ele>180.8</ele>
3567    <time>2016-01-06T09:35:20Z</time>
3568   </trkpt>
3569   <trkpt lat="49.1371840" lon="16.6247700">
3570    <ele>180.9</ele>
3571    <time>2016-01-06T09:35:22Z</time>
3572   </trkpt>
3573   <trkpt lat="49.1370880" lon="16.6247590">
3574    <ele>180.8</ele>
3575    <time>2016-01-06T09:35:24Z</time>
3576   </trkpt>
3577   <trkpt lat="49.1370380" lon="16.6247570">
3578    <ele>180.8</ele>
3579    <time>2016-01-06T09:35:25Z</time>
3580   </trkpt>
3581   <trkpt lat="49.1369850" lon="16.6247550">
3582    <ele>180.8</ele>
3583    <time>2016-01-06T09:35:26Z</time>
3584   </trkpt>
3585   <trkpt lat="49.1368900" lon="16.6247520">
3586    <ele>180.9</ele>
3587    <time>2016-01-06T09:35:28Z</time>
3588   </trkpt>
3589   <trkpt lat="49.1367840" lon="16.6247480">
3590    <ele>181.0</ele>
3591    <time>2016-01-06T09:35:30Z</time>
3592   </trkpt>
3593   <trkpt lat="49.1366800" lon="16.6247460">
3594    <ele>181.1</ele>
3595    <time>2016-01-06T09:35:32Z</time>
3596   </trkpt>
3597   <trkpt lat="49.1366330" lon="16.6247440">
3598    <ele>181.1</ele>
3599    <time>2016-01-06T09:35:33Z</time>
3600   </trkpt>
3601   <trkpt lat="49.1365330" lon="16.6247380">
3602    <ele>181.3</ele>
3603    <time>2016-01-06T09:35:35Z</time>
3604   </trkpt>
3605   <trkpt lat="49.1364380" lon="16.6247340">
3606    <ele>181.3</ele>
3607    <time>2016-01-06T09:35:37Z</time>
3608   </trkpt>
3609   <trkpt lat="49.1363890" lon="16.6247310">
3610    <ele>181.2</ele>
3611    <time>2016-01-06T09:35:38Z</time>
3612   </trkpt>
3613   <trkpt lat="49.1363320" lon="16.6247270">
3614    <ele>181.0</ele>
3615    <time>2016-01-06T09:35:39Z</time>
3616   </trkpt>
3617   <trkpt lat="49.1362390" lon="16.6247190">
3618    <ele>180.8</ele>
3619    <time>2016-01-06T09:35:41Z</time>
3620   </trkpt>
3621   <trkpt lat="49.1361900" lon="16.6247180">
3622    <ele>180.9</ele>
3623    <time>2016-01-06T09:35:42Z</time>
3624   </trkpt>
3625   <trkpt lat="49.1361420" lon="16.6247190">
3626    <ele>180.9</ele>
3627    <time>2016-01-06T09:35:43Z</time>
3628   </trkpt>
3629   <trkpt lat="49.1360440" lon="16.6247200">
3630    <ele>180.8</ele>
3631    <time>2016-01-06T09:35:45Z</time>
3632   </trkpt>
3633   <trkpt lat="49.1359870" lon="16.6247180">
3634    <ele>180.9</ele>
3635    <time>2016-01-06T09:35:46Z</time>
3636   </trkpt>
3637   <trkpt lat="49.1359310" lon="16.6247150">
3638    <ele>180.9</ele>
3639    <time>2016-01-06T09:35:47Z</time>
3640   </trkpt>
3641   <trkpt lat="49.1358760" lon="16.6247160">
3642    <ele>180.8</ele>
3643    <time>2016-01-06T09:35:48Z</time>
3644   </trkpt>
3645   <trkpt lat="49.1357960" lon="16.6247100">
3646    <ele>180.5</ele>
3647    <time>2016-01-06T09:35:50Z</time>
3648   </trkpt>
3649   <trkpt lat="49.1357560" lon="16.6247080">
3650    <ele>180.5</ele>
3651    <time>2016-01-06T09:35:51Z</time>
3652   </trkpt>
3653   <trkpt lat="49.1357030" lon="16.6247090">
3654    <ele>180.5</ele>
3655    <time>2016-01-06T09:35:52Z</time>
3656   </trkpt>
3657   <trkpt lat="49.1356530" lon="16.6247080">
3658    <ele>180.3</ele>
3659    <time>2016-01-06T09:35:53Z</time>
3660   </trkpt>
3661   <trkpt lat="49.1355650" lon="16.6247080">
3662    <ele>180.1</ele>
3663    <time>2016-01-06T09:35:55Z</time>
3664   </trkpt>
3665   <trkpt lat="49.1355220" lon="16.6247070">
3666    <ele>180.1</ele>
3667    <time>2016-01-06T09:35:56Z</time>
3668   </trkpt>
3669   <trkpt lat="49.1354740" lon="16.6247030">
3670    <ele>180.1</ele>
3671    <time>2016-01-06T09:35:57Z</time>
3672   </trkpt>
3673   <trkpt lat="49.1354250" lon="16.6247020">
3674    <ele>180.1</ele>
3675    <time>2016-01-06T09:35:58Z</time>
3676   </trkpt>
3677   <trkpt lat="49.1353830" lon="16.6246970">
3678    <ele>180.1</ele>
3679    <time>2016-01-06T09:35:59Z</time>
3680   </trkpt>
3681   <trkpt lat="49.1353380" lon="16.6246950">
3682    <ele>180.1</ele>
3683    <time>2016-01-06T09:36:00Z</time>
3684   </trkpt>
3685   <trkpt lat="49.1352500" lon="16.6246890">
3686    <ele>179.8</ele>
3687    <time>2016-01-06T09:36:02Z</time>
3688   </trkpt>
3689   <trkpt lat="49.1352090" lon="16.6246850">
3690    <ele>179.8</ele>
3691    <time>2016-01-06T09:36:03Z</time>
3692   </trkpt>
3693   <trkpt lat="49.1351180" lon="16.6246740">
3694    <ele>180.1</ele>
3695    <time>2016-01-06T09:36:05Z</time>
3696   </trkpt>
3697   <trkpt lat="49.1350270" lon="16.6246630">
3698    <ele>179.9</ele>
3699    <time>2016-01-06T09:36:07Z</time>
3700   </trkpt>
3701   <trkpt lat="49.1349800" lon="16.6246580">
3702    <ele>179.9</ele>
3703    <time>2016-01-06T09:36:08Z</time>
3704   </trkpt>
3705   <trkpt lat="49.1349360" lon="16.6246510">
3706    <ele>180.0</ele>
3707    <time>2016-01-06T09:36:09Z</time>
3708   </trkpt>
3709   <trkpt lat="49.1348430" lon="16.6246430">
3710    <ele>180.0</ele>
3711    <time>2016-01-06T09:36:11Z</time>
3712   </trkpt>
3713   <trkpt lat="49.1347540" lon="16.6246350">
3714    <ele>179.9</ele>
3715    <time>2016-01-06T09:36:13Z</time>
3716   </trkpt>
3717   <trkpt lat="49.1346720" lon="16.6246300">
3718    <ele>180.0</ele>
3719    <time>2016-01-06T09:36:15Z</time>
3720   </trkpt>
3721   <trkpt lat="49.1346290" lon="16.6246290">
3722    <ele>180.2</ele>
3723    <time>2016-01-06T09:36:16Z</time>
3724   </trkpt>
3725   <trkpt lat="49.1345840" lon="16.6246280">
3726    <ele>180.5</ele>
3727    <time>2016-01-06T09:36:17Z</time>
3728   </trkpt>
3729   <trkpt lat="49.1345320" lon="16.6246250">
3730    <ele>180.6</ele>
3731    <time>2016-01-06T09:36:18Z</time>
3732   </trkpt>
3733   <trkpt lat="49.1344830" lon="16.6246220">
3734    <ele>180.5</ele>
3735    <time>2016-01-06T09:36:19Z</time>
3736   </trkpt>
3737   <trkpt lat="49.1343930" lon="16.6246150">
3738    <ele>180.6</ele>
3739    <time>2016-01-06T09:36:21Z</time>
3740   </trkpt>
3741   <trkpt lat="49.1343520" lon="16.6246130">
3742    <ele>180.5</ele>
3743    <time>2016-01-06T09:36:22Z</time>
3744   </trkpt>
3745   <trkpt lat="49.1343170" lon="16.6246110">
3746    <ele>180.4</ele>
3747    <time>2016-01-06T09:36:23Z</time>
3748   </trkpt>
3749   <trkpt lat="49.1342260" lon="16.6246070">
3750    <ele>180.3</ele>
3751    <time>2016-01-06T09:36:25Z</time>
3752   </trkpt>
3753   <trkpt lat="49.1341760" lon="16.6246060">
3754    <ele>180.2</ele>
3755    <time>2016-01-06T09:36:26Z</time>
3756   </trkpt>
3757   <trkpt lat="49.1340830" lon="16.6246030">
3758    <ele>180.1</ele>
3759    <time>2016-01-06T09:36:28Z</time>
3760   </trkpt>
3761   <trkpt lat="49.1339960" lon="16.6245960">
3762    <ele>180.1</ele>
3763    <time>2016-01-06T09:36:30Z</time>
3764   </trkpt>
3765   <trkpt lat="49.1339030" lon="16.6245880">
3766    <ele>179.9</ele>
3767    <time>2016-01-06T09:36:32Z</time>
3768   </trkpt>
3769   <trkpt lat="49.1338550" lon="16.6245850">
3770    <ele>179.8</ele>
3771    <time>2016-01-06T09:36:33Z</time>
3772   </trkpt>
3773   <trkpt lat="49.1337590" lon="16.6245830">
3774    <ele>179.9</ele>
3775    <time>2016-01-06T09:36:35Z</time>
3776   </trkpt>
3777   <trkpt lat="49.1336680" lon="16.6245750">
3778    <ele>179.9</ele>
3779    <time>2016-01-06T09:36:37Z</time>
3780   </trkpt>
3781   <trkpt lat="49.1335780" lon="16.6245690">
3782    <ele>179.7</ele>
3783    <time>2016-01-06T09:36:39Z</time>
3784   </trkpt>
3785   <trkpt lat="49.1335340" lon="16.6245680">
3786    <ele>179.8</ele>
3787    <time>2016-01-06T09:36:40Z</time>
3788   </trkpt>
3789   <trkpt lat="49.1334390" lon="16.6245620">
3790    <ele>179.8</ele>
3791    <time>2016-01-06T09:36:42Z</time>
3792   </trkpt>
3793   <trkpt lat="49.1333920" lon="16.6245600">
3794    <ele>179.7</ele>
3795    <time>2016-01-06T09:36:43Z</time>
3796   </trkpt>
3797   <trkpt lat="49.1332940" lon="16.6245500">
3798    <ele>179.7</ele>
3799    <time>2016-01-06T09:36:45Z</time>
3800   </trkpt>
3801   <trkpt lat="49.1332090" lon="16.6245380">
3802    <ele>179.6</ele>
3803    <time>2016-01-06T09:36:47Z</time>
3804   </trkpt>
3805   <trkpt lat="49.1331650" lon="16.6245330">
3806    <ele>179.7</ele>
3807    <time>2016-01-06T09:36:48Z</time>
3808   </trkpt>
3809   <trkpt lat="49.1331160" lon="16.6245280">
3810    <ele>179.7</ele>
3811    <time>2016-01-06T09:36:49Z</time>
3812   </trkpt>
3813   <trkpt lat="49.1330180" lon="16.6245190">
3814    <ele>179.6</ele>
3815    <time>2016-01-06T09:36:51Z</time>
3816   </trkpt>
3817   <trkpt lat="49.1329140" lon="16.6245070">
3818    <ele>179.6</ele>
3819    <time>2016-01-06T09:36:53Z</time>
3820   </trkpt>
3821   <trkpt lat="49.1328210" lon="16.6245000">
3822    <ele>179.7</ele>
3823    <time>2016-01-06T09:36:55Z</time>
3824   </trkpt>
3825   <trkpt lat="49.1327140" lon="16.6244950">
3826    <ele>179.7</ele>
3827    <time>2016-01-06T09:36:57Z</time>
3828   </trkpt>
3829   <trkpt lat="49.1326670" lon="16.6244910">
3830    <ele>179.7</ele>
3831    <time>2016-01-06T09:36:58Z</time>
3832   </trkpt>
3833   <trkpt lat="49.1325570" lon="16.6244820">
3834    <ele>179.7</ele>
3835    <time>2016-01-06T09:37:00Z</time>
3836   </trkpt>
3837   <trkpt lat="49.1325100" lon="16.6244790">
3838    <ele>179.8</ele>
3839    <time>2016-01-06T09:37:01Z</time>
3840   </trkpt>
3841   <trkpt lat="49.1324180" lon="16.6244760">
3842    <ele>179.5</ele>
3843    <time>2016-01-06T09:37:03Z</time>
3844   </trkpt>
3845   <trkpt lat="49.1323710" lon="16.6244740">
3846    <ele>179.5</ele>
3847    <time>2016-01-06T09:37:04Z</time>
3848   </trkpt>
3849   <trkpt lat="49.1322750" lon="16.6244660">
3850    <ele>179.4</ele>
3851    <time>2016-01-06T09:37:06Z</time>
3852   </trkpt>
3853   <trkpt lat="49.1322320" lon="16.6244630">
3854    <ele>179.4</ele>
3855    <time>2016-01-06T09:37:07Z</time>
3856   </trkpt>
3857   <trkpt lat="49.1321890" lon="16.6244580">
3858    <ele>179.4</ele>
3859    <time>2016-01-06T09:37:08Z</time>
3860   </trkpt>
3861   <trkpt lat="49.1321030" lon="16.6244500">
3862    <ele>179.1</ele>
3863    <time>2016-01-06T09:37:10Z</time>
3864   </trkpt>
3865   <trkpt lat="49.1320640" lon="16.6244450">
3866    <ele>179.0</ele>
3867    <time>2016-01-06T09:37:11Z</time>
3868   </trkpt>
3869   <trkpt lat="49.1320230" lon="16.6244430">
3870    <ele>178.9</ele>
3871    <time>2016-01-06T09:37:12Z</time>
3872   </trkpt>
3873   <trkpt lat="49.1319220" lon="16.6244360">
3874    <ele>179.0</ele>
3875    <time>2016-01-06T09:37:14Z</time>
3876   </trkpt>
3877   <trkpt lat="49.1318230" lon="16.6244290">
3878    <ele>179.1</ele>
3879    <time>2016-01-06T09:37:16Z</time>
3880   </trkpt>
3881   <trkpt lat="49.1317780" lon="16.6244250">
3882    <ele>179.0</ele>
3883    <time>2016-01-06T09:37:17Z</time>
3884   </trkpt>
3885   <trkpt lat="49.1316790" lon="16.6244140">
3886    <ele>179.2</ele>
3887    <time>2016-01-06T09:37:19Z</time>
3888   </trkpt>
3889   <trkpt lat="49.1315900" lon="16.6244010">
3890    <ele>179.7</ele>
3891    <time>2016-01-06T09:37:21Z</time>
3892   </trkpt>
3893   <trkpt lat="49.1315050" lon="16.6243940">
3894    <ele>179.4</ele>
3895    <time>2016-01-06T09:37:23Z</time>
3896   </trkpt>
3897   <trkpt lat="49.1314190" lon="16.6243960">
3898    <ele>179.2</ele>
3899    <time>2016-01-06T09:37:25Z</time>
3900   </trkpt>
3901   <trkpt lat="49.1313760" lon="16.6243970">
3902    <ele>179.2</ele>
3903    <time>2016-01-06T09:37:26Z</time>
3904   </trkpt>
3905   <trkpt lat="49.1313330" lon="16.6243950">
3906    <ele>179.2</ele>
3907    <time>2016-01-06T09:37:27Z</time>
3908   </trkpt>
3909   <trkpt lat="49.1312900" lon="16.6243920">
3910    <ele>179.2</ele>
3911    <time>2016-01-06T09:37:28Z</time>
3912   </trkpt>
3913   <trkpt lat="49.1312060" lon="16.6243870">
3914    <ele>179.2</ele>
3915    <time>2016-01-06T09:37:30Z</time>
3916   </trkpt>
3917   <trkpt lat="49.1311670" lon="16.6243850">
3918    <ele>179.3</ele>
3919    <time>2016-01-06T09:37:31Z</time>
3920   </trkpt>
3921   <trkpt lat="49.1311290" lon="16.6243830">
3922    <ele>179.3</ele>
3923    <time>2016-01-06T09:37:32Z</time>
3924   </trkpt>
3925   <trkpt lat="49.1310460" lon="16.6243780">
3926    <ele>179.3</ele>
3927    <time>2016-01-06T09:37:34Z</time>
3928   </trkpt>
3929   <trkpt lat="49.1310030" lon="16.6243710">
3930    <ele>179.3</ele>
3931    <time>2016-01-06T09:37:35Z</time>
3932   </trkpt>
3933   <trkpt lat="49.1309320" lon="16.6243630">
3934    <ele>179.3</ele>
3935    <time>2016-01-06T09:37:37Z</time>
3936   </trkpt>
3937   <trkpt lat="49.1308950" lon="16.6243600">
3938    <ele>179.3</ele>
3939    <time>2016-01-06T09:37:38Z</time>
3940   </trkpt>
3941   <trkpt lat="49.1308130" lon="16.6243600">
3942    <ele>179.2</ele>
3943    <time>2016-01-06T09:37:40Z</time>
3944   </trkpt>
3945   <trkpt lat="49.1307810" lon="16.6243660">
3946    <ele>179.1</ele>
3947    <time>2016-01-06T09:37:41Z</time>
3948   </trkpt>
3949   <trkpt lat="49.1307200" lon="16.6243840">
3950    <ele>179.0</ele>
3951    <time>2016-01-06T09:37:43Z</time>
3952   </trkpt>
3953   <trkpt lat="49.1306750" lon="16.6244050">
3954    <ele>178.9</ele>
3955    <time>2016-01-06T09:37:45Z</time>
3956   </trkpt>
3957   <trkpt lat="49.1306500" lon="16.6244230">
3958    <ele>179.4</ele>
3959    <time>2016-01-06T09:39:04Z</time>
3960   </trkpt>
3961   <trkpt lat="49.1306070" lon="16.6243830">
3962    <ele>179.4</ele>
3963    <time>2016-01-06T09:39:07Z</time>
3964   </trkpt>
3965   <trkpt lat="49.1305820" lon="16.6243490">
3966    <ele>179.4</ele>
3967    <time>2016-01-06T09:39:08Z</time>
3968   </trkpt>
3969   <trkpt lat="49.1305220" lon="16.6242460">
3970    <ele>179.4</ele>
3971    <time>2016-01-06T09:39:10Z</time>
3972   </trkpt>
3973   <trkpt lat="49.1304650" lon="16.6241530">
3974    <ele>179.7</ele>
3975    <time>2016-01-06T09:39:12Z</time>
3976   </trkpt>
3977   <trkpt lat="49.1304130" lon="16.6240660">
3978    <ele>180.0</ele>
3979    <time>2016-01-06T09:39:14Z</time>
3980   </trkpt>
3981   <trkpt lat="49.1303490" lon="16.6239470">
3982    <ele>180.2</ele>
3983    <time>2016-01-06T09:39:16Z</time>
3984   </trkpt>
3985   <trkpt lat="49.1303150" lon="16.6238830">
3986    <ele>180.3</ele>
3987    <time>2016-01-06T09:39:17Z</time>
3988   </trkpt>
3989   <trkpt lat="49.1302430" lon="16.6237540">
3990    <ele>180.6</ele>
3991    <time>2016-01-06T09:39:19Z</time>
3992   </trkpt>
3993   <trkpt lat="49.1301750" lon="16.6236190">
3994    <ele>180.8</ele>
3995    <time>2016-01-06T09:39:21Z</time>
3996   </trkpt>
3997   <trkpt lat="49.1300900" lon="16.6234770">
3998    <ele>180.9</ele>
3999    <time>2016-01-06T09:39:23Z</time>
4000   </trkpt>
4001   <trkpt lat="49.1300050" lon="16.6233430">
4002    <ele>180.7</ele>
4003    <time>2016-01-06T09:39:25Z</time>
4004   </trkpt>
4005   <trkpt lat="49.1299140" lon="16.6232100">
4006    <ele>180.4</ele>
4007    <time>2016-01-06T09:39:27Z</time>
4008   </trkpt>
4009   <trkpt lat="49.1298670" lon="16.6231420">
4010    <ele>180.3</ele>
4011    <time>2016-01-06T09:39:28Z</time>
4012   </trkpt>
4013   <trkpt lat="49.1297810" lon="16.6230160">
4014    <ele>180.5</ele>
4015    <time>2016-01-06T09:39:30Z</time>
4016   </trkpt>
4017   <trkpt lat="49.1297350" lon="16.6229490">
4018    <ele>180.7</ele>
4019    <time>2016-01-06T09:39:31Z</time>
4020   </trkpt>
4021   <trkpt lat="49.1296450" lon="16.6228130">
4022    <ele>180.5</ele>
4023    <time>2016-01-06T09:39:33Z</time>
4024   </trkpt>
4025   <trkpt lat="49.1295990" lon="16.6227430">
4026    <ele>180.5</ele>
4027    <time>2016-01-06T09:39:34Z</time>
4028   </trkpt>
4029   <trkpt lat="49.1295020" lon="16.6226000">
4030    <ele>180.3</ele>
4031    <time>2016-01-06T09:39:36Z</time>
4032   </trkpt>
4033   <trkpt lat="49.1294040" lon="16.6224670">
4034    <ele>180.3</ele>
4035    <time>2016-01-06T09:39:38Z</time>
4036   </trkpt>
4037   <trkpt lat="49.1293230" lon="16.6223600">
4038    <ele>180.4</ele>
4039    <time>2016-01-06T09:39:40Z</time>
4040   </trkpt>
4041   <trkpt lat="49.1292760" lon="16.6223170">
4042    <ele>180.4</ele>
4043    <time>2016-01-06T09:39:41Z</time>
4044   </trkpt>
4045   <trkpt lat="49.1292300" lon="16.6222740">
4046    <ele>180.5</ele>
4047    <time>2016-01-06T09:39:42Z</time>
4048   </trkpt>
4049   <trkpt lat="49.1291790" lon="16.6222390">
4050    <ele>180.6</ele>
4051    <time>2016-01-06T09:39:43Z</time>
4052   </trkpt>
4053   <trkpt lat="49.1291290" lon="16.6222090">
4054    <ele>180.7</ele>
4055    <time>2016-01-06T09:39:44Z</time>
4056   </trkpt>
4057   <trkpt lat="49.1290820" lon="16.6221930">
4058    <ele>180.8</ele>
4059    <time>2016-01-06T09:39:45Z</time>
4060   </trkpt>
4061   <trkpt lat="49.1290210" lon="16.6221950">
4062    <ele>180.9</ele>
4063    <time>2016-01-06T09:39:46Z</time>
4064   </trkpt>
4065   <trkpt lat="49.1289100" lon="16.6221950">
4066    <ele>181.0</ele>
4067    <time>2016-01-06T09:39:48Z</time>
4068   </trkpt>
4069   <trkpt lat="49.1287850" lon="16.6221370">
4070    <ele>181.3</ele>
4071    <time>2016-01-06T09:39:50Z</time>
4072   </trkpt>
4073   <trkpt lat="49.1287210" lon="16.6220970">
4074    <ele>181.4</ele>
4075    <time>2016-01-06T09:39:51Z</time>
4076   </trkpt>
4077   <trkpt lat="49.1286180" lon="16.6220060">
4078    <ele>181.4</ele>
4079    <time>2016-01-06T09:39:53Z</time>
4080   </trkpt>
4081   <trkpt lat="49.1285780" lon="16.6219520">
4082    <ele>181.2</ele>
4083    <time>2016-01-06T09:39:54Z</time>
4084   </trkpt>
4085   <trkpt lat="49.1285050" lon="16.6218500">
4086    <ele>180.9</ele>
4087    <time>2016-01-06T09:39:56Z</time>
4088   </trkpt>
4089   <trkpt lat="49.1284610" lon="16.6217740">
4090    <ele>180.5</ele>
4091    <time>2016-01-06T09:39:57Z</time>
4092   </trkpt>
4093   <trkpt lat="49.1284270" lon="16.6217070">
4094    <ele>180.2</ele>
4095    <time>2016-01-06T09:39:58Z</time>
4096   </trkpt>
4097   <trkpt lat="49.1283670" lon="16.6215790">
4098    <ele>179.9</ele>
4099    <time>2016-01-06T09:40:00Z</time>
4100   </trkpt>
4101   <trkpt lat="49.1283080" lon="16.6214920">
4102    <ele>179.9</ele>
4103    <time>2016-01-06T09:40:02Z</time>
4104   </trkpt>
4105   <trkpt lat="49.1282400" lon="16.6214390">
4106    <ele>179.6</ele>
4107    <time>2016-01-06T09:40:04Z</time>
4108   </trkpt>
4109   <trkpt lat="49.1281750" lon="16.6214800">
4110    <ele>179.7</ele>
4111    <time>2016-01-06T09:40:06Z</time>
4112   </trkpt>
4113   <trkpt lat="49.1281130" lon="16.6216010">
4114    <ele>180.1</ele>
4115    <time>2016-01-06T09:40:08Z</time>
4116   </trkpt>
4117   <trkpt lat="49.1280530" lon="16.6217670">
4118    <ele>180.4</ele>
4119    <time>2016-01-06T09:40:10Z</time>
4120   </trkpt>
4121   <trkpt lat="49.1280220" lon="16.6218570">
4122    <ele>180.5</ele>
4123    <time>2016-01-06T09:40:11Z</time>
4124   </trkpt>
4125   <trkpt lat="49.1279590" lon="16.6220430">
4126    <ele>180.6</ele>
4127    <time>2016-01-06T09:40:13Z</time>
4128   </trkpt>
4129   <trkpt lat="49.1279280" lon="16.6221320">
4130    <ele>180.6</ele>
4131    <time>2016-01-06T09:40:14Z</time>
4132   </trkpt>
4133   <trkpt lat="49.1278670" lon="16.6223020">
4134    <ele>180.2</ele>
4135    <time>2016-01-06T09:40:16Z</time>
4136   </trkpt>
4137   <trkpt lat="49.1278370" lon="16.6223870">
4138    <ele>180.0</ele>
4139    <time>2016-01-06T09:40:17Z</time>
4140   </trkpt>
4141   <trkpt lat="49.1277840" lon="16.6225390">
4142    <ele>180.2</ele>
4143    <time>2016-01-06T09:40:19Z</time>
4144   </trkpt>
4145   <trkpt lat="49.1277620" lon="16.6226070">
4146    <ele>180.3</ele>
4147    <time>2016-01-06T09:40:20Z</time>
4148   </trkpt>
4149   <trkpt lat="49.1277420" lon="16.6226700">
4150    <ele>180.3</ele>
4151    <time>2016-01-06T09:40:21Z</time>
4152   </trkpt>
4153   <trkpt lat="49.1277100" lon="16.6227800">
4154    <ele>180.4</ele>
4155    <time>2016-01-06T09:40:23Z</time>
4156   </trkpt>
4157   <trkpt lat="49.1276830" lon="16.6228570">
4158    <ele>180.3</ele>
4159    <time>2016-01-06T09:40:25Z</time>
4160   </trkpt>
4161   <trkpt lat="49.1276580" lon="16.6229380">
4162    <ele>180.6</ele>
4163    <time>2016-01-06T09:40:27Z</time>
4164   </trkpt>
4165   <trkpt lat="49.1276480" lon="16.6229870">
4166    <ele>180.7</ele>
4167    <time>2016-01-06T09:40:28Z</time>
4168   </trkpt>
4169   <trkpt lat="49.1276380" lon="16.6230350">
4170    <ele>180.7</ele>
4171    <time>2016-01-06T09:40:29Z</time>
4172   </trkpt>
4173   <trkpt lat="49.1276260" lon="16.6230800">
4174    <ele>180.7</ele>
4175    <time>2016-01-06T09:40:30Z</time>
4176   </trkpt>
4177   <trkpt lat="49.1276020" lon="16.6231780">
4178    <ele>180.6</ele>
4179    <time>2016-01-06T09:40:32Z</time>
4180   </trkpt>
4181   <trkpt lat="49.1275910" lon="16.6232440">
4182    <ele>180.5</ele>
4183    <time>2016-01-06T09:40:33Z</time>
4184   </trkpt>
4185   <trkpt lat="49.1275780" lon="16.6233150">
4186    <ele>180.6</ele>
4187    <time>2016-01-06T09:40:34Z</time>
4188   </trkpt>
4189   <trkpt lat="49.1275540" lon="16.6234440">
4190    <ele>180.3</ele>
4191    <time>2016-01-06T09:40:36Z</time>
4192   </trkpt>
4193   <trkpt lat="49.1275390" lon="16.6235540">
4194    <ele>179.9</ele>
4195    <time>2016-01-06T09:40:38Z</time>
4196   </trkpt>
4197   <trkpt lat="49.1275330" lon="16.6236110">
4198    <ele>179.8</ele>
4199    <time>2016-01-06T09:40:39Z</time>
4200   </trkpt>
4201   <trkpt lat="49.1275240" lon="16.6237430">
4202    <ele>179.3</ele>
4203    <time>2016-01-06T09:40:41Z</time>
4204   </trkpt>
4205   <trkpt lat="49.1275140" lon="16.6238600">
4206    <ele>179.1</ele>
4207    <time>2016-01-06T09:40:43Z</time>
4208   </trkpt>
4209   <trkpt lat="49.1275090" lon="16.6239140">
4210    <ele>178.9</ele>
4211    <time>2016-01-06T09:40:44Z</time>
4212   </trkpt>
4213   <trkpt lat="49.1274920" lon="16.6240190">
4214    <ele>178.7</ele>
4215    <time>2016-01-06T09:40:46Z</time>
4216   </trkpt>
4217   <trkpt lat="49.1274760" lon="16.6241060">
4218    <ele>178.8</ele>
4219    <time>2016-01-06T09:40:48Z</time>
4220   </trkpt>
4221   <trkpt lat="49.1274600" lon="16.6241860">
4222    <ele>178.6</ele>
4223    <time>2016-01-06T09:40:50Z</time>
4224   </trkpt>
4225   <trkpt lat="49.1274440" lon="16.6242470">
4226    <ele>178.2</ele>
4227    <time>2016-01-06T09:40:52Z</time>
4228   </trkpt>
4229   <trkpt lat="49.1274180" lon="16.6242740">
4230    <ele>178.4</ele>
4231    <time>2016-01-06T09:40:54Z</time>
4232   </trkpt>
4233   <trkpt lat="49.1273900" lon="16.6242860">
4234    <ele>178.4</ele>
4235    <time>2016-01-06T09:40:56Z</time>
4236   </trkpt>
4237   <trkpt lat="49.1273390" lon="16.6242830">
4238    <ele>178.7</ele>
4239    <time>2016-01-06T09:40:58Z</time>
4240   </trkpt>
4241   <trkpt lat="49.1273040" lon="16.6242730">
4242    <ele>178.9</ele>
4243    <time>2016-01-06T09:40:59Z</time>
4244   </trkpt>
4245   <trkpt lat="49.1272430" lon="16.6242540">
4246    <ele>178.9</ele>
4247    <time>2016-01-06T09:41:01Z</time>
4248   </trkpt>
4249   <trkpt lat="49.1271690" lon="16.6242380">
4250    <ele>178.7</ele>
4251    <time>2016-01-06T09:41:03Z</time>
4252   </trkpt>
4253   <trkpt lat="49.1270920" lon="16.6242260">
4254    <ele>178.7</ele>
4255    <time>2016-01-06T09:41:05Z</time>
4256   </trkpt>
4257   <trkpt lat="49.1270610" lon="16.6242190">
4258    <ele>178.6</ele>
4259    <time>2016-01-06T09:41:06Z</time>
4260   </trkpt>
4261   <trkpt lat="49.1269930" lon="16.6242080">
4262    <ele>178.8</ele>
4263    <time>2016-01-06T09:41:08Z</time>
4264   </trkpt>
4265   <trkpt lat="49.1269160" lon="16.6241980">
4266    <ele>178.6</ele>
4267    <time>2016-01-06T09:41:10Z</time>
4268   </trkpt>
4269   <trkpt lat="49.1268810" lon="16.6241930">
4270    <ele>178.6</ele>
4271    <time>2016-01-06T09:41:11Z</time>
4272   </trkpt>
4273   <trkpt lat="49.1268150" lon="16.6241820">
4274    <ele>178.6</ele>
4275    <time>2016-01-06T09:41:13Z</time>
4276   </trkpt>
4277   <trkpt lat="49.1267580" lon="16.6241690">
4278    <ele>178.6</ele>
4279    <time>2016-01-06T09:41:15Z</time>
4280   </trkpt>
4281   <trkpt lat="49.1267160" lon="16.6241590">
4282    <ele>178.6</ele>
4283    <time>2016-01-06T09:41:16Z</time>
4284   </trkpt>
4285   <trkpt lat="49.1266540" lon="16.6241390">
4286    <ele>178.7</ele>
4287    <time>2016-01-06T09:41:18Z</time>
4288   </trkpt>
4289   <trkpt lat="49.1266190" lon="16.6241300">
4290    <ele>178.9</ele>
4291    <time>2016-01-06T09:41:19Z</time>
4292   </trkpt>
4293   <trkpt lat="49.1265840" lon="16.6241230">
4294    <ele>179.0</ele>
4295    <time>2016-01-06T09:41:20Z</time>
4296   </trkpt>
4297   <trkpt lat="49.1265500" lon="16.6241200">
4298    <ele>178.9</ele>
4299    <time>2016-01-06T09:41:21Z</time>
4300   </trkpt>
4301   <trkpt lat="49.1264900" lon="16.6241110">
4302    <ele>178.7</ele>
4303    <time>2016-01-06T09:41:23Z</time>
4304   </trkpt>
4305   <trkpt lat="49.1264350" lon="16.6241100">
4306    <ele>178.5</ele>
4307    <time>2016-01-06T09:41:25Z</time>
4308   </trkpt>
4309   <trkpt lat="49.1264020" lon="16.6241080">
4310    <ele>178.6</ele>
4311    <time>2016-01-06T09:41:26Z</time>
4312   </trkpt>
4313   <trkpt lat="49.1263540" lon="16.6241070">
4314    <ele>178.4</ele>
4315    <time>2016-01-06T09:41:28Z</time>
4316   </trkpt>
4317   <trkpt lat="49.1263000" lon="16.6241080">
4318    <ele>178.4</ele>
4319    <time>2016-01-06T09:41:30Z</time>
4320   </trkpt>
4321   <trkpt lat="49.1262440" lon="16.6241100">
4322    <ele>178.4</ele>
4323    <time>2016-01-06T09:41:32Z</time>
4324   </trkpt>
4325   <trkpt lat="49.1261690" lon="16.6241110">
4326    <ele>178.5</ele>
4327    <time>2016-01-06T09:41:34Z</time>
4328   </trkpt>
4329   <trkpt lat="49.1260900" lon="16.6241100">
4330    <ele>178.6</ele>
4331    <time>2016-01-06T09:41:36Z</time>
4332   </trkpt>
4333   <trkpt lat="49.1260630" lon="16.6241070">
4334    <ele>178.7</ele>
4335    <time>2016-01-06T09:41:37Z</time>
4336   </trkpt>
4337   <trkpt lat="49.1259880" lon="16.6241020">
4338    <ele>179.0</ele>
4339    <time>2016-01-06T09:41:39Z</time>
4340   </trkpt>
4341   <trkpt lat="49.1259100" lon="16.6240900">
4342    <ele>179.2</ele>
4343    <time>2016-01-06T09:41:41Z</time>
4344   </trkpt>
4345   <trkpt lat="49.1258480" lon="16.6240770">
4346    <ele>179.3</ele>
4347    <time>2016-01-06T09:41:43Z</time>
4348   </trkpt>
4349   <trkpt lat="49.1258060" lon="16.6240680">
4350    <ele>179.2</ele>
4351    <time>2016-01-06T09:41:44Z</time>
4352   </trkpt>
4353   <trkpt lat="49.1257190" lon="16.6240540">
4354    <ele>179.4</ele>
4355    <time>2016-01-06T09:41:46Z</time>
4356   </trkpt>
4357   <trkpt lat="49.1256370" lon="16.6240440">
4358    <ele>179.6</ele>
4359    <time>2016-01-06T09:41:48Z</time>
4360   </trkpt>
4361   <trkpt lat="49.1255990" lon="16.6240400">
4362    <ele>179.4</ele>
4363    <time>2016-01-06T09:41:49Z</time>
4364   </trkpt>
4365   <trkpt lat="49.1255650" lon="16.6240350">
4366    <ele>179.1</ele>
4367    <time>2016-01-06T09:41:50Z</time>
4368   </trkpt>
4369   <trkpt lat="49.1255250" lon="16.6240300">
4370    <ele>178.9</ele>
4371    <time>2016-01-06T09:41:51Z</time>
4372   </trkpt>
4373   <trkpt lat="49.1254360" lon="16.6240190">
4374    <ele>178.8</ele>
4375    <time>2016-01-06T09:41:53Z</time>
4376   </trkpt>
4377   <trkpt lat="49.1253990" lon="16.6240140">
4378    <ele>178.8</ele>
4379    <time>2016-01-06T09:41:54Z</time>
4380   </trkpt>
4381   <trkpt lat="49.1253120" lon="16.6240000">
4382    <ele>178.9</ele>
4383    <time>2016-01-06T09:41:56Z</time>
4384   </trkpt>
4385   <trkpt lat="49.1252460" lon="16.6239920">
4386    <ele>178.9</ele>
4387    <time>2016-01-06T09:41:58Z</time>
4388   </trkpt>
4389   <trkpt lat="49.1251680" lon="16.6239810">
4390    <ele>179.0</ele>
4391    <time>2016-01-06T09:42:00Z</time>
4392   </trkpt>
4393   <trkpt lat="49.1251220" lon="16.6239710">
4394    <ele>179.0</ele>
4395    <time>2016-01-06T09:42:01Z</time>
4396   </trkpt>
4397   <trkpt lat="49.1250280" lon="16.6239550">
4398    <ele>178.8</ele>
4399    <time>2016-01-06T09:42:03Z</time>
4400   </trkpt>
4401   <trkpt lat="49.1249400" lon="16.6239420">
4402    <ele>178.7</ele>
4403    <time>2016-01-06T09:42:05Z</time>
4404   </trkpt>
4405   <trkpt lat="49.1249040" lon="16.6239370">
4406    <ele>178.7</ele>
4407    <time>2016-01-06T09:42:06Z</time>
4408   </trkpt>
4409   <trkpt lat="49.1248380" lon="16.6239300">
4410    <ele>178.5</ele>
4411    <time>2016-01-06T09:42:08Z</time>
4412   </trkpt>
4413   <trkpt lat="49.1248050" lon="16.6239290">
4414    <ele>178.6</ele>
4415    <time>2016-01-06T09:42:09Z</time>
4416   </trkpt>
4417   <trkpt lat="49.1247380" lon="16.6239300">
4418    <ele>178.8</ele>
4419    <time>2016-01-06T09:42:11Z</time>
4420   </trkpt>
4421   <trkpt lat="49.1247060" lon="16.6239280">
4422    <ele>178.7</ele>
4423    <time>2016-01-06T09:42:12Z</time>
4424   </trkpt>
4425   <trkpt lat="49.1246280" lon="16.6239230">
4426    <ele>178.4</ele>
4427    <time>2016-01-06T09:42:14Z</time>
4428   </trkpt>
4429   <trkpt lat="49.1245480" lon="16.6239180">
4430    <ele>178.5</ele>
4431    <time>2016-01-06T09:42:16Z</time>
4432   </trkpt>
4433   <trkpt lat="49.1244620" lon="16.6239080">
4434    <ele>178.6</ele>
4435    <time>2016-01-06T09:42:18Z</time>
4436   </trkpt>
4437   <trkpt lat="49.1243830" lon="16.6238960">
4438    <ele>178.5</ele>
4439    <time>2016-01-06T09:42:20Z</time>
4440   </trkpt>
4441   <trkpt lat="49.1243480" lon="16.6238890">
4442    <ele>178.5</ele>
4443    <time>2016-01-06T09:42:21Z</time>
4444   </trkpt>
4445   <trkpt lat="49.1242950" lon="16.6238800">
4446    <ele>178.5</ele>
4447    <time>2016-01-06T09:42:23Z</time>
4448   </trkpt>
4449   <trkpt lat="49.1242590" lon="16.6238720">
4450    <ele>178.5</ele>
4451    <time>2016-01-06T09:42:25Z</time>
4452   </trkpt>
4453   <trkpt lat="49.1242240" lon="16.6238710">
4454    <ele>178.4</ele>
4455    <time>2016-01-06T09:42:27Z</time>
4456   </trkpt>
4457   <trkpt lat="49.1241870" lon="16.6238650">
4458    <ele>178.3</ele>
4459    <time>2016-01-06T09:42:29Z</time>
4460   </trkpt>
4461   <trkpt lat="49.1241590" lon="16.6238290">
4462    <ele>178.3</ele>
4463    <time>2016-01-06T09:42:31Z</time>
4464   </trkpt>
4465   <trkpt lat="49.1241450" lon="16.6237540">
4466    <ele>178.4</ele>
4467    <time>2016-01-06T09:42:33Z</time>
4468   </trkpt>
4469   <trkpt lat="49.1241490" lon="16.6236480">
4470    <ele>178.4</ele>
4471    <time>2016-01-06T09:42:35Z</time>
4472   </trkpt>
4473   <trkpt lat="49.1241520" lon="16.6235970">
4474    <ele>178.4</ele>
4475    <time>2016-01-06T09:42:36Z</time>
4476   </trkpt>
4477   <trkpt lat="49.1241570" lon="16.6234910">
4478    <ele>178.4</ele>
4479    <time>2016-01-06T09:42:38Z</time>
4480   </trkpt>
4481   <trkpt lat="49.1241590" lon="16.6234300">
4482    <ele>178.3</ele>
4483    <time>2016-01-06T09:42:39Z</time>
4484   </trkpt>
4485   <trkpt lat="49.1241630" lon="16.6232890">
4486    <ele>177.8</ele>
4487    <time>2016-01-06T09:42:41Z</time>
4488   </trkpt>
4489   <trkpt lat="49.1241650" lon="16.6231540">
4490    <ele>177.6</ele>
4491    <time>2016-01-06T09:42:43Z</time>
4492   </trkpt>
4493   <trkpt lat="49.1241690" lon="16.6230190">
4494    <ele>177.9</ele>
4495    <time>2016-01-06T09:42:45Z</time>
4496   </trkpt>
4497   <trkpt lat="49.1241710" lon="16.6229560">
4498    <ele>177.9</ele>
4499    <time>2016-01-06T09:42:46Z</time>
4500   </trkpt>
4501   <trkpt lat="49.1241760" lon="16.6228350">
4502    <ele>178.1</ele>
4503    <time>2016-01-06T09:42:48Z</time>
4504   </trkpt>
4505   <trkpt lat="49.1241840" lon="16.6227040">
4506    <ele>178.0</ele>
4507    <time>2016-01-06T09:42:50Z</time>
4508   </trkpt>
4509   <trkpt lat="49.1241890" lon="16.6226500">
4510    <ele>177.8</ele>
4511    <time>2016-01-06T09:42:51Z</time>
4512   </trkpt>
4513   <trkpt lat="49.1241950" lon="16.6225520">
4514    <ele>177.4</ele>
4515    <time>2016-01-06T09:42:53Z</time>
4516   </trkpt>
4517   <trkpt lat="49.1241980" lon="16.6224940">
4518    <ele>177.2</ele>
4519    <time>2016-01-06T09:42:54Z</time>
4520   </trkpt>
4521   <trkpt lat="49.1242030" lon="16.6223750">
4522    <ele>177.2</ele>
4523    <time>2016-01-06T09:42:56Z</time>
4524   </trkpt>
4525   <trkpt lat="49.1242060" lon="16.6223120">
4526    <ele>177.4</ele>
4527    <time>2016-01-06T09:42:57Z</time>
4528   </trkpt>
4529   <trkpt lat="49.1242130" lon="16.6221990">
4530    <ele>177.5</ele>
4531    <time>2016-01-06T09:42:59Z</time>
4532   </trkpt>
4533   <trkpt lat="49.1242210" lon="16.6220690">
4534    <ele>177.7</ele>
4535    <time>2016-01-06T09:43:01Z</time>
4536   </trkpt>
4537   <trkpt lat="49.1242290" lon="16.6219390">
4538    <ele>177.9</ele>
4539    <time>2016-01-06T09:43:03Z</time>
4540   </trkpt>
4541   <trkpt lat="49.1242350" lon="16.6218110">
4542    <ele>178.2</ele>
4543    <time>2016-01-06T09:43:05Z</time>
4544   </trkpt>
4545   <trkpt lat="49.1242380" lon="16.6217430">
4546    <ele>178.3</ele>
4547    <time>2016-01-06T09:43:06Z</time>
4548   </trkpt>
4549   <trkpt lat="49.1242440" lon="16.6216180">
4550    <ele>178.4</ele>
4551    <time>2016-01-06T09:43:08Z</time>
4552   </trkpt>
4553   <trkpt lat="49.1242480" lon="16.6215600">
4554    <ele>178.4</ele>
4555    <time>2016-01-06T09:43:09Z</time>
4556   </trkpt>
4557   <trkpt lat="49.1242510" lon="16.6214450">
4558    <ele>178.3</ele>
4559    <time>2016-01-06T09:43:11Z</time>
4560   </trkpt>
4561   <trkpt lat="49.1242560" lon="16.6213220">
4562    <ele>178.1</ele>
4563    <time>2016-01-06T09:43:13Z</time>
4564   </trkpt>
4565   <trkpt lat="49.1242600" lon="16.6212530">
4566    <ele>178.2</ele>
4567    <time>2016-01-06T09:43:14Z</time>
4568   </trkpt>
4569   <trkpt lat="49.1242640" lon="16.6211810">
4570    <ele>178.2</ele>
4571    <time>2016-01-06T09:43:15Z</time>
4572   </trkpt>
4573   <trkpt lat="49.1242680" lon="16.6211060">
4574    <ele>178.2</ele>
4575    <time>2016-01-06T09:43:16Z</time>
4576   </trkpt>
4577   <trkpt lat="49.1242720" lon="16.6210290">
4578    <ele>178.3</ele>
4579    <time>2016-01-06T09:43:17Z</time>
4580   </trkpt>
4581   <trkpt lat="49.1242830" lon="16.6208730">
4582    <ele>178.6</ele>
4583    <time>2016-01-06T09:43:19Z</time>
4584   </trkpt>
4585   <trkpt lat="49.1242900" lon="16.6208010">
4586    <ele>178.7</ele>
4587    <time>2016-01-06T09:43:20Z</time>
4588   </trkpt>
4589   <trkpt lat="49.1243020" lon="16.6206760">
4590    <ele>178.8</ele>
4591    <time>2016-01-06T09:43:22Z</time>
4592   </trkpt>
4593   <trkpt lat="49.1243120" lon="16.6205440">
4594    <ele>178.7</ele>
4595    <time>2016-01-06T09:43:24Z</time>
4596   </trkpt>
4597   <trkpt lat="49.1243180" lon="16.6204790">
4598    <ele>178.7</ele>
4599    <time>2016-01-06T09:43:25Z</time>
4600   </trkpt>
4601   <trkpt lat="49.1243230" lon="16.6204200">
4602    <ele>178.6</ele>
4603    <time>2016-01-06T09:43:26Z</time>
4604   </trkpt>
4605   <trkpt lat="49.1243290" lon="16.6203490">
4606    <ele>178.6</ele>
4607    <time>2016-01-06T09:43:27Z</time>
4608   </trkpt>
4609   <trkpt lat="49.1243360" lon="16.6202070">
4610    <ele>178.8</ele>
4611    <time>2016-01-06T09:43:29Z</time>
4612   </trkpt>
4613   <trkpt lat="49.1243380" lon="16.6200720">
4614    <ele>178.8</ele>
4615    <time>2016-01-06T09:43:31Z</time>
4616   </trkpt>
4617   <trkpt lat="49.1243420" lon="16.6199290">
4618    <ele>178.9</ele>
4619    <time>2016-01-06T09:43:33Z</time>
4620   </trkpt>
4621   <trkpt lat="49.1243460" lon="16.6198500">
4622    <ele>178.9</ele>
4623    <time>2016-01-06T09:43:34Z</time>
4624   </trkpt>
4625   <trkpt lat="49.1243590" lon="16.6197210">
4626    <ele>179.1</ele>
4627    <time>2016-01-06T09:43:36Z</time>
4628   </trkpt>
4629   <trkpt lat="49.1243700" lon="16.6195830">
4630    <ele>179.1</ele>
4631    <time>2016-01-06T09:43:38Z</time>
4632   </trkpt>
4633   <trkpt lat="49.1243740" lon="16.6195200">
4634    <ele>178.7</ele>
4635    <time>2016-01-06T09:43:39Z</time>
4636   </trkpt>
4637   <trkpt lat="49.1243770" lon="16.6194540">
4638    <ele>178.4</ele>
4639    <time>2016-01-06T09:43:40Z</time>
4640   </trkpt>
4641   <trkpt lat="49.1243810" lon="16.6193850">
4642    <ele>178.2</ele>
4643    <time>2016-01-06T09:43:41Z</time>
4644   </trkpt>
4645   <trkpt lat="49.1243890" lon="16.6192490">
4646    <ele>178.5</ele>
4647    <time>2016-01-06T09:43:43Z</time>
4648   </trkpt>
4649   <trkpt lat="49.1243920" lon="16.6191970">
4650    <ele>178.5</ele>
4651    <time>2016-01-06T09:43:44Z</time>
4652   </trkpt>
4653   <trkpt lat="49.1243940" lon="16.6191380">
4654    <ele>178.6</ele>
4655    <time>2016-01-06T09:43:45Z</time>
4656   </trkpt>
4657   <trkpt lat="49.1243960" lon="16.6190710">
4658    <ele>178.7</ele>
4659    <time>2016-01-06T09:43:46Z</time>
4660   </trkpt>
4661   <trkpt lat="49.1243970" lon="16.6190000">
4662    <ele>178.9</ele>
4663    <time>2016-01-06T09:43:47Z</time>
4664   </trkpt>
4665   <trkpt lat="49.1243930" lon="16.6188390">
4666    <ele>179.3</ele>
4667    <time>2016-01-06T09:43:49Z</time>
4668   </trkpt>
4669   <trkpt lat="49.1243890" lon="16.6187740">
4670    <ele>179.4</ele>
4671    <time>2016-01-06T09:43:50Z</time>
4672   </trkpt>
4673   <trkpt lat="49.1243830" lon="16.6187190">
4674    <ele>179.3</ele>
4675    <time>2016-01-06T09:43:51Z</time>
4676   </trkpt>
4677   <trkpt lat="49.1243760" lon="16.6185810">
4678    <ele>179.7</ele>
4679    <time>2016-01-06T09:43:53Z</time>
4680   </trkpt>
4681   <trkpt lat="49.1243680" lon="16.6184320">
4682    <ele>179.9</ele>
4683    <time>2016-01-06T09:43:55Z</time>
4684   </trkpt>
4685   <trkpt lat="49.1243600" lon="16.6183630">
4686    <ele>180.0</ele>
4687    <time>2016-01-06T09:43:56Z</time>
4688   </trkpt>
4689   <trkpt lat="49.1243460" lon="16.6182290">
4690    <ele>180.0</ele>
4691    <time>2016-01-06T09:43:58Z</time>
4692   </trkpt>
4693   <trkpt lat="49.1243330" lon="16.6180840">
4694    <ele>180.3</ele>
4695    <time>2016-01-06T09:44:00Z</time>
4696   </trkpt>
4697   <trkpt lat="49.1243260" lon="16.6180100">
4698    <ele>180.4</ele>
4699    <time>2016-01-06T09:44:01Z</time>
4700   </trkpt>
4701   <trkpt lat="49.1243130" lon="16.6178730">
4702    <ele>180.5</ele>
4703    <time>2016-01-06T09:44:03Z</time>
4704   </trkpt>
4705   <trkpt lat="49.1243080" lon="16.6177190">
4706    <ele>180.7</ele>
4707    <time>2016-01-06T09:44:05Z</time>
4708   </trkpt>
4709   <trkpt lat="49.1243060" lon="16.6176440">
4710    <ele>180.7</ele>
4711    <time>2016-01-06T09:44:06Z</time>
4712   </trkpt>
4713   <trkpt lat="49.1243030" lon="16.6175090">
4714    <ele>181.1</ele>
4715    <time>2016-01-06T09:44:08Z</time>
4716   </trkpt>
4717   <trkpt lat="49.1243060" lon="16.6173730">
4718    <ele>181.6</ele>
4719    <time>2016-01-06T09:44:10Z</time>
4720   </trkpt>
4721   <trkpt lat="49.1243080" lon="16.6173100">
4722    <ele>181.9</ele>
4723    <time>2016-01-06T09:44:11Z</time>
4724   </trkpt>
4725   <trkpt lat="49.1243100" lon="16.6171750">
4726    <ele>182.4</ele>
4727    <time>2016-01-06T09:44:13Z</time>
4728   </trkpt>
4729   <trkpt lat="49.1243140" lon="16.6170960">
4730    <ele>182.6</ele>
4731    <time>2016-01-06T09:44:14Z</time>
4732   </trkpt>
4733   <trkpt lat="49.1243180" lon="16.6169460">
4734    <ele>182.7</ele>
4735    <time>2016-01-06T09:44:16Z</time>
4736   </trkpt>
4737   <trkpt lat="49.1243210" lon="16.6168820">
4738    <ele>182.5</ele>
4739    <time>2016-01-06T09:44:17Z</time>
4740   </trkpt>
4741   <trkpt lat="49.1243320" lon="16.6167390">
4742    <ele>182.6</ele>
4743    <time>2016-01-06T09:44:19Z</time>
4744   </trkpt>
4745   <trkpt lat="49.1243440" lon="16.6166040">
4746    <ele>182.8</ele>
4747    <time>2016-01-06T09:44:21Z</time>
4748   </trkpt>
4749   <trkpt lat="49.1243610" lon="16.6164700">
4750    <ele>183.1</ele>
4751    <time>2016-01-06T09:44:23Z</time>
4752   </trkpt>
4753   <trkpt lat="49.1243760" lon="16.6163490">
4754    <ele>183.5</ele>
4755    <time>2016-01-06T09:44:25Z</time>
4756   </trkpt>
4757   <trkpt lat="49.1243850" lon="16.6162830">
4758    <ele>183.6</ele>
4759    <time>2016-01-06T09:44:26Z</time>
4760   </trkpt>
4761   <trkpt lat="49.1243970" lon="16.6161400">
4762    <ele>183.9</ele>
4763    <time>2016-01-06T09:44:28Z</time>
4764   </trkpt>
4765   <trkpt lat="49.1244010" lon="16.6160680">
4766    <ele>184.2</ele>
4767    <time>2016-01-06T09:44:29Z</time>
4768   </trkpt>
4769   <trkpt lat="49.1244110" lon="16.6159160">
4770    <ele>184.6</ele>
4771    <time>2016-01-06T09:44:31Z</time>
4772   </trkpt>
4773   <trkpt lat="49.1244200" lon="16.6158450">
4774    <ele>184.8</ele>
4775    <time>2016-01-06T09:44:32Z</time>
4776   </trkpt>
4777   <trkpt lat="49.1244350" lon="16.6157220">
4778    <ele>185.1</ele>
4779    <time>2016-01-06T09:44:34Z</time>
4780   </trkpt>
4781   <trkpt lat="49.1244410" lon="16.6156640">
4782    <ele>185.2</ele>
4783    <time>2016-01-06T09:44:35Z</time>
4784   </trkpt>
4785   <trkpt lat="49.1244630" lon="16.6155330">
4786    <ele>185.3</ele>
4787    <time>2016-01-06T09:44:37Z</time>
4788   </trkpt>
4789   <trkpt lat="49.1244880" lon="16.6153930">
4790    <ele>185.7</ele>
4791    <time>2016-01-06T09:44:39Z</time>
4792   </trkpt>
4793   <trkpt lat="49.1244960" lon="16.6153340">
4794    <ele>185.9</ele>
4795    <time>2016-01-06T09:44:40Z</time>
4796   </trkpt>
4797   <trkpt lat="49.1245080" lon="16.6152200">
4798    <ele>186.0</ele>
4799    <time>2016-01-06T09:44:42Z</time>
4800   </trkpt>
4801   <trkpt lat="49.1245110" lon="16.6151630">
4802    <ele>186.1</ele>
4803    <time>2016-01-06T09:44:43Z</time>
4804   </trkpt>
4805   <trkpt lat="49.1245130" lon="16.6150540">
4806    <ele>186.1</ele>
4807    <time>2016-01-06T09:44:45Z</time>
4808   </trkpt>
4809   <trkpt lat="49.1245100" lon="16.6150070">
4810    <ele>186.0</ele>
4811    <time>2016-01-06T09:44:46Z</time>
4812   </trkpt>
4813   <trkpt lat="49.1244920" lon="16.6149330">
4814    <ele>185.9</ele>
4815    <time>2016-01-06T09:44:48Z</time>
4816   </trkpt>
4817   <trkpt lat="49.1244570" lon="16.6148660">
4818    <ele>186.0</ele>
4819    <time>2016-01-06T09:44:50Z</time>
4820   </trkpt>
4821   <trkpt lat="49.1244270" lon="16.6148370">
4822    <ele>186.1</ele>
4823    <time>2016-01-06T09:44:51Z</time>
4824   </trkpt>
4825   <trkpt lat="49.1243500" lon="16.6147950">
4826    <ele>186.3</ele>
4827    <time>2016-01-06T09:44:53Z</time>
4828   </trkpt>
4829   <trkpt lat="49.1243090" lon="16.6147790">
4830    <ele>186.3</ele>
4831    <time>2016-01-06T09:44:54Z</time>
4832   </trkpt>
4833   <trkpt lat="49.1242700" lon="16.6147660">
4834    <ele>186.5</ele>
4835    <time>2016-01-06T09:44:55Z</time>
4836   </trkpt>
4837   <trkpt lat="49.1242370" lon="16.6147520">
4838    <ele>186.8</ele>
4839    <time>2016-01-06T09:44:56Z</time>
4840   </trkpt>
4841   <trkpt lat="49.1241730" lon="16.6146960">
4842    <ele>186.9</ele>
4843    <time>2016-01-06T09:44:58Z</time>
4844   </trkpt>
4845   <trkpt lat="49.1241170" lon="16.6146290">
4846    <ele>186.8</ele>
4847    <time>2016-01-06T09:45:00Z</time>
4848   </trkpt>
4849   <trkpt lat="49.1240930" lon="16.6145810">
4850    <ele>187.0</ele>
4851    <time>2016-01-06T09:45:01Z</time>
4852   </trkpt>
4853   <trkpt lat="49.1240650" lon="16.6144840">
4854    <ele>187.0</ele>
4855    <time>2016-01-06T09:45:03Z</time>
4856   </trkpt>
4857   <trkpt lat="49.1240690" lon="16.6143630">
4858    <ele>187.2</ele>
4859    <time>2016-01-06T09:45:05Z</time>
4860   </trkpt>
4861   <trkpt lat="49.1240760" lon="16.6142940">
4862    <ele>187.3</ele>
4863    <time>2016-01-06T09:45:06Z</time>
4864   </trkpt>
4865   <trkpt lat="49.1240870" lon="16.6142310">
4866    <ele>187.5</ele>
4867    <time>2016-01-06T09:45:07Z</time>
4868   </trkpt>
4869   <trkpt lat="49.1241220" lon="16.6141080">
4870    <ele>187.6</ele>
4871    <time>2016-01-06T09:45:09Z</time>
4872   </trkpt>
4873   <trkpt lat="49.1241410" lon="16.6140610">
4874    <ele>187.6</ele>
4875    <time>2016-01-06T09:45:10Z</time>
4876   </trkpt>
4877   <trkpt lat="49.1241650" lon="16.6140160">
4878    <ele>187.6</ele>
4879    <time>2016-01-06T09:45:11Z</time>
4880   </trkpt>
4881   <trkpt lat="49.1242170" lon="16.6139360">
4882    <ele>187.7</ele>
4883    <time>2016-01-06T09:45:13Z</time>
4884   </trkpt>
4885   <trkpt lat="49.1242690" lon="16.6138660">
4886    <ele>187.9</ele>
4887    <time>2016-01-06T09:45:15Z</time>
4888   </trkpt>
4889   <trkpt lat="49.1242980" lon="16.6138420">
4890    <ele>187.9</ele>
4891    <time>2016-01-06T09:45:16Z</time>
4892   </trkpt>
4893   <trkpt lat="49.1243590" lon="16.6138150">
4894    <ele>187.8</ele>
4895    <time>2016-01-06T09:45:18Z</time>
4896   </trkpt>
4897   <trkpt lat="49.1243880" lon="16.6138040">
4898    <ele>187.8</ele>
4899    <time>2016-01-06T09:45:19Z</time>
4900   </trkpt>
4901   <trkpt lat="49.1244360" lon="16.6137800">
4902    <ele>187.8</ele>
4903    <time>2016-01-06T09:45:21Z</time>
4904   </trkpt>
4905   <trkpt lat="49.1244410" lon="16.6138410">
4906    <ele>189.3</ele>
4907    <time>2016-01-06T09:45:50Z</time>
4908   </trkpt>
4909   <trkpt lat="49.1245140" lon="16.6136700">
4910    <ele>190.1</ele>
4911    <time>2016-01-06T09:45:59Z</time>
4912   </trkpt>
4913   <trkpt lat="49.1245480" lon="16.6135340">
4914    <ele>190.4</ele>
4915    <time>2016-01-06T09:46:01Z</time>
4916   </trkpt>
4917   <trkpt lat="49.1245570" lon="16.6134770">
4918    <ele>190.6</ele>
4919    <time>2016-01-06T09:46:02Z</time>
4920   </trkpt>
4921   <trkpt lat="49.1245720" lon="16.6133680">
4922    <ele>190.6</ele>
4923    <time>2016-01-06T09:46:04Z</time>
4924   </trkpt>
4925   <trkpt lat="49.1245780" lon="16.6133160">
4926    <ele>190.6</ele>
4927    <time>2016-01-06T09:46:05Z</time>
4928   </trkpt>
4929   <trkpt lat="49.1245890" lon="16.6131950">
4930    <ele>190.9</ele>
4931    <time>2016-01-06T09:46:07Z</time>
4932   </trkpt>
4933   <trkpt lat="49.1245920" lon="16.6131370">
4934    <ele>191.1</ele>
4935    <time>2016-01-06T09:46:08Z</time>
4936   </trkpt>
4937   <trkpt lat="49.1245910" lon="16.6130910">
4938    <ele>191.4</ele>
4939    <time>2016-01-06T09:46:09Z</time>
4940   </trkpt>
4941   <trkpt lat="49.1245930" lon="16.6130330">
4942    <ele>191.5</ele>
4943    <time>2016-01-06T09:46:10Z</time>
4944   </trkpt>
4945   <trkpt lat="49.1245970" lon="16.6129230">
4946    <ele>191.8</ele>
4947    <time>2016-01-06T09:46:12Z</time>
4948   </trkpt>
4949   <trkpt lat="49.1246070" lon="16.6127920">
4950    <ele>191.9</ele>
4951    <time>2016-01-06T09:46:14Z</time>
4952   </trkpt>
4953   <trkpt lat="49.1246140" lon="16.6127350">
4954    <ele>192.0</ele>
4955    <time>2016-01-06T09:46:15Z</time>
4956   </trkpt>
4957   <trkpt lat="49.1246230" lon="16.6126220">
4958    <ele>192.1</ele>
4959    <time>2016-01-06T09:46:17Z</time>
4960   </trkpt>
4961   <trkpt lat="49.1246310" lon="16.6125260">
4962    <ele>192.3</ele>
4963    <time>2016-01-06T09:46:19Z</time>
4964   </trkpt>
4965   <trkpt lat="49.1246300" lon="16.6124780">
4966    <ele>192.4</ele>
4967    <time>2016-01-06T09:46:20Z</time>
4968   </trkpt>
4969   <trkpt lat="49.1246300" lon="16.6123510">
4970    <ele>192.2</ele>
4971    <time>2016-01-06T09:46:22Z</time>
4972   </trkpt>
4973   <trkpt lat="49.1246290" lon="16.6122290">
4974    <ele>192.5</ele>
4975    <time>2016-01-06T09:46:24Z</time>
4976   </trkpt>
4977   <trkpt lat="49.1246330" lon="16.6120970">
4978    <ele>192.7</ele>
4979    <time>2016-01-06T09:46:26Z</time>
4980   </trkpt>
4981   <trkpt lat="49.1246330" lon="16.6119730">
4982    <ele>192.5</ele>
4983    <time>2016-01-06T09:46:28Z</time>
4984   </trkpt>
4985   <trkpt lat="49.1246330" lon="16.6118600">
4986    <ele>192.7</ele>
4987    <time>2016-01-06T09:46:30Z</time>
4988   </trkpt>
4989   <trkpt lat="49.1246390" lon="16.6117260">
4990    <ele>193.0</ele>
4991    <time>2016-01-06T09:46:32Z</time>
4992   </trkpt>
4993   <trkpt lat="49.1246490" lon="16.6116530">
4994    <ele>193.1</ele>
4995    <time>2016-01-06T09:46:33Z</time>
4996   </trkpt>
4997   <trkpt lat="49.1246490" lon="16.6115970">
4998    <ele>193.3</ele>
4999    <time>2016-01-06T09:46:34Z</time>
5000   </trkpt>
5001   <trkpt lat="49.1246420" lon="16.6114880">
5002    <ele>193.5</ele>
5003    <time>2016-01-06T09:46:36Z</time>
5004   </trkpt>
5005   <trkpt lat="49.1246340" lon="16.6113660">
5006    <ele>193.5</ele>
5007    <time>2016-01-06T09:46:38Z</time>
5008   </trkpt>
5009   <trkpt lat="49.1246240" lon="16.6112540">
5010    <ele>193.4</ele>
5011    <time>2016-01-06T09:46:40Z</time>
5012   </trkpt>
5013   <trkpt lat="49.1246190" lon="16.6112000">
5014    <ele>193.4</ele>
5015    <time>2016-01-06T09:46:41Z</time>
5016   </trkpt>
5017   <trkpt lat="49.1246140" lon="16.6111450">
5018    <ele>193.4</ele>
5019    <time>2016-01-06T09:46:42Z</time>
5020   </trkpt>
5021   <trkpt lat="49.1246020" lon="16.6109880">
5022    <ele>193.5</ele>
5023    <time>2016-01-06T09:46:44Z</time>
5024   </trkpt>
5025   <trkpt lat="49.1245950" lon="16.6109120">
5026    <ele>193.5</ele>
5027    <time>2016-01-06T09:46:45Z</time>
5028   </trkpt>
5029   <trkpt lat="49.1245820" lon="16.6107660">
5030    <ele>193.6</ele>
5031    <time>2016-01-06T09:46:47Z</time>
5032   </trkpt>
5033   <trkpt lat="49.1245770" lon="16.6107030">
5034    <ele>193.6</ele>
5035    <time>2016-01-06T09:46:48Z</time>
5036   </trkpt>
5037   <trkpt lat="49.1245740" lon="16.6106260">
5038    <ele>193.7</ele>
5039    <time>2016-01-06T09:46:49Z</time>
5040   </trkpt>
5041   <trkpt lat="49.1245630" lon="16.6104690">
5042    <ele>193.7</ele>
5043    <time>2016-01-06T09:46:51Z</time>
5044   </trkpt>
5045   <trkpt lat="49.1245540" lon="16.6103310">
5046    <ele>193.9</ele>
5047    <time>2016-01-06T09:46:53Z</time>
5048   </trkpt>
5049   <trkpt lat="49.1245410" lon="16.6101900">
5050    <ele>194.0</ele>
5051    <time>2016-01-06T09:46:55Z</time>
5052   </trkpt>
5053   <trkpt lat="49.1245370" lon="16.6101060">
5054    <ele>194.0</ele>
5055    <time>2016-01-06T09:46:56Z</time>
5056   </trkpt>
5057   <trkpt lat="49.1245290" lon="16.6099370">
5058    <ele>194.7</ele>
5059    <time>2016-01-06T09:46:58Z</time>
5060   </trkpt>
5061   <trkpt lat="49.1245270" lon="16.6098730">
5062    <ele>194.8</ele>
5063    <time>2016-01-06T09:46:59Z</time>
5064   </trkpt>
5065   <trkpt lat="49.1245240" lon="16.6098110">
5066    <ele>195.0</ele>
5067    <time>2016-01-06T09:47:00Z</time>
5068   </trkpt>
5069   <trkpt lat="49.1245120" lon="16.6096860">
5070    <ele>195.1</ele>
5071    <time>2016-01-06T09:47:02Z</time>
5072   </trkpt>
5073   <trkpt lat="49.1245060" lon="16.6096140">
5074    <ele>195.4</ele>
5075    <time>2016-01-06T09:47:03Z</time>
5076   </trkpt>
5077   <trkpt lat="49.1244930" lon="16.6094610">
5078    <ele>195.3</ele>
5079    <time>2016-01-06T09:47:05Z</time>
5080   </trkpt>
5081   <trkpt lat="49.1244860" lon="16.6093880">
5082    <ele>195.4</ele>
5083    <time>2016-01-06T09:47:06Z</time>
5084   </trkpt>
5085   <trkpt lat="49.1244700" lon="16.6092370">
5086    <ele>195.9</ele>
5087    <time>2016-01-06T09:47:08Z</time>
5088   </trkpt>
5089   <trkpt lat="49.1244530" lon="16.6090650">
5090    <ele>196.0</ele>
5091    <time>2016-01-06T09:47:10Z</time>
5092   </trkpt>
5093   <trkpt lat="49.1244450" lon="16.6089830">
5094    <ele>196.0</ele>
5095    <time>2016-01-06T09:47:11Z</time>
5096   </trkpt>
5097   <trkpt lat="49.1244360" lon="16.6089010">
5098    <ele>195.9</ele>
5099    <time>2016-01-06T09:47:12Z</time>
5100   </trkpt>
5101   <trkpt lat="49.1244240" lon="16.6088180">
5102    <ele>195.9</ele>
5103    <time>2016-01-06T09:47:13Z</time>
5104   </trkpt>
5105   <trkpt lat="49.1244100" lon="16.6087420">
5106    <ele>195.8</ele>
5107    <time>2016-01-06T09:47:14Z</time>
5108   </trkpt>
5109   <trkpt lat="49.1243740" lon="16.6085720">
5110    <ele>195.6</ele>
5111    <time>2016-01-06T09:47:16Z</time>
5112   </trkpt>
5113   <trkpt lat="49.1243490" lon="16.6084930">
5114    <ele>195.9</ele>
5115    <time>2016-01-06T09:47:17Z</time>
5116   </trkpt>
5117   <trkpt lat="49.1242780" lon="16.6083600">
5118    <ele>195.9</ele>
5119    <time>2016-01-06T09:47:19Z</time>
5120   </trkpt>
5121   <trkpt lat="49.1242330" lon="16.6082980">
5122    <ele>195.9</ele>
5123    <time>2016-01-06T09:47:20Z</time>
5124   </trkpt>
5125   <trkpt lat="49.1241870" lon="16.6082400">
5126    <ele>195.8</ele>
5127    <time>2016-01-06T09:47:21Z</time>
5128   </trkpt>
5129   <trkpt lat="49.1240770" lon="16.6081320">
5130    <ele>195.7</ele>
5131    <time>2016-01-06T09:47:23Z</time>
5132   </trkpt>
5133   <trkpt lat="49.1240180" lon="16.6080780">
5134    <ele>195.8</ele>
5135    <time>2016-01-06T09:47:24Z</time>
5136   </trkpt>
5137   <trkpt lat="49.1239550" lon="16.6080210">
5138    <ele>195.7</ele>
5139    <time>2016-01-06T09:47:25Z</time>
5140   </trkpt>
5141   <trkpt lat="49.1238920" lon="16.6079660">
5142    <ele>195.7</ele>
5143    <time>2016-01-06T09:47:26Z</time>
5144   </trkpt>
5145   <trkpt lat="49.1238320" lon="16.6079140">
5146    <ele>195.6</ele>
5147    <time>2016-01-06T09:47:27Z</time>
5148   </trkpt>
5149   <trkpt lat="49.1237270" lon="16.6078220">
5150    <ele>195.6</ele>
5151    <time>2016-01-06T09:47:29Z</time>
5152   </trkpt>
5153   <trkpt lat="49.1236130" lon="16.6077310">
5154    <ele>195.4</ele>
5155    <time>2016-01-06T09:47:31Z</time>
5156   </trkpt>
5157   <trkpt lat="49.1234920" lon="16.6076230">
5158    <ele>194.9</ele>
5159    <time>2016-01-06T09:47:33Z</time>
5160   </trkpt>
5161   <trkpt lat="49.1233740" lon="16.6075130">
5162    <ele>195.1</ele>
5163    <time>2016-01-06T09:47:35Z</time>
5164   </trkpt>
5165   <trkpt lat="49.1232660" lon="16.6074050">
5166    <ele>195.2</ele>
5167    <time>2016-01-06T09:47:37Z</time>
5168   </trkpt>
5169   <trkpt lat="49.1231540" lon="16.6072900">
5170    <ele>195.0</ele>
5171    <time>2016-01-06T09:47:39Z</time>
5172   </trkpt>
5173   <trkpt lat="49.1231090" lon="16.6072440">
5174    <ele>195.1</ele>
5175    <time>2016-01-06T09:47:40Z</time>
5176   </trkpt>
5177   <trkpt lat="49.1230620" lon="16.6072010">
5178    <ele>195.3</ele>
5179    <time>2016-01-06T09:47:41Z</time>
5180   </trkpt>
5181   <trkpt lat="49.1230080" lon="16.6071530">
5182    <ele>195.5</ele>
5183    <time>2016-01-06T09:47:42Z</time>
5184   </trkpt>
5185   <trkpt lat="49.1229060" lon="16.6070620">
5186    <ele>195.1</ele>
5187    <time>2016-01-06T09:47:44Z</time>
5188   </trkpt>
5189   <trkpt lat="49.1228530" lon="16.6070150">
5190    <ele>194.9</ele>
5191    <time>2016-01-06T09:47:45Z</time>
5192   </trkpt>
5193   <trkpt lat="49.1227980" lon="16.6069620">
5194    <ele>195.2</ele>
5195    <time>2016-01-06T09:47:46Z</time>
5196   </trkpt>
5197   <trkpt lat="49.1226840" lon="16.6068540">
5198    <ele>195.1</ele>
5199    <time>2016-01-06T09:47:48Z</time>
5200   </trkpt>
5201   <trkpt lat="49.1226240" lon="16.6067980">
5202    <ele>194.8</ele>
5203    <time>2016-01-06T09:47:49Z</time>
5204   </trkpt>
5205   <trkpt lat="49.1225710" lon="16.6067450">
5206    <ele>195.0</ele>
5207    <time>2016-01-06T09:47:50Z</time>
5208   </trkpt>
5209   <trkpt lat="49.1224620" lon="16.6066480">
5210    <ele>195.2</ele>
5211    <time>2016-01-06T09:47:52Z</time>
5212   </trkpt>
5213   <trkpt lat="49.1224110" lon="16.6066060">
5214    <ele>195.0</ele>
5215    <time>2016-01-06T09:47:53Z</time>
5216   </trkpt>
5217   <trkpt lat="49.1223640" lon="16.6065670">
5218    <ele>194.8</ele>
5219    <time>2016-01-06T09:47:54Z</time>
5220   </trkpt>
5221   <trkpt lat="49.1222620" lon="16.6064980">
5222    <ele>194.5</ele>
5223    <time>2016-01-06T09:47:56Z</time>
5224   </trkpt>
5225   <trkpt lat="49.1221420" lon="16.6064460">
5226    <ele>194.6</ele>
5227    <time>2016-01-06T09:47:58Z</time>
5228   </trkpt>
5229   <trkpt lat="49.1220230" lon="16.6064140">
5230    <ele>194.3</ele>
5231    <time>2016-01-06T09:48:00Z</time>
5232   </trkpt>
5233   <trkpt lat="49.1219550" lon="16.6064030">
5234    <ele>194.4</ele>
5235    <time>2016-01-06T09:48:01Z</time>
5236   </trkpt>
5237   <trkpt lat="49.1218320" lon="16.6063990">
5238    <ele>194.4</ele>
5239    <time>2016-01-06T09:48:03Z</time>
5240   </trkpt>
5241   <trkpt lat="49.1217760" lon="16.6064030">
5242    <ele>194.4</ele>
5243    <time>2016-01-06T09:48:04Z</time>
5244   </trkpt>
5245   <trkpt lat="49.1217210" lon="16.6064040">
5246    <ele>194.4</ele>
5247    <time>2016-01-06T09:48:05Z</time>
5248   </trkpt>
5249   <trkpt lat="49.1216490" lon="16.6064040">
5250    <ele>194.4</ele>
5251    <time>2016-01-06T09:48:06Z</time>
5252   </trkpt>
5253   <trkpt lat="49.1215250" lon="16.6064110">
5254    <ele>194.2</ele>
5255    <time>2016-01-06T09:48:08Z</time>
5256   </trkpt>
5257   <trkpt lat="49.1214270" lon="16.6064220">
5258    <ele>194.3</ele>
5259    <time>2016-01-06T09:48:10Z</time>
5260   </trkpt>
5261   <trkpt lat="49.1213820" lon="16.6064240">
5262    <ele>194.1</ele>
5263    <time>2016-01-06T09:48:11Z</time>
5264   </trkpt>
5265   <trkpt lat="49.1213240" lon="16.6064320">
5266    <ele>193.9</ele>
5267    <time>2016-01-06T09:48:12Z</time>
5268   </trkpt>
5269   <trkpt lat="49.1211990" lon="16.6064390">
5270    <ele>193.8</ele>
5271    <time>2016-01-06T09:48:14Z</time>
5272   </trkpt>
5273   <trkpt lat="49.1211350" lon="16.6064410">
5274    <ele>194.0</ele>
5275    <time>2016-01-06T09:48:15Z</time>
5276   </trkpt>
5277   <trkpt lat="49.1210040" lon="16.6064440">
5278    <ele>193.9</ele>
5279    <time>2016-01-06T09:48:17Z</time>
5280   </trkpt>
5281   <trkpt lat="49.1208840" lon="16.6064430">
5282    <ele>193.7</ele>
5283    <time>2016-01-06T09:48:19Z</time>
5284   </trkpt>
5285   <trkpt lat="49.1208270" lon="16.6064410">
5286    <ele>193.7</ele>
5287    <time>2016-01-06T09:48:20Z</time>
5288   </trkpt>
5289   <trkpt lat="49.1206940" lon="16.6064360">
5290    <ele>193.7</ele>
5291    <time>2016-01-06T09:48:22Z</time>
5292   </trkpt>
5293   <trkpt lat="49.1206270" lon="16.6064340">
5294    <ele>193.6</ele>
5295    <time>2016-01-06T09:48:23Z</time>
5296   </trkpt>
5297   <trkpt lat="49.1205090" lon="16.6064270">
5298    <ele>193.5</ele>
5299    <time>2016-01-06T09:48:25Z</time>
5300   </trkpt>
5301   <trkpt lat="49.1203850" lon="16.6064210">
5302    <ele>193.4</ele>
5303    <time>2016-01-06T09:48:27Z</time>
5304   </trkpt>
5305   <trkpt lat="49.1202580" lon="16.6064190">
5306    <ele>193.4</ele>
5307    <time>2016-01-06T09:48:29Z</time>
5308   </trkpt>
5309   <trkpt lat="49.1202000" lon="16.6064200">
5310    <ele>193.3</ele>
5311    <time>2016-01-06T09:48:30Z</time>
5312   </trkpt>
5313   <trkpt lat="49.1200850" lon="16.6064160">
5314    <ele>193.2</ele>
5315    <time>2016-01-06T09:48:32Z</time>
5316   </trkpt>
5317   <trkpt lat="49.1200180" lon="16.6064120">
5318    <ele>193.3</ele>
5319    <time>2016-01-06T09:48:33Z</time>
5320   </trkpt>
5321   <trkpt lat="49.1199620" lon="16.6064080">
5322    <ele>193.4</ele>
5323    <time>2016-01-06T09:48:34Z</time>
5324   </trkpt>
5325   <trkpt lat="49.1199060" lon="16.6064050">
5326    <ele>193.3</ele>
5327    <time>2016-01-06T09:48:35Z</time>
5328   </trkpt>
5329   <trkpt lat="49.1197720" lon="16.6063950">
5330    <ele>193.0</ele>
5331    <time>2016-01-06T09:48:37Z</time>
5332   </trkpt>
5333   <trkpt lat="49.1197060" lon="16.6063910">
5334    <ele>193.0</ele>
5335    <time>2016-01-06T09:48:38Z</time>
5336   </trkpt>
5337   <trkpt lat="49.1196370" lon="16.6063900">
5338    <ele>192.8</ele>
5339    <time>2016-01-06T09:48:39Z</time>
5340   </trkpt>
5341   <trkpt lat="49.1195730" lon="16.6063920">
5342    <ele>192.7</ele>
5343    <time>2016-01-06T09:48:40Z</time>
5344   </trkpt>
5345   <trkpt lat="49.1194540" lon="16.6064010">
5346    <ele>192.8</ele>
5347    <time>2016-01-06T09:48:42Z</time>
5348   </trkpt>
5349   <trkpt lat="49.1193420" lon="16.6064060">
5350    <ele>193.3</ele>
5351    <time>2016-01-06T09:48:44Z</time>
5352   </trkpt>
5353   <trkpt lat="49.1192910" lon="16.6064120">
5354    <ele>193.3</ele>
5355    <time>2016-01-06T09:48:45Z</time>
5356   </trkpt>
5357   <trkpt lat="49.1191840" lon="16.6064170">
5358    <ele>193.4</ele>
5359    <time>2016-01-06T09:48:47Z</time>
5360   </trkpt>
5361   <trkpt lat="49.1190660" lon="16.6064150">
5362    <ele>193.4</ele>
5363    <time>2016-01-06T09:48:49Z</time>
5364   </trkpt>
5365   <trkpt lat="49.1190050" lon="16.6064130">
5366    <ele>193.4</ele>
5367    <time>2016-01-06T09:48:50Z</time>
5368   </trkpt>
5369   <trkpt lat="49.1188850" lon="16.6064060">
5370    <ele>193.1</ele>
5371    <time>2016-01-06T09:48:52Z</time>
5372   </trkpt>
5373   <trkpt lat="49.1187530" lon="16.6064010">
5374    <ele>192.9</ele>
5375    <time>2016-01-06T09:48:54Z</time>
5376   </trkpt>
5377   <trkpt lat="49.1186410" lon="16.6063980">
5378    <ele>192.9</ele>
5379    <time>2016-01-06T09:48:56Z</time>
5380   </trkpt>
5381   <trkpt lat="49.1185840" lon="16.6063930">
5382    <ele>192.7</ele>
5383    <time>2016-01-06T09:48:57Z</time>
5384   </trkpt>
5385   <trkpt lat="49.1185270" lon="16.6063630">
5386    <ele>192.6</ele>
5387    <time>2016-01-06T09:48:58Z</time>
5388   </trkpt>
5389   <trkpt lat="49.1184360" lon="16.6062600">
5390    <ele>192.5</ele>
5391    <time>2016-01-06T09:49:00Z</time>
5392   </trkpt>
5393   <trkpt lat="49.1183840" lon="16.6062060">
5394    <ele>192.4</ele>
5395    <time>2016-01-06T09:49:01Z</time>
5396   </trkpt>
5397   <trkpt lat="49.1182880" lon="16.6061300">
5398    <ele>192.4</ele>
5399    <time>2016-01-06T09:49:03Z</time>
5400   </trkpt>
5401   <trkpt lat="49.1181690" lon="16.6060980">
5402    <ele>192.2</ele>
5403    <time>2016-01-06T09:49:05Z</time>
5404   </trkpt>
5405   <trkpt lat="49.1181160" lon="16.6060850">
5406    <ele>192.3</ele>
5407    <time>2016-01-06T09:49:06Z</time>
5408   </trkpt>
5409   <trkpt lat="49.1180180" lon="16.6060670">
5410    <ele>192.5</ele>
5411    <time>2016-01-06T09:49:08Z</time>
5412   </trkpt>
5413   <trkpt lat="49.1179430" lon="16.6060610">
5414    <ele>192.6</ele>
5415    <time>2016-01-06T09:49:09Z</time>
5416   </trkpt>
5417   <trkpt lat="49.1178770" lon="16.6060570">
5418    <ele>192.6</ele>
5419    <time>2016-01-06T09:49:10Z</time>
5420   </trkpt>
5421   <trkpt lat="49.1177570" lon="16.6060560">
5422    <ele>192.6</ele>
5423    <time>2016-01-06T09:49:12Z</time>
5424   </trkpt>
5425   <trkpt lat="49.1176990" lon="16.6060560">
5426    <ele>192.9</ele>
5427    <time>2016-01-06T09:49:13Z</time>
5428   </trkpt>
5429   <trkpt lat="49.1176340" lon="16.6060560">
5430    <ele>193.1</ele>
5431    <time>2016-01-06T09:49:14Z</time>
5432   </trkpt>
5433   <trkpt lat="49.1175710" lon="16.6060570">
5434    <ele>193.2</ele>
5435    <time>2016-01-06T09:49:15Z</time>
5436   </trkpt>
5437   <trkpt lat="49.1174470" lon="16.6060600">
5438    <ele>193.1</ele>
5439    <time>2016-01-06T09:49:17Z</time>
5440   </trkpt>
5441   <trkpt lat="49.1173870" lon="16.6060610">
5442    <ele>192.8</ele>
5443    <time>2016-01-06T09:49:18Z</time>
5444   </trkpt>
5445   <trkpt lat="49.1172860" lon="16.6060670">
5446    <ele>192.2</ele>
5447    <time>2016-01-06T09:49:20Z</time>
5448   </trkpt>
5449   <trkpt lat="49.1171620" lon="16.6060740">
5450    <ele>191.9</ele>
5451    <time>2016-01-06T09:49:22Z</time>
5452   </trkpt>
5453   <trkpt lat="49.1170970" lon="16.6060750">
5454    <ele>192.0</ele>
5455    <time>2016-01-06T09:49:23Z</time>
5456   </trkpt>
5457   <trkpt lat="49.1169770" lon="16.6060720">
5458    <ele>192.5</ele>
5459    <time>2016-01-06T09:49:25Z</time>
5460   </trkpt>
5461   <trkpt lat="49.1169140" lon="16.6060690">
5462    <ele>192.6</ele>
5463    <time>2016-01-06T09:49:26Z</time>
5464   </trkpt>
5465   <trkpt lat="49.1167910" lon="16.6060700">
5466    <ele>192.8</ele>
5467    <time>2016-01-06T09:49:28Z</time>
5468   </trkpt>
5469   <trkpt lat="49.1166750" lon="16.6060720">
5470    <ele>192.7</ele>
5471    <time>2016-01-06T09:49:30Z</time>
5472   </trkpt>
5473   <trkpt lat="49.1166070" lon="16.6060720">
5474    <ele>192.8</ele>
5475    <time>2016-01-06T09:49:31Z</time>
5476   </trkpt>
5477   <trkpt lat="49.1165420" lon="16.6060730">
5478    <ele>192.9</ele>
5479    <time>2016-01-06T09:49:32Z</time>
5480   </trkpt>
5481   <trkpt lat="49.1164100" lon="16.6060720">
5482    <ele>192.6</ele>
5483    <time>2016-01-06T09:49:34Z</time>
5484   </trkpt>
5485   <trkpt lat="49.1162930" lon="16.6060740">
5486    <ele>192.6</ele>
5487    <time>2016-01-06T09:49:36Z</time>
5488   </trkpt>
5489   <trkpt lat="49.1161760" lon="16.6060760">
5490    <ele>192.9</ele>
5491    <time>2016-01-06T09:49:38Z</time>
5492   </trkpt>
5493   <trkpt lat="49.1160580" lon="16.6060870">
5494    <ele>193.0</ele>
5495    <time>2016-01-06T09:49:40Z</time>
5496   </trkpt>
5497   <trkpt lat="49.1159580" lon="16.6060950">
5498    <ele>193.1</ele>
5499    <time>2016-01-06T09:49:42Z</time>
5500   </trkpt>
5501   <trkpt lat="49.1159070" lon="16.6060960">
5502    <ele>192.9</ele>
5503    <time>2016-01-06T09:49:43Z</time>
5504   </trkpt>
5505   <trkpt lat="49.1158080" lon="16.6060950">
5506    <ele>192.9</ele>
5507    <time>2016-01-06T09:49:45Z</time>
5508   </trkpt>
5509   <trkpt lat="49.1157110" lon="16.6060940">
5510    <ele>193.0</ele>
5511    <time>2016-01-06T09:49:47Z</time>
5512   </trkpt>
5513   <trkpt lat="49.1156020" lon="16.6060900">
5514    <ele>192.6</ele>
5515    <time>2016-01-06T09:49:49Z</time>
5516   </trkpt>
5517   <trkpt lat="49.1155430" lon="16.6060880">
5518    <ele>192.7</ele>
5519    <time>2016-01-06T09:49:50Z</time>
5520   </trkpt>
5521   <trkpt lat="49.1154320" lon="16.6060830">
5522    <ele>192.6</ele>
5523    <time>2016-01-06T09:49:52Z</time>
5524   </trkpt>
5525   <trkpt lat="49.1153350" lon="16.6060770">
5526    <ele>192.3</ele>
5527    <time>2016-01-06T09:49:54Z</time>
5528   </trkpt>
5529   <trkpt lat="49.1152830" lon="16.6060780">
5530    <ele>192.3</ele>
5531    <time>2016-01-06T09:49:55Z</time>
5532   </trkpt>
5533   <trkpt lat="49.1151650" lon="16.6060740">
5534    <ele>192.2</ele>
5535    <time>2016-01-06T09:49:57Z</time>
5536   </trkpt>
5537   <trkpt lat="49.1151020" lon="16.6060710">
5538    <ele>192.2</ele>
5539    <time>2016-01-06T09:49:58Z</time>
5540   </trkpt>
5541   <trkpt lat="49.1150440" lon="16.6060660">
5542    <ele>192.3</ele>
5543    <time>2016-01-06T09:49:59Z</time>
5544   </trkpt>
5545   <trkpt lat="49.1149420" lon="16.6060620">
5546    <ele>192.5</ele>
5547    <time>2016-01-06T09:50:01Z</time>
5548   </trkpt>
5549   <trkpt lat="49.1148840" lon="16.6060590">
5550    <ele>192.6</ele>
5551    <time>2016-01-06T09:50:02Z</time>
5552   </trkpt>
5553   <trkpt lat="49.1147690" lon="16.6060540">
5554    <ele>192.5</ele>
5555    <time>2016-01-06T09:50:04Z</time>
5556   </trkpt>
5557   <trkpt lat="49.1147110" lon="16.6060550">
5558    <ele>192.3</ele>
5559    <time>2016-01-06T09:50:05Z</time>
5560   </trkpt>
5561   <trkpt lat="49.1146550" lon="16.6060570">
5562    <ele>192.3</ele>
5563    <time>2016-01-06T09:50:06Z</time>
5564   </trkpt>
5565   <trkpt lat="49.1145490" lon="16.6060580">
5566    <ele>192.3</ele>
5567    <time>2016-01-06T09:50:08Z</time>
5568   </trkpt>
5569   <trkpt lat="49.1144990" lon="16.6060570">
5570    <ele>192.3</ele>
5571    <time>2016-01-06T09:50:09Z</time>
5572   </trkpt>
5573   <trkpt lat="49.1144400" lon="16.6060550">
5574    <ele>192.4</ele>
5575    <time>2016-01-06T09:50:10Z</time>
5576   </trkpt>
5577   <trkpt lat="49.1143890" lon="16.6060540">
5578    <ele>192.3</ele>
5579    <time>2016-01-06T09:50:11Z</time>
5580   </trkpt>
5581   <trkpt lat="49.1142810" lon="16.6060500">
5582    <ele>192.2</ele>
5583    <time>2016-01-06T09:50:13Z</time>
5584   </trkpt>
5585   <trkpt lat="49.1142260" lon="16.6060490">
5586    <ele>192.1</ele>
5587    <time>2016-01-06T09:50:14Z</time>
5588   </trkpt>
5589   <trkpt lat="49.1141050" lon="16.6060390">
5590    <ele>192.3</ele>
5591    <time>2016-01-06T09:50:16Z</time>
5592   </trkpt>
5593   <trkpt lat="49.1139920" lon="16.6060360">
5594    <ele>192.1</ele>
5595    <time>2016-01-06T09:50:18Z</time>
5596   </trkpt>
5597   <trkpt lat="49.1139440" lon="16.6060390">
5598    <ele>191.9</ele>
5599    <time>2016-01-06T09:50:19Z</time>
5600   </trkpt>
5601   <trkpt lat="49.1138910" lon="16.6060370">
5602    <ele>191.9</ele>
5603    <time>2016-01-06T09:50:20Z</time>
5604   </trkpt>
5605   <trkpt lat="49.1137930" lon="16.6060310">
5606    <ele>192.0</ele>
5607    <time>2016-01-06T09:50:22Z</time>
5608   </trkpt>
5609   <trkpt lat="49.1136920" lon="16.6060280">
5610    <ele>192.1</ele>
5611    <time>2016-01-06T09:50:24Z</time>
5612   </trkpt>
5613   <trkpt lat="49.1136370" lon="16.6060270">
5614    <ele>192.1</ele>
5615    <time>2016-01-06T09:50:25Z</time>
5616   </trkpt>
5617   <trkpt lat="49.1135860" lon="16.6060260">
5618    <ele>192.0</ele>
5619    <time>2016-01-06T09:50:26Z</time>
5620   </trkpt>
5621   <trkpt lat="49.1134900" lon="16.6060400">
5622    <ele>191.9</ele>
5623    <time>2016-01-06T09:50:28Z</time>
5624   </trkpt>
5625   <trkpt lat="49.1134360" lon="16.6060480">
5626    <ele>191.9</ele>
5627    <time>2016-01-06T09:50:29Z</time>
5628   </trkpt>
5629   <trkpt lat="49.1133480" lon="16.6060570">
5630    <ele>191.4</ele>
5631    <time>2016-01-06T09:50:31Z</time>
5632   </trkpt>
5633   <trkpt lat="49.1132800" lon="16.6060620">
5634    <ele>191.2</ele>
5635    <time>2016-01-06T09:50:33Z</time>
5636   </trkpt>
5637   <trkpt lat="49.1132140" lon="16.6060670">
5638    <ele>190.7</ele>
5639    <time>2016-01-06T09:50:35Z</time>
5640   </trkpt>
5641   <trkpt lat="49.1131580" lon="16.6060670">
5642    <ele>190.3</ele>
5643    <time>2016-01-06T09:50:37Z</time>
5644   </trkpt>
5645   <trkpt lat="49.1131140" lon="16.6060550">
5646    <ele>190.1</ele>
5647    <time>2016-01-06T09:50:39Z</time>
5648   </trkpt>
5649   <trkpt lat="49.1130510" lon="16.6060410">
5650    <ele>189.9</ele>
5651    <time>2016-01-06T09:50:41Z</time>
5652   </trkpt>
5653   <trkpt lat="49.1130090" lon="16.6060370">
5654    <ele>189.9</ele>
5655    <time>2016-01-06T09:50:42Z</time>
5656   </trkpt>
5657   <trkpt lat="49.1129730" lon="16.6060350">
5658    <ele>189.8</ele>
5659    <time>2016-01-06T09:50:43Z</time>
5660   </trkpt>
5661   <trkpt lat="49.1129060" lon="16.6060410">
5662    <ele>189.8</ele>
5663    <time>2016-01-06T09:50:45Z</time>
5664   </trkpt>
5665   <trkpt lat="49.1128310" lon="16.6060520">
5666    <ele>189.7</ele>
5667    <time>2016-01-06T09:50:47Z</time>
5668   </trkpt>
5669   <trkpt lat="49.1127510" lon="16.6060640">
5670    <ele>189.7</ele>
5671    <time>2016-01-06T09:50:49Z</time>
5672   </trkpt>
5673   <trkpt lat="49.1126950" lon="16.6060750">
5674    <ele>189.8</ele>
5675    <time>2016-01-06T09:50:51Z</time>
5676   </trkpt>
5677   <trkpt lat="49.1126370" lon="16.6060710">
5678    <ele>190.3</ele>
5679    <time>2016-01-06T09:50:53Z</time>
5680   </trkpt>
5681   <trkpt lat="49.1126020" lon="16.6060680">
5682    <ele>190.5</ele>
5683    <time>2016-01-06T09:50:54Z</time>
5684   </trkpt>
5685   <trkpt lat="49.1125170" lon="16.6060640">
5686    <ele>190.1</ele>
5687    <time>2016-01-06T09:50:56Z</time>
5688   </trkpt>
5689   <trkpt lat="49.1124740" lon="16.6060620">
5690    <ele>189.8</ele>
5691    <time>2016-01-06T09:50:57Z</time>
5692   </trkpt>
5693   <trkpt lat="49.1123920" lon="16.6060660">
5694    <ele>189.6</ele>
5695    <time>2016-01-06T09:50:59Z</time>
5696   </trkpt>
5697   <trkpt lat="49.1123610" lon="16.6060660">
5698    <ele>189.5</ele>
5699    <time>2016-01-06T09:51:00Z</time>
5700   </trkpt>
5701   <trkpt lat="49.1123100" lon="16.6060550">
5702    <ele>189.3</ele>
5703    <time>2016-01-06T09:51:02Z</time>
5704   </trkpt>
5705   <trkpt lat="49.1122530" lon="16.6060440">
5706    <ele>188.9</ele>
5707    <time>2016-01-06T09:51:04Z</time>
5708   </trkpt>
5709   <trkpt lat="49.1122240" lon="16.6060360">
5710    <ele>188.6</ele>
5711    <time>2016-01-06T09:51:05Z</time>
5712   </trkpt>
5713   <trkpt lat="49.1121690" lon="16.6060120">
5714    <ele>188.5</ele>
5715    <time>2016-01-06T09:51:07Z</time>
5716   </trkpt>
5717   <trkpt lat="49.1121240" lon="16.6059920">
5718    <ele>188.3</ele>
5719    <time>2016-01-06T09:51:09Z</time>
5720   </trkpt>
5721   <trkpt lat="49.1120740" lon="16.6059800">
5722    <ele>188.0</ele>
5723    <time>2016-01-06T09:51:11Z</time>
5724   </trkpt>
5725   <trkpt lat="49.1120130" lon="16.6059780">
5726    <ele>187.5</ele>
5727    <time>2016-01-06T09:51:13Z</time>
5728   </trkpt>
5729   <trkpt lat="49.1119810" lon="16.6059780">
5730    <ele>187.5</ele>
5731    <time>2016-01-06T09:51:14Z</time>
5732   </trkpt>
5733   <trkpt lat="49.1119500" lon="16.6059810">
5734    <ele>187.3</ele>
5735    <time>2016-01-06T09:51:15Z</time>
5736   </trkpt>
5737   <trkpt lat="49.1118910" lon="16.6059990">
5738    <ele>187.0</ele>
5739    <time>2016-01-06T09:51:17Z</time>
5740   </trkpt>
5741   <trkpt lat="49.1118340" lon="16.6060290">
5742    <ele>186.6</ele>
5743    <time>2016-01-06T09:51:19Z</time>
5744   </trkpt>
5745   <trkpt lat="49.1117750" lon="16.6060550">
5746    <ele>186.2</ele>
5747    <time>2016-01-06T09:51:21Z</time>
5748   </trkpt>
5749   <trkpt lat="49.1117240" lon="16.6060800">
5750    <ele>185.9</ele>
5751    <time>2016-01-06T09:51:23Z</time>
5752   </trkpt>
5753   <trkpt lat="49.1116960" lon="16.6060910">
5754    <ele>185.8</ele>
5755    <time>2016-01-06T09:51:24Z</time>
5756   </trkpt>
5757   <trkpt lat="49.1116450" lon="16.6061080">
5758    <ele>185.5</ele>
5759    <time>2016-01-06T09:51:26Z</time>
5760   </trkpt>
5761   <trkpt lat="49.1116180" lon="16.6061180">
5762    <ele>185.3</ele>
5763    <time>2016-01-06T09:51:27Z</time>
5764   </trkpt>
5765   <trkpt lat="49.1115870" lon="16.6061230">
5766    <ele>185.1</ele>
5767    <time>2016-01-06T09:51:29Z</time>
5768   </trkpt>
5769   <trkpt lat="49.1115620" lon="16.6061090">
5770    <ele>185.0</ele>
5771    <time>2016-01-06T09:51:31Z</time>
5772   </trkpt>
5773   <trkpt lat="49.1115380" lon="16.6060600">
5774    <ele>184.9</ele>
5775    <time>2016-01-06T09:51:33Z</time>
5776   </trkpt>
5777   <trkpt lat="49.1115260" lon="16.6060120">
5778    <ele>184.6</ele>
5779    <time>2016-01-06T09:51:35Z</time>
5780   </trkpt>
5781   <trkpt lat="49.1115240" lon="16.6059590">
5782    <ele>184.0</ele>
5783    <time>2016-01-06T09:51:37Z</time>
5784   </trkpt>
5785   <trkpt lat="49.1115200" lon="16.6059070">
5786    <ele>183.6</ele>
5787    <time>2016-01-06T09:51:39Z</time>
5788   </trkpt>
5789   <trkpt lat="49.1115090" lon="16.6057970">
5790    <ele>183.0</ele>
5791    <time>2016-01-06T09:51:43Z</time>
5792   </trkpt>
5793   <trkpt lat="49.1115060" lon="16.6057100">
5794    <ele>182.8</ele>
5795    <time>2016-01-06T09:51:45Z</time>
5796   </trkpt>
5797   <trkpt lat="49.1115080" lon="16.6056630">
5798    <ele>182.7</ele>
5799    <time>2016-01-06T09:51:46Z</time>
5800   </trkpt>
5801   <trkpt lat="49.1115100" lon="16.6056190">
5802    <ele>182.5</ele>
5803    <time>2016-01-06T09:51:47Z</time>
5804   </trkpt>
5805   <trkpt lat="49.1115150" lon="16.6055340">
5806    <ele>182.4</ele>
5807    <time>2016-01-06T09:51:49Z</time>
5808   </trkpt>
5809   <trkpt lat="49.1115150" lon="16.6054690">
5810    <ele>182.4</ele>
5811    <time>2016-01-06T09:51:51Z</time>
5812   </trkpt>
5813   <trkpt lat="49.1115050" lon="16.6054280">
5814    <ele>183.0</ele>
5815    <time>2016-01-06T09:51:53Z</time>
5816   </trkpt>
5817   <trkpt lat="49.1114820" lon="16.6053750">
5818    <ele>183.9</ele>
5819    <time>2016-01-06T09:51:55Z</time>
5820   </trkpt>
5821   <trkpt lat="49.1114490" lon="16.6053390">
5822    <ele>184.8</ele>
5823    <time>2016-01-06T09:51:57Z</time>
5824   </trkpt>
5825   <trkpt lat="49.1114050" lon="16.6053280">
5826    <ele>185.1</ele>
5827    <time>2016-01-06T09:51:59Z</time>
5828   </trkpt>
5829   <trkpt lat="49.1113490" lon="16.6053310">
5830    <ele>185.5</ele>
5831    <time>2016-01-06T09:52:01Z</time>
5832   </trkpt>
5833   <trkpt lat="49.1113130" lon="16.6053410">
5834    <ele>185.8</ele>
5835    <time>2016-01-06T09:52:02Z</time>
5836   </trkpt>
5837   <trkpt lat="49.1112690" lon="16.6053510">
5838    <ele>185.9</ele>
5839    <time>2016-01-06T09:52:03Z</time>
5840   </trkpt>
5841   <trkpt lat="49.1111960" lon="16.6053570">
5842    <ele>186.0</ele>
5843    <time>2016-01-06T09:52:05Z</time>
5844   </trkpt>
5845   <trkpt lat="49.1111230" lon="16.6053540">
5846    <ele>186.0</ele>
5847    <time>2016-01-06T09:52:07Z</time>
5848   </trkpt>
5849   <trkpt lat="49.1110630" lon="16.6053520">
5850    <ele>185.7</ele>
5851    <time>2016-01-06T09:52:09Z</time>
5852   </trkpt>
5853   <trkpt lat="49.1109950" lon="16.6053630">
5854    <ele>185.5</ele>
5855    <time>2016-01-06T09:52:11Z</time>
5856   </trkpt>
5857   <trkpt lat="49.1109180" lon="16.6053760">
5858    <ele>185.6</ele>
5859    <time>2016-01-06T09:52:13Z</time>
5860   </trkpt>
5861   <trkpt lat="49.1108510" lon="16.6053810">
5862    <ele>185.3</ele>
5863    <time>2016-01-06T09:52:15Z</time>
5864   </trkpt>
5865   <trkpt lat="49.1107820" lon="16.6053760">
5866    <ele>185.1</ele>
5867    <time>2016-01-06T09:52:17Z</time>
5868   </trkpt>
5869   <trkpt lat="49.1107080" lon="16.6053710">
5870    <ele>185.2</ele>
5871    <time>2016-01-06T09:52:19Z</time>
5872   </trkpt>
5873   <trkpt lat="49.1106710" lon="16.6053680">
5874    <ele>185.2</ele>
5875    <time>2016-01-06T09:52:20Z</time>
5876   </trkpt>
5877   <trkpt lat="49.1105780" lon="16.6053620">
5878    <ele>185.1</ele>
5879    <time>2016-01-06T09:52:22Z</time>
5880   </trkpt>
5881   <trkpt lat="49.1105300" lon="16.6053560">
5882    <ele>185.0</ele>
5883    <time>2016-01-06T09:52:23Z</time>
5884   </trkpt>
5885   <trkpt lat="49.1104710" lon="16.6053510">
5886    <ele>184.6</ele>
5887    <time>2016-01-06T09:52:25Z</time>
5888   </trkpt>
5889   <trkpt lat="49.1104330" lon="16.6053460">
5890    <ele>184.5</ele>
5891    <time>2016-01-06T09:52:26Z</time>
5892   </trkpt>
5893   <trkpt lat="49.1103550" lon="16.6053350">
5894    <ele>185.0</ele>
5895    <time>2016-01-06T09:52:28Z</time>
5896   </trkpt>
5897   <trkpt lat="49.1102710" lon="16.6053290">
5898    <ele>184.8</ele>
5899    <time>2016-01-06T09:52:30Z</time>
5900   </trkpt>
5901   <trkpt lat="49.1102080" lon="16.6053240">
5902    <ele>184.7</ele>
5903    <time>2016-01-06T09:52:32Z</time>
5904   </trkpt>
5905   <trkpt lat="49.1101300" lon="16.6053160">
5906    <ele>184.8</ele>
5907    <time>2016-01-06T09:52:34Z</time>
5908   </trkpt>
5909   <trkpt lat="49.1100820" lon="16.6053120">
5910    <ele>184.8</ele>
5911    <time>2016-01-06T09:52:35Z</time>
5912   </trkpt>
5913   <trkpt lat="49.1100390" lon="16.6053070">
5914    <ele>184.8</ele>
5915    <time>2016-01-06T09:52:36Z</time>
5916   </trkpt>
5917   <trkpt lat="49.1099530" lon="16.6052950">
5918    <ele>184.7</ele>
5919    <time>2016-01-06T09:52:38Z</time>
5920   </trkpt>
5921   <trkpt lat="49.1098950" lon="16.6052890">
5922    <ele>184.4</ele>
5923    <time>2016-01-06T09:52:40Z</time>
5924   </trkpt>
5925   <trkpt lat="49.1098290" lon="16.6052820">
5926    <ele>184.4</ele>
5927    <time>2016-01-06T09:52:42Z</time>
5928   </trkpt>
5929   <trkpt lat="49.1097970" lon="16.6052820">
5930    <ele>184.6</ele>
5931    <time>2016-01-06T09:52:43Z</time>
5932   </trkpt>
5933   <trkpt lat="49.1097120" lon="16.6052840">
5934    <ele>184.7</ele>
5935    <time>2016-01-06T09:52:45Z</time>
5936   </trkpt>
5937   <trkpt lat="49.1096260" lon="16.6052830">
5938    <ele>184.9</ele>
5939    <time>2016-01-06T09:52:47Z</time>
5940   </trkpt>
5941   <trkpt lat="49.1095640" lon="16.6052840">
5942    <ele>185.2</ele>
5943    <time>2016-01-06T09:52:49Z</time>
5944   </trkpt>
5945   <trkpt lat="49.1095270" lon="16.6052830">
5946    <ele>185.3</ele>
5947    <time>2016-01-06T09:52:50Z</time>
5948   </trkpt>
5949   <trkpt lat="49.1094680" lon="16.6052830">
5950    <ele>185.5</ele>
5951    <time>2016-01-06T09:52:52Z</time>
5952   </trkpt>
5953   <trkpt lat="49.1094090" lon="16.6052680">
5954    <ele>185.4</ele>
5955    <time>2016-01-06T09:52:54Z</time>
5956   </trkpt>
5957   <trkpt lat="49.1093690" lon="16.6052300">
5958    <ele>185.5</ele>
5959    <time>2016-01-06T09:52:56Z</time>
5960   </trkpt>
5961   <trkpt lat="49.1093450" lon="16.6051810">
5962    <ele>185.5</ele>
5963    <time>2016-01-06T09:52:58Z</time>
5964   </trkpt>
5965   <trkpt lat="49.1093160" lon="16.6051170">
5966    <ele>185.5</ele>
5967    <time>2016-01-06T09:53:00Z</time>
5968   </trkpt>
5969   <trkpt lat="49.1092970" lon="16.6050560">
5970    <ele>185.3</ele>
5971    <time>2016-01-06T09:53:02Z</time>
5972   </trkpt>
5973   <trkpt lat="49.1092630" lon="16.6049290">
5974    <ele>185.1</ele>
5975    <time>2016-01-06T09:53:07Z</time>
5976   </trkpt>
5977   <trkpt lat="49.1092710" lon="16.6048090">
5978    <ele>184.8</ele>
5979    <time>2016-01-06T09:53:09Z</time>
5980   </trkpt>
5981   <trkpt lat="49.1092950" lon="16.6046990">
5982    <ele>185.0</ele>
5983    <time>2016-01-06T09:53:11Z</time>
5984   </trkpt>
5985   <trkpt lat="49.1093070" lon="16.6046590">
5986    <ele>185.3</ele>
5987    <time>2016-01-06T09:53:12Z</time>
5988   </trkpt>
5989   <trkpt lat="49.1093190" lon="16.6045730">
5990    <ele>185.6</ele>
5991    <time>2016-01-06T09:53:14Z</time>
5992   </trkpt>
5993   <trkpt lat="49.1093270" lon="16.6044810">
5994    <ele>185.9</ele>
5995    <time>2016-01-06T09:53:16Z</time>
5996   </trkpt>
5997   <trkpt lat="49.1093340" lon="16.6044200">
5998    <ele>186.0</ele>
5999    <time>2016-01-06T09:53:17Z</time>
6000   </trkpt>
6001   <trkpt lat="49.1093480" lon="16.6043210">
6002    <ele>185.8</ele>
6003    <time>2016-01-06T09:53:19Z</time>
6004   </trkpt>
6005   <trkpt lat="49.1093600" lon="16.6042140">
6006    <ele>185.3</ele>
6007    <time>2016-01-06T09:53:21Z</time>
6008   </trkpt>
6009   <trkpt lat="49.1093690" lon="16.6041660">
6010    <ele>185.4</ele>
6011    <time>2016-01-06T09:53:22Z</time>
6012   </trkpt>
6013   <trkpt lat="49.1093850" lon="16.6040590">
6014    <ele>185.5</ele>
6015    <time>2016-01-06T09:53:24Z</time>
6016   </trkpt>
6017   <trkpt lat="49.1093920" lon="16.6040040">
6018    <ele>185.5</ele>
6019    <time>2016-01-06T09:53:25Z</time>
6020   </trkpt>
6021   <trkpt lat="49.1093990" lon="16.6039070">
6022    <ele>185.6</ele>
6023    <time>2016-01-06T09:53:27Z</time>
6024   </trkpt>
6025   <trkpt lat="49.1094020" lon="16.6038260">
6026    <ele>185.7</ele>
6027    <time>2016-01-06T09:53:29Z</time>
6028   </trkpt>
6029   <trkpt lat="49.1094030" lon="16.6037730">
6030    <ele>185.7</ele>
6031    <time>2016-01-06T09:53:30Z</time>
6032   </trkpt>
6033   <trkpt lat="49.1094100" lon="16.6036390">
6034    <ele>185.6</ele>
6035    <time>2016-01-06T09:53:32Z</time>
6036   </trkpt>
6037   <trkpt lat="49.1094080" lon="16.6035020">
6038    <ele>185.4</ele>
6039    <time>2016-01-06T09:53:34Z</time>
6040   </trkpt>
6041   <trkpt lat="49.1094070" lon="16.6034450">
6042    <ele>185.4</ele>
6043    <time>2016-01-06T09:53:35Z</time>
6044   </trkpt>
6045   <trkpt lat="49.1094060" lon="16.6033780">
6046    <ele>185.5</ele>
6047    <time>2016-01-06T09:53:36Z</time>
6048   </trkpt>
6049   <trkpt lat="49.1094040" lon="16.6032540">
6050    <ele>185.8</ele>
6051    <time>2016-01-06T09:53:38Z</time>
6052   </trkpt>
6053   <trkpt lat="49.1094040" lon="16.6031920">
6054    <ele>185.7</ele>
6055    <time>2016-01-06T09:53:39Z</time>
6056   </trkpt>
6057   <trkpt lat="49.1094050" lon="16.6031400">
6058    <ele>185.7</ele>
6059    <time>2016-01-06T09:53:40Z</time>
6060   </trkpt>
6061   <trkpt lat="49.1094050" lon="16.6030970">
6062    <ele>185.5</ele>
6063    <time>2016-01-06T09:53:41Z</time>
6064   </trkpt>
6065   <trkpt lat="49.1093990" lon="16.6030300">
6066    <ele>185.3</ele>
6067    <time>2016-01-06T09:53:43Z</time>
6068   </trkpt>
6069   <trkpt lat="49.1093890" lon="16.6029550">
6070    <ele>185.1</ele>
6071    <time>2016-01-06T09:53:45Z</time>
6072   </trkpt>
6073   <trkpt lat="49.1093860" lon="16.6029110">
6074    <ele>185.0</ele>
6075    <time>2016-01-06T09:53:46Z</time>
6076   </trkpt>
6077   <trkpt lat="49.1093790" lon="16.6028610">
6078    <ele>185.0</ele>
6079    <time>2016-01-06T09:53:49Z</time>
6080   </trkpt>
6081   <trkpt lat="49.1093550" lon="16.6028270">
6082    <ele>184.9</ele>
6083    <time>2016-01-06T09:53:52Z</time>
6084   </trkpt>
6085   <trkpt lat="49.1093280" lon="16.6028300">
6086    <ele>184.9</ele>
6087    <time>2016-01-06T09:53:53Z</time>
6088   </trkpt>
6089   <trkpt lat="49.1092990" lon="16.6028330">
6090    <ele>184.9</ele>
6091    <time>2016-01-06T09:53:54Z</time>
6092   </trkpt>
6093   <trkpt lat="49.1092710" lon="16.6028350">
6094    <ele>185.0</ele>
6095    <time>2016-01-06T09:53:55Z</time>
6096   </trkpt>
6097   <trkpt lat="49.1092420" lon="16.6028350">
6098    <ele>185.0</ele>
6099    <time>2016-01-06T09:53:56Z</time>
6100   </trkpt>
6101   <trkpt lat="49.1091910" lon="16.6028350">
6102    <ele>185.3</ele>
6103    <time>2016-01-06T09:53:58Z</time>
6104   </trkpt>
6105   <trkpt lat="49.1091410" lon="16.6028370">
6106    <ele>185.3</ele>
6107    <time>2016-01-06T09:54:00Z</time>
6108   </trkpt>
6109   <trkpt lat="49.1090950" lon="16.6028340">
6110    <ele>185.3</ele>
6111    <time>2016-01-06T09:54:02Z</time>
6112   </trkpt>
6113   <trkpt lat="49.1090680" lon="16.6028320">
6114    <ele>185.5</ele>
6115    <time>2016-01-06T09:54:03Z</time>
6116   </trkpt>
6117   <trkpt lat="49.1090400" lon="16.6028280">
6118    <ele>185.7</ele>
6119    <time>2016-01-06T09:54:04Z</time>
6120   </trkpt>
6121   <trkpt lat="49.1090120" lon="16.6028240">
6122    <ele>185.9</ele>
6123    <time>2016-01-06T09:54:05Z</time>
6124   </trkpt>
6125   <trkpt lat="49.1089580" lon="16.6028030">
6126    <ele>185.9</ele>
6127    <time>2016-01-06T09:54:07Z</time>
6128   </trkpt>
6129   <trkpt lat="49.1089380" lon="16.6027520">
6130    <ele>185.8</ele>
6131    <time>2016-01-06T09:54:09Z</time>
6132   </trkpt>
6133   <trkpt lat="49.1089370" lon="16.6027020">
6134    <ele>185.7</ele>
6135    <time>2016-01-06T09:54:10Z</time>
6136   </trkpt>
6137   <trkpt lat="49.1089290" lon="16.6026210">
6138    <ele>185.6</ele>
6139    <time>2016-01-06T09:54:12Z</time>
6140   </trkpt>
6141   <trkpt lat="49.1088960" lon="16.6025280">
6142    <ele>185.8</ele>
6143    <time>2016-01-06T09:54:14Z</time>
6144   </trkpt>
6145   <trkpt lat="49.1088690" lon="16.6024760">
6146    <ele>185.9</ele>
6147    <time>2016-01-06T09:54:15Z</time>
6148   </trkpt>
6149   <trkpt lat="49.1088100" lon="16.6023700">
6150    <ele>186.2</ele>
6151    <time>2016-01-06T09:54:17Z</time>
6152   </trkpt>
6153   <trkpt lat="49.1087770" lon="16.6023080">
6154    <ele>186.3</ele>
6155    <time>2016-01-06T09:54:18Z</time>
6156   </trkpt>
6157   <trkpt lat="49.1087060" lon="16.6021820">
6158    <ele>186.4</ele>
6159    <time>2016-01-06T09:54:20Z</time>
6160   </trkpt>
6161   <trkpt lat="49.1086400" lon="16.6020640">
6162    <ele>186.4</ele>
6163    <time>2016-01-06T09:54:22Z</time>
6164   </trkpt>
6165   <trkpt lat="49.1086070" lon="16.6020040">
6166    <ele>186.5</ele>
6167    <time>2016-01-06T09:54:23Z</time>
6168   </trkpt>
6169   <trkpt lat="49.1085710" lon="16.6019430">
6170    <ele>186.6</ele>
6171    <time>2016-01-06T09:54:24Z</time>
6172   </trkpt>
6173   <trkpt lat="49.1085380" lon="16.6018890">
6174    <ele>187.0</ele>
6175    <time>2016-01-06T09:54:25Z</time>
6176   </trkpt>
6177   <trkpt lat="49.1084720" lon="16.6017820">
6178    <ele>187.2</ele>
6179    <time>2016-01-06T09:54:27Z</time>
6180   </trkpt>
6181   <trkpt lat="49.1084390" lon="16.6017310">
6182    <ele>187.2</ele>
6183    <time>2016-01-06T09:54:28Z</time>
6184   </trkpt>
6185   <trkpt lat="49.1084060" lon="16.6016840">
6186    <ele>187.4</ele>
6187    <time>2016-01-06T09:54:29Z</time>
6188   </trkpt>
6189   <trkpt lat="49.1083780" lon="16.6016420">
6190    <ele>187.5</ele>
6191    <time>2016-01-06T09:54:30Z</time>
6192   </trkpt>
6193   <trkpt lat="49.1083450" lon="16.6015940">
6194    <ele>187.6</ele>
6195    <time>2016-01-06T09:54:31Z</time>
6196   </trkpt>
6197   <trkpt lat="49.1083090" lon="16.6015460">
6198    <ele>187.8</ele>
6199    <time>2016-01-06T09:54:32Z</time>
6200   </trkpt>
6201   <trkpt lat="49.1082470" lon="16.6014540">
6202    <ele>188.3</ele>
6203    <time>2016-01-06T09:54:34Z</time>
6204   </trkpt>
6205   <trkpt lat="49.1082200" lon="16.6014120">
6206    <ele>188.5</ele>
6207    <time>2016-01-06T09:54:35Z</time>
6208   </trkpt>
6209   <trkpt lat="49.1081930" lon="16.6013730">
6210    <ele>188.8</ele>
6211    <time>2016-01-06T09:54:36Z</time>
6212   </trkpt>
6213   <trkpt lat="49.1081650" lon="16.6013320">
6214    <ele>189.2</ele>
6215    <time>2016-01-06T09:54:37Z</time>
6216   </trkpt>
6217   <trkpt lat="49.1081000" lon="16.6012620">
6218    <ele>190.0</ele>
6219    <time>2016-01-06T09:54:39Z</time>
6220   </trkpt>
6221   <trkpt lat="49.1080780" lon="16.6012310">
6222    <ele>190.3</ele>
6223    <time>2016-01-06T09:54:40Z</time>
6224   </trkpt>
6225   <trkpt lat="49.1080320" lon="16.6011850">
6226    <ele>191.0</ele>
6227    <time>2016-01-06T09:54:42Z</time>
6228   </trkpt>
6229   <trkpt lat="49.1080060" lon="16.6011590">
6230    <ele>191.3</ele>
6231    <time>2016-01-06T09:54:43Z</time>
6232   </trkpt>
6233   <trkpt lat="49.1079850" lon="16.6011310">
6234    <ele>191.7</ele>
6235    <time>2016-01-06T09:54:44Z</time>
6236   </trkpt>
6237   <trkpt lat="49.1079620" lon="16.6011000">
6238    <ele>192.0</ele>
6239    <time>2016-01-06T09:54:45Z</time>
6240   </trkpt>
6241   <trkpt lat="49.1079390" lon="16.6010500">
6242    <ele>192.4</ele>
6243    <time>2016-01-06T09:54:47Z</time>
6244   </trkpt>
6245   <trkpt lat="49.1079360" lon="16.6009740">
6246    <ele>192.4</ele>
6247    <time>2016-01-06T09:54:49Z</time>
6248   </trkpt>
6249   <trkpt lat="49.1079370" lon="16.6008970">
6250    <ele>192.4</ele>
6251    <time>2016-01-06T09:54:51Z</time>
6252   </trkpt>
6253   <trkpt lat="49.1079420" lon="16.6008290">
6254    <ele>192.4</ele>
6255    <time>2016-01-06T09:54:53Z</time>
6256   </trkpt>
6257   <trkpt lat="49.1079360" lon="16.6007560">
6258    <ele>192.7</ele>
6259    <time>2016-01-06T09:54:55Z</time>
6260   </trkpt>
6261   <trkpt lat="49.1079320" lon="16.6006840">
6262    <ele>193.0</ele>
6263    <time>2016-01-06T09:54:57Z</time>
6264   </trkpt>
6265   <trkpt lat="49.1079320" lon="16.6006170">
6266    <ele>193.7</ele>
6267    <time>2016-01-06T09:54:59Z</time>
6268   </trkpt>
6269   <trkpt lat="49.1079320" lon="16.6005750">
6270    <ele>193.6</ele>
6271    <time>2016-01-06T09:55:00Z</time>
6272   </trkpt>
6273   <trkpt lat="49.1079370" lon="16.6005110">
6274    <ele>193.4</ele>
6275    <time>2016-01-06T09:55:02Z</time>
6276   </trkpt>
6277   <trkpt lat="49.1079370" lon="16.6004700">
6278    <ele>193.3</ele>
6279    <time>2016-01-06T09:55:03Z</time>
6280   </trkpt>
6281   <trkpt lat="49.1079320" lon="16.6003910">
6282    <ele>193.0</ele>
6283    <time>2016-01-06T09:55:05Z</time>
6284   </trkpt>
6285   <trkpt lat="49.1079260" lon="16.6003130">
6286    <ele>192.8</ele>
6287    <time>2016-01-06T09:55:07Z</time>
6288   </trkpt>
6289   <trkpt lat="49.1079110" lon="16.6002410">
6290    <ele>192.9</ele>
6291    <time>2016-01-06T09:55:09Z</time>
6292   </trkpt>
6293   <trkpt lat="49.1078900" lon="16.6001630">
6294    <ele>193.1</ele>
6295    <time>2016-01-06T09:55:11Z</time>
6296   </trkpt>
6297   <trkpt lat="49.1078800" lon="16.6001160">
6298    <ele>193.4</ele>
6299    <time>2016-01-06T09:55:12Z</time>
6300   </trkpt>
6301   <trkpt lat="49.1078730" lon="16.6000420">
6302    <ele>194.1</ele>
6303    <time>2016-01-06T09:55:14Z</time>
6304   </trkpt>
6305   <trkpt lat="49.1078580" lon="16.5999560">
6306    <ele>194.7</ele>
6307    <time>2016-01-06T09:55:16Z</time>
6308   </trkpt>
6309   <trkpt lat="49.1078460" lon="16.5998780">
6310    <ele>195.2</ele>
6311    <time>2016-01-06T09:55:18Z</time>
6312   </trkpt>
6313   <trkpt lat="49.1078400" lon="16.5998320">
6314    <ele>195.4</ele>
6315    <time>2016-01-06T09:55:19Z</time>
6316   </trkpt>
6317   <trkpt lat="49.1078300" lon="16.5997450">
6318    <ele>195.3</ele>
6319    <time>2016-01-06T09:55:21Z</time>
6320   </trkpt>
6321   <trkpt lat="49.1078220" lon="16.5996780">
6322    <ele>195.5</ele>
6323    <time>2016-01-06T09:55:23Z</time>
6324   </trkpt>
6325   <trkpt lat="49.1078100" lon="16.5996170">
6326    <ele>195.8</ele>
6327    <time>2016-01-06T09:55:25Z</time>
6328   </trkpt>
6329   <trkpt lat="49.1077980" lon="16.5995500">
6330    <ele>196.0</ele>
6331    <time>2016-01-06T09:55:27Z</time>
6332   </trkpt>
6333   <trkpt lat="49.1077890" lon="16.5994810">
6334    <ele>196.3</ele>
6335    <time>2016-01-06T09:55:29Z</time>
6336   </trkpt>
6337   <trkpt lat="49.1077900" lon="16.5994010">
6338    <ele>196.5</ele>
6339    <time>2016-01-06T09:55:31Z</time>
6340   </trkpt>
6341   <trkpt lat="49.1077830" lon="16.5993190">
6342    <ele>196.5</ele>
6343    <time>2016-01-06T09:55:33Z</time>
6344   </trkpt>
6345   <trkpt lat="49.1077800" lon="16.5992710">
6346    <ele>196.6</ele>
6347    <time>2016-01-06T09:55:34Z</time>
6348   </trkpt>
6349   <trkpt lat="49.1077740" lon="16.5991810">
6350    <ele>196.8</ele>
6351    <time>2016-01-06T09:55:36Z</time>
6352   </trkpt>
6353   <trkpt lat="49.1077660" lon="16.5990850">
6354    <ele>196.9</ele>
6355    <time>2016-01-06T09:55:38Z</time>
6356   </trkpt>
6357   <trkpt lat="49.1077680" lon="16.5989910">
6358    <ele>197.0</ele>
6359    <time>2016-01-06T09:55:40Z</time>
6360   </trkpt>
6361   <trkpt lat="49.1077750" lon="16.5989410">
6362    <ele>196.9</ele>
6363    <time>2016-01-06T09:55:42Z</time>
6364   </trkpt>
6365   <trkpt lat="49.1077820" lon="16.5989010">
6366    <ele>196.7</ele>
6367    <time>2016-01-06T09:55:45Z</time>
6368   </trkpt>
6369   <trkpt lat="49.1077820" lon="16.5988380">
6370    <ele>196.4</ele>
6371    <time>2016-01-06T09:55:46Z</time>
6372   </trkpt>
6373   <trkpt lat="49.1077830" lon="16.5987930">
6374    <ele>195.9</ele>
6375    <time>2016-01-06T09:55:48Z</time>
6376   </trkpt>
6377   <trkpt lat="49.1077930" lon="16.5987270">
6378    <ele>195.3</ele>
6379    <time>2016-01-06T09:55:50Z</time>
6380   </trkpt>
6381   <trkpt lat="49.1078270" lon="16.5986270">
6382    <ele>194.6</ele>
6383    <time>2016-01-06T09:55:52Z</time>
6384   </trkpt>
6385   <trkpt lat="49.1078470" lon="16.5985790">
6386    <ele>194.0</ele>
6387    <time>2016-01-06T09:55:53Z</time>
6388   </trkpt>
6389   <trkpt lat="49.1078970" lon="16.5984830">
6390    <ele>192.3</ele>
6391    <time>2016-01-06T09:55:55Z</time>
6392   </trkpt>
6393   <trkpt lat="49.1079170" lon="16.5984430">
6394    <ele>191.3</ele>
6395    <time>2016-01-06T09:55:56Z</time>
6396   </trkpt>
6397   <trkpt lat="49.1079490" lon="16.5983560">
6398    <ele>190.9</ele>
6399    <time>2016-01-06T09:55:58Z</time>
6400   </trkpt>
6401   <trkpt lat="49.1079770" lon="16.5982690">
6402    <ele>191.0</ele>
6403    <time>2016-01-06T09:56:00Z</time>
6404   </trkpt>
6405   <trkpt lat="49.1079980" lon="16.5981860">
6406    <ele>191.3</ele>
6407    <time>2016-01-06T09:56:02Z</time>
6408   </trkpt>
6409   <trkpt lat="49.1080160" lon="16.5980830">
6410    <ele>191.4</ele>
6411    <time>2016-01-06T09:56:04Z</time>
6412   </trkpt>
6413   <trkpt lat="49.1080170" lon="16.5980000">
6414    <ele>191.6</ele>
6415    <time>2016-01-06T09:56:06Z</time>
6416   </trkpt>
6417   <trkpt lat="49.1080560" lon="16.5978920">
6418    <ele>191.3</ele>
6419    <time>2016-01-06T09:56:08Z</time>
6420   </trkpt>
6421   <trkpt lat="49.1080800" lon="16.5978600">
6422    <ele>191.2</ele>
6423    <time>2016-01-06T09:56:09Z</time>
6424   </trkpt>
6425   <trkpt lat="49.1081070" lon="16.5978180">
6426    <ele>191.1</ele>
6427    <time>2016-01-06T09:56:10Z</time>
6428   </trkpt>
6429   <trkpt lat="49.1081670" lon="16.5977030">
6430    <ele>190.2</ele>
6431    <time>2016-01-06T09:56:12Z</time>
6432   </trkpt>
6433   <trkpt lat="49.1081970" lon="16.5976410">
6434    <ele>189.9</ele>
6435    <time>2016-01-06T09:56:13Z</time>
6436   </trkpt>
6437   <trkpt lat="49.1082540" lon="16.5975090">
6438    <ele>189.5</ele>
6439    <time>2016-01-06T09:56:15Z</time>
6440   </trkpt>
6441   <trkpt lat="49.1082760" lon="16.5974350">
6442    <ele>189.3</ele>
6443    <time>2016-01-06T09:56:16Z</time>
6444   </trkpt>
6445   <trkpt lat="49.1082990" lon="16.5973870">
6446    <ele>189.2</ele>
6447    <time>2016-01-06T09:56:17Z</time>
6448   </trkpt>
6449   <trkpt lat="49.1083480" lon="16.5973230">
6450    <ele>189.0</ele>
6451    <time>2016-01-06T09:56:19Z</time>
6452   </trkpt>
6453   <trkpt lat="49.1083980" lon="16.5972940">
6454    <ele>188.3</ele>
6455    <time>2016-01-06T09:56:21Z</time>
6456   </trkpt>
6457   <trkpt lat="49.1084330" lon="16.5972690">
6458    <ele>188.1</ele>
6459    <time>2016-01-06T09:56:22Z</time>
6460   </trkpt>
6461   <trkpt lat="49.1085020" lon="16.5972150">
6462    <ele>187.3</ele>
6463    <time>2016-01-06T09:56:24Z</time>
6464   </trkpt>
6465   <trkpt lat="49.1085830" lon="16.5971210">
6466    <ele>186.4</ele>
6467    <time>2016-01-06T09:56:26Z</time>
6468   </trkpt>
6469   <trkpt lat="49.1086630" lon="16.5970070">
6470    <ele>186.3</ele>
6471    <time>2016-01-06T09:56:28Z</time>
6472   </trkpt>
6473   <trkpt lat="49.1086890" lon="16.5969630">
6474    <ele>186.3</ele>
6475    <time>2016-01-06T09:56:29Z</time>
6476   </trkpt>
6477   <trkpt lat="49.1087100" lon="16.5969190">
6478    <ele>186.2</ele>
6479    <time>2016-01-06T09:56:30Z</time>
6480   </trkpt>
6481   <trkpt lat="49.1087460" lon="16.5968450">
6482    <ele>186.2</ele>
6483    <time>2016-01-06T09:56:32Z</time>
6484   </trkpt>
6485   <trkpt lat="49.1087810" lon="16.5967590">
6486    <ele>185.8</ele>
6487    <time>2016-01-06T09:56:34Z</time>
6488   </trkpt>
6489   <trkpt lat="49.1088350" lon="16.5966730">
6490    <ele>186.0</ele>
6491    <time>2016-01-06T09:56:36Z</time>
6492   </trkpt>
6493   <trkpt lat="49.1088630" lon="16.5966330">
6494    <ele>185.9</ele>
6495    <time>2016-01-06T09:56:37Z</time>
6496   </trkpt>
6497   <trkpt lat="49.1089270" lon="16.5965420">
6498    <ele>186.0</ele>
6499    <time>2016-01-06T09:56:39Z</time>
6500   </trkpt>
6501   <trkpt lat="49.1090010" lon="16.5964380">
6502    <ele>185.6</ele>
6503    <time>2016-01-06T09:56:41Z</time>
6504   </trkpt>
6505   <trkpt lat="49.1090740" lon="16.5963260">
6506    <ele>185.5</ele>
6507    <time>2016-01-06T09:56:43Z</time>
6508   </trkpt>
6509   <trkpt lat="49.1091100" lon="16.5962660">
6510    <ele>185.5</ele>
6511    <time>2016-01-06T09:56:44Z</time>
6512   </trkpt>
6513   <trkpt lat="49.1091440" lon="16.5962070">
6514    <ele>185.5</ele>
6515    <time>2016-01-06T09:56:45Z</time>
6516   </trkpt>
6517   <trkpt lat="49.1092110" lon="16.5960900">
6518    <ele>185.8</ele>
6519    <time>2016-01-06T09:56:47Z</time>
6520   </trkpt>
6521   <trkpt lat="49.1092420" lon="16.5960350">
6522    <ele>186.0</ele>
6523    <time>2016-01-06T09:56:48Z</time>
6524   </trkpt>
6525   <trkpt lat="49.1093120" lon="16.5959350">
6526    <ele>186.3</ele>
6527    <time>2016-01-06T09:56:50Z</time>
6528   </trkpt>
6529   <trkpt lat="49.1093390" lon="16.5958980">
6530    <ele>186.3</ele>
6531    <time>2016-01-06T09:56:51Z</time>
6532   </trkpt>
6533   <trkpt lat="49.1093690" lon="16.5958570">
6534    <ele>186.5</ele>
6535    <time>2016-01-06T09:56:52Z</time>
6536   </trkpt>
6537   <trkpt lat="49.1094010" lon="16.5958200">
6538    <ele>186.5</ele>
6539    <time>2016-01-06T09:56:53Z</time>
6540   </trkpt>
6541   <trkpt lat="49.1094350" lon="16.5957800">
6542    <ele>186.5</ele>
6543    <time>2016-01-06T09:56:54Z</time>
6544   </trkpt>
6545   <trkpt lat="49.1094910" lon="16.5956910">
6546    <ele>186.3</ele>
6547    <time>2016-01-06T09:56:56Z</time>
6548   </trkpt>
6549   <trkpt lat="49.1095130" lon="16.5956360">
6550    <ele>186.1</ele>
6551    <time>2016-01-06T09:56:57Z</time>
6552   </trkpt>
6553   <trkpt lat="49.1095460" lon="16.5955290">
6554    <ele>185.9</ele>
6555    <time>2016-01-06T09:56:59Z</time>
6556   </trkpt>
6557   <trkpt lat="49.1095560" lon="16.5954910">
6558    <ele>185.9</ele>
6559    <time>2016-01-06T09:57:00Z</time>
6560   </trkpt>
6561   <trkpt lat="49.1095820" lon="16.5953970">
6562    <ele>186.1</ele>
6563    <time>2016-01-06T09:57:02Z</time>
6564   </trkpt>
6565   <trkpt lat="49.1096100" lon="16.5953030">
6566    <ele>186.0</ele>
6567    <time>2016-01-06T09:57:04Z</time>
6568   </trkpt>
6569   <trkpt lat="49.1096200" lon="16.5952590">
6570    <ele>185.9</ele>
6571    <time>2016-01-06T09:57:05Z</time>
6572   </trkpt>
6573   <trkpt lat="49.1096390" lon="16.5951780">
6574    <ele>185.8</ele>
6575    <time>2016-01-06T09:57:07Z</time>
6576   </trkpt>
6577   <trkpt lat="49.1096460" lon="16.5951190">
6578    <ele>185.9</ele>
6579    <time>2016-01-06T09:57:09Z</time>
6580   </trkpt>
6581   <trkpt lat="49.1096520" lon="16.5950680">
6582    <ele>185.7</ele>
6583    <time>2016-01-06T09:57:11Z</time>
6584   </trkpt>
6585   <trkpt lat="49.1096580" lon="16.5949970">
6586    <ele>185.6</ele>
6587    <time>2016-01-06T09:57:13Z</time>
6588   </trkpt>
6589   <trkpt lat="49.1096560" lon="16.5949070">
6590    <ele>185.8</ele>
6591    <time>2016-01-06T09:57:15Z</time>
6592   </trkpt>
6593   <trkpt lat="49.1096560" lon="16.5948600">
6594    <ele>186.0</ele>
6595    <time>2016-01-06T09:57:16Z</time>
6596   </trkpt>
6597   <trkpt lat="49.1096640" lon="16.5947740">
6598    <ele>186.3</ele>
6599    <time>2016-01-06T09:57:18Z</time>
6600   </trkpt>
6601   <trkpt lat="49.1096700" lon="16.5946790">
6602    <ele>186.2</ele>
6603    <time>2016-01-06T09:57:20Z</time>
6604   </trkpt>
6605   <trkpt lat="49.1096770" lon="16.5945720">
6606    <ele>186.2</ele>
6607    <time>2016-01-06T09:57:22Z</time>
6608   </trkpt>
6609   <trkpt lat="49.1096810" lon="16.5945220">
6610    <ele>186.3</ele>
6611    <time>2016-01-06T09:57:23Z</time>
6612   </trkpt>
6613   <trkpt lat="49.1096790" lon="16.5944170">
6614    <ele>186.3</ele>
6615    <time>2016-01-06T09:57:25Z</time>
6616   </trkpt>
6617   <trkpt lat="49.1096770" lon="16.5943040">
6618    <ele>185.7</ele>
6619    <time>2016-01-06T09:57:27Z</time>
6620   </trkpt>
6621   <trkpt lat="49.1096720" lon="16.5941700">
6622    <ele>185.7</ele>
6623    <time>2016-01-06T09:57:29Z</time>
6624   </trkpt>
6625   <trkpt lat="49.1096660" lon="16.5940980">
6626    <ele>185.7</ele>
6627    <time>2016-01-06T09:57:30Z</time>
6628   </trkpt>
6629   <trkpt lat="49.1096520" lon="16.5939750">
6630    <ele>185.6</ele>
6631    <time>2016-01-06T09:57:32Z</time>
6632   </trkpt>
6633   <trkpt lat="49.1096390" lon="16.5938550">
6634    <ele>185.7</ele>
6635    <time>2016-01-06T09:57:34Z</time>
6636   </trkpt>
6637   <trkpt lat="49.1096410" lon="16.5937480">
6638    <ele>186.1</ele>
6639    <time>2016-01-06T09:57:36Z</time>
6640   </trkpt>
6641   <trkpt lat="49.1096410" lon="16.5936280">
6642    <ele>186.1</ele>
6643    <time>2016-01-06T09:57:38Z</time>
6644   </trkpt>
6645   <trkpt lat="49.1096380" lon="16.5935670">
6646    <ele>186.1</ele>
6647    <time>2016-01-06T09:57:39Z</time>
6648   </trkpt>
6649   <trkpt lat="49.1096370" lon="16.5934430">
6650    <ele>186.5</ele>
6651    <time>2016-01-06T09:57:41Z</time>
6652   </trkpt>
6653   <trkpt lat="49.1096380" lon="16.5933850">
6654    <ele>186.9</ele>
6655    <time>2016-01-06T09:57:42Z</time>
6656   </trkpt>
6657   <trkpt lat="49.1096360" lon="16.5933150">
6658    <ele>187.2</ele>
6659    <time>2016-01-06T09:57:43Z</time>
6660   </trkpt>
6661   <trkpt lat="49.1096470" lon="16.5931920">
6662    <ele>187.2</ele>
6663    <time>2016-01-06T09:57:45Z</time>
6664   </trkpt>
6665   <trkpt lat="49.1096530" lon="16.5931330">
6666    <ele>187.2</ele>
6667    <time>2016-01-06T09:57:46Z</time>
6668   </trkpt>
6669   <trkpt lat="49.1096740" lon="16.5930210">
6670    <ele>187.3</ele>
6671    <time>2016-01-06T09:57:48Z</time>
6672   </trkpt>
6673   <trkpt lat="49.1096850" lon="16.5929580">
6674    <ele>187.2</ele>
6675    <time>2016-01-06T09:57:49Z</time>
6676   </trkpt>
6677   <trkpt lat="49.1096970" lon="16.5928940">
6678    <ele>187.1</ele>
6679    <time>2016-01-06T09:57:50Z</time>
6680   </trkpt>
6681   <trkpt lat="49.1097110" lon="16.5928370">
6682    <ele>187.1</ele>
6683    <time>2016-01-06T09:57:51Z</time>
6684   </trkpt>
6685   <trkpt lat="49.1097360" lon="16.5927470">
6686    <ele>187.0</ele>
6687    <time>2016-01-06T09:57:53Z</time>
6688   </trkpt>
6689   <trkpt lat="49.1097470" lon="16.5926750">
6690    <ele>186.9</ele>
6691    <time>2016-01-06T09:57:55Z</time>
6692   </trkpt>
6693   <trkpt lat="49.1097770" lon="16.5925830">
6694    <ele>186.7</ele>
6695    <time>2016-01-06T09:57:57Z</time>
6696   </trkpt>
6697   <trkpt lat="49.1098180" lon="16.5925020">
6698    <ele>186.3</ele>
6699    <time>2016-01-06T09:57:59Z</time>
6700   </trkpt>
6701   <trkpt lat="49.1098470" lon="16.5924330">
6702    <ele>186.1</ele>
6703    <time>2016-01-06T09:58:01Z</time>
6704   </trkpt>
6705   <trkpt lat="49.1098770" lon="16.5923480">
6706    <ele>185.7</ele>
6707    <time>2016-01-06T09:58:03Z</time>
6708   </trkpt>
6709   <trkpt lat="49.1099100" lon="16.5922540">
6710    <ele>185.7</ele>
6711    <time>2016-01-06T09:58:05Z</time>
6712   </trkpt>
6713   <trkpt lat="49.1099290" lon="16.5922070">
6714    <ele>185.8</ele>
6715    <time>2016-01-06T09:58:06Z</time>
6716   </trkpt>
6717   <trkpt lat="49.1099690" lon="16.5921180">
6718    <ele>185.9</ele>
6719    <time>2016-01-06T09:58:08Z</time>
6720   </trkpt>
6721   <trkpt lat="49.1100050" lon="16.5920380">
6722    <ele>185.7</ele>
6723    <time>2016-01-06T09:58:10Z</time>
6724   </trkpt>
6725   <trkpt lat="49.1100560" lon="16.5919190">
6726    <ele>185.6</ele>
6727    <time>2016-01-06T09:58:12Z</time>
6728   </trkpt>
6729   <trkpt lat="49.1100900" lon="16.5917840">
6730    <ele>185.8</ele>
6731    <time>2016-01-06T09:58:14Z</time>
6732   </trkpt>
6733   <trkpt lat="49.1101060" lon="16.5916640">
6734    <ele>185.9</ele>
6735    <time>2016-01-06T09:58:16Z</time>
6736   </trkpt>
6737   <trkpt lat="49.1101160" lon="16.5915830">
6738    <ele>185.9</ele>
6739    <time>2016-01-06T09:58:18Z</time>
6740   </trkpt>
6741   <trkpt lat="49.1101360" lon="16.5914910">
6742    <ele>186.0</ele>
6743    <time>2016-01-06T09:58:20Z</time>
6744   </trkpt>
6745   <trkpt lat="49.1101550" lon="16.5913800">
6746    <ele>186.3</ele>
6747    <time>2016-01-06T09:58:22Z</time>
6748   </trkpt>
6749   <trkpt lat="49.1101710" lon="16.5912800">
6750    <ele>186.4</ele>
6751    <time>2016-01-06T09:58:24Z</time>
6752   </trkpt>
6753   <trkpt lat="49.1101800" lon="16.5912260">
6754    <ele>186.5</ele>
6755    <time>2016-01-06T09:58:25Z</time>
6756   </trkpt>
6757   <trkpt lat="49.1101900" lon="16.5911060">
6758    <ele>186.6</ele>
6759    <time>2016-01-06T09:58:27Z</time>
6760   </trkpt>
6761   <trkpt lat="49.1101970" lon="16.5910470">
6762    <ele>186.7</ele>
6763    <time>2016-01-06T09:58:28Z</time>
6764   </trkpt>
6765   <trkpt lat="49.1102180" lon="16.5908790">
6766    <ele>186.5</ele>
6767    <time>2016-01-06T09:58:30Z</time>
6768   </trkpt>
6769   <trkpt lat="49.1102410" lon="16.5907350">
6770    <ele>186.5</ele>
6771    <time>2016-01-06T09:58:32Z</time>
6772   </trkpt>
6773   <trkpt lat="49.1102660" lon="16.5906290">
6774    <ele>186.5</ele>
6775    <time>2016-01-06T09:58:34Z</time>
6776   </trkpt>
6777   <trkpt lat="49.1103020" lon="16.5905190">
6778    <ele>186.7</ele>
6779    <time>2016-01-06T09:58:36Z</time>
6780   </trkpt>
6781   <trkpt lat="49.1103250" lon="16.5904600">
6782    <ele>186.8</ele>
6783    <time>2016-01-06T09:58:37Z</time>
6784   </trkpt>
6785   <trkpt lat="49.1103750" lon="16.5903510">
6786    <ele>186.6</ele>
6787    <time>2016-01-06T09:58:39Z</time>
6788   </trkpt>
6789   <trkpt lat="49.1104010" lon="16.5903050">
6790    <ele>186.6</ele>
6791    <time>2016-01-06T09:58:40Z</time>
6792   </trkpt>
6793   <trkpt lat="49.1104540" lon="16.5901970">
6794    <ele>186.6</ele>
6795    <time>2016-01-06T09:58:42Z</time>
6796   </trkpt>
6797   <trkpt lat="49.1105090" lon="16.5900980">
6798    <ele>186.3</ele>
6799    <time>2016-01-06T09:58:44Z</time>
6800   </trkpt>
6801   <trkpt lat="49.1105380" lon="16.5900480">
6802    <ele>186.2</ele>
6803    <time>2016-01-06T09:58:45Z</time>
6804   </trkpt>
6805   <trkpt lat="49.1105960" lon="16.5899500">
6806    <ele>186.1</ele>
6807    <time>2016-01-06T09:58:47Z</time>
6808   </trkpt>
6809   <trkpt lat="49.1106220" lon="16.5899040">
6810    <ele>186.1</ele>
6811    <time>2016-01-06T09:58:48Z</time>
6812   </trkpt>
6813   <trkpt lat="49.1106520" lon="16.5898550">
6814    <ele>186.1</ele>
6815    <time>2016-01-06T09:58:49Z</time>
6816   </trkpt>
6817   <trkpt lat="49.1106740" lon="16.5898150">
6818    <ele>186.2</ele>
6819    <time>2016-01-06T09:58:50Z</time>
6820   </trkpt>
6821   <trkpt lat="49.1107150" lon="16.5897380">
6822    <ele>186.5</ele>
6823    <time>2016-01-06T09:58:52Z</time>
6824   </trkpt>
6825   <trkpt lat="49.1107380" lon="16.5897020">
6826    <ele>186.6</ele>
6827    <time>2016-01-06T09:58:53Z</time>
6828   </trkpt>
6829   <trkpt lat="49.1107640" lon="16.5896630">
6830    <ele>186.7</ele>
6831    <time>2016-01-06T09:58:54Z</time>
6832   </trkpt>
6833   <trkpt lat="49.1108200" lon="16.5895940">
6834    <ele>186.8</ele>
6835    <time>2016-01-06T09:58:56Z</time>
6836   </trkpt>
6837   <trkpt lat="49.1108570" lon="16.5895260">
6838    <ele>186.7</ele>
6839    <time>2016-01-06T09:58:58Z</time>
6840   </trkpt>
6841   <trkpt lat="49.1108770" lon="16.5894720">
6842    <ele>186.3</ele>
6843    <time>2016-01-06T09:59:00Z</time>
6844   </trkpt>
6845   <trkpt lat="49.1109080" lon="16.5894010">
6846    <ele>186.8</ele>
6847    <time>2016-01-06T09:59:02Z</time>
6848   </trkpt>
6849   <trkpt lat="49.1109250" lon="16.5893660">
6850    <ele>186.9</ele>
6851    <time>2016-01-06T09:59:03Z</time>
6852   </trkpt>
6853   <trkpt lat="49.1109440" lon="16.5892970">
6854    <ele>186.9</ele>
6855    <time>2016-01-06T09:59:05Z</time>
6856   </trkpt>
6857   <trkpt lat="49.1109770" lon="16.5892190">
6858    <ele>186.8</ele>
6859    <time>2016-01-06T09:59:07Z</time>
6860   </trkpt>
6861   <trkpt lat="49.1110050" lon="16.5891100">
6862    <ele>186.9</ele>
6863    <time>2016-01-06T09:59:09Z</time>
6864   </trkpt>
6865   <trkpt lat="49.1110130" lon="16.5890660">
6866    <ele>187.0</ele>
6867    <time>2016-01-06T09:59:10Z</time>
6868   </trkpt>
6869   <trkpt lat="49.1110320" lon="16.5889930">
6870    <ele>187.1</ele>
6871    <time>2016-01-06T09:59:12Z</time>
6872   </trkpt>
6873   <trkpt lat="49.1110410" lon="16.5889410">
6874    <ele>187.6</ele>
6875    <time>2016-01-06T09:59:14Z</time>
6876   </trkpt>
6877   <trkpt lat="49.1110570" lon="16.5889020">
6878    <ele>187.8</ele>
6879    <time>2016-01-06T09:59:15Z</time>
6880   </trkpt>
6881   <trkpt lat="49.1111040" lon="16.5887960">
6882    <ele>187.5</ele>
6883    <time>2016-01-06T09:59:18Z</time>
6884   </trkpt>
6885   <trkpt lat="49.1111190" lon="16.5887550">
6886    <ele>187.3</ele>
6887    <time>2016-01-06T09:59:19Z</time>
6888   </trkpt>
6889   <trkpt lat="49.1111300" lon="16.5887160">
6890    <ele>187.5</ele>
6891    <time>2016-01-06T09:59:20Z</time>
6892   </trkpt>
6893   <trkpt lat="49.1111410" lon="16.5886760">
6894    <ele>187.7</ele>
6895    <time>2016-01-06T09:59:21Z</time>
6896   </trkpt>
6897   <trkpt lat="49.1111530" lon="16.5885900">
6898    <ele>187.9</ele>
6899    <time>2016-01-06T09:59:23Z</time>
6900   </trkpt>
6901   <trkpt lat="49.1111660" lon="16.5885010">
6902    <ele>187.9</ele>
6903    <time>2016-01-06T09:59:25Z</time>
6904   </trkpt>
6905   <trkpt lat="49.1111800" lon="16.5884130">
6906    <ele>188.0</ele>
6907    <time>2016-01-06T09:59:27Z</time>
6908   </trkpt>
6909   <trkpt lat="49.1111870" lon="16.5883620">
6910    <ele>188.1</ele>
6911    <time>2016-01-06T09:59:28Z</time>
6912   </trkpt>
6913   <trkpt lat="49.1111940" lon="16.5883030">
6914    <ele>188.2</ele>
6915    <time>2016-01-06T09:59:29Z</time>
6916   </trkpt>
6917   <trkpt lat="49.1112050" lon="16.5882360">
6918    <ele>188.3</ele>
6919    <time>2016-01-06T09:59:30Z</time>
6920   </trkpt>
6921   <trkpt lat="49.1112170" lon="16.5881560">
6922    <ele>188.4</ele>
6923    <time>2016-01-06T09:59:31Z</time>
6924   </trkpt>
6925   <trkpt lat="49.1112270" lon="16.5880040">
6926    <ele>188.6</ele>
6927    <time>2016-01-06T09:59:33Z</time>
6928   </trkpt>
6929   <trkpt lat="49.1112310" lon="16.5879460">
6930    <ele>188.7</ele>
6931    <time>2016-01-06T09:59:34Z</time>
6932   </trkpt>
6933   <trkpt lat="49.1112360" lon="16.5878720">
6934    <ele>188.8</ele>
6935    <time>2016-01-06T09:59:35Z</time>
6936   </trkpt>
6937   <trkpt lat="49.1112400" lon="16.5878010">
6938    <ele>188.9</ele>
6939    <time>2016-01-06T09:59:36Z</time>
6940   </trkpt>
6941   <trkpt lat="49.1112610" lon="16.5876700">
6942    <ele>189.0</ele>
6943    <time>2016-01-06T09:59:38Z</time>
6944   </trkpt>
6945   <trkpt lat="49.1112760" lon="16.5875690">
6946    <ele>189.0</ele>
6947    <time>2016-01-06T09:59:40Z</time>
6948   </trkpt>
6949   <trkpt lat="49.1112910" lon="16.5874940">
6950    <ele>189.0</ele>
6951    <time>2016-01-06T09:59:42Z</time>
6952   </trkpt>
6953   <trkpt lat="49.1112990" lon="16.5874470">
6954    <ele>188.8</ele>
6955    <time>2016-01-06T09:59:44Z</time>
6956   </trkpt>
6957   <trkpt lat="49.1113120" lon="16.5874010">
6958    <ele>188.2</ele>
6959    <time>2016-01-06T09:59:46Z</time>
6960   </trkpt>
6961   <trkpt lat="49.1113220" lon="16.5873600">
6962    <ele>187.7</ele>
6963    <time>2016-01-06T09:59:49Z</time>
6964   </trkpt>
6965   <trkpt lat="49.1113420" lon="16.5873090">
6966    <ele>187.8</ele>
6967    <time>2016-01-06T09:59:51Z</time>
6968   </trkpt>
6969   <trkpt lat="49.1113590" lon="16.5872590">
6970    <ele>188.1</ele>
6971    <time>2016-01-06T09:59:53Z</time>
6972   </trkpt>
6973   <trkpt lat="49.1113730" lon="16.5872000">
6974    <ele>188.7</ele>
6975    <time>2016-01-06T09:59:55Z</time>
6976   </trkpt>
6977   <trkpt lat="49.1113820" lon="16.5871530">
6978    <ele>188.5</ele>
6979    <time>2016-01-06T09:59:57Z</time>
6980   </trkpt>
6981   <trkpt lat="49.1114200" lon="16.5871480">
6982    <ele>187.6</ele>
6983    <time>2016-01-06T10:00:20Z</time>
6984   </trkpt>
6985   <trkpt lat="49.1114510" lon="16.5871130">
6986    <ele>188.6</ele>
6987    <time>2016-01-06T10:00:23Z</time>
6988   </trkpt>
6989   <trkpt lat="49.1114800" lon="16.5870760">
6990    <ele>188.6</ele>
6991    <time>2016-01-06T10:00:25Z</time>
6992   </trkpt>
6993   <trkpt lat="49.1115010" lon="16.5870380">
6994    <ele>188.5</ele>
6995    <time>2016-01-06T10:00:27Z</time>
6996   </trkpt>
6997   <trkpt lat="49.1115200" lon="16.5870010">
6998    <ele>188.7</ele>
6999    <time>2016-01-06T10:00:29Z</time>
7000   </trkpt>
7001   <trkpt lat="49.1115440" lon="16.5869570">
7002    <ele>188.6</ele>
7003    <time>2016-01-06T10:00:31Z</time>
7004   </trkpt>
7005   <trkpt lat="49.1115650" lon="16.5869180">
7006    <ele>188.1</ele>
7007    <time>2016-01-06T10:00:33Z</time>
7008   </trkpt>
7009   <trkpt lat="49.1115830" lon="16.5868740">
7010    <ele>188.0</ele>
7011    <time>2016-01-06T10:00:35Z</time>
7012   </trkpt>
7013   <trkpt lat="49.1116020" lon="16.5868150">
7014    <ele>188.1</ele>
7015    <time>2016-01-06T10:00:37Z</time>
7016   </trkpt>
7017   <trkpt lat="49.1116280" lon="16.5867510">
7018    <ele>188.1</ele>
7019    <time>2016-01-06T10:00:39Z</time>
7020   </trkpt>
7021   <trkpt lat="49.1116520" lon="16.5866880">
7022    <ele>188.2</ele>
7023    <time>2016-01-06T10:00:41Z</time>
7024   </trkpt>
7025   <trkpt lat="49.1116870" lon="16.5866090">
7026    <ele>188.5</ele>
7027    <time>2016-01-06T10:00:43Z</time>
7028   </trkpt>
7029   <trkpt lat="49.1117090" lon="16.5865410">
7030    <ele>188.7</ele>
7031    <time>2016-01-06T10:00:45Z</time>
7032   </trkpt>
7033   <trkpt lat="49.1117310" lon="16.5865050">
7034    <ele>188.7</ele>
7035    <time>2016-01-06T10:00:46Z</time>
7036   </trkpt>
7037   <trkpt lat="49.1117370" lon="16.5864550">
7038    <ele>188.8</ele>
7039    <time>2016-01-06T10:00:48Z</time>
7040   </trkpt>
7041   <trkpt lat="49.1117670" lon="16.5863730">
7042    <ele>189.0</ele>
7043    <time>2016-01-06T10:00:50Z</time>
7044   </trkpt>
7045   <trkpt lat="49.1118080" lon="16.5862610">
7046    <ele>189.1</ele>
7047    <time>2016-01-06T10:00:52Z</time>
7048   </trkpt>
7049   <trkpt lat="49.1118430" lon="16.5861750">
7050    <ele>189.0</ele>
7051    <time>2016-01-06T10:00:54Z</time>
7052   </trkpt>
7053   <trkpt lat="49.1118650" lon="16.5861270">
7054    <ele>189.0</ele>
7055    <time>2016-01-06T10:00:55Z</time>
7056   </trkpt>
7057   <trkpt lat="49.1119090" lon="16.5860260">
7058    <ele>188.8</ele>
7059    <time>2016-01-06T10:00:57Z</time>
7060   </trkpt>
7061   <trkpt lat="49.1119530" lon="16.5859390">
7062    <ele>188.5</ele>
7063    <time>2016-01-06T10:00:59Z</time>
7064   </trkpt>
7065   <trkpt lat="49.1119720" lon="16.5859080">
7066    <ele>188.2</ele>
7067    <time>2016-01-06T10:01:00Z</time>
7068   </trkpt>
7069   <trkpt lat="49.1120170" lon="16.5858540">
7070    <ele>188.5</ele>
7071    <time>2016-01-06T10:01:02Z</time>
7072   </trkpt>
7073   <trkpt lat="49.1120420" lon="16.5858350">
7074    <ele>188.5</ele>
7075    <time>2016-01-06T10:01:03Z</time>
7076   </trkpt>
7077   <trkpt lat="49.1120950" lon="16.5857950">
7078    <ele>188.6</ele>
7079    <time>2016-01-06T10:01:05Z</time>
7080   </trkpt>
7081   <trkpt lat="49.1121450" lon="16.5857580">
7082    <ele>188.2</ele>
7083    <time>2016-01-06T10:01:07Z</time>
7084   </trkpt>
7085   <trkpt lat="49.1121750" lon="16.5857350">
7086    <ele>188.1</ele>
7087    <time>2016-01-06T10:01:08Z</time>
7088   </trkpt>
7089   <trkpt lat="49.1122070" lon="16.5857130">
7090    <ele>188.2</ele>
7091    <time>2016-01-06T10:01:09Z</time>
7092   </trkpt>
7093   <trkpt lat="49.1122780" lon="16.5856620">
7094    <ele>188.2</ele>
7095    <time>2016-01-06T10:01:11Z</time>
7096   </trkpt>
7097   <trkpt lat="49.1123180" lon="16.5856340">
7098    <ele>188.2</ele>
7099    <time>2016-01-06T10:01:12Z</time>
7100   </trkpt>
7101   <trkpt lat="49.1123630" lon="16.5856050">
7102    <ele>188.2</ele>
7103    <time>2016-01-06T10:01:13Z</time>
7104   </trkpt>
7105   <trkpt lat="49.1123900" lon="16.5855840">
7106    <ele>188.1</ele>
7107    <time>2016-01-06T10:01:14Z</time>
7108   </trkpt>
7109   <trkpt lat="49.1124330" lon="16.5855390">
7110    <ele>188.5</ele>
7111    <time>2016-01-06T10:01:16Z</time>
7112   </trkpt>
7113   <trkpt lat="49.1124530" lon="16.5855060">
7114    <ele>188.5</ele>
7115    <time>2016-01-06T10:01:17Z</time>
7116   </trkpt>
7117   <trkpt lat="49.1124920" lon="16.5854190">
7118    <ele>188.4</ele>
7119    <time>2016-01-06T10:01:19Z</time>
7120   </trkpt>
7121   <trkpt lat="49.1125200" lon="16.5852990">
7122    <ele>188.2</ele>
7123    <time>2016-01-06T10:01:21Z</time>
7124   </trkpt>
7125   <trkpt lat="49.1125390" lon="16.5852520">
7126    <ele>188.1</ele>
7127    <time>2016-01-06T10:01:22Z</time>
7128   </trkpt>
7129   <trkpt lat="49.1125720" lon="16.5851600">
7130    <ele>188.3</ele>
7131    <time>2016-01-06T10:01:24Z</time>
7132   </trkpt>
7133   <trkpt lat="49.1125890" lon="16.5851170">
7134    <ele>188.3</ele>
7135    <time>2016-01-06T10:01:25Z</time>
7136   </trkpt>
7137   <trkpt lat="49.1126270" lon="16.5850150">
7138    <ele>188.5</ele>
7139    <time>2016-01-06T10:01:27Z</time>
7140   </trkpt>
7141   <trkpt lat="49.1126640" lon="16.5849270">
7142    <ele>188.8</ele>
7143    <time>2016-01-06T10:01:29Z</time>
7144   </trkpt>
7145   <trkpt lat="49.1126950" lon="16.5848480">
7146    <ele>188.4</ele>
7147    <time>2016-01-06T10:01:31Z</time>
7148   </trkpt>
7149   <trkpt lat="49.1127190" lon="16.5847950">
7150    <ele>188.3</ele>
7151    <time>2016-01-06T10:01:32Z</time>
7152   </trkpt>
7153   <trkpt lat="49.1127410" lon="16.5847490">
7154    <ele>188.3</ele>
7155    <time>2016-01-06T10:01:33Z</time>
7156   </trkpt>
7157   <trkpt lat="49.1127860" lon="16.5846600">
7158    <ele>188.4</ele>
7159    <time>2016-01-06T10:01:35Z</time>
7160   </trkpt>
7161   <trkpt lat="49.1128090" lon="16.5846230">
7162    <ele>188.3</ele>
7163    <time>2016-01-06T10:01:36Z</time>
7164   </trkpt>
7165   <trkpt lat="49.1128520" lon="16.5845490">
7166    <ele>188.3</ele>
7167    <time>2016-01-06T10:01:38Z</time>
7168   </trkpt>
7169   <trkpt lat="49.1128730" lon="16.5845160">
7170    <ele>188.3</ele>
7171    <time>2016-01-06T10:01:39Z</time>
7172   </trkpt>
7173   <trkpt lat="49.1128940" lon="16.5844820">
7174    <ele>188.4</ele>
7175    <time>2016-01-06T10:01:40Z</time>
7176   </trkpt>
7177   <trkpt lat="49.1129130" lon="16.5844470">
7178    <ele>188.7</ele>
7179    <time>2016-01-06T10:01:41Z</time>
7180   </trkpt>
7181   <trkpt lat="49.1129610" lon="16.5843660">
7182    <ele>188.9</ele>
7183    <time>2016-01-06T10:01:43Z</time>
7184   </trkpt>
7185   <trkpt lat="49.1130070" lon="16.5842790">
7186    <ele>188.8</ele>
7187    <time>2016-01-06T10:01:45Z</time>
7188   </trkpt>
7189   <trkpt lat="49.1130460" lon="16.5841920">
7190    <ele>188.9</ele>
7191    <time>2016-01-06T10:01:47Z</time>
7192   </trkpt>
7193   <trkpt lat="49.1130880" lon="16.5841010">
7194    <ele>189.2</ele>
7195    <time>2016-01-06T10:01:49Z</time>
7196   </trkpt>
7197   <trkpt lat="49.1131340" lon="16.5840210">
7198    <ele>189.5</ele>
7199    <time>2016-01-06T10:01:51Z</time>
7200   </trkpt>
7201   <trkpt lat="49.1131520" lon="16.5839830">
7202    <ele>189.6</ele>
7203    <time>2016-01-06T10:01:52Z</time>
7204   </trkpt>
7205   <trkpt lat="49.1131830" lon="16.5839120">
7206    <ele>189.5</ele>
7207    <time>2016-01-06T10:01:54Z</time>
7208   </trkpt>
7209   <trkpt lat="49.1132090" lon="16.5838410">
7210    <ele>189.3</ele>
7211    <time>2016-01-06T10:01:56Z</time>
7212   </trkpt>
7213   <trkpt lat="49.1132360" lon="16.5837720">
7214    <ele>189.5</ele>
7215    <time>2016-01-06T10:01:58Z</time>
7216   </trkpt>
7217   <trkpt lat="49.1132610" lon="16.5837070">
7218    <ele>190.1</ele>
7219    <time>2016-01-06T10:02:00Z</time>
7220   </trkpt>
7221   <trkpt lat="49.1132850" lon="16.5836420">
7222    <ele>189.8</ele>
7223    <time>2016-01-06T10:02:02Z</time>
7224   </trkpt>
7225   <trkpt lat="49.1132990" lon="16.5836050">
7226    <ele>189.8</ele>
7227    <time>2016-01-06T10:02:03Z</time>
7228   </trkpt>
7229   <trkpt lat="49.1133150" lon="16.5835710">
7230    <ele>190.0</ele>
7231    <time>2016-01-06T10:02:04Z</time>
7232   </trkpt>
7233   <trkpt lat="49.1133270" lon="16.5835150">
7234    <ele>189.9</ele>
7235    <time>2016-01-06T10:02:06Z</time>
7236   </trkpt>
7237   <trkpt lat="49.1133540" lon="16.5834410">
7238    <ele>190.1</ele>
7239    <time>2016-01-06T10:02:08Z</time>
7240   </trkpt>
7241   <trkpt lat="49.1134090" lon="16.5833740">
7242    <ele>190.3</ele>
7243    <time>2016-01-06T10:02:10Z</time>
7244   </trkpt>
7245   <trkpt lat="49.1134350" lon="16.5833410">
7246    <ele>190.3</ele>
7247    <time>2016-01-06T10:02:11Z</time>
7248   </trkpt>
7249   <trkpt lat="49.1134630" lon="16.5833020">
7250    <ele>190.5</ele>
7251    <time>2016-01-06T10:02:12Z</time>
7252   </trkpt>
7253   <trkpt lat="49.1134960" lon="16.5832610">
7254    <ele>190.4</ele>
7255    <time>2016-01-06T10:02:13Z</time>
7256   </trkpt>
7257   <trkpt lat="49.1135290" lon="16.5832150">
7258    <ele>190.1</ele>
7259    <time>2016-01-06T10:02:14Z</time>
7260   </trkpt>
7261   <trkpt lat="49.1136080" lon="16.5830060">
7262    <ele>189.2</ele>
7263    <time>2016-01-06T10:02:16Z</time>
7264   </trkpt>
7265   <trkpt lat="49.1136870" lon="16.5828160">
7266    <ele>188.3</ele>
7267    <time>2016-01-06T10:02:18Z</time>
7268   </trkpt>
7269   <trkpt lat="49.1137630" lon="16.5826810">
7270    <ele>187.2</ele>
7271    <time>2016-01-06T10:02:20Z</time>
7272   </trkpt>
7273   <trkpt lat="49.1138220" lon="16.5825830">
7274    <ele>186.4</ele>
7275    <time>2016-01-06T10:02:22Z</time>
7276   </trkpt>
7277   <trkpt lat="49.1138470" lon="16.5825350">
7278    <ele>186.0</ele>
7279    <time>2016-01-06T10:02:23Z</time>
7280   </trkpt>
7281   <trkpt lat="49.1138970" lon="16.5824340">
7282    <ele>185.8</ele>
7283    <time>2016-01-06T10:02:25Z</time>
7284   </trkpt>
7285   <trkpt lat="49.1139230" lon="16.5823840">
7286    <ele>185.6</ele>
7287    <time>2016-01-06T10:02:26Z</time>
7288   </trkpt>
7289   <trkpt lat="49.1140050" lon="16.5822600">
7290    <ele>185.5</ele>
7291    <time>2016-01-06T10:02:29Z</time>
7292   </trkpt>
7293   <trkpt lat="49.1140540" lon="16.5821780">
7294    <ele>185.2</ele>
7295    <time>2016-01-06T10:02:30Z</time>
7296   </trkpt>
7297   <trkpt lat="49.1140750" lon="16.5821430">
7298    <ele>185.8</ele>
7299    <time>2016-01-06T10:02:31Z</time>
7300   </trkpt>
7301   <trkpt lat="49.1140950" lon="16.5821050">
7302    <ele>186.2</ele>
7303    <time>2016-01-06T10:02:32Z</time>
7304   </trkpt>
7305   <trkpt lat="49.1141270" lon="16.5820410">
7306    <ele>186.7</ele>
7307    <time>2016-01-06T10:02:34Z</time>
7308   </trkpt>
7309   <trkpt lat="49.1141510" lon="16.5820020">
7310    <ele>187.0</ele>
7311    <time>2016-01-06T10:02:35Z</time>
7312   </trkpt>
7313   <trkpt lat="49.1142030" lon="16.5819140">
7314    <ele>188.5</ele>
7315    <time>2016-01-06T10:02:37Z</time>
7316   </trkpt>
7317   <trkpt lat="49.1142500" lon="16.5818590">
7318    <ele>189.6</ele>
7319    <time>2016-01-06T10:02:39Z</time>
7320   </trkpt>
7321   <trkpt lat="49.1142810" lon="16.5818410">
7322    <ele>190.0</ele>
7323    <time>2016-01-06T10:02:40Z</time>
7324   </trkpt>
7325   <trkpt lat="49.1143400" lon="16.5818200">
7326    <ele>190.7</ele>
7327    <time>2016-01-06T10:02:42Z</time>
7328   </trkpt>
7329   <trkpt lat="49.1143740" lon="16.5818030">
7330    <ele>191.1</ele>
7331    <time>2016-01-06T10:02:43Z</time>
7332   </trkpt>
7333   <trkpt lat="49.1144000" lon="16.5817880">
7334    <ele>191.3</ele>
7335    <time>2016-01-06T10:02:44Z</time>
7336   </trkpt>
7337   <trkpt lat="49.1144600" lon="16.5817420">
7338    <ele>191.5</ele>
7339    <time>2016-01-06T10:02:46Z</time>
7340   </trkpt>
7341   <trkpt lat="49.1145340" lon="16.5816860">
7342    <ele>191.2</ele>
7343    <time>2016-01-06T10:02:48Z</time>
7344   </trkpt>
7345   <trkpt lat="49.1145720" lon="16.5816580">
7346    <ele>191.0</ele>
7347    <time>2016-01-06T10:02:49Z</time>
7348   </trkpt>
7349   <trkpt lat="49.1146110" lon="16.5816350">
7350    <ele>191.0</ele>
7351    <time>2016-01-06T10:02:50Z</time>
7352   </trkpt>
7353   <trkpt lat="49.1146960" lon="16.5815810">
7354    <ele>191.0</ele>
7355    <time>2016-01-06T10:02:52Z</time>
7356   </trkpt>
7357   <trkpt lat="49.1147730" lon="16.5815290">
7358    <ele>190.6</ele>
7359    <time>2016-01-06T10:02:54Z</time>
7360   </trkpt>
7361   <trkpt lat="49.1148050" lon="16.5815020">
7362    <ele>190.5</ele>
7363    <time>2016-01-06T10:02:55Z</time>
7364   </trkpt>
7365   <trkpt lat="49.1148600" lon="16.5814250">
7366    <ele>190.9</ele>
7367    <time>2016-01-06T10:02:57Z</time>
7368   </trkpt>
7369   <trkpt lat="49.1149230" lon="16.5813320">
7370    <ele>191.1</ele>
7371    <time>2016-01-06T10:02:59Z</time>
7372   </trkpt>
7373   <trkpt lat="49.1149470" lon="16.5812920">
7374    <ele>191.2</ele>
7375    <time>2016-01-06T10:03:00Z</time>
7376   </trkpt>
7377   <trkpt lat="49.1149690" lon="16.5812620">
7378    <ele>191.3</ele>
7379    <time>2016-01-06T10:03:01Z</time>
7380   </trkpt>
7381   <trkpt lat="49.1149940" lon="16.5812300">
7382    <ele>191.1</ele>
7383    <time>2016-01-06T10:03:02Z</time>
7384   </trkpt>
7385   <trkpt lat="49.1150490" lon="16.5811570">
7386    <ele>190.9</ele>
7387    <time>2016-01-06T10:03:04Z</time>
7388   </trkpt>
7389   <trkpt lat="49.1150750" lon="16.5811350">
7390    <ele>190.9</ele>
7391    <time>2016-01-06T10:03:05Z</time>
7392   </trkpt>
7393   <trkpt lat="49.1151140" lon="16.5811040">
7394    <ele>190.6</ele>
7395    <time>2016-01-06T10:03:07Z</time>
7396   </trkpt>
7397   <trkpt lat="49.1151610" lon="16.5810670">
7398    <ele>190.3</ele>
7399    <time>2016-01-06T10:03:09Z</time>
7400   </trkpt>
7401   <trkpt lat="49.1152010" lon="16.5810060">
7402    <ele>190.4</ele>
7403    <time>2016-01-06T10:03:11Z</time>
7404   </trkpt>
7405   <trkpt lat="49.1152260" lon="16.5809320">
7406    <ele>190.6</ele>
7407    <time>2016-01-06T10:03:13Z</time>
7408   </trkpt>
7409   <trkpt lat="49.1152530" lon="16.5808520">
7410    <ele>190.4</ele>
7411    <time>2016-01-06T10:03:15Z</time>
7412   </trkpt>
7413   <trkpt lat="49.1152700" lon="16.5807900">
7414    <ele>190.3</ele>
7415    <time>2016-01-06T10:03:16Z</time>
7416   </trkpt>
7417   <trkpt lat="49.1153120" lon="16.5806510">
7418    <ele>189.9</ele>
7419    <time>2016-01-06T10:03:18Z</time>
7420   </trkpt>
7421   <trkpt lat="49.1153320" lon="16.5806000">
7422    <ele>189.8</ele>
7423    <time>2016-01-06T10:03:19Z</time>
7424   </trkpt>
7425   <trkpt lat="49.1153790" lon="16.5804750">
7426    <ele>189.9</ele>
7427    <time>2016-01-06T10:03:21Z</time>
7428   </trkpt>
7429   <trkpt lat="49.1154140" lon="16.5803690">
7430    <ele>190.4</ele>
7431    <time>2016-01-06T10:03:23Z</time>
7432   </trkpt>
7433   <trkpt lat="49.1154280" lon="16.5803170">
7434    <ele>190.5</ele>
7435    <time>2016-01-06T10:03:24Z</time>
7436   </trkpt>
7437   <trkpt lat="49.1154560" lon="16.5802130">
7438    <ele>190.0</ele>
7439    <time>2016-01-06T10:03:26Z</time>
7440   </trkpt>
7441   <trkpt lat="49.1155000" lon="16.5800870">
7442    <ele>190.1</ele>
7443    <time>2016-01-06T10:03:28Z</time>
7444   </trkpt>
7445   <trkpt lat="49.1155400" lon="16.5799790">
7446    <ele>190.0</ele>
7447    <time>2016-01-06T10:03:30Z</time>
7448   </trkpt>
7449   <trkpt lat="49.1155880" lon="16.5798750">
7450    <ele>190.1</ele>
7451    <time>2016-01-06T10:03:32Z</time>
7452   </trkpt>
7453   <trkpt lat="49.1156150" lon="16.5798170">
7454    <ele>190.4</ele>
7455    <time>2016-01-06T10:03:33Z</time>
7456   </trkpt>
7457   <trkpt lat="49.1156660" lon="16.5797140">
7458    <ele>190.7</ele>
7459    <time>2016-01-06T10:03:35Z</time>
7460   </trkpt>
7461   <trkpt lat="49.1157160" lon="16.5795960">
7462    <ele>191.0</ele>
7463    <time>2016-01-06T10:03:37Z</time>
7464   </trkpt>
7465   <trkpt lat="49.1157350" lon="16.5795430">
7466    <ele>190.9</ele>
7467    <time>2016-01-06T10:03:38Z</time>
7468   </trkpt>
7469   <trkpt lat="49.1157560" lon="16.5794810">
7470    <ele>190.8</ele>
7471    <time>2016-01-06T10:03:39Z</time>
7472   </trkpt>
7473   <trkpt lat="49.1157990" lon="16.5793500">
7474    <ele>191.0</ele>
7475    <time>2016-01-06T10:03:41Z</time>
7476   </trkpt>
7477   <trkpt lat="49.1158400" lon="16.5792100">
7478    <ele>190.9</ele>
7479    <time>2016-01-06T10:03:43Z</time>
7480   </trkpt>
7481   <trkpt lat="49.1158590" lon="16.5791370">
7482    <ele>190.7</ele>
7483    <time>2016-01-06T10:03:44Z</time>
7484   </trkpt>
7485   <trkpt lat="49.1158780" lon="16.5790670">
7486    <ele>190.7</ele>
7487    <time>2016-01-06T10:03:45Z</time>
7488   </trkpt>
7489   <trkpt lat="49.1159200" lon="16.5789370">
7490    <ele>190.6</ele>
7491    <time>2016-01-06T10:03:47Z</time>
7492   </trkpt>
7493   <trkpt lat="49.1159380" lon="16.5788750">
7494    <ele>190.7</ele>
7495    <time>2016-01-06T10:03:48Z</time>
7496   </trkpt>
7497   <trkpt lat="49.1159530" lon="16.5788220">
7498    <ele>190.7</ele>
7499    <time>2016-01-06T10:03:49Z</time>
7500   </trkpt>
7501   <trkpt lat="49.1159670" lon="16.5787580">
7502    <ele>190.7</ele>
7503    <time>2016-01-06T10:03:50Z</time>
7504   </trkpt>
7505   <trkpt lat="49.1159930" lon="16.5786400">
7506    <ele>190.8</ele>
7507    <time>2016-01-06T10:03:52Z</time>
7508   </trkpt>
7509   <trkpt lat="49.1160200" lon="16.5784870">
7510    <ele>191.0</ele>
7511    <time>2016-01-06T10:03:54Z</time>
7512   </trkpt>
7513   <trkpt lat="49.1160300" lon="16.5784220">
7514    <ele>191.1</ele>
7515    <time>2016-01-06T10:03:55Z</time>
7516   </trkpt>
7517   <trkpt lat="49.1160340" lon="16.5783570">
7518    <ele>191.1</ele>
7519    <time>2016-01-06T10:03:56Z</time>
7520   </trkpt>
7521   <trkpt lat="49.1160390" lon="16.5782500">
7522    <ele>191.1</ele>
7523    <time>2016-01-06T10:03:58Z</time>
7524   </trkpt>
7525   <trkpt lat="49.1160380" lon="16.5781500">
7526    <ele>191.0</ele>
7527    <time>2016-01-06T10:04:00Z</time>
7528   </trkpt>
7529   <trkpt lat="49.1160380" lon="16.5781010">
7530    <ele>191.0</ele>
7531    <time>2016-01-06T10:04:01Z</time>
7532   </trkpt>
7533   <trkpt lat="49.1160340" lon="16.5780460">
7534    <ele>191.0</ele>
7535    <time>2016-01-06T10:04:02Z</time>
7536   </trkpt>
7537   <trkpt lat="49.1160210" lon="16.5779420">
7538    <ele>191.2</ele>
7539    <time>2016-01-06T10:04:04Z</time>
7540   </trkpt>
7541   <trkpt lat="49.1160110" lon="16.5778450">
7542    <ele>191.6</ele>
7543    <time>2016-01-06T10:04:06Z</time>
7544   </trkpt>
7545   <trkpt lat="49.1160060" lon="16.5777830">
7546    <ele>191.5</ele>
7547    <time>2016-01-06T10:04:07Z</time>
7548   </trkpt>
7549   <trkpt lat="49.1159990" lon="16.5776480">
7550    <ele>191.3</ele>
7551    <time>2016-01-06T10:04:09Z</time>
7552   </trkpt>
7553   <trkpt lat="49.1159950" lon="16.5775920">
7554    <ele>191.4</ele>
7555    <time>2016-01-06T10:04:10Z</time>
7556   </trkpt>
7557   <trkpt lat="49.1160160" lon="16.5775230">
7558    <ele>191.5</ele>
7559    <time>2016-01-06T10:04:12Z</time>
7560   </trkpt>
7561   <trkpt lat="49.1160420" lon="16.5774450">
7562    <ele>191.5</ele>
7563    <time>2016-01-06T10:04:14Z</time>
7564   </trkpt>
7565   <trkpt lat="49.1160780" lon="16.5773380">
7566    <ele>191.6</ele>
7567    <time>2016-01-06T10:04:16Z</time>
7568   </trkpt>
7569   <trkpt lat="49.1160960" lon="16.5772930">
7570    <ele>191.5</ele>
7571    <time>2016-01-06T10:04:17Z</time>
7572   </trkpt>
7573   <trkpt lat="49.1161290" lon="16.5772030">
7574    <ele>191.2</ele>
7575    <time>2016-01-06T10:04:19Z</time>
7576   </trkpt>
7577   <trkpt lat="49.1161490" lon="16.5771450">
7578    <ele>191.2</ele>
7579    <time>2016-01-06T10:04:20Z</time>
7580   </trkpt>
7581   <trkpt lat="49.1161610" lon="16.5771070">
7582    <ele>191.1</ele>
7583    <time>2016-01-06T10:04:21Z</time>
7584   </trkpt>
7585   <trkpt lat="49.1161860" lon="16.5770150">
7586    <ele>191.1</ele>
7587    <time>2016-01-06T10:04:23Z</time>
7588   </trkpt>
7589   <trkpt lat="49.1162100" lon="16.5769240">
7590    <ele>191.1</ele>
7591    <time>2016-01-06T10:04:25Z</time>
7592   </trkpt>
7593   <trkpt lat="49.1162200" lon="16.5768810">
7594    <ele>191.0</ele>
7595    <time>2016-01-06T10:04:26Z</time>
7596   </trkpt>
7597   <trkpt lat="49.1162360" lon="16.5768050">
7598    <ele>191.2</ele>
7599    <time>2016-01-06T10:04:28Z</time>
7600   </trkpt>
7601   <trkpt lat="49.1162450" lon="16.5767650">
7602    <ele>191.3</ele>
7603    <time>2016-01-06T10:04:29Z</time>
7604   </trkpt>
7605   <trkpt lat="49.1162540" lon="16.5766930">
7606    <ele>191.5</ele>
7607    <time>2016-01-06T10:04:31Z</time>
7608   </trkpt>
7609   <trkpt lat="49.1162390" lon="16.5766270">
7610    <ele>191.3</ele>
7611    <time>2016-01-06T10:04:36Z</time>
7612   </trkpt>
7613   <trkpt lat="49.1162370" lon="16.5765760">
7614    <ele>191.5</ele>
7615    <time>2016-01-06T10:04:38Z</time>
7616   </trkpt>
7617   <trkpt lat="49.1162900" lon="16.5766060">
7618    <ele>191.7</ele>
7619    <time>2016-01-06T10:04:42Z</time>
7620   </trkpt>
7621   <trkpt lat="49.1163440" lon="16.5766780">
7622    <ele>191.7</ele>
7623    <time>2016-01-06T10:04:44Z</time>
7624   </trkpt>
7625   <trkpt lat="49.1163680" lon="16.5767100">
7626    <ele>191.7</ele>
7627    <time>2016-01-06T10:04:45Z</time>
7628   </trkpt>
7629   <trkpt lat="49.1164270" lon="16.5767800">
7630    <ele>191.9</ele>
7631    <time>2016-01-06T10:04:47Z</time>
7632   </trkpt>
7633   <trkpt lat="49.1164730" lon="16.5768280">
7634    <ele>192.1</ele>
7635    <time>2016-01-06T10:04:49Z</time>
7636   </trkpt>
7637   <trkpt lat="49.1164980" lon="16.5768550">
7638    <ele>192.2</ele>
7639    <time>2016-01-06T10:04:50Z</time>
7640   </trkpt>
7641   <trkpt lat="49.1165410" lon="16.5769060">
7642    <ele>192.4</ele>
7643    <time>2016-01-06T10:04:52Z</time>
7644   </trkpt>
7645   <trkpt lat="49.1165860" lon="16.5769490">
7646    <ele>192.1</ele>
7647    <time>2016-01-06T10:04:54Z</time>
7648   </trkpt>
7649   <trkpt lat="49.1166300" lon="16.5769830">
7650    <ele>192.2</ele>
7651    <time>2016-01-06T10:04:56Z</time>
7652   </trkpt>
7653   <trkpt lat="49.1166600" lon="16.5769720">
7654    <ele>192.4</ele>
7655    <time>2016-01-06T10:04:58Z</time>
7656   </trkpt>
7657   <trkpt lat="49.1166880" lon="16.5769230">
7658    <ele>191.9</ele>
7659    <time>2016-01-06T10:05:00Z</time>
7660   </trkpt>
7661   <trkpt lat="49.1166980" lon="16.5768650">
7662    <ele>191.5</ele>
7663    <time>2016-01-06T10:05:02Z</time>
7664   </trkpt>
7665   <trkpt lat="49.1166700" lon="16.5767750">
7666    <ele>191.4</ele>
7667    <time>2016-01-06T10:05:04Z</time>
7668   </trkpt>
7669   <trkpt lat="49.1166490" lon="16.5767260">
7670    <ele>191.5</ele>
7671    <time>2016-01-06T10:05:05Z</time>
7672   </trkpt>
7673   <trkpt lat="49.1166020" lon="16.5766360">
7674    <ele>191.7</ele>
7675    <time>2016-01-06T10:05:07Z</time>
7676   </trkpt>
7677   <trkpt lat="49.1165580" lon="16.5765560">
7678    <ele>191.9</ele>
7679    <time>2016-01-06T10:05:09Z</time>
7680   </trkpt>
7681   <trkpt lat="49.1165400" lon="16.5765220">
7682    <ele>191.9</ele>
7683    <time>2016-01-06T10:05:10Z</time>
7684   </trkpt>
7685   <trkpt lat="49.1165220" lon="16.5764830">
7686    <ele>191.6</ele>
7687    <time>2016-01-06T10:05:12Z</time>
7688   </trkpt>
7689   <trkpt lat="49.1165140" lon="16.5764350">
7690    <ele>191.3</ele>
7691    <time>2016-01-06T10:05:15Z</time>
7692   </trkpt>
7693   <trkpt lat="49.1165420" lon="16.5764170">
7694    <ele>191.5</ele>
7695    <time>2016-01-06T10:05:28Z</time>
7696   </trkpt>
7697   <trkpt lat="49.1165890" lon="16.5763940">
7698    <ele>193.9</ele>
7699    <time>2016-01-06T10:06:25Z</time>
7700   </trkpt>
7701   <trkpt lat="49.1165770" lon="16.5763400">
7702    <ele>193.8</ele>
7703    <time>2016-01-06T10:06:29Z</time>
7704   </trkpt>
7705   <trkpt lat="49.1165610" lon="16.5763040">
7706    <ele>193.7</ele>
7707    <time>2016-01-06T10:06:32Z</time>
7708   </trkpt>
7709   <trkpt lat="49.1165570" lon="16.5762560">
7710    <ele>193.7</ele>
7711    <time>2016-01-06T10:06:36Z</time>
7712   </trkpt>
7713   <trkpt lat="49.1165280" lon="16.5762900">
7714    <ele>193.8</ele>
7715    <time>2016-01-06T10:06:43Z</time>
7716   </trkpt>
7717   <trkpt lat="49.1165290" lon="16.5763680">
7718    <ele>193.7</ele>
7719    <time>2016-01-06T10:06:45Z</time>
7720   </trkpt>
7721   <trkpt lat="49.1165280" lon="16.5764500">
7722    <ele>193.7</ele>
7723    <time>2016-01-06T10:06:47Z</time>
7724   </trkpt>
7725   <trkpt lat="49.1165240" lon="16.5765260">
7726    <ele>194.0</ele>
7727    <time>2016-01-06T10:06:49Z</time>
7728   </trkpt>
7729   <trkpt lat="49.1165230" lon="16.5766010">
7730    <ele>194.2</ele>
7731    <time>2016-01-06T10:06:51Z</time>
7732   </trkpt>
7733   <trkpt lat="49.1165000" lon="16.5766640">
7734    <ele>194.3</ele>
7735    <time>2016-01-06T10:06:53Z</time>
7736   </trkpt>
7737   <trkpt lat="49.1164640" lon="16.5766870">
7738    <ele>194.4</ele>
7739    <time>2016-01-06T10:06:55Z</time>
7740   </trkpt>
7741   <trkpt lat="49.1164280" lon="16.5766680">
7742    <ele>194.4</ele>
7743    <time>2016-01-06T10:06:57Z</time>
7744   </trkpt>
7745   <trkpt lat="49.1163900" lon="16.5766270">
7746    <ele>194.5</ele>
7747    <time>2016-01-06T10:06:59Z</time>
7748   </trkpt>
7749   <trkpt lat="49.1163690" lon="16.5766010">
7750    <ele>194.5</ele>
7751    <time>2016-01-06T10:07:00Z</time>
7752   </trkpt>
7753   <trkpt lat="49.1163150" lon="16.5765340">
7754    <ele>194.7</ele>
7755    <time>2016-01-06T10:07:02Z</time>
7756   </trkpt>
7757   <trkpt lat="49.1162740" lon="16.5764740">
7758    <ele>194.7</ele>
7759    <time>2016-01-06T10:07:04Z</time>
7760   </trkpt>
7761   <trkpt lat="49.1162530" lon="16.5764410">
7762    <ele>194.6</ele>
7763    <time>2016-01-06T10:07:05Z</time>
7764   </trkpt>
7765   <trkpt lat="49.1162260" lon="16.5763680">
7766    <ele>194.4</ele>
7767    <time>2016-01-06T10:07:08Z</time>
7768   </trkpt>
7769   <trkpt lat="49.1162330" lon="16.5762710">
7770    <ele>194.5</ele>
7771    <time>2016-01-06T10:07:09Z</time>
7772   </trkpt>
7773   <trkpt lat="49.1162610" lon="16.5761440">
7774    <ele>194.8</ele>
7775    <time>2016-01-06T10:07:11Z</time>
7776   </trkpt>
7777   <trkpt lat="49.1162950" lon="16.5760300">
7778    <ele>195.0</ele>
7779    <time>2016-01-06T10:07:13Z</time>
7780   </trkpt>
7781   <trkpt lat="49.1163190" lon="16.5759630">
7782    <ele>195.1</ele>
7783    <time>2016-01-06T10:07:14Z</time>
7784   </trkpt>
7785   <trkpt lat="49.1163460" lon="16.5758920">
7786    <ele>195.1</ele>
7787    <time>2016-01-06T10:07:15Z</time>
7788   </trkpt>
7789   <trkpt lat="49.1163970" lon="16.5757410">
7790    <ele>195.1</ele>
7791    <time>2016-01-06T10:07:17Z</time>
7792   </trkpt>
7793   <trkpt lat="49.1164180" lon="16.5756760">
7794    <ele>195.2</ele>
7795    <time>2016-01-06T10:07:18Z</time>
7796   </trkpt>
7797   <trkpt lat="49.1164780" lon="16.5755190">
7798    <ele>195.4</ele>
7799    <time>2016-01-06T10:07:20Z</time>
7800   </trkpt>
7801   <trkpt lat="49.1165090" lon="16.5754360">
7802    <ele>195.5</ele>
7803    <time>2016-01-06T10:07:21Z</time>
7804   </trkpt>
7805   <trkpt lat="49.1165360" lon="16.5753540">
7806    <ele>195.5</ele>
7807    <time>2016-01-06T10:07:22Z</time>
7808   </trkpt>
7809   <trkpt lat="49.1165640" lon="16.5752820">
7810    <ele>195.6</ele>
7811    <time>2016-01-06T10:07:23Z</time>
7812   </trkpt>
7813   <trkpt lat="49.1165940" lon="16.5752040">
7814    <ele>195.7</ele>
7815    <time>2016-01-06T10:07:24Z</time>
7816   </trkpt>
7817   <trkpt lat="49.1166520" lon="16.5750440">
7818    <ele>195.7</ele>
7819    <time>2016-01-06T10:07:26Z</time>
7820   </trkpt>
7821   <trkpt lat="49.1167120" lon="16.5748760">
7822    <ele>195.3</ele>
7823    <time>2016-01-06T10:07:28Z</time>
7824   </trkpt>
7825   <trkpt lat="49.1167450" lon="16.5747940">
7826    <ele>195.3</ele>
7827    <time>2016-01-06T10:07:29Z</time>
7828   </trkpt>
7829   <trkpt lat="49.1168040" lon="16.5746390">
7830    <ele>195.2</ele>
7831    <time>2016-01-06T10:07:31Z</time>
7832   </trkpt>
7833   <trkpt lat="49.1168630" lon="16.5745020">
7834    <ele>195.6</ele>
7835    <time>2016-01-06T10:07:33Z</time>
7836   </trkpt>
7837   <trkpt lat="49.1168950" lon="16.5744290">
7838    <ele>195.6</ele>
7839    <time>2016-01-06T10:07:34Z</time>
7840   </trkpt>
7841   <trkpt lat="49.1169620" lon="16.5742730">
7842    <ele>195.7</ele>
7843    <time>2016-01-06T10:07:36Z</time>
7844   </trkpt>
7845   <trkpt lat="49.1169930" lon="16.5741950">
7846    <ele>195.6</ele>
7847    <time>2016-01-06T10:07:37Z</time>
7848   </trkpt>
7849   <trkpt lat="49.1170250" lon="16.5741130">
7850    <ele>195.5</ele>
7851    <time>2016-01-06T10:07:38Z</time>
7852   </trkpt>
7853   <trkpt lat="49.1170930" lon="16.5739550">
7854    <ele>195.5</ele>
7855    <time>2016-01-06T10:07:40Z</time>
7856   </trkpt>
7857   <trkpt lat="49.1171280" lon="16.5738710">
7858    <ele>195.6</ele>
7859    <time>2016-01-06T10:07:41Z</time>
7860   </trkpt>
7861   <trkpt lat="49.1171630" lon="16.5737830">
7862    <ele>195.6</ele>
7863    <time>2016-01-06T10:07:42Z</time>
7864   </trkpt>
7865   <trkpt lat="49.1172320" lon="16.5736310">
7866    <ele>195.7</ele>
7867    <time>2016-01-06T10:07:44Z</time>
7868   </trkpt>
7869   <trkpt lat="49.1172970" lon="16.5734860">
7870    <ele>196.0</ele>
7871    <time>2016-01-06T10:07:46Z</time>
7872   </trkpt>
7873   <trkpt lat="49.1173690" lon="16.5733330">
7874    <ele>196.4</ele>
7875    <time>2016-01-06T10:07:48Z</time>
7876   </trkpt>
7877   <trkpt lat="49.1174050" lon="16.5732540">
7878    <ele>196.5</ele>
7879    <time>2016-01-06T10:07:49Z</time>
7880   </trkpt>
7881   <trkpt lat="49.1174790" lon="16.5730970">
7882    <ele>196.6</ele>
7883    <time>2016-01-06T10:07:51Z</time>
7884   </trkpt>
7885   <trkpt lat="49.1175420" lon="16.5729760">
7886    <ele>196.8</ele>
7887    <time>2016-01-06T10:07:53Z</time>
7888   </trkpt>
7889   <trkpt lat="49.1176080" lon="16.5728570">
7890    <ele>196.2</ele>
7891    <time>2016-01-06T10:07:55Z</time>
7892   </trkpt>
7893   <trkpt lat="49.1176870" lon="16.5727050">
7894    <ele>195.9</ele>
7895    <time>2016-01-06T10:07:57Z</time>
7896   </trkpt>
7897   <trkpt lat="49.1177600" lon="16.5725780">
7898    <ele>195.8</ele>
7899    <time>2016-01-06T10:07:59Z</time>
7900   </trkpt>
7901   <trkpt lat="49.1177950" lon="16.5725150">
7902    <ele>195.7</ele>
7903    <time>2016-01-06T10:08:00Z</time>
7904   </trkpt>
7905   <trkpt lat="49.1178640" lon="16.5724000">
7906    <ele>195.8</ele>
7907    <time>2016-01-06T10:08:02Z</time>
7908   </trkpt>
7909   <trkpt lat="49.1179000" lon="16.5723320">
7910    <ele>195.9</ele>
7911    <time>2016-01-06T10:08:03Z</time>
7912   </trkpt>
7913   <trkpt lat="49.1179750" lon="16.5721960">
7914    <ele>196.0</ele>
7915    <time>2016-01-06T10:08:05Z</time>
7916   </trkpt>
7917   <trkpt lat="49.1180190" lon="16.5721090">
7918    <ele>196.0</ele>
7919    <time>2016-01-06T10:08:06Z</time>
7920   </trkpt>
7921   <trkpt lat="49.1180590" lon="16.5720340">
7922    <ele>195.9</ele>
7923    <time>2016-01-06T10:08:07Z</time>
7924   </trkpt>
7925   <trkpt lat="49.1181460" lon="16.5718780">
7926    <ele>196.2</ele>
7927    <time>2016-01-06T10:08:09Z</time>
7928   </trkpt>
7929   <trkpt lat="49.1181820" lon="16.5718090">
7930    <ele>196.5</ele>
7931    <time>2016-01-06T10:08:10Z</time>
7932   </trkpt>
7933   <trkpt lat="49.1182580" lon="16.5716660">
7934    <ele>196.9</ele>
7935    <time>2016-01-06T10:08:12Z</time>
7936   </trkpt>
7937   <trkpt lat="49.1182960" lon="16.5715950">
7938    <ele>196.7</ele>
7939    <time>2016-01-06T10:08:13Z</time>
7940   </trkpt>
7941   <trkpt lat="49.1183670" lon="16.5714580">
7942    <ele>196.8</ele>
7943    <time>2016-01-06T10:08:15Z</time>
7944   </trkpt>
7945   <trkpt lat="49.1184050" lon="16.5713880">
7946    <ele>196.8</ele>
7947    <time>2016-01-06T10:08:16Z</time>
7948   </trkpt>
7949   <trkpt lat="49.1184460" lon="16.5713140">
7950    <ele>196.9</ele>
7951    <time>2016-01-06T10:08:17Z</time>
7952   </trkpt>
7953   <trkpt lat="49.1185170" lon="16.5711800">
7954    <ele>197.0</ele>
7955    <time>2016-01-06T10:08:19Z</time>
7956   </trkpt>
7957   <trkpt lat="49.1185900" lon="16.5710420">
7958    <ele>196.8</ele>
7959    <time>2016-01-06T10:08:21Z</time>
7960   </trkpt>
7961   <trkpt lat="49.1186660" lon="16.5708940">
7962    <ele>197.3</ele>
7963    <time>2016-01-06T10:08:23Z</time>
7964   </trkpt>
7965   <trkpt lat="49.1187420" lon="16.5707470">
7966    <ele>197.4</ele>
7967    <time>2016-01-06T10:08:25Z</time>
7968   </trkpt>
7969   <trkpt lat="49.1187740" lon="16.5706830">
7970    <ele>197.3</ele>
7971    <time>2016-01-06T10:08:26Z</time>
7972   </trkpt>
7973   <trkpt lat="49.1188080" lon="16.5706160">
7974    <ele>197.2</ele>
7975    <time>2016-01-06T10:08:27Z</time>
7976   </trkpt>
7977   <trkpt lat="49.1188480" lon="16.5705430">
7978    <ele>197.3</ele>
7979    <time>2016-01-06T10:08:28Z</time>
7980   </trkpt>
7981   <trkpt lat="49.1189240" lon="16.5704160">
7982    <ele>197.4</ele>
7983    <time>2016-01-06T10:08:30Z</time>
7984   </trkpt>
7985   <trkpt lat="49.1190080" lon="16.5702830">
7986    <ele>197.3</ele>
7987    <time>2016-01-06T10:08:32Z</time>
7988   </trkpt>
7989   <trkpt lat="49.1190500" lon="16.5702150">
7990    <ele>197.2</ele>
7991    <time>2016-01-06T10:08:33Z</time>
7992   </trkpt>
7993   <trkpt lat="49.1191360" lon="16.5700750">
7994    <ele>197.1</ele>
7995    <time>2016-01-06T10:08:35Z</time>
7996   </trkpt>
7997   <trkpt lat="49.1191730" lon="16.5700160">
7998    <ele>197.1</ele>
7999    <time>2016-01-06T10:08:36Z</time>
8000   </trkpt>
8001   <trkpt lat="49.1192450" lon="16.5698900">
8002    <ele>197.0</ele>
8003    <time>2016-01-06T10:08:38Z</time>
8004   </trkpt>
8005   <trkpt lat="49.1192810" lon="16.5698290">
8006    <ele>197.2</ele>
8007    <time>2016-01-06T10:08:39Z</time>
8008   </trkpt>
8009   <trkpt lat="49.1193570" lon="16.5697100">
8010    <ele>197.6</ele>
8011    <time>2016-01-06T10:08:41Z</time>
8012   </trkpt>
8013   <trkpt lat="49.1193970" lon="16.5696530">
8014    <ele>197.6</ele>
8015    <time>2016-01-06T10:08:42Z</time>
8016   </trkpt>
8017   <trkpt lat="49.1194350" lon="16.5696010">
8018    <ele>197.6</ele>
8019    <time>2016-01-06T10:08:43Z</time>
8020   </trkpt>
8021   <trkpt lat="49.1194770" lon="16.5695480">
8022    <ele>197.4</ele>
8023    <time>2016-01-06T10:08:44Z</time>
8024   </trkpt>
8025   <trkpt lat="49.1195620" lon="16.5694580">
8026    <ele>197.3</ele>
8027    <time>2016-01-06T10:08:46Z</time>
8028   </trkpt>
8029   <trkpt lat="49.1196350" lon="16.5693810">
8030    <ele>197.2</ele>
8031    <time>2016-01-06T10:08:48Z</time>
8032   </trkpt>
8033   <trkpt lat="49.1196730" lon="16.5693400">
8034    <ele>197.2</ele>
8035    <time>2016-01-06T10:08:49Z</time>
8036   </trkpt>
8037   <trkpt lat="49.1197100" lon="16.5693000">
8038    <ele>197.3</ele>
8039    <time>2016-01-06T10:08:50Z</time>
8040   </trkpt>
8041   <trkpt lat="49.1197510" lon="16.5692590">
8042    <ele>197.5</ele>
8043    <time>2016-01-06T10:08:51Z</time>
8044   </trkpt>
8045   <trkpt lat="49.1198360" lon="16.5691750">
8046    <ele>197.7</ele>
8047    <time>2016-01-06T10:08:53Z</time>
8048   </trkpt>
8049   <trkpt lat="49.1199230" lon="16.5690760">
8050    <ele>197.8</ele>
8051    <time>2016-01-06T10:08:55Z</time>
8052   </trkpt>
8053   <trkpt lat="49.1199600" lon="16.5690330">
8054    <ele>198.0</ele>
8055    <time>2016-01-06T10:08:56Z</time>
8056   </trkpt>
8057   <trkpt lat="49.1199910" lon="16.5689890">
8058    <ele>198.2</ele>
8059    <time>2016-01-06T10:08:57Z</time>
8060   </trkpt>
8061   <trkpt lat="49.1200550" lon="16.5688950">
8062    <ele>198.7</ele>
8063    <time>2016-01-06T10:08:59Z</time>
8064   </trkpt>
8065   <trkpt lat="49.1201400" lon="16.5687740">
8066    <ele>198.7</ele>
8067    <time>2016-01-06T10:09:01Z</time>
8068   </trkpt>
8069   <trkpt lat="49.1202080" lon="16.5686790">
8070    <ele>198.8</ele>
8071    <time>2016-01-06T10:09:03Z</time>
8072   </trkpt>
8073   <trkpt lat="49.1202460" lon="16.5686190">
8074    <ele>198.9</ele>
8075    <time>2016-01-06T10:09:04Z</time>
8076   </trkpt>
8077   <trkpt lat="49.1203260" lon="16.5685040">
8078    <ele>199.3</ele>
8079    <time>2016-01-06T10:09:06Z</time>
8080   </trkpt>
8081   <trkpt lat="49.1204060" lon="16.5683960">
8082    <ele>199.7</ele>
8083    <time>2016-01-06T10:09:08Z</time>
8084   </trkpt>
8085   <trkpt lat="49.1204530" lon="16.5683350">
8086    <ele>199.9</ele>
8087    <time>2016-01-06T10:09:09Z</time>
8088   </trkpt>
8089   <trkpt lat="49.1205400" lon="16.5681950">
8090    <ele>200.2</ele>
8091    <time>2016-01-06T10:09:11Z</time>
8092   </trkpt>
8093   <trkpt lat="49.1205730" lon="16.5681360">
8094    <ele>200.4</ele>
8095    <time>2016-01-06T10:09:12Z</time>
8096   </trkpt>
8097   <trkpt lat="49.1206480" lon="16.5679970">
8098    <ele>200.5</ele>
8099    <time>2016-01-06T10:09:14Z</time>
8100   </trkpt>
8101   <trkpt lat="49.1207270" lon="16.5678600">
8102    <ele>200.4</ele>
8103    <time>2016-01-06T10:09:16Z</time>
8104   </trkpt>
8105   <trkpt lat="49.1208140" lon="16.5677040">
8106    <ele>200.0</ele>
8107    <time>2016-01-06T10:09:18Z</time>
8108   </trkpt>
8109   <trkpt lat="49.1208920" lon="16.5675570">
8110    <ele>199.6</ele>
8111    <time>2016-01-06T10:09:20Z</time>
8112   </trkpt>
8113   <trkpt lat="49.1209260" lon="16.5674910">
8114    <ele>199.7</ele>
8115    <time>2016-01-06T10:09:21Z</time>
8116   </trkpt>
8117   <trkpt lat="49.1209570" lon="16.5674290">
8118    <ele>199.8</ele>
8119    <time>2016-01-06T10:09:22Z</time>
8120   </trkpt>
8121   <trkpt lat="49.1210270" lon="16.5672890">
8122    <ele>200.1</ele>
8123    <time>2016-01-06T10:09:24Z</time>
8124   </trkpt>
8125   <trkpt lat="49.1210610" lon="16.5672220">
8126    <ele>200.4</ele>
8127    <time>2016-01-06T10:09:25Z</time>
8128   </trkpt>
8129   <trkpt lat="49.1211300" lon="16.5670910">
8130    <ele>201.0</ele>
8131    <time>2016-01-06T10:09:27Z</time>
8132   </trkpt>
8133   <trkpt lat="49.1211980" lon="16.5669650">
8134    <ele>201.5</ele>
8135    <time>2016-01-06T10:09:29Z</time>
8136   </trkpt>
8137   <trkpt lat="49.1212700" lon="16.5668400">
8138    <ele>201.6</ele>
8139    <time>2016-01-06T10:09:31Z</time>
8140   </trkpt>
8141   <trkpt lat="49.1213040" lon="16.5667880">
8142    <ele>201.5</ele>
8143    <time>2016-01-06T10:09:32Z</time>
8144   </trkpt>
8145   <trkpt lat="49.1213760" lon="16.5666880">
8146    <ele>201.4</ele>
8147    <time>2016-01-06T10:09:34Z</time>
8148   </trkpt>
8149   <trkpt lat="49.1214400" lon="16.5666240">
8150    <ele>201.3</ele>
8151    <time>2016-01-06T10:09:36Z</time>
8152   </trkpt>
8153   <trkpt lat="49.1214770" lon="16.5666050">
8154    <ele>201.3</ele>
8155    <time>2016-01-06T10:09:37Z</time>
8156   </trkpt>
8157   <trkpt lat="49.1215240" lon="16.5665820">
8158    <ele>201.1</ele>
8159    <time>2016-01-06T10:09:38Z</time>
8160   </trkpt>
8161   <trkpt lat="49.1215750" lon="16.5665550">
8162    <ele>201.1</ele>
8163    <time>2016-01-06T10:09:39Z</time>
8164   </trkpt>
8165   <trkpt lat="49.1216280" lon="16.5665260">
8166    <ele>201.3</ele>
8167    <time>2016-01-06T10:09:40Z</time>
8168   </trkpt>
8169   <trkpt lat="49.1216820" lon="16.5664960">
8170    <ele>201.4</ele>
8171    <time>2016-01-06T10:09:41Z</time>
8172   </trkpt>
8173   <trkpt lat="49.1217880" lon="16.5664440">
8174    <ele>201.8</ele>
8175    <time>2016-01-06T10:09:43Z</time>
8176   </trkpt>
8177   <trkpt lat="49.1218500" lon="16.5664140">
8178    <ele>201.9</ele>
8179    <time>2016-01-06T10:09:44Z</time>
8180   </trkpt>
8181   <trkpt lat="49.1219010" lon="16.5663940">
8182    <ele>202.0</ele>
8183    <time>2016-01-06T10:09:45Z</time>
8184   </trkpt>
8185   <trkpt lat="49.1219570" lon="16.5663710">
8186    <ele>201.9</ele>
8187    <time>2016-01-06T10:09:46Z</time>
8188   </trkpt>
8189   <trkpt lat="49.1220700" lon="16.5663250">
8190    <ele>201.7</ele>
8191    <time>2016-01-06T10:09:48Z</time>
8192   </trkpt>
8193   <trkpt lat="49.1221700" lon="16.5662730">
8194    <ele>201.6</ele>
8195    <time>2016-01-06T10:09:50Z</time>
8196   </trkpt>
8197   <trkpt lat="49.1222220" lon="16.5662470">
8198    <ele>201.5</ele>
8199    <time>2016-01-06T10:09:51Z</time>
8200   </trkpt>
8201   <trkpt lat="49.1223300" lon="16.5661940">
8202    <ele>201.3</ele>
8203    <time>2016-01-06T10:09:53Z</time>
8204   </trkpt>
8205   <trkpt lat="49.1223770" lon="16.5661700">
8206    <ele>201.2</ele>
8207    <time>2016-01-06T10:09:54Z</time>
8208   </trkpt>
8209   <trkpt lat="49.1224890" lon="16.5661150">
8210    <ele>201.2</ele>
8211    <time>2016-01-06T10:09:56Z</time>
8212   </trkpt>
8213   <trkpt lat="49.1225390" lon="16.5660890">
8214    <ele>201.3</ele>
8215    <time>2016-01-06T10:09:57Z</time>
8216   </trkpt>
8217   <trkpt lat="49.1226310" lon="16.5660410">
8218    <ele>201.6</ele>
8219    <time>2016-01-06T10:09:59Z</time>
8220   </trkpt>
8221   <trkpt lat="49.1226830" lon="16.5660170">
8222    <ele>201.8</ele>
8223    <time>2016-01-06T10:10:00Z</time>
8224   </trkpt>
8225   <trkpt lat="49.1227390" lon="16.5659880">
8226    <ele>201.6</ele>
8227    <time>2016-01-06T10:10:01Z</time>
8228   </trkpt>
8229   <trkpt lat="49.1227970" lon="16.5659550">
8230    <ele>201.2</ele>
8231    <time>2016-01-06T10:10:02Z</time>
8232   </trkpt>
8233   <trkpt lat="49.1229100" lon="16.5658930">
8234    <ele>201.1</ele>
8235    <time>2016-01-06T10:10:04Z</time>
8236   </trkpt>
8237   <trkpt lat="49.1229990" lon="16.5658330">
8238    <ele>201.2</ele>
8239    <time>2016-01-06T10:10:06Z</time>
8240   </trkpt>
8241   <trkpt lat="49.1230470" lon="16.5657990">
8242    <ele>201.2</ele>
8243    <time>2016-01-06T10:10:07Z</time>
8244   </trkpt>
8245   <trkpt lat="49.1231220" lon="16.5657300">
8246    <ele>201.3</ele>
8247    <time>2016-01-06T10:10:09Z</time>
8248   </trkpt>
8249   <trkpt lat="49.1232060" lon="16.5656350">
8250    <ele>201.3</ele>
8251    <time>2016-01-06T10:10:11Z</time>
8252   </trkpt>
8253   <trkpt lat="49.1232930" lon="16.5655180">
8254    <ele>201.2</ele>
8255    <time>2016-01-06T10:10:13Z</time>
8256   </trkpt>
8257   <trkpt lat="49.1233420" lon="16.5654530">
8258    <ele>201.0</ele>
8259    <time>2016-01-06T10:10:14Z</time>
8260   </trkpt>
8261   <trkpt lat="49.1233870" lon="16.5653830">
8262    <ele>201.0</ele>
8263    <time>2016-01-06T10:10:15Z</time>
8264   </trkpt>
8265   <trkpt lat="49.1234660" lon="16.5652300">
8266    <ele>201.5</ele>
8267    <time>2016-01-06T10:10:17Z</time>
8268   </trkpt>
8269   <trkpt lat="49.1235160" lon="16.5650620">
8270    <ele>202.2</ele>
8271    <time>2016-01-06T10:10:19Z</time>
8272   </trkpt>
8273   <trkpt lat="49.1235310" lon="16.5649940">
8274    <ele>202.5</ele>
8275    <time>2016-01-06T10:10:20Z</time>
8276   </trkpt>
8277   <trkpt lat="49.1235750" lon="16.5648620">
8278    <ele>203.4</ele>
8279    <time>2016-01-06T10:10:22Z</time>
8280   </trkpt>
8281   <trkpt lat="49.1235990" lon="16.5647790">
8282    <ele>203.9</ele>
8283    <time>2016-01-06T10:10:23Z</time>
8284   </trkpt>
8285   <trkpt lat="49.1236570" lon="16.5646150">
8286    <ele>204.9</ele>
8287    <time>2016-01-06T10:10:25Z</time>
8288   </trkpt>
8289   <trkpt lat="49.1236930" lon="16.5645290">
8290    <ele>205.2</ele>
8291    <time>2016-01-06T10:10:26Z</time>
8292   </trkpt>
8293   <trkpt lat="49.1237710" lon="16.5643670">
8294    <ele>205.3</ele>
8295    <time>2016-01-06T10:10:28Z</time>
8296   </trkpt>
8297   <trkpt lat="49.1238040" lon="16.5642950">
8298    <ele>205.1</ele>
8299    <time>2016-01-06T10:10:29Z</time>
8300   </trkpt>
8301   <trkpt lat="49.1238710" lon="16.5641520">
8302    <ele>203.8</ele>
8303    <time>2016-01-06T10:10:31Z</time>
8304   </trkpt>
8305   <trkpt lat="49.1239390" lon="16.5639990">
8306    <ele>203.1</ele>
8307    <time>2016-01-06T10:10:33Z</time>
8308   </trkpt>
8309   <trkpt lat="49.1239730" lon="16.5639220">
8310    <ele>203.0</ele>
8311    <time>2016-01-06T10:10:34Z</time>
8312   </trkpt>
8313   <trkpt lat="49.1240440" lon="16.5637710">
8314    <ele>202.9</ele>
8315    <time>2016-01-06T10:10:36Z</time>
8316   </trkpt>
8317   <trkpt lat="49.1240850" lon="16.5636870">
8318    <ele>202.6</ele>
8319    <time>2016-01-06T10:10:37Z</time>
8320   </trkpt>
8321   <trkpt lat="49.1241220" lon="16.5636130">
8322    <ele>202.3</ele>
8323    <time>2016-01-06T10:10:38Z</time>
8324   </trkpt>
8325   <trkpt lat="49.1241910" lon="16.5634830">
8326    <ele>202.6</ele>
8327    <time>2016-01-06T10:10:40Z</time>
8328   </trkpt>
8329   <trkpt lat="49.1242680" lon="16.5633780">
8330    <ele>203.3</ele>
8331    <time>2016-01-06T10:10:42Z</time>
8332   </trkpt>
8333   <trkpt lat="49.1243560" lon="16.5632570">
8334    <ele>203.2</ele>
8335    <time>2016-01-06T10:10:44Z</time>
8336   </trkpt>
8337   <trkpt lat="49.1244420" lon="16.5631210">
8338    <ele>203.1</ele>
8339    <time>2016-01-06T10:10:46Z</time>
8340   </trkpt>
8341   <trkpt lat="49.1245360" lon="16.5630030">
8342    <ele>203.0</ele>
8343    <time>2016-01-06T10:10:48Z</time>
8344   </trkpt>
8345   <trkpt lat="49.1246390" lon="16.5628810">
8346    <ele>203.0</ele>
8347    <time>2016-01-06T10:10:50Z</time>
8348   </trkpt>
8349   <trkpt lat="49.1246880" lon="16.5628270">
8350    <ele>203.1</ele>
8351    <time>2016-01-06T10:10:51Z</time>
8352   </trkpt>
8353   <trkpt lat="49.1247310" lon="16.5627710">
8354    <ele>203.1</ele>
8355    <time>2016-01-06T10:10:52Z</time>
8356   </trkpt>
8357   <trkpt lat="49.1248110" lon="16.5626680">
8358    <ele>203.2</ele>
8359    <time>2016-01-06T10:10:54Z</time>
8360   </trkpt>
8361   <trkpt lat="49.1248940" lon="16.5625520">
8362    <ele>203.0</ele>
8363    <time>2016-01-06T10:10:56Z</time>
8364   </trkpt>
8365   <trkpt lat="49.1249810" lon="16.5624000">
8366    <ele>203.2</ele>
8367    <time>2016-01-06T10:10:58Z</time>
8368   </trkpt>
8369   <trkpt lat="49.1250190" lon="16.5623220">
8370    <ele>203.3</ele>
8371    <time>2016-01-06T10:10:59Z</time>
8372   </trkpt>
8373   <trkpt lat="49.1250790" lon="16.5621730">
8374    <ele>203.2</ele>
8375    <time>2016-01-06T10:11:01Z</time>
8376   </trkpt>
8377   <trkpt lat="49.1251290" lon="16.5619970">
8378    <ele>203.1</ele>
8379    <time>2016-01-06T10:11:03Z</time>
8380   </trkpt>
8381   <trkpt lat="49.1251460" lon="16.5619150">
8382    <ele>203.2</ele>
8383    <time>2016-01-06T10:11:04Z</time>
8384   </trkpt>
8385   <trkpt lat="49.1251770" lon="16.5617360">
8386    <ele>203.4</ele>
8387    <time>2016-01-06T10:11:06Z</time>
8388   </trkpt>
8389   <trkpt lat="49.1251890" lon="16.5616390">
8390    <ele>203.7</ele>
8391    <time>2016-01-06T10:11:07Z</time>
8392   </trkpt>
8393   <trkpt lat="49.1252090" lon="16.5614650">
8394    <ele>204.2</ele>
8395    <time>2016-01-06T10:11:09Z</time>
8396   </trkpt>
8397   <trkpt lat="49.1252220" lon="16.5613000">
8398    <ele>204.2</ele>
8399    <time>2016-01-06T10:11:11Z</time>
8400   </trkpt>
8401   <trkpt lat="49.1252400" lon="16.5611360">
8402    <ele>203.9</ele>
8403    <time>2016-01-06T10:11:13Z</time>
8404   </trkpt>
8405   <trkpt lat="49.1252610" lon="16.5609600">
8406    <ele>204.1</ele>
8407    <time>2016-01-06T10:11:15Z</time>
8408   </trkpt>
8409   <trkpt lat="49.1252710" lon="16.5608770">
8410    <ele>204.1</ele>
8411    <time>2016-01-06T10:11:16Z</time>
8412   </trkpt>
8413   <trkpt lat="49.1252820" lon="16.5608020">
8414    <ele>204.0</ele>
8415    <time>2016-01-06T10:11:17Z</time>
8416   </trkpt>
8417   <trkpt lat="49.1252940" lon="16.5606440">
8418    <ele>203.9</ele>
8419    <time>2016-01-06T10:11:19Z</time>
8420   </trkpt>
8421   <trkpt lat="49.1252980" lon="16.5605640">
8422    <ele>204.1</ele>
8423    <time>2016-01-06T10:11:20Z</time>
8424   </trkpt>
8425   <trkpt lat="49.1253010" lon="16.5604880">
8426    <ele>204.2</ele>
8427    <time>2016-01-06T10:11:21Z</time>
8428   </trkpt>
8429   <trkpt lat="49.1253010" lon="16.5604150">
8430    <ele>204.2</ele>
8431    <time>2016-01-06T10:11:22Z</time>
8432   </trkpt>
8433   <trkpt lat="49.1252890" lon="16.5602550">
8434    <ele>204.6</ele>
8435    <time>2016-01-06T10:11:24Z</time>
8436   </trkpt>
8437   <trkpt lat="49.1252530" lon="16.5600900">
8438    <ele>204.5</ele>
8439    <time>2016-01-06T10:11:26Z</time>
8440   </trkpt>
8441   <trkpt lat="49.1252120" lon="16.5599440">
8442    <ele>204.8</ele>
8443    <time>2016-01-06T10:11:28Z</time>
8444   </trkpt>
8445   <trkpt lat="49.1251810" lon="16.5597650">
8446    <ele>204.8</ele>
8447    <time>2016-01-06T10:11:30Z</time>
8448   </trkpt>
8449   <trkpt lat="49.1251540" lon="16.5595890">
8450    <ele>205.2</ele>
8451    <time>2016-01-06T10:11:32Z</time>
8452   </trkpt>
8453   <trkpt lat="49.1251280" lon="16.5594110">
8454    <ele>205.4</ele>
8455    <time>2016-01-06T10:11:34Z</time>
8456   </trkpt>
8457   <trkpt lat="49.1251180" lon="16.5593180">
8458    <ele>205.3</ele>
8459    <time>2016-01-06T10:11:35Z</time>
8460   </trkpt>
8461   <trkpt lat="49.1250960" lon="16.5591310">
8462    <ele>204.9</ele>
8463    <time>2016-01-06T10:11:37Z</time>
8464   </trkpt>
8465   <trkpt lat="49.1250810" lon="16.5589730">
8466    <ele>205.2</ele>
8467    <time>2016-01-06T10:11:39Z</time>
8468   </trkpt>
8469   <trkpt lat="49.1250580" lon="16.5587890">
8470    <ele>205.2</ele>
8471    <time>2016-01-06T10:11:41Z</time>
8472   </trkpt>
8473   <trkpt lat="49.1250320" lon="16.5586180">
8474    <ele>205.4</ele>
8475    <time>2016-01-06T10:11:43Z</time>
8476   </trkpt>
8477   <trkpt lat="49.1250200" lon="16.5585540">
8478    <ele>205.3</ele>
8479    <time>2016-01-06T10:11:44Z</time>
8480   </trkpt>
8481   <trkpt lat="49.1249810" lon="16.5584130">
8482    <ele>204.9</ele>
8483    <time>2016-01-06T10:11:46Z</time>
8484   </trkpt>
8485   <trkpt lat="49.1249310" lon="16.5582910">
8486    <ele>205.2</ele>
8487    <time>2016-01-06T10:11:48Z</time>
8488   </trkpt>
8489   <trkpt lat="49.1249060" lon="16.5582380">
8490    <ele>205.2</ele>
8491    <time>2016-01-06T10:11:49Z</time>
8492   </trkpt>
8493   <trkpt lat="49.1248780" lon="16.5581830">
8494    <ele>205.5</ele>
8495    <time>2016-01-06T10:11:50Z</time>
8496   </trkpt>
8497   <trkpt lat="49.1248220" lon="16.5580640">
8498    <ele>206.3</ele>
8499    <time>2016-01-06T10:11:52Z</time>
8500   </trkpt>
8501   <trkpt lat="49.1247870" lon="16.5580190">
8502    <ele>206.8</ele>
8503    <time>2016-01-06T10:11:53Z</time>
8504   </trkpt>
8505   <trkpt lat="49.1247730" lon="16.5579730">
8506    <ele>207.2</ele>
8507    <time>2016-01-06T10:11:54Z</time>
8508   </trkpt>
8509   <trkpt lat="49.1247760" lon="16.5578810">
8510    <ele>207.6</ele>
8511    <time>2016-01-06T10:11:56Z</time>
8512   </trkpt>
8513   <trkpt lat="49.1247860" lon="16.5578070">
8514    <ele>207.7</ele>
8515    <time>2016-01-06T10:11:58Z</time>
8516   </trkpt>
8517   <trkpt lat="49.1248110" lon="16.5577340">
8518    <ele>206.9</ele>
8519    <time>2016-01-06T10:12:00Z</time>
8520   </trkpt>
8521   <trkpt lat="49.1248510" lon="16.5576540">
8522    <ele>206.2</ele>
8523    <time>2016-01-06T10:12:02Z</time>
8524   </trkpt>
8525   <trkpt lat="49.1248660" lon="16.5575950">
8526    <ele>206.1</ele>
8527    <time>2016-01-06T10:12:03Z</time>
8528   </trkpt>
8529   <trkpt lat="49.1249000" lon="16.5574690">
8530    <ele>206.1</ele>
8531    <time>2016-01-06T10:12:05Z</time>
8532   </trkpt>
8533   <trkpt lat="49.1249030" lon="16.5574060">
8534    <ele>205.8</ele>
8535    <time>2016-01-06T10:12:06Z</time>
8536   </trkpt>
8537   <trkpt lat="49.1248640" lon="16.5572960">
8538    <ele>205.6</ele>
8539    <time>2016-01-06T10:12:08Z</time>
8540   </trkpt>
8541   <trkpt lat="49.1248430" lon="16.5572570">
8542    <ele>205.6</ele>
8543    <time>2016-01-06T10:12:09Z</time>
8544   </trkpt>
8545   <trkpt lat="49.1248000" lon="16.5571750">
8546    <ele>205.6</ele>
8547    <time>2016-01-06T10:12:11Z</time>
8548   </trkpt>
8549   <trkpt lat="49.1247730" lon="16.5571160">
8550    <ele>205.9</ele>
8551    <time>2016-01-06T10:12:13Z</time>
8552   </trkpt>
8553   <trkpt lat="49.1247540" lon="16.5570430">
8554    <ele>206.2</ele>
8555    <time>2016-01-06T10:12:15Z</time>
8556   </trkpt>
8557   <trkpt lat="49.1247400" lon="16.5569540">
8558    <ele>206.4</ele>
8559    <time>2016-01-06T10:12:17Z</time>
8560   </trkpt>
8561   <trkpt lat="49.1247250" lon="16.5568370">
8562    <ele>206.8</ele>
8563    <time>2016-01-06T10:12:19Z</time>
8564   </trkpt>
8565   <trkpt lat="49.1247140" lon="16.5567240">
8566    <ele>206.7</ele>
8567    <time>2016-01-06T10:12:21Z</time>
8568   </trkpt>
8569   <trkpt lat="49.1246980" lon="16.5566090">
8570    <ele>206.7</ele>
8571    <time>2016-01-06T10:12:23Z</time>
8572   </trkpt>
8573   <trkpt lat="49.1246900" lon="16.5565580">
8574    <ele>206.7</ele>
8575    <time>2016-01-06T10:12:24Z</time>
8576   </trkpt>
8577   <trkpt lat="49.1246740" lon="16.5564780">
8578    <ele>207.1</ele>
8579    <time>2016-01-06T10:12:26Z</time>
8580   </trkpt>
8581   <trkpt lat="49.1246630" lon="16.5564100">
8582    <ele>207.2</ele>
8583    <time>2016-01-06T10:12:28Z</time>
8584   </trkpt>
8585   <trkpt lat="49.1246420" lon="16.5562930">
8586    <ele>207.2</ele>
8587    <time>2016-01-06T10:12:30Z</time>
8588   </trkpt>
8589   <trkpt lat="49.1246310" lon="16.5562020">
8590    <ele>207.3</ele>
8591    <time>2016-01-06T10:12:32Z</time>
8592   </trkpt>
8593   <trkpt lat="49.1246190" lon="16.5561430">
8594    <ele>207.5</ele>
8595    <time>2016-01-06T10:12:33Z</time>
8596   </trkpt>
8597   <trkpt lat="49.1245970" lon="16.5560420">
8598    <ele>207.4</ele>
8599    <time>2016-01-06T10:12:35Z</time>
8600   </trkpt>
8601   <trkpt lat="49.1245850" lon="16.5559770">
8602    <ele>207.3</ele>
8603    <time>2016-01-06T10:12:36Z</time>
8604   </trkpt>
8605   <trkpt lat="49.1245780" lon="16.5559200">
8606    <ele>207.0</ele>
8607    <time>2016-01-06T10:12:37Z</time>
8608   </trkpt>
8609   <trkpt lat="49.1245680" lon="16.5558480">
8610    <ele>207.1</ele>
8611    <time>2016-01-06T10:12:38Z</time>
8612   </trkpt>
8613   <trkpt lat="49.1245660" lon="16.5557530">
8614    <ele>207.4</ele>
8615    <time>2016-01-06T10:12:40Z</time>
8616   </trkpt>
8617   <trkpt lat="49.1245670" lon="16.5557040">
8618    <ele>207.8</ele>
8619    <time>2016-01-06T10:12:41Z</time>
8620   </trkpt>
8621   <trkpt lat="49.1245750" lon="16.5556060">
8622    <ele>207.8</ele>
8623    <time>2016-01-06T10:12:43Z</time>
8624   </trkpt>
8625   <trkpt lat="49.1245800" lon="16.5555060">
8626    <ele>207.8</ele>
8627    <time>2016-01-06T10:12:45Z</time>
8628   </trkpt>
8629   <trkpt lat="49.1245940" lon="16.5554310">
8630    <ele>208.0</ele>
8631    <time>2016-01-06T10:12:47Z</time>
8632   </trkpt>
8633   <trkpt lat="49.1246170" lon="16.5553420">
8634    <ele>208.0</ele>
8635    <time>2016-01-06T10:12:49Z</time>
8636   </trkpt>
8637   <trkpt lat="49.1246360" lon="16.5552670">
8638    <ele>208.0</ele>
8639    <time>2016-01-06T10:12:51Z</time>
8640   </trkpt>
8641   <trkpt lat="49.1246700" lon="16.5552040">
8642    <ele>207.7</ele>
8643    <time>2016-01-06T10:12:53Z</time>
8644   </trkpt>
8645   <trkpt lat="49.1246990" lon="16.5551660">
8646    <ele>207.3</ele>
8647    <time>2016-01-06T10:12:55Z</time>
8648   </trkpt>
8649   <trkpt lat="49.1247360" lon="16.5551390">
8650    <ele>206.9</ele>
8651    <time>2016-01-06T10:12:57Z</time>
8652   </trkpt>
8653   <trkpt lat="49.1247760" lon="16.5551310">
8654    <ele>206.9</ele>
8655    <time>2016-01-06T10:12:59Z</time>
8656   </trkpt>
8657   <trkpt lat="49.1248290" lon="16.5551390">
8658    <ele>207.2</ele>
8659    <time>2016-01-06T10:13:01Z</time>
8660   </trkpt>
8661   <trkpt lat="49.1248860" lon="16.5551660">
8662    <ele>207.2</ele>
8663    <time>2016-01-06T10:13:03Z</time>
8664   </trkpt>
8665   <trkpt lat="49.1249200" lon="16.5551850">
8666    <ele>207.2</ele>
8667    <time>2016-01-06T10:13:04Z</time>
8668   </trkpt>
8669   <trkpt lat="49.1249560" lon="16.5552060">
8670    <ele>207.1</ele>
8671    <time>2016-01-06T10:13:05Z</time>
8672   </trkpt>
8673   <trkpt lat="49.1249950" lon="16.5552300">
8674    <ele>206.8</ele>
8675    <time>2016-01-06T10:13:06Z</time>
8676   </trkpt>
8677   <trkpt lat="49.1250290" lon="16.5552550">
8678    <ele>206.6</ele>
8679    <time>2016-01-06T10:13:07Z</time>
8680   </trkpt>
8681   <trkpt lat="49.1250640" lon="16.5552830">
8682    <ele>206.6</ele>
8683    <time>2016-01-06T10:13:08Z</time>
8684   </trkpt>
8685   <trkpt lat="49.1250900" lon="16.5553110">
8686    <ele>206.6</ele>
8687    <time>2016-01-06T10:13:09Z</time>
8688   </trkpt>
8689   <trkpt lat="49.1251110" lon="16.5553400">
8690    <ele>206.7</ele>
8691    <time>2016-01-06T10:13:10Z</time>
8692   </trkpt>
8693   <trkpt lat="49.1251600" lon="16.5554100">
8694    <ele>207.0</ele>
8695    <time>2016-01-06T10:13:12Z</time>
8696   </trkpt>
8697   <trkpt lat="49.1252210" lon="16.5554820">
8698    <ele>207.1</ele>
8699    <time>2016-01-06T10:13:14Z</time>
8700   </trkpt>
8701   <trkpt lat="49.1252550" lon="16.5555130">
8702    <ele>207.3</ele>
8703    <time>2016-01-06T10:13:15Z</time>
8704   </trkpt>
8705   <trkpt lat="49.1253240" lon="16.5555820">
8706    <ele>207.4</ele>
8707    <time>2016-01-06T10:13:17Z</time>
8708   </trkpt>
8709   <trkpt lat="49.1253860" lon="16.5556440">
8710    <ele>207.5</ele>
8711    <time>2016-01-06T10:13:19Z</time>
8712   </trkpt>
8713   <trkpt lat="49.1254320" lon="16.5556820">
8714    <ele>208.0</ele>
8715    <time>2016-01-06T10:13:21Z</time>
8716   </trkpt>
8717   <trkpt lat="49.1254580" lon="16.5557000">
8718    <ele>208.1</ele>
8719    <time>2016-01-06T10:13:22Z</time>
8720   </trkpt>
8721   <trkpt lat="49.1255220" lon="16.5557360">
8722    <ele>208.1</ele>
8723    <time>2016-01-06T10:13:24Z</time>
8724   </trkpt>
8725   <trkpt lat="49.1255620" lon="16.5557590">
8726    <ele>208.2</ele>
8727    <time>2016-01-06T10:13:25Z</time>
8728   </trkpt>
8729   <trkpt lat="49.1256260" lon="16.5557870">
8730    <ele>208.2</ele>
8731    <time>2016-01-06T10:13:27Z</time>
8732   </trkpt>
8733   <trkpt lat="49.1256730" lon="16.5558010">
8734    <ele>208.1</ele>
8735    <time>2016-01-06T10:13:29Z</time>
8736   </trkpt>
8737   <trkpt lat="49.1257240" lon="16.5558220">
8738    <ele>208.0</ele>
8739    <time>2016-01-06T10:13:31Z</time>
8740   </trkpt>
8741   <trkpt lat="49.1257700" lon="16.5558450">
8742    <ele>208.2</ele>
8743    <time>2016-01-06T10:13:33Z</time>
8744   </trkpt>
8745   <trkpt lat="49.1258180" lon="16.5558660">
8746    <ele>208.5</ele>
8747    <time>2016-01-06T10:13:35Z</time>
8748   </trkpt>
8749   <trkpt lat="49.1258740" lon="16.5558760">
8750    <ele>208.8</ele>
8751    <time>2016-01-06T10:13:37Z</time>
8752   </trkpt>
8753   <trkpt lat="49.1259500" lon="16.5558950">
8754    <ele>208.9</ele>
8755    <time>2016-01-06T10:13:39Z</time>
8756   </trkpt>
8757   <trkpt lat="49.1260200" lon="16.5559110">
8758    <ele>209.1</ele>
8759    <time>2016-01-06T10:13:41Z</time>
8760   </trkpt>
8761   <trkpt lat="49.1261000" lon="16.5559250">
8762    <ele>209.3</ele>
8763    <time>2016-01-06T10:13:43Z</time>
8764   </trkpt>
8765   <trkpt lat="49.1261750" lon="16.5559340">
8766    <ele>209.4</ele>
8767    <time>2016-01-06T10:13:45Z</time>
8768   </trkpt>
8769   <trkpt lat="49.1262050" lon="16.5559310">
8770    <ele>209.5</ele>
8771    <time>2016-01-06T10:13:46Z</time>
8772   </trkpt>
8773   <trkpt lat="49.1262690" lon="16.5559190">
8774    <ele>209.4</ele>
8775    <time>2016-01-06T10:13:48Z</time>
8776   </trkpt>
8777   <trkpt lat="49.1263030" lon="16.5559130">
8778    <ele>209.3</ele>
8779    <time>2016-01-06T10:13:49Z</time>
8780   </trkpt>
8781   <trkpt lat="49.1263320" lon="16.5558980">
8782    <ele>209.2</ele>
8783    <time>2016-01-06T10:13:50Z</time>
8784   </trkpt>
8785   <trkpt lat="49.1263810" lon="16.5558590">
8786    <ele>208.7</ele>
8787    <time>2016-01-06T10:13:52Z</time>
8788   </trkpt>
8789   <trkpt lat="49.1264090" lon="16.5558390">
8790    <ele>208.5</ele>
8791    <time>2016-01-06T10:13:53Z</time>
8792   </trkpt>
8793   <trkpt lat="49.1264740" lon="16.5557940">
8794    <ele>208.2</ele>
8795    <time>2016-01-06T10:13:55Z</time>
8796   </trkpt>
8797   <trkpt lat="49.1265450" lon="16.5557650">
8798    <ele>207.9</ele>
8799    <time>2016-01-06T10:13:57Z</time>
8800   </trkpt>
8801   <trkpt lat="49.1265840" lon="16.5557500">
8802    <ele>208.0</ele>
8803    <time>2016-01-06T10:13:58Z</time>
8804   </trkpt>
8805   <trkpt lat="49.1266220" lon="16.5557360">
8806    <ele>208.1</ele>
8807    <time>2016-01-06T10:13:59Z</time>
8808   </trkpt>
8809   <trkpt lat="49.1266610" lon="16.5557290">
8810    <ele>208.1</ele>
8811    <time>2016-01-06T10:14:00Z</time>
8812   </trkpt>
8813   <trkpt lat="49.1266990" lon="16.5557210">
8814    <ele>208.2</ele>
8815    <time>2016-01-06T10:14:01Z</time>
8816   </trkpt>
8817   <trkpt lat="49.1267990" lon="16.5556930">
8818    <ele>208.3</ele>
8819    <time>2016-01-06T10:14:03Z</time>
8820   </trkpt>
8821   <trkpt lat="49.1268500" lon="16.5556800">
8822    <ele>208.0</ele>
8823    <time>2016-01-06T10:14:04Z</time>
8824   </trkpt>
8825   <trkpt lat="49.1269490" lon="16.5556650">
8826    <ele>208.1</ele>
8827    <time>2016-01-06T10:14:06Z</time>
8828   </trkpt>
8829   <trkpt lat="49.1270360" lon="16.5556600">
8830    <ele>208.2</ele>
8831    <time>2016-01-06T10:14:08Z</time>
8832   </trkpt>
8833   <trkpt lat="49.1270800" lon="16.5556610">
8834    <ele>208.2</ele>
8835    <time>2016-01-06T10:14:09Z</time>
8836   </trkpt>
8837   <trkpt lat="49.1271710" lon="16.5556630">
8838    <ele>208.2</ele>
8839    <time>2016-01-06T10:14:11Z</time>
8840   </trkpt>
8841   <trkpt lat="49.1272530" lon="16.5556560">
8842    <ele>208.5</ele>
8843    <time>2016-01-06T10:14:13Z</time>
8844   </trkpt>
8845   <trkpt lat="49.1272880" lon="16.5556490">
8846    <ele>208.8</ele>
8847    <time>2016-01-06T10:14:14Z</time>
8848   </trkpt>
8849   <trkpt lat="49.1273570" lon="16.5556230">
8850    <ele>209.0</ele>
8851    <time>2016-01-06T10:14:16Z</time>
8852   </trkpt>
8853   <trkpt lat="49.1274160" lon="16.5555930">
8854    <ele>209.1</ele>
8855    <time>2016-01-06T10:14:18Z</time>
8856   </trkpt>
8857   <trkpt lat="49.1274470" lon="16.5555790">
8858    <ele>209.1</ele>
8859    <time>2016-01-06T10:14:19Z</time>
8860   </trkpt>
8861   <trkpt lat="49.1274930" lon="16.5555540">
8862    <ele>208.7</ele>
8863    <time>2016-01-06T10:14:21Z</time>
8864   </trkpt>
8865   <trkpt lat="49.1275210" lon="16.5555370">
8866    <ele>208.6</ele>
8867    <time>2016-01-06T10:14:22Z</time>
8868   </trkpt>
8869   <trkpt lat="49.1275510" lon="16.5555230">
8870    <ele>208.5</ele>
8871    <time>2016-01-06T10:14:23Z</time>
8872   </trkpt>
8873   <trkpt lat="49.1275830" lon="16.5555100">
8874    <ele>208.6</ele>
8875    <time>2016-01-06T10:14:24Z</time>
8876   </trkpt>
8877   <trkpt lat="49.1276390" lon="16.5554940">
8878    <ele>209.1</ele>
8879    <time>2016-01-06T10:14:26Z</time>
8880   </trkpt>
8881   <trkpt lat="49.1276950" lon="16.5554880">
8882    <ele>209.8</ele>
8883    <time>2016-01-06T10:14:28Z</time>
8884   </trkpt>
8885   <trkpt lat="49.1277500" lon="16.5554850">
8886    <ele>210.0</ele>
8887    <time>2016-01-06T10:14:30Z</time>
8888   </trkpt>
8889   <trkpt lat="49.1277990" lon="16.5554880">
8890    <ele>210.1</ele>
8891    <time>2016-01-06T10:14:32Z</time>
8892   </trkpt>
8893   <trkpt lat="49.1278300" lon="16.5554870">
8894    <ele>210.1</ele>
8895    <time>2016-01-06T10:14:33Z</time>
8896   </trkpt>
8897   <trkpt lat="49.1278890" lon="16.5554940">
8898    <ele>210.2</ele>
8899    <time>2016-01-06T10:14:35Z</time>
8900   </trkpt>
8901   <trkpt lat="49.1279220" lon="16.5554980">
8902    <ele>210.2</ele>
8903    <time>2016-01-06T10:14:36Z</time>
8904   </trkpt>
8905   <trkpt lat="49.1279750" lon="16.5555100">
8906    <ele>210.5</ele>
8907    <time>2016-01-06T10:14:38Z</time>
8908   </trkpt>
8909   <trkpt lat="49.1280280" lon="16.5555260">
8910    <ele>210.7</ele>
8911    <time>2016-01-06T10:14:40Z</time>
8912   </trkpt>
8913   <trkpt lat="49.1280830" lon="16.5555450">
8914    <ele>211.0</ele>
8915    <time>2016-01-06T10:14:42Z</time>
8916   </trkpt>
8917   <trkpt lat="49.1281260" lon="16.5555650">
8918    <ele>211.2</ele>
8919    <time>2016-01-06T10:14:44Z</time>
8920   </trkpt>
8921   <trkpt lat="49.1281680" lon="16.5555810">
8922    <ele>211.6</ele>
8923    <time>2016-01-06T10:14:46Z</time>
8924   </trkpt>
8925   <trkpt lat="49.1282200" lon="16.5555960">
8926    <ele>212.1</ele>
8927    <time>2016-01-06T10:14:48Z</time>
8928   </trkpt>
8929   <trkpt lat="49.1282630" lon="16.5556050">
8930    <ele>212.4</ele>
8931    <time>2016-01-06T10:14:50Z</time>
8932   </trkpt>
8933   <trkpt lat="49.1283000" lon="16.5556100">
8934    <ele>212.4</ele>
8935    <time>2016-01-06T10:14:52Z</time>
8936   </trkpt>
8937   <trkpt lat="49.1283370" lon="16.5556100">
8938    <ele>212.7</ele>
8939    <time>2016-01-06T10:14:54Z</time>
8940   </trkpt>
8941   <trkpt lat="49.1283800" lon="16.5556080">
8942    <ele>213.3</ele>
8943    <time>2016-01-06T10:14:56Z</time>
8944   </trkpt>
8945   <trkpt lat="49.1284320" lon="16.5555960">
8946    <ele>213.8</ele>
8947    <time>2016-01-06T10:14:58Z</time>
8948   </trkpt>
8949   <trkpt lat="49.1284870" lon="16.5555800">
8950    <ele>214.1</ele>
8951    <time>2016-01-06T10:15:00Z</time>
8952   </trkpt>
8953   <trkpt lat="49.1285400" lon="16.5555620">
8954    <ele>214.8</ele>
8955    <time>2016-01-06T10:15:02Z</time>
8956   </trkpt>
8957   <trkpt lat="49.1285820" lon="16.5555250">
8958    <ele>215.2</ele>
8959    <time>2016-01-06T10:15:04Z</time>
8960   </trkpt>
8961   <trkpt lat="49.1286270" lon="16.5554790">
8962    <ele>215.9</ele>
8963    <time>2016-01-06T10:15:06Z</time>
8964   </trkpt>
8965   <trkpt lat="49.1286610" lon="16.5554400">
8966    <ele>215.7</ele>
8967    <time>2016-01-06T10:15:08Z</time>
8968   </trkpt>
8969   <trkpt lat="49.1287010" lon="16.5553960">
8970    <ele>215.7</ele>
8971    <time>2016-01-06T10:15:10Z</time>
8972   </trkpt>
8973   <trkpt lat="49.1287440" lon="16.5553550">
8974    <ele>215.8</ele>
8975    <time>2016-01-06T10:15:12Z</time>
8976   </trkpt>
8977   <trkpt lat="49.1287880" lon="16.5553000">
8978    <ele>216.0</ele>
8979    <time>2016-01-06T10:15:14Z</time>
8980   </trkpt>
8981   <trkpt lat="49.1288250" lon="16.5552610">
8982    <ele>216.1</ele>
8983    <time>2016-01-06T10:15:16Z</time>
8984   </trkpt>
8985   <trkpt lat="49.1288710" lon="16.5552140">
8986    <ele>215.9</ele>
8987    <time>2016-01-06T10:15:18Z</time>
8988   </trkpt>
8989   <trkpt lat="49.1288940" lon="16.5551910">
8990    <ele>215.7</ele>
8991    <time>2016-01-06T10:15:19Z</time>
8992   </trkpt>
8993   <trkpt lat="49.1289380" lon="16.5551500">
8994    <ele>215.5</ele>
8995    <time>2016-01-06T10:15:21Z</time>
8996   </trkpt>
8997   <trkpt lat="49.1289960" lon="16.5551050">
8998    <ele>215.3</ele>
8999    <time>2016-01-06T10:15:23Z</time>
9000   </trkpt>
9001   <trkpt lat="49.1290390" lon="16.5550640">
9002    <ele>214.9</ele>
9003    <time>2016-01-06T10:15:25Z</time>
9004   </trkpt>
9005   <trkpt lat="49.1290820" lon="16.5550340">
9006    <ele>214.6</ele>
9007    <time>2016-01-06T10:15:27Z</time>
9008   </trkpt>
9009   <trkpt lat="49.1291070" lon="16.5550160">
9010    <ele>214.4</ele>
9011    <time>2016-01-06T10:15:28Z</time>
9012   </trkpt>
9013   <trkpt lat="49.1291370" lon="16.5549940">
9014    <ele>214.2</ele>
9015    <time>2016-01-06T10:15:29Z</time>
9016   </trkpt>
9017   <trkpt lat="49.1291960" lon="16.5549420">
9018    <ele>214.1</ele>
9019    <time>2016-01-06T10:15:31Z</time>
9020   </trkpt>
9021   <trkpt lat="49.1292240" lon="16.5549170">
9022    <ele>214.0</ele>
9023    <time>2016-01-06T10:15:32Z</time>
9024   </trkpt>
9025   <trkpt lat="49.1292900" lon="16.5548480">
9026    <ele>213.5</ele>
9027    <time>2016-01-06T10:15:34Z</time>
9028   </trkpt>
9029   <trkpt lat="49.1293200" lon="16.5548220">
9030    <ele>213.0</ele>
9031    <time>2016-01-06T10:15:35Z</time>
9032   </trkpt>
9033   <trkpt lat="49.1293520" lon="16.5548000">
9034    <ele>212.7</ele>
9035    <time>2016-01-06T10:15:36Z</time>
9036   </trkpt>
9037   <trkpt lat="49.1293920" lon="16.5547750">
9038    <ele>212.5</ele>
9039    <time>2016-01-06T10:15:37Z</time>
9040   </trkpt>
9041   <trkpt lat="49.1294320" lon="16.5547550">
9042    <ele>212.4</ele>
9043    <time>2016-01-06T10:15:38Z</time>
9044   </trkpt>
9045   <trkpt lat="49.1295200" lon="16.5547100">
9046    <ele>212.3</ele>
9047    <time>2016-01-06T10:15:40Z</time>
9048   </trkpt>
9049   <trkpt lat="49.1295880" lon="16.5546790">
9050    <ele>212.4</ele>
9051    <time>2016-01-06T10:15:42Z</time>
9052   </trkpt>
9053   <trkpt lat="49.1296240" lon="16.5546640">
9054    <ele>212.3</ele>
9055    <time>2016-01-06T10:15:43Z</time>
9056   </trkpt>
9057   <trkpt lat="49.1296860" lon="16.5546360">
9058    <ele>212.4</ele>
9059    <time>2016-01-06T10:15:45Z</time>
9060   </trkpt>
9061   <trkpt lat="49.1297210" lon="16.5546220">
9062    <ele>212.6</ele>
9063    <time>2016-01-06T10:15:46Z</time>
9064   </trkpt>
9065   <trkpt lat="49.1297660" lon="16.5545950">
9066    <ele>212.6</ele>
9067    <time>2016-01-06T10:15:48Z</time>
9068   </trkpt>
9069   <trkpt lat="49.1298050" lon="16.5545660">
9070    <ele>212.5</ele>
9071    <time>2016-01-06T10:15:50Z</time>
9072   </trkpt>
9073   <trkpt lat="49.1298460" lon="16.5545440">
9074    <ele>212.2</ele>
9075    <time>2016-01-06T10:15:52Z</time>
9076   </trkpt>
9077   <trkpt lat="49.1298820" lon="16.5545380">
9078    <ele>212.3</ele>
9079    <time>2016-01-06T10:15:54Z</time>
9080   </trkpt>
9081   <trkpt lat="49.1299220" lon="16.5545320">
9082    <ele>212.4</ele>
9083    <time>2016-01-06T10:15:56Z</time>
9084   </trkpt>
9085   <trkpt lat="49.1299550" lon="16.5545300">
9086    <ele>212.8</ele>
9087    <time>2016-01-06T10:15:59Z</time>
9088   </trkpt>
9089   <trkpt lat="49.1299970" lon="16.5545260">
9090    <ele>213.4</ele>
9091    <time>2016-01-06T10:16:03Z</time>
9092   </trkpt>
9093   <trkpt lat="49.1300240" lon="16.5545260">
9094    <ele>213.7</ele>
9095    <time>2016-01-06T10:16:05Z</time>
9096   </trkpt>
9097   <trkpt lat="49.1300630" lon="16.5545350">
9098    <ele>214.8</ele>
9099    <time>2016-01-06T10:16:08Z</time>
9100   </trkpt>
9101   <trkpt lat="49.1301000" lon="16.5545490">
9102    <ele>216.2</ele>
9103    <time>2016-01-06T10:16:11Z</time>
9104   </trkpt>
9105   <trkpt lat="49.1301290" lon="16.5545390">
9106    <ele>216.8</ele>
9107    <time>2016-01-06T10:16:13Z</time>
9108   </trkpt>
9109   <trkpt lat="49.1301820" lon="16.5545100">
9110    <ele>217.1</ele>
9111    <time>2016-01-06T10:16:15Z</time>
9112   </trkpt>
9113   <trkpt lat="49.1302390" lon="16.5544660">
9114    <ele>217.2</ele>
9115    <time>2016-01-06T10:16:17Z</time>
9116   </trkpt>
9117   <trkpt lat="49.1302880" lon="16.5544220">
9118    <ele>217.1</ele>
9119    <time>2016-01-06T10:16:19Z</time>
9120   </trkpt>
9121   <trkpt lat="49.1303300" lon="16.5543910">
9122    <ele>217.1</ele>
9123    <time>2016-01-06T10:16:21Z</time>
9124   </trkpt>
9125   <trkpt lat="49.1303680" lon="16.5543630">
9126    <ele>217.2</ele>
9127    <time>2016-01-06T10:16:23Z</time>
9128   </trkpt>
9129   <trkpt lat="49.1304180" lon="16.5543280">
9130    <ele>217.1</ele>
9131    <time>2016-01-06T10:16:25Z</time>
9132   </trkpt>
9133   <trkpt lat="49.1304470" lon="16.5543090">
9134    <ele>217.1</ele>
9135    <time>2016-01-06T10:16:26Z</time>
9136   </trkpt>
9137   <trkpt lat="49.1304760" lon="16.5542900">
9138    <ele>217.1</ele>
9139    <time>2016-01-06T10:16:27Z</time>
9140   </trkpt>
9141   <trkpt lat="49.1305290" lon="16.5542480">
9142    <ele>217.4</ele>
9143    <time>2016-01-06T10:16:29Z</time>
9144   </trkpt>
9145   <trkpt lat="49.1305530" lon="16.5542240">
9146    <ele>217.4</ele>
9147    <time>2016-01-06T10:16:30Z</time>
9148   </trkpt>
9149   <trkpt lat="49.1306120" lon="16.5541600">
9150    <ele>217.4</ele>
9151    <time>2016-01-06T10:16:32Z</time>
9152   </trkpt>
9153   <trkpt lat="49.1306570" lon="16.5541110">
9154    <ele>217.6</ele>
9155    <time>2016-01-06T10:16:34Z</time>
9156   </trkpt>
9157   <trkpt lat="49.1306950" lon="16.5540550">
9158    <ele>217.4</ele>
9159    <time>2016-01-06T10:16:36Z</time>
9160   </trkpt>
9161   <trkpt lat="49.1307210" lon="16.5539960">
9162    <ele>217.3</ele>
9163    <time>2016-01-06T10:16:38Z</time>
9164   </trkpt>
9165   <trkpt lat="49.1306620" lon="16.5539630">
9166    <ele>216.6</ele>
9167    <time>2016-01-06T10:16:59Z</time>
9168   </trkpt>
9169   <trkpt lat="49.1307040" lon="16.5539370">
9170    <ele>217.2</ele>
9171    <time>2016-01-06T10:17:05Z</time>
9172   </trkpt>
9173   <trkpt lat="49.1307420" lon="16.5539590">
9174    <ele>217.9</ele>
9175    <time>2016-01-06T10:17:15Z</time>
9176   </trkpt>
9177   <trkpt lat="49.1307440" lon="16.5540120">
9178    <ele>218.2</ele>
9179    <time>2016-01-06T10:17:19Z</time>
9180   </trkpt>
9181   <trkpt lat="49.1307640" lon="16.5539020">
9182    <ele>219.1</ele>
9183    <time>2016-01-06T10:17:38Z</time>
9184   </trkpt>
9185   <trkpt lat="49.1307440" lon="16.5538680">
9186    <ele>219.0</ele>
9187    <time>2016-01-06T10:17:44Z</time>
9188   </trkpt>
9189   <trkpt lat="49.1306990" lon="16.5539150">
9190    <ele>220.2</ele>
9191    <time>2016-01-06T10:18:35Z</time>
9192   </trkpt>
9193   <trkpt lat="49.1306780" lon="16.5538480">
9194    <ele>219.8</ele>
9195    <time>2016-01-06T10:18:39Z</time>
9196   </trkpt>
9197   <trkpt lat="49.1306630" lon="16.5537770">
9198    <ele>219.5</ele>
9199    <time>2016-01-06T10:18:41Z</time>
9200   </trkpt>
9201   <trkpt lat="49.1306550" lon="16.5537340">
9202    <ele>219.3</ele>
9203    <time>2016-01-06T10:18:42Z</time>
9204   </trkpt>
9205   <trkpt lat="49.1306370" lon="16.5536800">
9206    <ele>219.1</ele>
9207    <time>2016-01-06T10:18:43Z</time>
9208   </trkpt>
9209   <trkpt lat="49.1306060" lon="16.5535640">
9210    <ele>218.4</ele>
9211    <time>2016-01-06T10:18:45Z</time>
9212   </trkpt>
9213   <trkpt lat="49.1305680" lon="16.5534460">
9214    <ele>217.7</ele>
9215    <time>2016-01-06T10:18:47Z</time>
9216   </trkpt>
9217   <trkpt lat="49.1305510" lon="16.5533880">
9218    <ele>217.4</ele>
9219    <time>2016-01-06T10:18:48Z</time>
9220   </trkpt>
9221   <trkpt lat="49.1305360" lon="16.5533210">
9222    <ele>217.3</ele>
9223    <time>2016-01-06T10:18:49Z</time>
9224   </trkpt>
9225   <trkpt lat="49.1305090" lon="16.5532120">
9226    <ele>217.4</ele>
9227    <time>2016-01-06T10:18:51Z</time>
9228   </trkpt>
9229   <trkpt lat="49.1304870" lon="16.5531070">
9230    <ele>217.9</ele>
9231    <time>2016-01-06T10:18:53Z</time>
9232   </trkpt>
9233   <trkpt lat="49.1304770" lon="16.5530510">
9234    <ele>218.3</ele>
9235    <time>2016-01-06T10:18:54Z</time>
9236   </trkpt>
9237   <trkpt lat="49.1304720" lon="16.5530010">
9238    <ele>218.6</ele>
9239    <time>2016-01-06T10:18:55Z</time>
9240   </trkpt>
9241   <trkpt lat="49.1304660" lon="16.5529530">
9242    <ele>219.0</ele>
9243    <time>2016-01-06T10:18:56Z</time>
9244   </trkpt>
9245   <trkpt lat="49.1304610" lon="16.5529030">
9246    <ele>219.2</ele>
9247    <time>2016-01-06T10:18:57Z</time>
9248   </trkpt>
9249   <trkpt lat="49.1304680" lon="16.5528000">
9250    <ele>219.2</ele>
9251    <time>2016-01-06T10:18:59Z</time>
9252   </trkpt>
9253   <trkpt lat="49.1304840" lon="16.5527590">
9254    <ele>219.2</ele>
9255    <time>2016-01-06T10:19:00Z</time>
9256   </trkpt>
9257   <trkpt lat="49.1305160" lon="16.5526790">
9258    <ele>219.1</ele>
9259    <time>2016-01-06T10:19:02Z</time>
9260   </trkpt>
9261   <trkpt lat="49.1305290" lon="16.5526420">
9262    <ele>219.1</ele>
9263    <time>2016-01-06T10:19:03Z</time>
9264   </trkpt>
9265   <trkpt lat="49.1305450" lon="16.5525770">
9266    <ele>219.4</ele>
9267    <time>2016-01-06T10:19:05Z</time>
9268   </trkpt>
9269   <trkpt lat="49.1305650" lon="16.5525070">
9270    <ele>219.3</ele>
9271    <time>2016-01-06T10:19:07Z</time>
9272   </trkpt>
9273   <trkpt lat="49.1305840" lon="16.5524240">
9274    <ele>219.4</ele>
9275    <time>2016-01-06T10:19:09Z</time>
9276   </trkpt>
9277   <trkpt lat="49.1305940" lon="16.5523640">
9278    <ele>219.6</ele>
9279    <time>2016-01-06T10:19:10Z</time>
9280   </trkpt>
9281   <trkpt lat="49.1306040" lon="16.5522980">
9282    <ele>219.9</ele>
9283    <time>2016-01-06T10:19:11Z</time>
9284   </trkpt>
9285   <trkpt lat="49.1306090" lon="16.5522300">
9286    <ele>220.2</ele>
9287    <time>2016-01-06T10:19:12Z</time>
9288   </trkpt>
9289   <trkpt lat="49.1305940" lon="16.5521130">
9290    <ele>220.7</ele>
9291    <time>2016-01-06T10:19:14Z</time>
9292   </trkpt>
9293   <trkpt lat="49.1305850" lon="16.5520590">
9294    <ele>220.7</ele>
9295    <time>2016-01-06T10:19:15Z</time>
9296   </trkpt>
9297   <trkpt lat="49.1305650" lon="16.5519300">
9298    <ele>220.9</ele>
9299    <time>2016-01-06T10:19:17Z</time>
9300   </trkpt>
9301   <trkpt lat="49.1305510" lon="16.5518010">
9302    <ele>220.9</ele>
9303    <time>2016-01-06T10:19:19Z</time>
9304   </trkpt>
9305   <trkpt lat="49.1305490" lon="16.5517350">
9306    <ele>220.9</ele>
9307    <time>2016-01-06T10:19:20Z</time>
9308   </trkpt>
9309   <trkpt lat="49.1305380" lon="16.5516130">
9310    <ele>220.8</ele>
9311    <time>2016-01-06T10:19:22Z</time>
9312   </trkpt>
9313   <trkpt lat="49.1305360" lon="16.5515440">
9314    <ele>220.9</ele>
9315    <time>2016-01-06T10:19:23Z</time>
9316   </trkpt>
9317   <trkpt lat="49.1305280" lon="16.5514730">
9318    <ele>221.0</ele>
9319    <time>2016-01-06T10:19:24Z</time>
9320   </trkpt>
9321   <trkpt lat="49.1305160" lon="16.5513530">
9322    <ele>221.3</ele>
9323    <time>2016-01-06T10:19:26Z</time>
9324   </trkpt>
9325   <trkpt lat="49.1305090" lon="16.5512850">
9326    <ele>221.4</ele>
9327    <time>2016-01-06T10:19:27Z</time>
9328   </trkpt>
9329   <trkpt lat="49.1304900" lon="16.5511590">
9330    <ele>221.7</ele>
9331    <time>2016-01-06T10:19:29Z</time>
9332   </trkpt>
9333   <trkpt lat="49.1304620" lon="16.5510440">
9334    <ele>221.1</ele>
9335    <time>2016-01-06T10:19:31Z</time>
9336   </trkpt>
9337   <trkpt lat="49.1304490" lon="16.5509920">
9338    <ele>220.9</ele>
9339    <time>2016-01-06T10:19:32Z</time>
9340   </trkpt>
9341   <trkpt lat="49.1304060" lon="16.5508610">
9342    <ele>220.3</ele>
9343    <time>2016-01-06T10:19:34Z</time>
9344   </trkpt>
9345   <trkpt lat="49.1303670" lon="16.5508050">
9346    <ele>220.1</ele>
9347    <time>2016-01-06T10:19:35Z</time>
9348   </trkpt>
9349   <trkpt lat="49.1302860" lon="16.5507140">
9350    <ele>219.6</ele>
9351    <time>2016-01-06T10:19:37Z</time>
9352   </trkpt>
9353   <trkpt lat="49.1302070" lon="16.5506210">
9354    <ele>219.1</ele>
9355    <time>2016-01-06T10:19:39Z</time>
9356   </trkpt>
9357   <trkpt lat="49.1301720" lon="16.5505790">
9358    <ele>219.0</ele>
9359    <time>2016-01-06T10:19:40Z</time>
9360   </trkpt>
9361   <trkpt lat="49.1301380" lon="16.5505360">
9362    <ele>219.0</ele>
9363    <time>2016-01-06T10:19:41Z</time>
9364   </trkpt>
9365   <trkpt lat="49.1301060" lon="16.5504870">
9366    <ele>218.8</ele>
9367    <time>2016-01-06T10:19:42Z</time>
9368   </trkpt>
9369   <trkpt lat="49.1300370" lon="16.5503760">
9370    <ele>218.5</ele>
9371    <time>2016-01-06T10:19:44Z</time>
9372   </trkpt>
9373   <trkpt lat="49.1299670" lon="16.5502690">
9374    <ele>218.8</ele>
9375    <time>2016-01-06T10:19:46Z</time>
9376   </trkpt>
9377   <trkpt lat="49.1299250" lon="16.5501330">
9378    <ele>218.5</ele>
9379    <time>2016-01-06T10:19:48Z</time>
9380   </trkpt>
9381   <trkpt lat="49.1299040" lon="16.5500520">
9382    <ele>218.6</ele>
9383    <time>2016-01-06T10:19:49Z</time>
9384   </trkpt>
9385   <trkpt lat="49.1298870" lon="16.5499770">
9386    <ele>218.8</ele>
9387    <time>2016-01-06T10:19:50Z</time>
9388   </trkpt>
9389   <trkpt lat="49.1298600" lon="16.5498470">
9390    <ele>219.2</ele>
9391    <time>2016-01-06T10:19:52Z</time>
9392   </trkpt>
9393   <trkpt lat="49.1298280" lon="16.5497220">
9394    <ele>219.3</ele>
9395    <time>2016-01-06T10:19:54Z</time>
9396   </trkpt>
9397   <trkpt lat="49.1298160" lon="16.5496610">
9398    <ele>219.3</ele>
9399    <time>2016-01-06T10:19:55Z</time>
9400   </trkpt>
9401   <trkpt lat="49.1298070" lon="16.5496070">
9402    <ele>219.3</ele>
9403    <time>2016-01-06T10:19:56Z</time>
9404   </trkpt>
9405   <trkpt lat="49.1297980" lon="16.5495440">
9406    <ele>219.2</ele>
9407    <time>2016-01-06T10:19:57Z</time>
9408   </trkpt>
9409   <trkpt lat="49.1297840" lon="16.5494360">
9410    <ele>219.3</ele>
9411    <time>2016-01-06T10:19:59Z</time>
9412   </trkpt>
9413   <trkpt lat="49.1297770" lon="16.5493910">
9414    <ele>219.2</ele>
9415    <time>2016-01-06T10:20:00Z</time>
9416   </trkpt>
9417   <trkpt lat="49.1297550" lon="16.5492920">
9418    <ele>219.2</ele>
9419    <time>2016-01-06T10:20:02Z</time>
9420   </trkpt>
9421   <trkpt lat="49.1297380" lon="16.5492220">
9422    <ele>219.1</ele>
9423    <time>2016-01-06T10:20:03Z</time>
9424   </trkpt>
9425   <trkpt lat="49.1297230" lon="16.5491510">
9426    <ele>219.1</ele>
9427    <time>2016-01-06T10:20:04Z</time>
9428   </trkpt>
9429   <trkpt lat="49.1297080" lon="16.5490860">
9430    <ele>219.1</ele>
9431    <time>2016-01-06T10:20:05Z</time>
9432   </trkpt>
9433   <trkpt lat="49.1296930" lon="16.5490110">
9434    <ele>219.3</ele>
9435    <time>2016-01-06T10:20:06Z</time>
9436   </trkpt>
9437   <trkpt lat="49.1296640" lon="16.5488790">
9438    <ele>219.9</ele>
9439    <time>2016-01-06T10:20:08Z</time>
9440   </trkpt>
9441   <trkpt lat="49.1296530" lon="16.5488190">
9442    <ele>220.3</ele>
9443    <time>2016-01-06T10:20:09Z</time>
9444   </trkpt>
9445   <trkpt lat="49.1296430" lon="16.5487690">
9446    <ele>220.6</ele>
9447    <time>2016-01-06T10:20:10Z</time>
9448   </trkpt>
9449   <trkpt lat="49.1296160" lon="16.5486620">
9450    <ele>220.3</ele>
9451    <time>2016-01-06T10:20:12Z</time>
9452   </trkpt>
9453   <trkpt lat="49.1295900" lon="16.5485470">
9454    <ele>220.0</ele>
9455    <time>2016-01-06T10:20:14Z</time>
9456   </trkpt>
9457   <trkpt lat="49.1295760" lon="16.5484810">
9458    <ele>219.9</ele>
9459    <time>2016-01-06T10:20:15Z</time>
9460   </trkpt>
9461   <trkpt lat="49.1295380" lon="16.5483810">
9462    <ele>219.1</ele>
9463    <time>2016-01-06T10:20:17Z</time>
9464   </trkpt>
9465   <trkpt lat="49.1295220" lon="16.5483290">
9466    <ele>218.6</ele>
9467    <time>2016-01-06T10:20:18Z</time>
9468   </trkpt>
9469   <trkpt lat="49.1295050" lon="16.5482780">
9470    <ele>218.4</ele>
9471    <time>2016-01-06T10:20:19Z</time>
9472   </trkpt>
9473   <trkpt lat="49.1294910" lon="16.5482210">
9474    <ele>218.4</ele>
9475    <time>2016-01-06T10:20:20Z</time>
9476   </trkpt>
9477   <trkpt lat="49.1294780" lon="16.5481660">
9478    <ele>218.4</ele>
9479    <time>2016-01-06T10:20:21Z</time>
9480   </trkpt>
9481   <trkpt lat="49.1294630" lon="16.5480910">
9482    <ele>218.8</ele>
9483    <time>2016-01-06T10:20:23Z</time>
9484   </trkpt>
9485   <trkpt lat="49.1294560" lon="16.5480150">
9486    <ele>219.7</ele>
9487    <time>2016-01-06T10:20:25Z</time>
9488   </trkpt>
9489   <trkpt lat="49.1294440" lon="16.5479420">
9490    <ele>220.4</ele>
9491    <time>2016-01-06T10:20:27Z</time>
9492   </trkpt>
9493   <trkpt lat="49.1294390" lon="16.5478620">
9494    <ele>221.0</ele>
9495    <time>2016-01-06T10:20:29Z</time>
9496   </trkpt>
9497   <trkpt lat="49.1294340" lon="16.5478190">
9498    <ele>221.3</ele>
9499    <time>2016-01-06T10:20:30Z</time>
9500   </trkpt>
9501   <trkpt lat="49.1294210" lon="16.5477430">
9502    <ele>222.0</ele>
9503    <time>2016-01-06T10:20:32Z</time>
9504   </trkpt>
9505   <trkpt lat="49.1294110" lon="16.5476580">
9506    <ele>222.2</ele>
9507    <time>2016-01-06T10:20:34Z</time>
9508   </trkpt>
9509   <trkpt lat="49.1293990" lon="16.5475890">
9510    <ele>222.7</ele>
9511    <time>2016-01-06T10:20:36Z</time>
9512   </trkpt>
9513   <trkpt lat="49.1293920" lon="16.5475150">
9514    <ele>223.3</ele>
9515    <time>2016-01-06T10:20:38Z</time>
9516   </trkpt>
9517   <trkpt lat="49.1293920" lon="16.5474410">
9518    <ele>223.9</ele>
9519    <time>2016-01-06T10:20:40Z</time>
9520   </trkpt>
9521   <trkpt lat="49.1293930" lon="16.5473760">
9522    <ele>224.6</ele>
9523    <time>2016-01-06T10:20:42Z</time>
9524   </trkpt>
9525   <trkpt lat="49.1293880" lon="16.5473150">
9526    <ele>225.3</ele>
9527    <time>2016-01-06T10:20:44Z</time>
9528   </trkpt>
9529   <trkpt lat="49.1293680" lon="16.5472310">
9530    <ele>225.3</ele>
9531    <time>2016-01-06T10:20:46Z</time>
9532   </trkpt>
9533   <trkpt lat="49.1293450" lon="16.5471570">
9534    <ele>225.3</ele>
9535    <time>2016-01-06T10:20:48Z</time>
9536   </trkpt>
9537   <trkpt lat="49.1293170" lon="16.5470860">
9538    <ele>225.6</ele>
9539    <time>2016-01-06T10:20:50Z</time>
9540   </trkpt>
9541   <trkpt lat="49.1292830" lon="16.5470050">
9542    <ele>225.6</ele>
9543    <time>2016-01-06T10:20:52Z</time>
9544   </trkpt>
9545   <trkpt lat="49.1292530" lon="16.5469280">
9546    <ele>225.7</ele>
9547    <time>2016-01-06T10:20:54Z</time>
9548   </trkpt>
9549   <trkpt lat="49.1292150" lon="16.5468420">
9550    <ele>225.7</ele>
9551    <time>2016-01-06T10:20:56Z</time>
9552   </trkpt>
9553   <trkpt lat="49.1291960" lon="16.5468000">
9554    <ele>225.2</ele>
9555    <time>2016-01-06T10:20:57Z</time>
9556   </trkpt>
9557   <trkpt lat="49.1291560" lon="16.5467050">
9558    <ele>224.8</ele>
9559    <time>2016-01-06T10:20:59Z</time>
9560   </trkpt>
9561   <trkpt lat="49.1291300" lon="16.5466520">
9562    <ele>224.9</ele>
9563    <time>2016-01-06T10:21:00Z</time>
9564   </trkpt>
9565   <trkpt lat="49.1291080" lon="16.5466030">
9566    <ele>224.8</ele>
9567    <time>2016-01-06T10:21:01Z</time>
9568   </trkpt>
9569   <trkpt lat="49.1290820" lon="16.5465420">
9570    <ele>224.7</ele>
9571    <time>2016-01-06T10:21:02Z</time>
9572   </trkpt>
9573   <trkpt lat="49.1290160" lon="16.5464050">
9574    <ele>224.2</ele>
9575    <time>2016-01-06T10:21:04Z</time>
9576   </trkpt>
9577   <trkpt lat="49.1289820" lon="16.5463360">
9578    <ele>223.8</ele>
9579    <time>2016-01-06T10:21:05Z</time>
9580   </trkpt>
9581   <trkpt lat="49.1289500" lon="16.5462710">
9582    <ele>223.4</ele>
9583    <time>2016-01-06T10:21:06Z</time>
9584   </trkpt>
9585   <trkpt lat="49.1289220" lon="16.5462140">
9586    <ele>223.4</ele>
9587    <time>2016-01-06T10:21:07Z</time>
9588   </trkpt>
9589   <trkpt lat="49.1288650" lon="16.5461020">
9590    <ele>223.9</ele>
9591    <time>2016-01-06T10:21:09Z</time>
9592   </trkpt>
9593   <trkpt lat="49.1287950" lon="16.5459920">
9594    <ele>224.3</ele>
9595    <time>2016-01-06T10:21:11Z</time>
9596   </trkpt>
9597   <trkpt lat="49.1287550" lon="16.5459390">
9598    <ele>224.4</ele>
9599    <time>2016-01-06T10:21:12Z</time>
9600   </trkpt>
9601   <trkpt lat="49.1286800" lon="16.5458320">
9602    <ele>224.5</ele>
9603    <time>2016-01-06T10:21:14Z</time>
9604   </trkpt>
9605   <trkpt lat="49.1286410" lon="16.5457780">
9606    <ele>224.4</ele>
9607    <time>2016-01-06T10:21:15Z</time>
9608   </trkpt>
9609   <trkpt lat="49.1286080" lon="16.5457300">
9610    <ele>224.2</ele>
9611    <time>2016-01-06T10:21:16Z</time>
9612   </trkpt>
9613   <trkpt lat="49.1285820" lon="16.5456870">
9614    <ele>223.8</ele>
9615    <time>2016-01-06T10:21:17Z</time>
9616   </trkpt>
9617   <trkpt lat="49.1285070" lon="16.5455810">
9618    <ele>223.3</ele>
9619    <time>2016-01-06T10:21:19Z</time>
9620   </trkpt>
9621   <trkpt lat="49.1284690" lon="16.5455310">
9622    <ele>223.0</ele>
9623    <time>2016-01-06T10:21:20Z</time>
9624   </trkpt>
9625   <trkpt lat="49.1283930" lon="16.5454190">
9626    <ele>222.6</ele>
9627    <time>2016-01-06T10:21:22Z</time>
9628   </trkpt>
9629   <trkpt lat="49.1283320" lon="16.5453310">
9630    <ele>221.9</ele>
9631    <time>2016-01-06T10:21:24Z</time>
9632   </trkpt>
9633   <trkpt lat="49.1282670" lon="16.5452200">
9634    <ele>222.5</ele>
9635    <time>2016-01-06T10:21:26Z</time>
9636   </trkpt>
9637   <trkpt lat="49.1282300" lon="16.5451530">
9638    <ele>223.1</ele>
9639    <time>2016-01-06T10:21:27Z</time>
9640   </trkpt>
9641   <trkpt lat="49.1281740" lon="16.5450460">
9642    <ele>224.4</ele>
9643    <time>2016-01-06T10:21:29Z</time>
9644   </trkpt>
9645   <trkpt lat="49.1281190" lon="16.5449400">
9646    <ele>225.3</ele>
9647    <time>2016-01-06T10:21:31Z</time>
9648   </trkpt>
9649   <trkpt lat="49.1280610" lon="16.5448190">
9650    <ele>225.9</ele>
9651    <time>2016-01-06T10:21:33Z</time>
9652   </trkpt>
9653   <trkpt lat="49.1280180" lon="16.5447120">
9654    <ele>226.0</ele>
9655    <time>2016-01-06T10:21:35Z</time>
9656   </trkpt>
9657   <trkpt lat="49.1280090" lon="16.5446560">
9658    <ele>225.8</ele>
9659    <time>2016-01-06T10:21:36Z</time>
9660   </trkpt>
9661   <trkpt lat="49.1279960" lon="16.5446060">
9662    <ele>225.4</ele>
9663    <time>2016-01-06T10:21:37Z</time>
9664   </trkpt>
9665   <trkpt lat="49.1279770" lon="16.5444960">
9666    <ele>224.6</ele>
9667    <time>2016-01-06T10:21:39Z</time>
9668   </trkpt>
9669   <trkpt lat="49.1279660" lon="16.5443710">
9670    <ele>223.1</ele>
9671    <time>2016-01-06T10:21:41Z</time>
9672   </trkpt>
9673   <trkpt lat="49.1279690" lon="16.5443100">
9674    <ele>222.4</ele>
9675    <time>2016-01-06T10:21:42Z</time>
9676   </trkpt>
9677   <trkpt lat="49.1279710" lon="16.5441850">
9678    <ele>221.4</ele>
9679    <time>2016-01-06T10:21:44Z</time>
9680   </trkpt>
9681   <trkpt lat="49.1279860" lon="16.5440790">
9682    <ele>221.0</ele>
9683    <time>2016-01-06T10:21:46Z</time>
9684   </trkpt>
9685   <trkpt lat="49.1280230" lon="16.5439650">
9686    <ele>221.2</ele>
9687    <time>2016-01-06T10:21:48Z</time>
9688   </trkpt>
9689   <trkpt lat="49.1280690" lon="16.5438360">
9690    <ele>221.2</ele>
9691    <time>2016-01-06T10:21:50Z</time>
9692   </trkpt>
9693   <trkpt lat="49.1281200" lon="16.5437110">
9694    <ele>221.4</ele>
9695    <time>2016-01-06T10:21:52Z</time>
9696   </trkpt>
9697   <trkpt lat="49.1281390" lon="16.5436600">
9698    <ele>221.4</ele>
9699    <time>2016-01-06T10:21:53Z</time>
9700   </trkpt>
9701   <trkpt lat="49.1281820" lon="16.5435370">
9702    <ele>221.3</ele>
9703    <time>2016-01-06T10:21:55Z</time>
9704   </trkpt>
9705   <trkpt lat="49.1282170" lon="16.5434330">
9706    <ele>220.8</ele>
9707    <time>2016-01-06T10:21:57Z</time>
9708   </trkpt>
9709   <trkpt lat="49.1282330" lon="16.5433820">
9710    <ele>220.7</ele>
9711    <time>2016-01-06T10:21:58Z</time>
9712   </trkpt>
9713   <trkpt lat="49.1282760" lon="16.5432800">
9714    <ele>220.7</ele>
9715    <time>2016-01-06T10:22:00Z</time>
9716   </trkpt>
9717   <trkpt lat="49.1283040" lon="16.5432180">
9718    <ele>220.6</ele>
9719    <time>2016-01-06T10:22:01Z</time>
9720   </trkpt>
9721   <trkpt lat="49.1283300" lon="16.5431570">
9722    <ele>220.6</ele>
9723    <time>2016-01-06T10:22:02Z</time>
9724   </trkpt>
9725   <trkpt lat="49.1283870" lon="16.5430350">
9726    <ele>220.4</ele>
9727    <time>2016-01-06T10:22:04Z</time>
9728   </trkpt>
9729   <trkpt lat="49.1284510" lon="16.5429330">
9730    <ele>220.5</ele>
9731    <time>2016-01-06T10:22:06Z</time>
9732   </trkpt>
9733   <trkpt lat="49.1284820" lon="16.5428920">
9734    <ele>220.4</ele>
9735    <time>2016-01-06T10:22:07Z</time>
9736   </trkpt>
9737   <trkpt lat="49.1285490" lon="16.5428190">
9738    <ele>220.5</ele>
9739    <time>2016-01-06T10:22:09Z</time>
9740   </trkpt>
9741   <trkpt lat="49.1286110" lon="16.5427250">
9742    <ele>220.7</ele>
9743    <time>2016-01-06T10:22:11Z</time>
9744   </trkpt>
9745   <trkpt lat="49.1286740" lon="16.5426320">
9746    <ele>220.7</ele>
9747    <time>2016-01-06T10:22:14Z</time>
9748   </trkpt>
9749   <trkpt lat="49.1287310" lon="16.5425350">
9750    <ele>220.7</ele>
9751    <time>2016-01-06T10:22:15Z</time>
9752   </trkpt>
9753   <trkpt lat="49.1287850" lon="16.5424420">
9754    <ele>220.7</ele>
9755    <time>2016-01-06T10:22:17Z</time>
9756   </trkpt>
9757   <trkpt lat="49.1288080" lon="16.5423980">
9758    <ele>220.7</ele>
9759    <time>2016-01-06T10:22:18Z</time>
9760   </trkpt>
9761   <trkpt lat="49.1288320" lon="16.5423510">
9762    <ele>220.8</ele>
9763    <time>2016-01-06T10:22:19Z</time>
9764   </trkpt>
9765   <trkpt lat="49.1288590" lon="16.5423000">
9766    <ele>220.9</ele>
9767    <time>2016-01-06T10:22:20Z</time>
9768   </trkpt>
9769   <trkpt lat="49.1289160" lon="16.5421920">
9770    <ele>220.9</ele>
9771    <time>2016-01-06T10:22:22Z</time>
9772   </trkpt>
9773   <trkpt lat="49.1289440" lon="16.5421400">
9774    <ele>221.2</ele>
9775    <time>2016-01-06T10:22:23Z</time>
9776   </trkpt>
9777   <trkpt lat="49.1290070" lon="16.5420090">
9778    <ele>221.8</ele>
9779    <time>2016-01-06T10:22:25Z</time>
9780   </trkpt>
9781   <trkpt lat="49.1290370" lon="16.5419450">
9782    <ele>221.9</ele>
9783    <time>2016-01-06T10:22:26Z</time>
9784   </trkpt>
9785   <trkpt lat="49.1290660" lon="16.5418840">
9786    <ele>221.7</ele>
9787    <time>2016-01-06T10:22:27Z</time>
9788   </trkpt>
9789   <trkpt lat="49.1290920" lon="16.5418180">
9790    <ele>221.7</ele>
9791    <time>2016-01-06T10:22:28Z</time>
9792   </trkpt>
9793   <trkpt lat="49.1291200" lon="16.5417560">
9794    <ele>221.8</ele>
9795    <time>2016-01-06T10:22:29Z</time>
9796   </trkpt>
9797   <trkpt lat="49.1291660" lon="16.5416230">
9798    <ele>221.3</ele>
9799    <time>2016-01-06T10:22:31Z</time>
9800   </trkpt>
9801   <trkpt lat="49.1292250" lon="16.5415180">
9802    <ele>221.2</ele>
9803    <time>2016-01-06T10:22:33Z</time>
9804   </trkpt>
9805   <trkpt lat="49.1292890" lon="16.5414230">
9806    <ele>220.9</ele>
9807    <time>2016-01-06T10:22:35Z</time>
9808   </trkpt>
9809   <trkpt lat="49.1293190" lon="16.5413720">
9810    <ele>220.8</ele>
9811    <time>2016-01-06T10:22:36Z</time>
9812   </trkpt>
9813   <trkpt lat="49.1293510" lon="16.5413300">
9814    <ele>220.8</ele>
9815    <time>2016-01-06T10:22:37Z</time>
9816   </trkpt>
9817   <trkpt lat="49.1293960" lon="16.5412600">
9818    <ele>221.0</ele>
9819    <time>2016-01-06T10:22:39Z</time>
9820   </trkpt>
9821   <trkpt lat="49.1294280" lon="16.5412040">
9822    <ele>221.1</ele>
9823    <time>2016-01-06T10:22:41Z</time>
9824   </trkpt>
9825   <trkpt lat="49.1294420" lon="16.5411680">
9826    <ele>221.2</ele>
9827    <time>2016-01-06T10:22:42Z</time>
9828   </trkpt>
9829   <trkpt lat="49.1294800" lon="16.5410590">
9830    <ele>221.5</ele>
9831    <time>2016-01-06T10:22:44Z</time>
9832   </trkpt>
9833   <trkpt lat="49.1295030" lon="16.5410110">
9834    <ele>221.5</ele>
9835    <time>2016-01-06T10:22:45Z</time>
9836   </trkpt>
9837   <trkpt lat="49.1295180" lon="16.5409760">
9838    <ele>221.4</ele>
9839    <time>2016-01-06T10:22:46Z</time>
9840   </trkpt>
9841   <trkpt lat="49.1295350" lon="16.5409430">
9842    <ele>221.2</ele>
9843    <time>2016-01-06T10:22:47Z</time>
9844   </trkpt>
9845   <trkpt lat="49.1295740" lon="16.5408890">
9846    <ele>221.1</ele>
9847    <time>2016-01-06T10:22:49Z</time>
9848   </trkpt>
9849   <trkpt lat="49.1296000" lon="16.5408600">
9850    <ele>221.2</ele>
9851    <time>2016-01-06T10:22:50Z</time>
9852   </trkpt>
9853   <trkpt lat="49.1296570" lon="16.5407930">
9854    <ele>221.4</ele>
9855    <time>2016-01-06T10:22:52Z</time>
9856   </trkpt>
9857   <trkpt lat="49.1297140" lon="16.5407280">
9858    <ele>222.1</ele>
9859    <time>2016-01-06T10:22:54Z</time>
9860   </trkpt>
9861   <trkpt lat="49.1297400" lon="16.5406910">
9862    <ele>222.6</ele>
9863    <time>2016-01-06T10:22:55Z</time>
9864   </trkpt>
9865   <trkpt lat="49.1297810" lon="16.5406290">
9866    <ele>223.1</ele>
9867    <time>2016-01-06T10:22:57Z</time>
9868   </trkpt>
9869   <trkpt lat="49.1298210" lon="16.5405770">
9870    <ele>223.5</ele>
9871    <time>2016-01-06T10:22:59Z</time>
9872   </trkpt>
9873   <trkpt lat="49.1298460" lon="16.5405390">
9874    <ele>223.7</ele>
9875    <time>2016-01-06T10:23:00Z</time>
9876   </trkpt>
9877   <trkpt lat="49.1298690" lon="16.5405050">
9878    <ele>223.9</ele>
9879    <time>2016-01-06T10:23:01Z</time>
9880   </trkpt>
9881   <trkpt lat="49.1298900" lon="16.5404760">
9882    <ele>224.1</ele>
9883    <time>2016-01-06T10:23:02Z</time>
9884   </trkpt>
9885   <trkpt lat="49.1299340" lon="16.5404190">
9886    <ele>224.4</ele>
9887    <time>2016-01-06T10:23:04Z</time>
9888   </trkpt>
9889   <trkpt lat="49.1299780" lon="16.5403770">
9890    <ele>224.7</ele>
9891    <time>2016-01-06T10:23:06Z</time>
9892   </trkpt>
9893   <trkpt lat="49.1300170" lon="16.5403350">
9894    <ele>225.2</ele>
9895    <time>2016-01-06T10:23:08Z</time>
9896   </trkpt>
9897   <trkpt lat="49.1300540" lon="16.5402870">
9898    <ele>225.7</ele>
9899    <time>2016-01-06T10:23:10Z</time>
9900   </trkpt>
9901   <trkpt lat="49.1300890" lon="16.5402310">
9902    <ele>225.8</ele>
9903    <time>2016-01-06T10:23:12Z</time>
9904   </trkpt>
9905   <trkpt lat="49.1301330" lon="16.5401480">
9906    <ele>226.1</ele>
9907    <time>2016-01-06T10:23:14Z</time>
9908   </trkpt>
9909   <trkpt lat="49.1301740" lon="16.5400520">
9910    <ele>226.5</ele>
9911    <time>2016-01-06T10:23:16Z</time>
9912   </trkpt>
9913   <trkpt lat="49.1301920" lon="16.5400030">
9914    <ele>226.8</ele>
9915    <time>2016-01-06T10:23:17Z</time>
9916   </trkpt>
9917   <trkpt lat="49.1302140" lon="16.5399530">
9918    <ele>226.8</ele>
9919    <time>2016-01-06T10:23:18Z</time>
9920   </trkpt>
9921   <trkpt lat="49.1302520" lon="16.5398530">
9922    <ele>226.9</ele>
9923    <time>2016-01-06T10:23:20Z</time>
9924   </trkpt>
9925   <trkpt lat="49.1302990" lon="16.5397600">
9926    <ele>227.0</ele>
9927    <time>2016-01-06T10:23:22Z</time>
9928   </trkpt>
9929   <trkpt lat="49.1303570" lon="16.5396590">
9930    <ele>227.1</ele>
9931    <time>2016-01-06T10:23:24Z</time>
9932   </trkpt>
9933   <trkpt lat="49.1304220" lon="16.5395440">
9934    <ele>226.8</ele>
9935    <time>2016-01-06T10:23:26Z</time>
9936   </trkpt>
9937   <trkpt lat="49.1304760" lon="16.5394540">
9938    <ele>226.5</ele>
9939    <time>2016-01-06T10:23:28Z</time>
9940   </trkpt>
9941   <trkpt lat="49.1305050" lon="16.5394070">
9942    <ele>226.3</ele>
9943    <time>2016-01-06T10:23:29Z</time>
9944   </trkpt>
9945   <trkpt lat="49.1305350" lon="16.5393620">
9946    <ele>226.0</ele>
9947    <time>2016-01-06T10:23:30Z</time>
9948   </trkpt>
9949   <trkpt lat="49.1305920" lon="16.5392670">
9950    <ele>225.8</ele>
9951    <time>2016-01-06T10:23:32Z</time>
9952   </trkpt>
9953   <trkpt lat="49.1306150" lon="16.5392160">
9954    <ele>225.8</ele>
9955    <time>2016-01-06T10:23:33Z</time>
9956   </trkpt>
9957   <trkpt lat="49.1306420" lon="16.5391610">
9958    <ele>225.9</ele>
9959    <time>2016-01-06T10:23:34Z</time>
9960   </trkpt>
9961   <trkpt lat="49.1306720" lon="16.5391040">
9962    <ele>225.9</ele>
9963    <time>2016-01-06T10:23:35Z</time>
9964   </trkpt>
9965   <trkpt lat="49.1306990" lon="16.5390460">
9966    <ele>225.7</ele>
9967    <time>2016-01-06T10:23:36Z</time>
9968   </trkpt>
9969   <trkpt lat="49.1307250" lon="16.5389850">
9970    <ele>225.5</ele>
9971    <time>2016-01-06T10:23:37Z</time>
9972   </trkpt>
9973   <trkpt lat="49.1307550" lon="16.5389250">
9974    <ele>225.4</ele>
9975    <time>2016-01-06T10:23:38Z</time>
9976   </trkpt>
9977   <trkpt lat="49.1308130" lon="16.5387940">
9978    <ele>225.4</ele>
9979    <time>2016-01-06T10:23:40Z</time>
9980   </trkpt>
9981   <trkpt lat="49.1308710" lon="16.5386730">
9982    <ele>225.2</ele>
9983    <time>2016-01-06T10:23:42Z</time>
9984   </trkpt>
9985   <trkpt lat="49.1308970" lon="16.5386150">
9986    <ele>225.2</ele>
9987    <time>2016-01-06T10:23:43Z</time>
9988   </trkpt>
9989   <trkpt lat="49.1309220" lon="16.5385560">
9990    <ele>225.0</ele>
9991    <time>2016-01-06T10:23:44Z</time>
9992   </trkpt>
9993   <trkpt lat="49.1309500" lon="16.5384990">
9994    <ele>224.9</ele>
9995    <time>2016-01-06T10:23:45Z</time>
9996   </trkpt>
9997   <trkpt lat="49.1309850" lon="16.5384300">
9998    <ele>224.8</ele>
9999    <time>2016-01-06T10:23:46Z</time>
10000   </trkpt>
10001   <trkpt lat="49.1310200" lon="16.5383620">
10002    <ele>224.5</ele>
10003    <time>2016-01-06T10:23:47Z</time>
10004   </trkpt>
10005   <trkpt lat="49.1310950" lon="16.5382320">
10006    <ele>224.1</ele>
10007    <time>2016-01-06T10:23:49Z</time>
10008   </trkpt>
10009   <trkpt lat="49.1311260" lon="16.5381790">
10010    <ele>224.2</ele>
10011    <time>2016-01-06T10:23:50Z</time>
10012   </trkpt>
10013   <trkpt lat="49.1311540" lon="16.5381330">
10014    <ele>224.4</ele>
10015    <time>2016-01-06T10:23:51Z</time>
10016   </trkpt>
10017   <trkpt lat="49.1311790" lon="16.5380890">
10018    <ele>224.6</ele>
10019    <time>2016-01-06T10:23:52Z</time>
10020   </trkpt>
10021   <trkpt lat="49.1312380" lon="16.5379930">
10022    <ele>224.3</ele>
10023    <time>2016-01-06T10:23:54Z</time>
10024   </trkpt>
10025   <trkpt lat="49.1312680" lon="16.5379410">
10026    <ele>224.1</ele>
10027    <time>2016-01-06T10:23:55Z</time>
10028   </trkpt>
10029   <trkpt lat="49.1313040" lon="16.5378830">
10030    <ele>223.9</ele>
10031    <time>2016-01-06T10:23:56Z</time>
10032   </trkpt>
10033   <trkpt lat="49.1313720" lon="16.5377630">
10034    <ele>223.9</ele>
10035    <time>2016-01-06T10:23:58Z</time>
10036   </trkpt>
10037   <trkpt lat="49.1314390" lon="16.5376450">
10038    <ele>223.8</ele>
10039    <time>2016-01-06T10:24:00Z</time>
10040   </trkpt>
10041   <trkpt lat="49.1314760" lon="16.5375760">
10042    <ele>223.8</ele>
10043    <time>2016-01-06T10:24:01Z</time>
10044   </trkpt>
10045   <trkpt lat="49.1315350" lon="16.5374520">
10046    <ele>223.5</ele>
10047    <time>2016-01-06T10:24:03Z</time>
10048   </trkpt>
10049   <trkpt lat="49.1315580" lon="16.5373990">
10050    <ele>223.4</ele>
10051    <time>2016-01-06T10:24:04Z</time>
10052   </trkpt>
10053   <trkpt lat="49.1316040" lon="16.5373030">
10054    <ele>222.9</ele>
10055    <time>2016-01-06T10:24:06Z</time>
10056   </trkpt>
10057   <trkpt lat="49.1316300" lon="16.5372480">
10058    <ele>222.7</ele>
10059    <time>2016-01-06T10:24:07Z</time>
10060   </trkpt>
10061   <trkpt lat="49.1316830" lon="16.5371230">
10062    <ele>222.3</ele>
10063    <time>2016-01-06T10:24:09Z</time>
10064   </trkpt>
10065   <trkpt lat="49.1317100" lon="16.5370610">
10066    <ele>222.2</ele>
10067    <time>2016-01-06T10:24:10Z</time>
10068   </trkpt>
10069   <trkpt lat="49.1317320" lon="16.5369950">
10070    <ele>222.1</ele>
10071    <time>2016-01-06T10:24:11Z</time>
10072   </trkpt>
10073   <trkpt lat="49.1317720" lon="16.5368850">
10074    <ele>222.2</ele>
10075    <time>2016-01-06T10:24:13Z</time>
10076   </trkpt>
10077   <trkpt lat="49.1318210" lon="16.5367780">
10078    <ele>222.3</ele>
10079    <time>2016-01-06T10:24:15Z</time>
10080   </trkpt>
10081   <trkpt lat="49.1318440" lon="16.5367360">
10082    <ele>222.4</ele>
10083    <time>2016-01-06T10:24:16Z</time>
10084   </trkpt>
10085   <trkpt lat="49.1318900" lon="16.5366460">
10086    <ele>222.8</ele>
10087    <time>2016-01-06T10:24:18Z</time>
10088   </trkpt>
10089   <trkpt lat="49.1319440" lon="16.5365290">
10090    <ele>223.5</ele>
10091    <time>2016-01-06T10:24:20Z</time>
10092   </trkpt>
10093   <trkpt lat="49.1319740" lon="16.5364730">
10094    <ele>223.7</ele>
10095    <time>2016-01-06T10:24:21Z</time>
10096   </trkpt>
10097   <trkpt lat="49.1320050" lon="16.5364070">
10098    <ele>223.9</ele>
10099    <time>2016-01-06T10:24:22Z</time>
10100   </trkpt>
10101   <trkpt lat="49.1320580" lon="16.5362990">
10102    <ele>223.8</ele>
10103    <time>2016-01-06T10:24:24Z</time>
10104   </trkpt>
10105   <trkpt lat="49.1320840" lon="16.5362520">
10106    <ele>223.8</ele>
10107    <time>2016-01-06T10:24:25Z</time>
10108   </trkpt>
10109   <trkpt lat="49.1321320" lon="16.5361740">
10110    <ele>224.3</ele>
10111    <time>2016-01-06T10:24:27Z</time>
10112   </trkpt>
10113   <trkpt lat="49.1321770" lon="16.5360990">
10114    <ele>224.1</ele>
10115    <time>2016-01-06T10:24:29Z</time>
10116   </trkpt>
10117   <trkpt lat="49.1322180" lon="16.5360140">
10118    <ele>224.3</ele>
10119    <time>2016-01-06T10:24:31Z</time>
10120   </trkpt>
10121   <trkpt lat="49.1322400" lon="16.5359680">
10122    <ele>224.5</ele>
10123    <time>2016-01-06T10:24:32Z</time>
10124   </trkpt>
10125   <trkpt lat="49.1322820" lon="16.5358720">
10126    <ele>224.8</ele>
10127    <time>2016-01-06T10:24:34Z</time>
10128   </trkpt>
10129   <trkpt lat="49.1322960" lon="16.5358350">
10130    <ele>224.8</ele>
10131    <time>2016-01-06T10:24:35Z</time>
10132   </trkpt>
10133   <trkpt lat="49.1323300" lon="16.5357480">
10134    <ele>224.9</ele>
10135    <time>2016-01-06T10:24:37Z</time>
10136   </trkpt>
10137   <trkpt lat="49.1323540" lon="16.5357020">
10138    <ele>225.0</ele>
10139    <time>2016-01-06T10:24:38Z</time>
10140   </trkpt>
10141   <trkpt lat="49.1323810" lon="16.5356510">
10142    <ele>224.9</ele>
10143    <time>2016-01-06T10:24:39Z</time>
10144   </trkpt>
10145   <trkpt lat="49.1324120" lon="16.5355970">
10146    <ele>224.8</ele>
10147    <time>2016-01-06T10:24:40Z</time>
10148   </trkpt>
10149   <trkpt lat="49.1324390" lon="16.5355430">
10150    <ele>224.7</ele>
10151    <time>2016-01-06T10:24:41Z</time>
10152   </trkpt>
10153   <trkpt lat="49.1324690" lon="16.5354810">
10154    <ele>224.8</ele>
10155    <time>2016-01-06T10:24:42Z</time>
10156   </trkpt>
10157   <trkpt lat="49.1325200" lon="16.5353670">
10158    <ele>225.2</ele>
10159    <time>2016-01-06T10:24:44Z</time>
10160   </trkpt>
10161   <trkpt lat="49.1325530" lon="16.5353080">
10162    <ele>225.3</ele>
10163    <time>2016-01-06T10:24:45Z</time>
10164   </trkpt>
10165   <trkpt lat="49.1325860" lon="16.5352480">
10166    <ele>225.4</ele>
10167    <time>2016-01-06T10:24:46Z</time>
10168   </trkpt>
10169   <trkpt lat="49.1326440" lon="16.5351700">
10170    <ele>225.5</ele>
10171    <time>2016-01-06T10:24:48Z</time>
10172   </trkpt>
10173   <trkpt lat="49.1326720" lon="16.5351290">
10174    <ele>225.6</ele>
10175    <time>2016-01-06T10:24:49Z</time>
10176   </trkpt>
10177   <trkpt lat="49.1326970" lon="16.5350910">
10178    <ele>225.5</ele>
10179    <time>2016-01-06T10:24:50Z</time>
10180   </trkpt>
10181   <trkpt lat="49.1327520" lon="16.5350110">
10182    <ele>225.5</ele>
10183    <time>2016-01-06T10:24:52Z</time>
10184   </trkpt>
10185   <trkpt lat="49.1327870" lon="16.5349680">
10186    <ele>225.6</ele>
10187    <time>2016-01-06T10:24:53Z</time>
10188   </trkpt>
10189   <trkpt lat="49.1328670" lon="16.5348720">
10190    <ele>225.7</ele>
10191    <time>2016-01-06T10:24:55Z</time>